<?xml version='1.0' encoding='UTF-8'?><gpx version="1.1" creator="JPX - https://github.com/jenetics/jpx" xmlns="http://www.topografix.com/GPX/1/1"><trk><trkseg><trkpt lat="44.1507531" lon="10.4124176"><ele>546.0</ele><time>2026-03-31T10:21:52Z</time></trkpt><trkpt lat="44.1507665" lon="10.4123108"><ele>546.0</ele><time>2026-03-31T10:21:52.999Z</time></trkpt><trkpt lat="44.1507894" lon="10.4121584"><ele>546.0</ele><time>2026-03-31T10:21:54.999Z</time></trkpt><trkpt lat="44.150879" lon="10.4121032"><ele>546.0</ele><time>2026-03-31T10:21:57Z</time></trkpt><trkpt lat="44.1509621" lon="10.4120969"><ele>546.0</ele><time>2026-03-31T10:21:58.999Z</time></trkpt><trkpt lat="44.1510281" lon="10.4120818"><ele>546.0</ele><time>2026-03-31T10:22:01Z</time></trkpt><trkpt lat="44.1510893" lon="10.4119991"><ele>543.0</ele><time>2026-03-31T10:22:04Z</time></trkpt><trkpt lat="44.1510216" lon="10.4118908"><ele>540.0</ele><time>2026-03-31T10:22:06Z</time></trkpt><trkpt lat="44.1509422" lon="10.4118159"><ele>537.0</ele><time>2026-03-31T10:22:07.999Z</time></trkpt><trkpt lat="44.1508489" lon="10.4117716"><ele>534.0</ele><time>2026-03-31T10:22:09.999Z</time></trkpt><trkpt lat="44.1507457" lon="10.4117723"><ele>531.0</ele><time>2026-03-31T10:22:12Z</time></trkpt><trkpt lat="44.1506299" lon="10.4117741"><ele>530.8333333333334</ele><time>2026-03-31T10:22:14Z</time></trkpt><trkpt lat="44.1505649" lon="10.4117592"><ele>530.6666666666666</ele><time>2026-03-31T10:22:15Z</time></trkpt><trkpt lat="44.1504942" lon="10.4117348"><ele>530.5</ele><time>2026-03-31T10:22:15.999Z</time></trkpt><trkpt lat="44.1504186" lon="10.4117037"><ele>530.3333333333333</ele><time>2026-03-31T10:22:17Z</time></trkpt><trkpt lat="44.1503465" lon="10.411666"><ele>530.1666666666666</ele><time>2026-03-31T10:22:18Z</time></trkpt><trkpt lat="44.1502698" lon="10.4116246"><ele>530.0</ele><time>2026-03-31T10:22:18.999Z</time></trkpt><trkpt lat="44.1501919" lon="10.4115887"><ele>530.0</ele><time>2026-03-31T10:22:20Z</time></trkpt><trkpt lat="44.1501166" lon="10.4115499"><ele>530.0</ele><time>2026-03-31T10:22:21Z</time></trkpt><trkpt lat="44.150029" lon="10.4115123"><ele>530.0</ele><time>2026-03-31T10:22:22Z</time></trkpt><trkpt lat="44.149944" lon="10.4114673"><ele>530.0</ele><time>2026-03-31T10:22:22.999Z</time></trkpt><trkpt lat="44.1498571" lon="10.4114266"><ele>530.0</ele><time>2026-03-31T10:22:23.999Z</time></trkpt><trkpt lat="44.1497704" lon="10.4113791"><ele>530.0</ele><time>2026-03-31T10:22:25Z</time></trkpt><trkpt lat="44.1496849" lon="10.411337"><ele>531.0</ele><time>2026-03-31T10:22:25.999Z</time></trkpt><trkpt lat="44.149601" lon="10.4112906"><ele>532.0</ele><time>2026-03-31T10:22:26.999Z</time></trkpt><trkpt lat="44.1495238" lon="10.4112458"><ele>533.0</ele><time>2026-03-31T10:22:28Z</time></trkpt><trkpt lat="44.1494501" lon="10.4111927"><ele>534.0</ele><time>2026-03-31T10:22:29Z</time></trkpt><trkpt lat="44.1493823" lon="10.4111593"><ele>535.0</ele><time>2026-03-31T10:22:30Z</time></trkpt><trkpt lat="44.1493191" lon="10.411129"><ele>536.0</ele><time>2026-03-31T10:22:31Z</time></trkpt><trkpt lat="44.1492601" lon="10.4110974"><ele>536.0</ele><time>2026-03-31T10:22:32Z</time></trkpt><trkpt lat="44.1491866" lon="10.4111117"><ele>536.0</ele><time>2026-03-31T10:22:33.999Z</time></trkpt><trkpt lat="44.1491438" lon="10.4111942"><ele>536.0</ele><time>2026-03-31T10:22:38Z</time></trkpt><trkpt lat="44.14914" lon="10.4113834"><ele>536.0</ele><time>2026-03-31T10:22:39Z</time></trkpt><trkpt lat="44.1491402" lon="10.411474"><ele>536.0</ele><time>2026-03-31T10:22:39.999Z</time></trkpt><trkpt lat="44.149176" lon="10.4115792"><ele>536.0</ele><time>2026-03-31T10:22:40.999Z</time></trkpt><trkpt lat="44.1491852" lon="10.4117103"><ele>533.6</ele><time>2026-03-31T10:22:43Z</time></trkpt><trkpt lat="44.1491806" lon="10.4118009"><ele>531.2</ele><time>2026-03-31T10:22:45Z</time></trkpt><trkpt lat="44.1491258" lon="10.4119101"><ele>528.8</ele><time>2026-03-31T10:22:48Z</time></trkpt><trkpt lat="44.1491092" lon="10.4120413"><ele>526.4</ele><time>2026-03-31T10:22:50Z</time></trkpt><trkpt lat="44.149106" lon="10.4121856"><ele>524.0</ele><time>2026-03-31T10:22:51.999Z</time></trkpt><trkpt lat="44.1491255" lon="10.412347"><ele>523.0</ele><time>2026-03-31T10:22:54Z</time></trkpt><trkpt lat="44.1491196" lon="10.4125329"><ele>522.0</ele><time>2026-03-31T10:22:56Z</time></trkpt><trkpt lat="44.1490945" lon="10.4126334"><ele>521.0</ele><time>2026-03-31T10:22:57Z</time></trkpt><trkpt lat="44.1490802" lon="10.4127375"><ele>520.0</ele><time>2026-03-31T10:22:58Z</time></trkpt><trkpt lat="44.1490682" lon="10.4128321"><ele>519.0</ele><time>2026-03-31T10:22:58.999Z</time></trkpt><trkpt lat="44.149008" lon="10.4129734"><ele>514.2</ele><time>2026-03-31T10:23:00.999Z</time></trkpt><trkpt lat="44.1489066" lon="10.4130318"><ele>509.4</ele><time>2026-03-31T10:23:02.999Z</time></trkpt><trkpt lat="44.148762" lon="10.4130538"><ele>504.6</ele><time>2026-03-31T10:23:05Z</time></trkpt><trkpt lat="44.1486751" lon="10.4130788"><ele>499.8</ele><time>2026-03-31T10:23:06Z</time></trkpt><trkpt lat="44.1486003" lon="10.4131199"><ele>495.0</ele><time>2026-03-31T10:23:06.999Z</time></trkpt><trkpt lat="44.148532" lon="10.4131713"><ele>495.0</ele><time>2026-03-31T10:23:08Z</time></trkpt><trkpt lat="44.1484741" lon="10.4132186"><ele>495.0</ele><time>2026-03-31T10:23:08.999Z</time></trkpt><trkpt lat="44.148376" lon="10.4132916"><ele>495.0</ele><time>2026-03-31T10:23:11Z</time></trkpt><trkpt lat="44.1483006" lon="10.4133011"><ele>495.0</ele><time>2026-03-31T10:23:13Z</time></trkpt><trkpt lat="44.1482165" lon="10.4133885"><ele>495.0</ele><time>2026-03-31T10:23:15Z</time></trkpt><trkpt lat="44.148122" lon="10.4134125"><ele>494.3333333333333</ele><time>2026-03-31T10:23:17Z</time></trkpt><trkpt lat="44.1480384" lon="10.4133969"><ele>493.66666666666663</ele><time>2026-03-31T10:23:18.999Z</time></trkpt><trkpt lat="44.1479564" lon="10.4133604"><ele>493.0</ele><time>2026-03-31T10:23:21Z</time></trkpt><trkpt lat="44.1478919" lon="10.4133068"><ele>492.3333333333333</ele><time>2026-03-31T10:23:23Z</time></trkpt><trkpt lat="44.1478358" lon="10.4132588"><ele>491.66666666666663</ele><time>2026-03-31T10:23:26Z</time></trkpt><trkpt lat="44.1477885" lon="10.413193"><ele>491.0</ele><time>2026-03-31T10:23:29Z</time></trkpt><trkpt lat="44.1477199" lon="10.4131292"><ele>490.99999999999994</ele><time>2026-03-31T10:23:33Z</time></trkpt><trkpt lat="44.1476617" lon="10.4130919"><ele>491.0</ele><time>2026-03-31T10:23:36Z</time></trkpt><trkpt lat="44.1475867" lon="10.4130761"><ele>491.0</ele><time>2026-03-31T10:23:40Z</time></trkpt><trkpt lat="44.1475177" lon="10.4130908"><ele>491.0</ele><time>2026-03-31T10:23:43.999Z</time></trkpt><trkpt lat="44.1474478" lon="10.4130927"><ele>490.99999999999994</ele><time>2026-03-31T10:23:48Z</time></trkpt><trkpt lat="44.1473683" lon="10.413151"><ele>491.0</ele><time>2026-03-31T10:23:51.999Z</time></trkpt><trkpt lat="44.1473228" lon="10.4132711"><ele>490.3333333333333</ele><time>2026-03-31T10:23:55Z</time></trkpt><trkpt lat="44.1472861" lon="10.4133489"><ele>489.66666666666663</ele><time>2026-03-31T10:23:57Z</time></trkpt><trkpt lat="44.1472017" lon="10.4133883"><ele>489.0</ele><time>2026-03-31T10:23:59Z</time></trkpt><trkpt lat="44.1471308" lon="10.4134001"><ele>488.33333333333337</ele><time>2026-03-31T10:24:00Z</time></trkpt><trkpt lat="44.1470416" lon="10.4134176"><ele>487.6666666666667</ele><time>2026-03-31T10:24:00.999Z</time></trkpt><trkpt lat="44.1469649" lon="10.4134388"><ele>487.0</ele><time>2026-03-31T10:24:01.999Z</time></trkpt><trkpt lat="44.1468912" lon="10.4134573"><ele>487.00000000000006</ele><time>2026-03-31T10:24:03Z</time></trkpt><trkpt lat="44.146778" lon="10.4134735"><ele>487.0</ele><time>2026-03-31T10:24:04.999Z</time></trkpt><trkpt lat="44.146714" lon="10.4135457"><ele>487.0</ele><time>2026-03-31T10:24:07.999Z</time></trkpt><trkpt lat="44.1466738" lon="10.4136282"><ele>487.0</ele><time>2026-03-31T10:24:09.999Z</time></trkpt><trkpt lat="44.1466082" lon="10.4136901"><ele>487.00000000000006</ele><time>2026-03-31T10:24:13Z</time></trkpt><trkpt lat="44.1465299" lon="10.4136739"><ele>487.0</ele><time>2026-03-31T10:24:15Z</time></trkpt><trkpt lat="44.1464367" lon="10.4136341"><ele>484.00000000000006</ele><time>2026-03-31T10:24:17Z</time></trkpt><trkpt lat="44.1463622" lon="10.4135797"><ele>481.0</ele><time>2026-03-31T10:24:20Z</time></trkpt><trkpt lat="44.1462727" lon="10.4135828"><ele>478.0</ele><time>2026-03-31T10:24:23Z</time></trkpt><trkpt lat="44.1462076" lon="10.4135698"><ele>475.0</ele><time>2026-03-31T10:24:25Z</time></trkpt><trkpt lat="44.1461343" lon="10.4135533"><ele>472.00000000000006</ele><time>2026-03-31T10:24:28Z</time></trkpt><trkpt lat="44.1460796" lon="10.4136018"><ele>469.0</ele><time>2026-03-31T10:24:31Z</time></trkpt><trkpt lat="44.1460536" lon="10.413703"><ele>469.00000000000006</ele><time>2026-03-31T10:24:34Z</time></trkpt><trkpt lat="44.1459816" lon="10.4137133"><ele>469.0</ele><time>2026-03-31T10:24:36.999Z</time></trkpt><trkpt lat="44.1458921" lon="10.4137166"><ele>469.0</ele><time>2026-03-31T10:24:40.999Z</time></trkpt><trkpt lat="44.1457999" lon="10.4137165"><ele>469.0</ele><time>2026-03-31T10:24:43Z</time></trkpt><trkpt lat="44.1457192" lon="10.4137242"><ele>469.00000000000006</ele><time>2026-03-31T10:24:45Z</time></trkpt><trkpt lat="44.1456408" lon="10.4137637"><ele>469.0</ele><time>2026-03-31T10:24:47Z</time></trkpt><trkpt lat="44.1455988" lon="10.4138734"><ele>464.00000000000006</ele><time>2026-03-31T10:24:49Z</time></trkpt><trkpt lat="44.1455712" lon="10.4140282"><ele>459.0</ele><time>2026-03-31T10:24:50.999Z</time></trkpt><trkpt lat="44.145575" lon="10.4141599"><ele>454.0</ele><time>2026-03-31T10:24:53Z</time></trkpt><trkpt lat="44.145539" lon="10.4142676"><ele>449.0</ele><time>2026-03-31T10:24:55Z</time></trkpt><trkpt lat="44.1454852" lon="10.4143518"><ele>444.00000000000006</ele><time>2026-03-31T10:24:57Z</time></trkpt><trkpt lat="44.145459" lon="10.4144399"><ele>439.0</ele><time>2026-03-31T10:24:58Z</time></trkpt><trkpt lat="44.1454084" lon="10.4145794"><ele>437.33333333333337</ele><time>2026-03-31T10:25:00Z</time></trkpt><trkpt lat="44.1453691" lon="10.4146882"><ele>435.6666666666667</ele><time>2026-03-31T10:25:02Z</time></trkpt><trkpt lat="44.1453145" lon="10.4147669"><ele>434.0</ele><time>2026-03-31T10:25:04Z</time></trkpt><trkpt lat="44.1452588" lon="10.4148442"><ele>432.33333333333337</ele><time>2026-03-31T10:25:06Z</time></trkpt><trkpt lat="44.1451911" lon="10.4148677"><ele>430.6666666666667</ele><time>2026-03-31T10:25:08Z</time></trkpt><trkpt lat="44.1451209" lon="10.4149295"><ele>429.0</ele><time>2026-03-31T10:25:11Z</time></trkpt><trkpt lat="44.1450611" lon="10.4149586"><ele>429.0</ele><time>2026-03-31T10:25:14Z</time></trkpt><trkpt lat="44.1449994" lon="10.4150102"><ele>429.0</ele><time>2026-03-31T10:25:16.999Z</time></trkpt><trkpt lat="44.1449369" lon="10.4150336"><ele>429.0</ele><time>2026-03-31T10:25:20.999Z</time></trkpt><trkpt lat="44.1448722" lon="10.4150047"><ele>429.0</ele><time>2026-03-31T10:25:25.999Z</time></trkpt><trkpt lat="44.1447589" lon="10.4149491"><ele>429.0</ele><time>2026-03-31T10:25:28.999Z</time></trkpt><trkpt lat="44.1446767" lon="10.4149148"><ele>429.0</ele><time>2026-03-31T10:25:30.999Z</time></trkpt><trkpt lat="44.1446133" lon="10.414878"><ele>427.3333333333333</ele><time>2026-03-31T10:25:32.999Z</time></trkpt><trkpt lat="44.1445444" lon="10.4148477"><ele>425.66666666666663</ele><time>2026-03-31T10:25:36Z</time></trkpt><trkpt lat="44.1444692" lon="10.4148284"><ele>424.0</ele><time>2026-03-31T10:25:42Z</time></trkpt><trkpt lat="44.1444046" lon="10.4148038"><ele>422.3333333333333</ele><time>2026-03-31T10:25:45Z</time></trkpt><trkpt lat="44.1443129" lon="10.4147841"><ele>420.66666666666663</ele><time>2026-03-31T10:25:48Z</time></trkpt><trkpt lat="44.1442378" lon="10.4148245"><ele>419.0</ele><time>2026-03-31T10:25:49.999Z</time></trkpt><trkpt lat="44.1441616" lon="10.4149214"><ele>419.0</ele><time>2026-03-31T10:25:51.999Z</time></trkpt><trkpt lat="44.1440976" lon="10.415036"><ele>419.0</ele><time>2026-03-31T10:25:54Z</time></trkpt><trkpt lat="44.1440025" lon="10.4150977"><ele>419.0</ele><time>2026-03-31T10:25:56Z</time></trkpt><trkpt lat="44.1438911" lon="10.4150543"><ele>419.0</ele><time>2026-03-31T10:25:58Z</time></trkpt><trkpt lat="44.143824" lon="10.4150276"><ele>419.0</ele><time>2026-03-31T10:25:58.999Z</time></trkpt><trkpt lat="44.1437505" lon="10.4150019"><ele>418.3333333333333</ele><time>2026-03-31T10:25:59.999Z</time></trkpt><trkpt lat="44.1436755" lon="10.4149817"><ele>417.66666666666663</ele><time>2026-03-31T10:26:01Z</time></trkpt><trkpt lat="44.1436026" lon="10.4149562"><ele>417.0</ele><time>2026-03-31T10:26:01.999Z</time></trkpt><trkpt lat="44.1435276" lon="10.4149311"><ele>416.33333333333337</ele><time>2026-03-31T10:26:02.999Z</time></trkpt><trkpt lat="44.1434563" lon="10.4149051"><ele>415.6666666666667</ele><time>2026-03-31T10:26:03.999Z</time></trkpt><trkpt lat="44.1433684" lon="10.4148793"><ele>415.0</ele><time>2026-03-31T10:26:05Z</time></trkpt><trkpt lat="44.1432803" lon="10.4148709"><ele>412.6</ele><time>2026-03-31T10:26:06Z</time></trkpt><trkpt lat="44.1431837" lon="10.4148704"><ele>410.2</ele><time>2026-03-31T10:26:07Z</time></trkpt><trkpt lat="44.1430856" lon="10.4148945"><ele>407.79999999999995</ele><time>2026-03-31T10:26:07.999Z</time></trkpt><trkpt lat="44.1429888" lon="10.4149162"><ele>405.4</ele><time>2026-03-31T10:26:09Z</time></trkpt><trkpt lat="44.1428867" lon="10.4149368"><ele>403.0</ele><time>2026-03-31T10:26:10Z</time></trkpt><trkpt lat="44.1427845" lon="10.414944"><ele>403.0</ele><time>2026-03-31T10:26:11Z</time></trkpt><trkpt lat="44.1426761" lon="10.4149444"><ele>403.0</ele><time>2026-03-31T10:26:12Z</time></trkpt><trkpt lat="44.1425616" lon="10.414936"><ele>403.0</ele><time>2026-03-31T10:26:12.999Z</time></trkpt><trkpt lat="44.1424456" lon="10.414921"><ele>403.0</ele><time>2026-03-31T10:26:14Z</time></trkpt><trkpt lat="44.1423384" lon="10.4148941"><ele>403.0</ele><time>2026-03-31T10:26:15Z</time></trkpt><trkpt lat="44.1422291" lon="10.4148717"><ele>401.5</ele><time>2026-03-31T10:26:16Z</time></trkpt><trkpt lat="44.1421117" lon="10.4148557"><ele>400.0</ele><time>2026-03-31T10:26:17Z</time></trkpt><trkpt lat="44.1419894" lon="10.4148343"><ele>398.5</ele><time>2026-03-31T10:26:18Z</time></trkpt><trkpt lat="44.141866" lon="10.4148376"><ele>397.0</ele><time>2026-03-31T10:26:19Z</time></trkpt><trkpt lat="44.1417404" lon="10.4148568"><ele>397.0</ele><time>2026-03-31T10:26:19.999Z</time></trkpt><trkpt lat="44.1416233" lon="10.4148879"><ele>397.0</ele><time>2026-03-31T10:26:21Z</time></trkpt><trkpt lat="44.1415099" lon="10.4149142"><ele>397.0</ele><time>2026-03-31T10:26:22Z</time></trkpt><trkpt lat="44.1414094" lon="10.4149282"><ele>397.0</ele><time>2026-03-31T10:26:23Z</time></trkpt><trkpt lat="44.1413135" lon="10.4149238"><ele>397.0</ele><time>2026-03-31T10:26:24Z</time></trkpt><trkpt lat="44.1412284" lon="10.4148884"><ele>396.20000000000005</ele><time>2026-03-31T10:26:25Z</time></trkpt><trkpt lat="44.1411657" lon="10.4148086"><ele>395.4</ele><time>2026-03-31T10:26:26Z</time></trkpt><trkpt lat="44.1411222" lon="10.4147011"><ele>394.6</ele><time>2026-03-31T10:26:27Z</time></trkpt><trkpt lat="44.1411032" lon="10.4145733"><ele>393.79999999999995</ele><time>2026-03-31T10:26:28Z</time></trkpt><trkpt lat="44.1410904" lon="10.4144427"><ele>393.0</ele><time>2026-03-31T10:26:29Z</time></trkpt><trkpt lat="44.1410593" lon="10.4143246"><ele>393.0</ele><time>2026-03-31T10:26:30Z</time></trkpt><trkpt lat="44.1410015" lon="10.4142243"><ele>393.0</ele><time>2026-03-31T10:26:30.999Z</time></trkpt><trkpt lat="44.1409301" lon="10.4141688"><ele>393.0</ele><time>2026-03-31T10:26:32Z</time></trkpt><trkpt lat="44.1408566" lon="10.4141138"><ele>393.0</ele><time>2026-03-31T10:26:32.999Z</time></trkpt><trkpt lat="44.1407689" lon="10.414199"><ele>393.0</ele><time>2026-03-31T10:26:33.999Z</time></trkpt><trkpt lat="44.1407028" lon="10.4142595"><ele>393.0</ele><time>2026-03-31T10:26:35Z</time></trkpt><trkpt lat="44.1406701" lon="10.4143784"><ele>391.0</ele><time>2026-03-31T10:26:36Z</time></trkpt><trkpt lat="44.1406534" lon="10.4144944"><ele>389.0</ele><time>2026-03-31T10:26:37Z</time></trkpt><trkpt lat="44.1406552" lon="10.4146093"><ele>387.0</ele><time>2026-03-31T10:26:38Z</time></trkpt><trkpt lat="44.140659" lon="10.4147302"><ele>385.0</ele><time>2026-03-31T10:26:38.999Z</time></trkpt><trkpt lat="44.140664" lon="10.4148505"><ele>383.0</ele><time>2026-03-31T10:26:39.999Z</time></trkpt><trkpt lat="44.1406688" lon="10.4149665"><ele>381.0</ele><time>2026-03-31T10:26:40.999Z</time></trkpt><trkpt lat="44.1406738" lon="10.415084"><ele>380.5</ele><time>2026-03-31T10:26:42Z</time></trkpt><trkpt lat="44.1406761" lon="10.4152034"><ele>380.0</ele><time>2026-03-31T10:26:42.999Z</time></trkpt><trkpt lat="44.1406769" lon="10.4153205"><ele>379.5</ele><time>2026-03-31T10:26:44Z</time></trkpt><trkpt lat="44.1406802" lon="10.4154295"><ele>379.0</ele><time>2026-03-31T10:26:44.999Z</time></trkpt><trkpt lat="44.1406778" lon="10.4155379"><ele>378.5</ele><time>2026-03-31T10:26:46Z</time></trkpt><trkpt lat="44.1406714" lon="10.415644"><ele>378.0</ele><time>2026-03-31T10:26:46.999Z</time></trkpt><trkpt lat="44.1406596" lon="10.4157443"><ele>378.0</ele><time>2026-03-31T10:26:48Z</time></trkpt><trkpt lat="44.1406458" lon="10.4158414"><ele>378.0</ele><time>2026-03-31T10:26:49Z</time></trkpt><trkpt lat="44.1406278" lon="10.4159287"><ele>378.0</ele><time>2026-03-31T10:26:50Z</time></trkpt><trkpt lat="44.1406154" lon="10.4160172"><ele>378.0</ele><time>2026-03-31T10:26:51Z</time></trkpt><trkpt lat="44.1405926" lon="10.4161776"><ele>378.0</ele><time>2026-03-31T10:26:53Z</time></trkpt><trkpt lat="44.1405669" lon="10.4163345"><ele>378.0</ele><time>2026-03-31T10:26:55Z</time></trkpt><trkpt lat="44.1405499" lon="10.4164799"><ele>378.0</ele><time>2026-03-31T10:26:56.999Z</time></trkpt><trkpt lat="44.1405261" lon="10.4166132"><ele>378.0</ele><time>2026-03-31T10:26:58.999Z</time></trkpt><trkpt lat="44.1405153" lon="10.4167349"><ele>378.0</ele><time>2026-03-31T10:27:01Z</time></trkpt><trkpt lat="44.1404991" lon="10.4168472"><ele>378.0</ele><time>2026-03-31T10:27:03Z</time></trkpt><trkpt lat="44.1404866" lon="10.4169577"><ele>378.0</ele><time>2026-03-31T10:27:04.999Z</time></trkpt><trkpt lat="44.1404712" lon="10.4170638"><ele>378.0</ele><time>2026-03-31T10:27:07Z</time></trkpt><trkpt lat="44.1404542" lon="10.4171672"><ele>378.7142857142857</ele><time>2026-03-31T10:27:09Z</time></trkpt><trkpt lat="44.1404414" lon="10.4172639"><ele>379.42857142857144</ele><time>2026-03-31T10:27:11Z</time></trkpt><trkpt lat="44.1404292" lon="10.4173587"><ele>380.1428571428571</ele><time>2026-03-31T10:27:13Z</time></trkpt><trkpt lat="44.1404134" lon="10.4174637"><ele>380.8571428571429</ele><time>2026-03-31T10:27:14.999Z</time></trkpt><trkpt lat="44.1403983" lon="10.417552"><ele>381.57142857142856</ele><time>2026-03-31T10:27:16.999Z</time></trkpt><trkpt lat="44.1403832" lon="10.4176494"><ele>382.2857142857143</ele><time>2026-03-31T10:27:19Z</time></trkpt><trkpt lat="44.1403571" lon="10.417749"><ele>383.0</ele><time>2026-03-31T10:27:20.999Z</time></trkpt><trkpt lat="44.1403205" lon="10.4178565"><ele>383.0</ele><time>2026-03-31T10:27:22.999Z</time></trkpt><trkpt lat="44.1402789" lon="10.4179466"><ele>383.0</ele><time>2026-03-31T10:27:25Z</time></trkpt><trkpt lat="44.1402275" lon="10.4180192"><ele>383.0</ele><time>2026-03-31T10:27:27Z</time></trkpt><trkpt lat="44.1401722" lon="10.4180781"><ele>383.0</ele><time>2026-03-31T10:27:29Z</time></trkpt><trkpt lat="44.1401077" lon="10.4181227"><ele>383.0</ele><time>2026-03-31T10:27:31Z</time></trkpt><trkpt lat="44.1400433" lon="10.4181513"><ele>383.0</ele><time>2026-03-31T10:27:32.999Z</time></trkpt><trkpt lat="44.1399487" lon="10.4181639"><ele>384.85714285714283</ele><time>2026-03-31T10:27:36Z</time></trkpt><trkpt lat="44.1398801" lon="10.4181731"><ele>386.71428571428567</ele><time>2026-03-31T10:27:38Z</time></trkpt><trkpt lat="44.1397864" lon="10.4181799"><ele>388.57142857142856</ele><time>2026-03-31T10:27:41Z</time></trkpt><trkpt lat="44.139721" lon="10.4181873"><ele>390.42857142857144</ele><time>2026-03-31T10:27:42.999Z</time></trkpt><trkpt lat="44.1396557" lon="10.4181902"><ele>392.2857142857143</ele><time>2026-03-31T10:27:45Z</time></trkpt><trkpt lat="44.1395905" lon="10.4181954"><ele>394.14285714285717</ele><time>2026-03-31T10:27:46.999Z</time></trkpt><trkpt lat="44.1395229" lon="10.4182017"><ele>396.0</ele><time>2026-03-31T10:27:49Z</time></trkpt><trkpt lat="44.139457" lon="10.4182068"><ele>396.0</ele><time>2026-03-31T10:27:51Z</time></trkpt><trkpt lat="44.1393859" lon="10.4182063"><ele>396.0</ele><time>2026-03-31T10:27:52.999Z</time></trkpt><trkpt lat="44.1393135" lon="10.4182022"><ele>396.0</ele><time>2026-03-31T10:27:55Z</time></trkpt><trkpt lat="44.139241" lon="10.4181934"><ele>396.0</ele><time>2026-03-31T10:27:56.999Z</time></trkpt><trkpt lat="44.139166" lon="10.4181787"><ele>396.0</ele><time>2026-03-31T10:27:59Z</time></trkpt><trkpt lat="44.139089" lon="10.4181646"><ele>396.0</ele><time>2026-03-31T10:28:01Z</time></trkpt><trkpt lat="44.1390122" lon="10.4181585"><ele>396.0</ele><time>2026-03-31T10:28:03Z</time></trkpt><trkpt lat="44.1389351" lon="10.4181593"><ele>397.0</ele><time>2026-03-31T10:28:05Z</time></trkpt><trkpt lat="44.1388617" lon="10.4181656"><ele>398.0</ele><time>2026-03-31T10:28:07Z</time></trkpt><trkpt lat="44.1387859" lon="10.4181712"><ele>399.0</ele><time>2026-03-31T10:28:09Z</time></trkpt><trkpt lat="44.1387123" lon="10.4181727"><ele>400.0</ele><time>2026-03-31T10:28:11Z</time></trkpt><trkpt lat="44.1386383" lon="10.4181708"><ele>401.0</ele><time>2026-03-31T10:28:13Z</time></trkpt><trkpt lat="44.1385646" lon="10.4181678"><ele>402.0</ele><time>2026-03-31T10:28:15Z</time></trkpt><trkpt lat="44.1384896" lon="10.4181653"><ele>403.0</ele><time>2026-03-31T10:28:16.999Z</time></trkpt><trkpt lat="44.1384157" lon="10.4181506"><ele>403.0</ele><time>2026-03-31T10:28:18.999Z</time></trkpt><trkpt lat="44.1383418" lon="10.4181287"><ele>403.0</ele><time>2026-03-31T10:28:21Z</time></trkpt><trkpt lat="44.1382807" lon="10.4181002"><ele>403.0</ele><time>2026-03-31T10:28:23Z</time></trkpt><trkpt lat="44.1382153" lon="10.4180646"><ele>403.0</ele><time>2026-03-31T10:28:24.999Z</time></trkpt><trkpt lat="44.1381436" lon="10.4180268"><ele>403.0</ele><time>2026-03-31T10:28:27Z</time></trkpt><trkpt lat="44.1380769" lon="10.4179803"><ele>403.0</ele><time>2026-03-31T10:28:29Z</time></trkpt><trkpt lat="44.1380147" lon="10.4179289"><ele>403.0</ele><time>2026-03-31T10:28:31Z</time></trkpt><trkpt lat="44.1379533" lon="10.4178774"><ele>402.50000000000006</ele><time>2026-03-31T10:28:32.999Z</time></trkpt><trkpt lat="44.1378901" lon="10.4178182"><ele>402.0</ele><time>2026-03-31T10:28:34.999Z</time></trkpt><trkpt lat="44.1378281" lon="10.4177548"><ele>401.5</ele><time>2026-03-31T10:28:37Z</time></trkpt><trkpt lat="44.1377684" lon="10.4176945"><ele>401.0</ele><time>2026-03-31T10:28:39Z</time></trkpt><trkpt lat="44.1377076" lon="10.4176366"><ele>400.50000000000006</ele><time>2026-03-31T10:28:41Z</time></trkpt><trkpt lat="44.1376473" lon="10.4175707"><ele>400.0</ele><time>2026-03-31T10:28:43Z</time></trkpt><trkpt lat="44.1375901" lon="10.4175043"><ele>400.00000000000006</ele><time>2026-03-31T10:28:45Z</time></trkpt><trkpt lat="44.1375304" lon="10.4174429"><ele>400.0</ele><time>2026-03-31T10:28:47Z</time></trkpt><trkpt lat="44.1374747" lon="10.4173815"><ele>400.0</ele><time>2026-03-31T10:28:48.999Z</time></trkpt><trkpt lat="44.1374218" lon="10.4173222"><ele>400.0</ele><time>2026-03-31T10:28:51Z</time></trkpt><trkpt lat="44.1373698" lon="10.4172639"><ele>400.00000000000006</ele><time>2026-03-31T10:28:53Z</time></trkpt><trkpt lat="44.1373073" lon="10.4171964"><ele>400.0</ele><time>2026-03-31T10:28:55Z</time></trkpt><trkpt lat="44.1372303" lon="10.4171117"><ele>399.00000000000006</ele><time>2026-03-31T10:28:57Z</time></trkpt><trkpt lat="44.1371456" lon="10.4170146"><ele>398.0</ele><time>2026-03-31T10:28:58.999Z</time></trkpt><trkpt lat="44.1370432" lon="10.4169074"><ele>397.0</ele><time>2026-03-31T10:29:01Z</time></trkpt><trkpt lat="44.1369896" lon="10.4168534"><ele>396.0</ele><time>2026-03-31T10:29:01.999Z</time></trkpt><trkpt lat="44.1369329" lon="10.4167983"><ele>395.00000000000006</ele><time>2026-03-31T10:29:03Z</time></trkpt><trkpt lat="44.1368766" lon="10.4167366"><ele>394.0</ele><time>2026-03-31T10:29:03.999Z</time></trkpt><trkpt lat="44.1368173" lon="10.4166718"><ele>394.00000000000006</ele><time>2026-03-31T10:29:05Z</time></trkpt><trkpt lat="44.1367552" lon="10.416607"><ele>394.0</ele><time>2026-03-31T10:29:06Z</time></trkpt><trkpt lat="44.1366911" lon="10.4165424"><ele>394.0</ele><time>2026-03-31T10:29:06.999Z</time></trkpt><trkpt lat="44.1366243" lon="10.4164735"><ele>394.0</ele><time>2026-03-31T10:29:08Z</time></trkpt><trkpt lat="44.1365578" lon="10.4164013"><ele>394.00000000000006</ele><time>2026-03-31T10:29:09Z</time></trkpt><trkpt lat="44.1364851" lon="10.4163293"><ele>394.0</ele><time>2026-03-31T10:29:10Z</time></trkpt><trkpt lat="44.1364152" lon="10.4162597"><ele>392.79999999999995</ele><time>2026-03-31T10:29:11Z</time></trkpt><trkpt lat="44.1363428" lon="10.4161939"><ele>391.59999999999997</ele><time>2026-03-31T10:29:12Z</time></trkpt><trkpt lat="44.1362576" lon="10.4161313"><ele>390.4</ele><time>2026-03-31T10:29:12.999Z</time></trkpt><trkpt lat="44.1361713" lon="10.4160727"><ele>389.2</ele><time>2026-03-31T10:29:14Z</time></trkpt><trkpt lat="44.1360854" lon="10.4160262"><ele>388.0</ele><time>2026-03-31T10:29:15Z</time></trkpt><trkpt lat="44.1359941" lon="10.4159776"><ele>388.0</ele><time>2026-03-31T10:29:16Z</time></trkpt><trkpt lat="44.1359016" lon="10.4159357"><ele>388.0</ele><time>2026-03-31T10:29:17Z</time></trkpt><trkpt lat="44.1358081" lon="10.4159005"><ele>388.0</ele><time>2026-03-31T10:29:17.999Z</time></trkpt><trkpt lat="44.1357094" lon="10.4158552"><ele>388.0</ele><time>2026-03-31T10:29:19Z</time></trkpt><trkpt lat="44.1356123" lon="10.4158119"><ele>388.0</ele><time>2026-03-31T10:29:20Z</time></trkpt><trkpt lat="44.1355145" lon="10.415772"><ele>387.2</ele><time>2026-03-31T10:29:21Z</time></trkpt><trkpt lat="44.1354194" lon="10.4157287"><ele>386.4</ele><time>2026-03-31T10:29:21.999Z</time></trkpt><trkpt lat="44.1353175" lon="10.4156804"><ele>385.59999999999997</ele><time>2026-03-31T10:29:23Z</time></trkpt><trkpt lat="44.1352192" lon="10.4156331"><ele>384.79999999999995</ele><time>2026-03-31T10:29:24Z</time></trkpt><trkpt lat="44.135124" lon="10.4155773"><ele>384.0</ele><time>2026-03-31T10:29:25Z</time></trkpt><trkpt lat="44.135026" lon="10.4155218"><ele>384.0</ele><time>2026-03-31T10:29:26Z</time></trkpt><trkpt lat="44.1349282" lon="10.4154667"><ele>384.0</ele><time>2026-03-31T10:29:27Z</time></trkpt><trkpt lat="44.1348298" lon="10.415403"><ele>384.0</ele><time>2026-03-31T10:29:28Z</time></trkpt><trkpt lat="44.1347374" lon="10.415318"><ele>384.0</ele><time>2026-03-31T10:29:28.999Z</time></trkpt><trkpt lat="44.1346526" lon="10.4152228"><ele>384.0</ele><time>2026-03-31T10:29:30Z</time></trkpt><trkpt lat="44.1345656" lon="10.4151316"><ele>383.6</ele><time>2026-03-31T10:29:31Z</time></trkpt><trkpt lat="44.1344784" lon="10.4150365"><ele>383.2</ele><time>2026-03-31T10:29:31.999Z</time></trkpt><trkpt lat="44.1343892" lon="10.4149372"><ele>382.8</ele><time>2026-03-31T10:29:33Z</time></trkpt><trkpt lat="44.1342984" lon="10.414843"><ele>382.40000000000003</ele><time>2026-03-31T10:29:33.999Z</time></trkpt><trkpt lat="44.1342112" lon="10.414748"><ele>382.0</ele><time>2026-03-31T10:29:35Z</time></trkpt><trkpt lat="44.1341245" lon="10.4146548"><ele>381.20000000000005</ele><time>2026-03-31T10:29:36Z</time></trkpt><trkpt lat="44.1340415" lon="10.4145603"><ele>380.4</ele><time>2026-03-31T10:29:37Z</time></trkpt><trkpt lat="44.1339563" lon="10.4144689"><ele>379.6</ele><time>2026-03-31T10:29:38Z</time></trkpt><trkpt lat="44.133872" lon="10.4143747"><ele>378.79999999999995</ele><time>2026-03-31T10:29:39Z</time></trkpt><trkpt lat="44.1337881" lon="10.4142764"><ele>378.0</ele><time>2026-03-31T10:29:40Z</time></trkpt><trkpt lat="44.1337036" lon="10.4141802"><ele>378.0</ele><time>2026-03-31T10:29:41Z</time></trkpt><trkpt lat="44.1336211" lon="10.4140838"><ele>378.0</ele><time>2026-03-31T10:29:42Z</time></trkpt><trkpt lat="44.1335378" lon="10.4139894"><ele>378.0</ele><time>2026-03-31T10:29:43Z</time></trkpt><trkpt lat="44.1334497" lon="10.4139195"><ele>378.0</ele><time>2026-03-31T10:29:44Z</time></trkpt><trkpt lat="44.1333592" lon="10.4138526"><ele>378.0</ele><time>2026-03-31T10:29:45Z</time></trkpt><trkpt lat="44.1332658" lon="10.4138033"><ele>377.0</ele><time>2026-03-31T10:29:46Z</time></trkpt><trkpt lat="44.1331668" lon="10.4137578"><ele>376.0</ele><time>2026-03-31T10:29:46.999Z</time></trkpt><trkpt lat="44.1330728" lon="10.4137099"><ele>375.0</ele><time>2026-03-31T10:29:48Z</time></trkpt><trkpt lat="44.1329721" lon="10.4136667"><ele>374.0</ele><time>2026-03-31T10:29:49Z</time></trkpt><trkpt lat="44.132868" lon="10.4136278"><ele>373.0</ele><time>2026-03-31T10:29:49.999Z</time></trkpt><trkpt lat="44.132764" lon="10.4135821"><ele>373.0</ele><time>2026-03-31T10:29:50.999Z</time></trkpt><trkpt lat="44.1326601" lon="10.4135351"><ele>373.0</ele><time>2026-03-31T10:29:52Z</time></trkpt><trkpt lat="44.1325515" lon="10.4134929"><ele>373.0</ele><time>2026-03-31T10:29:52.999Z</time></trkpt><trkpt lat="44.132443" lon="10.4134474"><ele>373.0</ele><time>2026-03-31T10:29:54Z</time></trkpt><trkpt lat="44.1323271" lon="10.4134048"><ele>371.75</ele><time>2026-03-31T10:29:55Z</time></trkpt><trkpt lat="44.1322101" lon="10.4133592"><ele>370.5</ele><time>2026-03-31T10:29:56Z</time></trkpt><trkpt lat="44.1320926" lon="10.4133127"><ele>369.25</ele><time>2026-03-31T10:29:57Z</time></trkpt><trkpt lat="44.1319787" lon="10.413261"><ele>368.0</ele><time>2026-03-31T10:29:57.999Z</time></trkpt><trkpt lat="44.1318602" lon="10.4132108"><ele>368.0</ele><time>2026-03-31T10:29:59Z</time></trkpt><trkpt lat="44.1317417" lon="10.4131539"><ele>368.0</ele><time>2026-03-31T10:30:00Z</time></trkpt><trkpt lat="44.1316237" lon="10.4130926"><ele>368.0</ele><time>2026-03-31T10:30:01Z</time></trkpt><trkpt lat="44.1315092" lon="10.4130234"><ele>368.0</ele><time>2026-03-31T10:30:02Z</time></trkpt><trkpt lat="44.1313969" lon="10.4129529"><ele>367.0</ele><time>2026-03-31T10:30:02.999Z</time></trkpt><trkpt lat="44.1312839" lon="10.412877"><ele>366.0</ele><time>2026-03-31T10:30:04Z</time></trkpt><trkpt lat="44.1311773" lon="10.4127999"><ele>365.0</ele><time>2026-03-31T10:30:04.999Z</time></trkpt><trkpt lat="44.1310638" lon="10.4127222"><ele>364.0</ele><time>2026-03-31T10:30:06Z</time></trkpt><trkpt lat="44.1309571" lon="10.4126527"><ele>364.0</ele><time>2026-03-31T10:30:07Z</time></trkpt><trkpt lat="44.1308367" lon="10.4125736"><ele>364.0</ele><time>2026-03-31T10:30:07.999Z</time></trkpt><trkpt lat="44.130727" lon="10.4124933"><ele>364.0</ele><time>2026-03-31T10:30:09Z</time></trkpt><trkpt lat="44.1306245" lon="10.4124198"><ele>364.0</ele><time>2026-03-31T10:30:10Z</time></trkpt><trkpt lat="44.1305157" lon="10.412352"><ele>363.75</ele><time>2026-03-31T10:30:11Z</time></trkpt><trkpt lat="44.1304142" lon="10.4122767"><ele>363.5</ele><time>2026-03-31T10:30:12Z</time></trkpt><trkpt lat="44.1303059" lon="10.4122002"><ele>363.25</ele><time>2026-03-31T10:30:13Z</time></trkpt><trkpt lat="44.1302101" lon="10.4121351"><ele>363.0</ele><time>2026-03-31T10:30:13.999Z</time></trkpt><trkpt lat="44.1301089" lon="10.4120713"><ele>362.59999999999997</ele><time>2026-03-31T10:30:14.999Z</time></trkpt><trkpt lat="44.1300029" lon="10.4120192"><ele>362.2</ele><time>2026-03-31T10:30:15.999Z</time></trkpt><trkpt lat="44.1298998" lon="10.4119616"><ele>361.8</ele><time>2026-03-31T10:30:16.999Z</time></trkpt><trkpt lat="44.1297962" lon="10.4118979"><ele>361.4</ele><time>2026-03-31T10:30:17.999Z</time></trkpt><trkpt lat="44.1296938" lon="10.4118457"><ele>361.0</ele><time>2026-03-31T10:30:18.999Z</time></trkpt><trkpt lat="44.1295912" lon="10.411799"><ele>360.0</ele><time>2026-03-31T10:30:20Z</time></trkpt><trkpt lat="44.1294932" lon="10.4117616"><ele>359.0</ele><time>2026-03-31T10:30:21Z</time></trkpt><trkpt lat="44.129407" lon="10.4117282"><ele>358.0</ele><time>2026-03-31T10:30:22Z</time></trkpt><trkpt lat="44.1293327" lon="10.4116951"><ele>357.0</ele><time>2026-03-31T10:30:23Z</time></trkpt><trkpt lat="44.1292611" lon="10.4116678"><ele>356.0</ele><time>2026-03-31T10:30:24Z</time></trkpt><trkpt lat="44.1291903" lon="10.4116428"><ele>355.0</ele><time>2026-03-31T10:30:25Z</time></trkpt><trkpt lat="44.1291084" lon="10.4116099"><ele>354.7142857142857</ele><time>2026-03-31T10:30:26.999Z</time></trkpt><trkpt lat="44.1290493" lon="10.411549"><ele>354.42857142857144</ele><time>2026-03-31T10:30:32.999Z</time></trkpt><trkpt lat="44.1290129" lon="10.4114545"><ele>354.1428571428571</ele><time>2026-03-31T10:30:35.999Z</time></trkpt><trkpt lat="44.1289666" lon="10.4113841"><ele>353.8571428571429</ele><time>2026-03-31T10:30:38Z</time></trkpt><trkpt lat="44.1288978" lon="10.4113665"><ele>353.5714285714286</ele><time>2026-03-31T10:30:39.999Z</time></trkpt><trkpt lat="44.1288241" lon="10.4113837"><ele>353.2857142857143</ele><time>2026-03-31T10:30:42Z</time></trkpt><trkpt lat="44.1287432" lon="10.4113856"><ele>353.0</ele><time>2026-03-31T10:30:44Z</time></trkpt><trkpt lat="44.1286495" lon="10.4113696"><ele>353.0</ele><time>2026-03-31T10:30:46Z</time></trkpt><trkpt lat="44.1285447" lon="10.4113698"><ele>353.0</ele><time>2026-03-31T10:30:48Z</time></trkpt><trkpt lat="44.1284296" lon="10.4113678"><ele>353.0</ele><time>2026-03-31T10:30:50Z</time></trkpt><trkpt lat="44.1283182" lon="10.411337"><ele>353.0</ele><time>2026-03-31T10:30:52Z</time></trkpt><trkpt lat="44.1281996" lon="10.4112959"><ele>352.4</ele><time>2026-03-31T10:30:54Z</time></trkpt><trkpt lat="44.1280771" lon="10.4112509"><ele>351.79999999999995</ele><time>2026-03-31T10:30:56Z</time></trkpt><trkpt lat="44.1280156" lon="10.4112308"><ele>351.2</ele><time>2026-03-31T10:30:57Z</time></trkpt><trkpt lat="44.1278939" lon="10.4111949"><ele>350.6</ele><time>2026-03-31T10:30:59Z</time></trkpt><trkpt lat="44.1278262" lon="10.4111781"><ele>350.0</ele><time>2026-03-31T10:31:00Z</time></trkpt><trkpt lat="44.1277017" lon="10.4111318"><ele>350.0</ele><time>2026-03-31T10:31:02Z</time></trkpt><trkpt lat="44.1276385" lon="10.4111073"><ele>350.0</ele><time>2026-03-31T10:31:03Z</time></trkpt><trkpt lat="44.1275128" lon="10.4110691"><ele>350.0</ele><time>2026-03-31T10:31:05Z</time></trkpt><trkpt lat="44.1274493" lon="10.4110484"><ele>350.0</ele><time>2026-03-31T10:31:06Z</time></trkpt><trkpt lat="44.1273848" lon="10.41103"><ele>350.0</ele><time>2026-03-31T10:31:07Z</time></trkpt><trkpt lat="44.1273194" lon="10.4110075"><ele>350.0</ele><time>2026-03-31T10:31:07.999Z</time></trkpt><trkpt lat="44.1272534" lon="10.4109854"><ele>349.85714285714283</ele><time>2026-03-31T10:31:08.999Z</time></trkpt><trkpt lat="44.1271903" lon="10.410968"><ele>349.7142857142857</ele><time>2026-03-31T10:31:09.999Z</time></trkpt><trkpt lat="44.1271227" lon="10.4109521"><ele>349.57142857142856</ele><time>2026-03-31T10:31:10.999Z</time></trkpt><trkpt lat="44.1270584" lon="10.4109304"><ele>349.42857142857144</ele><time>2026-03-31T10:31:12Z</time></trkpt><trkpt lat="44.1269902" lon="10.4109082"><ele>349.2857142857143</ele><time>2026-03-31T10:31:13Z</time></trkpt><trkpt lat="44.1269239" lon="10.4108889"><ele>349.1428571428571</ele><time>2026-03-31T10:31:14Z</time></trkpt><trkpt lat="44.126859" lon="10.4108697"><ele>349.0</ele><time>2026-03-31T10:31:14.999Z</time></trkpt><trkpt lat="44.126788" lon="10.4108549"><ele>349.0</ele><time>2026-03-31T10:31:16Z</time></trkpt><trkpt lat="44.1267166" lon="10.4108341"><ele>349.0</ele><time>2026-03-31T10:31:17Z</time></trkpt><trkpt lat="44.1266494" lon="10.4108139"><ele>349.0</ele><time>2026-03-31T10:31:18Z</time></trkpt><trkpt lat="44.1265759" lon="10.4108002"><ele>349.0</ele><time>2026-03-31T10:31:18.999Z</time></trkpt><trkpt lat="44.126499" lon="10.4107838"><ele>349.0</ele><time>2026-03-31T10:31:20Z</time></trkpt><trkpt lat="44.1264231" lon="10.4107596"><ele>349.0</ele><time>2026-03-31T10:31:21Z</time></trkpt><trkpt lat="44.1263452" lon="10.4107366"><ele>348.8333333333333</ele><time>2026-03-31T10:31:22Z</time></trkpt><trkpt lat="44.1262686" lon="10.4107131"><ele>348.66666666666663</ele><time>2026-03-31T10:31:23Z</time></trkpt><trkpt lat="44.126191" lon="10.4106924"><ele>348.5</ele><time>2026-03-31T10:31:24Z</time></trkpt><trkpt lat="44.1261131" lon="10.4106715"><ele>348.3333333333333</ele><time>2026-03-31T10:31:25Z</time></trkpt><trkpt lat="44.1260419" lon="10.4106542"><ele>348.1666666666667</ele><time>2026-03-31T10:31:25.999Z</time></trkpt><trkpt lat="44.1259701" lon="10.4106337"><ele>348.0</ele><time>2026-03-31T10:31:27Z</time></trkpt><trkpt lat="44.1258947" lon="10.4106034"><ele>348.0</ele><time>2026-03-31T10:31:27.999Z</time></trkpt><trkpt lat="44.125816" lon="10.4105719"><ele>348.0</ele><time>2026-03-31T10:31:29Z</time></trkpt><trkpt lat="44.1257385" lon="10.4105365"><ele>348.0</ele><time>2026-03-31T10:31:29.999Z</time></trkpt><trkpt lat="44.1256599" lon="10.4105063"><ele>348.0</ele><time>2026-03-31T10:31:30.999Z</time></trkpt><trkpt lat="44.125582" lon="10.410469"><ele>348.0</ele><time>2026-03-31T10:31:31.999Z</time></trkpt><trkpt lat="44.1255076" lon="10.4104321"><ele>348.0</ele><time>2026-03-31T10:31:33Z</time></trkpt><trkpt lat="44.1254321" lon="10.4103969"><ele>347.3333333333333</ele><time>2026-03-31T10:31:34Z</time></trkpt><trkpt lat="44.1253541" lon="10.4103605"><ele>346.6666666666667</ele><time>2026-03-31T10:31:35Z</time></trkpt><trkpt lat="44.1252786" lon="10.4103201"><ele>346.0</ele><time>2026-03-31T10:31:35.999Z</time></trkpt><trkpt lat="44.1252121" lon="10.4102606"><ele>345.33333333333337</ele><time>2026-03-31T10:31:37Z</time></trkpt><trkpt lat="44.1251596" lon="10.4101756"><ele>344.6666666666667</ele><time>2026-03-31T10:31:38Z</time></trkpt><trkpt lat="44.1251146" lon="10.4100747"><ele>344.0</ele><time>2026-03-31T10:31:38.999Z</time></trkpt><trkpt lat="44.1250587" lon="10.4099875"><ele>344.0</ele><time>2026-03-31T10:31:40Z</time></trkpt><trkpt lat="44.1249928" lon="10.4099303"><ele>344.0</ele><time>2026-03-31T10:31:40.999Z</time></trkpt><trkpt lat="44.1249164" lon="10.4098997"><ele>344.0</ele><time>2026-03-31T10:31:42Z</time></trkpt><trkpt lat="44.1248369" lon="10.4099006"><ele>344.0</ele><time>2026-03-31T10:31:43Z</time></trkpt><trkpt lat="44.1247595" lon="10.4099242"><ele>344.0</ele><time>2026-03-31T10:31:43.999Z</time></trkpt><trkpt lat="44.1246815" lon="10.4099446"><ele>344.0</ele><time>2026-03-31T10:31:45Z</time></trkpt><trkpt lat="44.1246014" lon="10.4099524"><ele>343.33333333333337</ele><time>2026-03-31T10:31:45.999Z</time></trkpt><trkpt lat="44.1245201" lon="10.4099347"><ele>342.6666666666667</ele><time>2026-03-31T10:31:47Z</time></trkpt><trkpt lat="44.1244392" lon="10.4099035"><ele>342.0</ele><time>2026-03-31T10:31:48Z</time></trkpt><trkpt lat="44.1243604" lon="10.4098654"><ele>341.3333333333333</ele><time>2026-03-31T10:31:48.999Z</time></trkpt><trkpt lat="44.1242774" lon="10.4098207"><ele>340.66666666666663</ele><time>2026-03-31T10:31:50Z</time></trkpt><trkpt lat="44.1241927" lon="10.4097778"><ele>340.0</ele><time>2026-03-31T10:31:51Z</time></trkpt><trkpt lat="44.1241092" lon="10.409736"><ele>339.3333333333333</ele><time>2026-03-31T10:31:52Z</time></trkpt><trkpt lat="44.1240259" lon="10.4096959"><ele>338.66666666666663</ele><time>2026-03-31T10:31:53Z</time></trkpt><trkpt lat="44.123938" lon="10.4096632"><ele>338.0</ele><time>2026-03-31T10:31:54Z</time></trkpt><trkpt lat="44.1238522" lon="10.4096309"><ele>337.3333333333333</ele><time>2026-03-31T10:31:55Z</time></trkpt><trkpt lat="44.1237751" lon="10.4095994"><ele>336.6666666666667</ele><time>2026-03-31T10:31:56Z</time></trkpt><trkpt lat="44.1236845" lon="10.4095696"><ele>336.0</ele><time>2026-03-31T10:31:57Z</time></trkpt><trkpt lat="44.1235974" lon="10.4095361"><ele>335.8</ele><time>2026-03-31T10:31:57.999Z</time></trkpt><trkpt lat="44.1235078" lon="10.4095045"><ele>335.6</ele><time>2026-03-31T10:31:59Z</time></trkpt><trkpt lat="44.1234156" lon="10.4094742"><ele>335.4</ele><time>2026-03-31T10:32:00Z</time></trkpt><trkpt lat="44.1233289" lon="10.4094451"><ele>335.2</ele><time>2026-03-31T10:32:00.999Z</time></trkpt><trkpt lat="44.1232411" lon="10.4094112"><ele>335.0</ele><time>2026-03-31T10:32:02Z</time></trkpt><trkpt lat="44.12315" lon="10.409379"><ele>334.6</ele><time>2026-03-31T10:32:02.999Z</time></trkpt><trkpt lat="44.1230634" lon="10.4093493"><ele>334.2</ele><time>2026-03-31T10:32:04Z</time></trkpt><trkpt lat="44.1229745" lon="10.4093221"><ele>333.79999999999995</ele><time>2026-03-31T10:32:05Z</time></trkpt><trkpt lat="44.1228849" lon="10.4093052"><ele>333.4</ele><time>2026-03-31T10:32:06Z</time></trkpt><trkpt lat="44.1227929" lon="10.4092921"><ele>333.0</ele><time>2026-03-31T10:32:07Z</time></trkpt><trkpt lat="44.1227" lon="10.409282"><ele>333.0</ele><time>2026-03-31T10:32:07.999Z</time></trkpt><trkpt lat="44.1226043" lon="10.4092648"><ele>333.0</ele><time>2026-03-31T10:32:08.999Z</time></trkpt><trkpt lat="44.1225169" lon="10.4092537"><ele>333.0</ele><time>2026-03-31T10:32:09.999Z</time></trkpt><trkpt lat="44.1224243" lon="10.4092341"><ele>333.0</ele><time>2026-03-31T10:32:11Z</time></trkpt><trkpt lat="44.1223332" lon="10.4092181"><ele>333.0</ele><time>2026-03-31T10:32:12Z</time></trkpt><trkpt lat="44.1222366" lon="10.4091997"><ele>332.4</ele><time>2026-03-31T10:32:13Z</time></trkpt><trkpt lat="44.1221412" lon="10.4091793"><ele>331.79999999999995</ele><time>2026-03-31T10:32:13.999Z</time></trkpt><trkpt lat="44.1220466" lon="10.4091561"><ele>331.2</ele><time>2026-03-31T10:32:14.999Z</time></trkpt><trkpt lat="44.121952" lon="10.4091373"><ele>330.6</ele><time>2026-03-31T10:32:16Z</time></trkpt><trkpt lat="44.121857" lon="10.4091229"><ele>330.0</ele><time>2026-03-31T10:32:17Z</time></trkpt><trkpt lat="44.121763" lon="10.409108"><ele>330.0</ele><time>2026-03-31T10:32:17.999Z</time></trkpt><trkpt lat="44.1216666" lon="10.4090977"><ele>330.0</ele><time>2026-03-31T10:32:19Z</time></trkpt><trkpt lat="44.1215751" lon="10.4090845"><ele>330.0</ele><time>2026-03-31T10:32:20Z</time></trkpt><trkpt lat="44.1214774" lon="10.4090738"><ele>330.0</ele><time>2026-03-31T10:32:20.999Z</time></trkpt><trkpt lat="44.1213855" lon="10.4090611"><ele>330.0</ele><time>2026-03-31T10:32:22Z</time></trkpt><trkpt lat="44.1212908" lon="10.4090515"><ele>329.4</ele><time>2026-03-31T10:32:23Z</time></trkpt><trkpt lat="44.1211996" lon="10.4090427"><ele>328.8</ele><time>2026-03-31T10:32:24Z</time></trkpt><trkpt lat="44.1211096" lon="10.4090301"><ele>328.20000000000005</ele><time>2026-03-31T10:32:25Z</time></trkpt><trkpt lat="44.1210176" lon="10.4090249"><ele>327.6</ele><time>2026-03-31T10:32:26Z</time></trkpt><trkpt lat="44.1209247" lon="10.4090141"><ele>327.0</ele><time>2026-03-31T10:32:27Z</time></trkpt><trkpt lat="44.1208349" lon="10.4089977"><ele>327.0</ele><time>2026-03-31T10:32:28Z</time></trkpt><trkpt lat="44.1207438" lon="10.408987"><ele>327.0</ele><time>2026-03-31T10:32:28.999Z</time></trkpt><trkpt lat="44.12064" lon="10.4089809"><ele>327.0</ele><time>2026-03-31T10:32:30Z</time></trkpt><trkpt lat="44.1205506" lon="10.4089812"><ele>327.0</ele><time>2026-03-31T10:32:31Z</time></trkpt><trkpt lat="44.1204616" lon="10.4089981"><ele>327.0</ele><time>2026-03-31T10:32:31.999Z</time></trkpt><trkpt lat="44.1203793" lon="10.4090359"><ele>325.5</ele><time>2026-03-31T10:32:33Z</time></trkpt><trkpt lat="44.1202985" lon="10.4090919"><ele>324.0</ele><time>2026-03-31T10:32:34Z</time></trkpt><trkpt lat="44.1202262" lon="10.4091536"><ele>322.5</ele><time>2026-03-31T10:32:34.999Z</time></trkpt><trkpt lat="44.1201568" lon="10.4092025"><ele>321.0</ele><time>2026-03-31T10:32:35.999Z</time></trkpt><trkpt lat="44.1200826" lon="10.4092632"><ele>319.5</ele><time>2026-03-31T10:32:36.999Z</time></trkpt><trkpt lat="44.1200061" lon="10.4093212"><ele>318.0</ele><time>2026-03-31T10:32:38Z</time></trkpt><trkpt lat="44.119937" lon="10.4093858"><ele>317.5</ele><time>2026-03-31T10:32:38.999Z</time></trkpt><trkpt lat="44.1198693" lon="10.4094468"><ele>317.0</ele><time>2026-03-31T10:32:40Z</time></trkpt><trkpt lat="44.1197982" lon="10.4095156"><ele>316.5</ele><time>2026-03-31T10:32:40.999Z</time></trkpt><trkpt lat="44.1197288" lon="10.4095744"><ele>316.0</ele><time>2026-03-31T10:32:41.999Z</time></trkpt><trkpt lat="44.1196572" lon="10.4096254"><ele>315.5</ele><time>2026-03-31T10:32:43Z</time></trkpt><trkpt lat="44.1195817" lon="10.4096817"><ele>315.0</ele><time>2026-03-31T10:32:43.999Z</time></trkpt><trkpt lat="44.1195134" lon="10.4097352"><ele>315.0</ele><time>2026-03-31T10:32:45Z</time></trkpt><trkpt lat="44.1194498" lon="10.4097923"><ele>315.0</ele><time>2026-03-31T10:32:46Z</time></trkpt><trkpt lat="44.1193852" lon="10.4098445"><ele>315.0</ele><time>2026-03-31T10:32:46.999Z</time></trkpt><trkpt lat="44.1193183" lon="10.4099066"><ele>315.0</ele><time>2026-03-31T10:32:48Z</time></trkpt><trkpt lat="44.1192556" lon="10.4099596"><ele>315.0</ele><time>2026-03-31T10:32:49Z</time></trkpt><trkpt lat="44.119192" lon="10.4100066"><ele>315.0</ele><time>2026-03-31T10:32:49.999Z</time></trkpt><trkpt lat="44.1191353" lon="10.4100792"><ele>315.0</ele><time>2026-03-31T10:32:51Z</time></trkpt><trkpt lat="44.1190872" lon="10.4101586"><ele>315.0</ele><time>2026-03-31T10:32:52Z</time></trkpt><trkpt lat="44.1190551" lon="10.4102444"><ele>315.0</ele><time>2026-03-31T10:32:52.999Z</time></trkpt><trkpt lat="44.1190355" lon="10.4103503"><ele>315.0</ele><time>2026-03-31T10:32:54Z</time></trkpt><trkpt lat="44.1190383" lon="10.410443"><ele>315.0</ele><time>2026-03-31T10:32:55Z</time></trkpt><trkpt lat="44.1190642" lon="10.4105433"><ele>315.0</ele><time>2026-03-31T10:32:56Z</time></trkpt><trkpt lat="44.1190943" lon="10.4106312"><ele>315.0</ele><time>2026-03-31T10:32:57Z</time></trkpt><trkpt lat="44.1191475" lon="10.4107078"><ele>314.1666666666667</ele><time>2026-03-31T10:32:58Z</time></trkpt><trkpt lat="44.1192129" lon="10.4107603"><ele>313.3333333333333</ele><time>2026-03-31T10:32:58.999Z</time></trkpt><trkpt lat="44.1192869" lon="10.4108005"><ele>312.5</ele><time>2026-03-31T10:32:59.999Z</time></trkpt><trkpt lat="44.1193721" lon="10.4108144"><ele>311.66666666666663</ele><time>2026-03-31T10:33:01Z</time></trkpt><trkpt lat="44.1194557" lon="10.4108283"><ele>310.8333333333333</ele><time>2026-03-31T10:33:02Z</time></trkpt><trkpt lat="44.1195437" lon="10.4108423"><ele>310.0</ele><time>2026-03-31T10:33:03Z</time></trkpt><trkpt lat="44.1196355" lon="10.4108506"><ele>310.0</ele><time>2026-03-31T10:33:04Z</time></trkpt><trkpt lat="44.1197304" lon="10.4108812"><ele>310.0</ele><time>2026-03-31T10:33:05Z</time></trkpt><trkpt lat="44.1198211" lon="10.4109216"><ele>310.0</ele><time>2026-03-31T10:33:06Z</time></trkpt><trkpt lat="44.1199075" lon="10.4110054"><ele>310.0</ele><time>2026-03-31T10:33:07Z</time></trkpt><trkpt lat="44.119967" lon="10.4111132"><ele>310.0</ele><time>2026-03-31T10:33:08Z</time></trkpt><trkpt lat="44.1199929" lon="10.411256"><ele>310.0</ele><time>2026-03-31T10:33:09Z</time></trkpt><trkpt lat="44.1200047" lon="10.4114003"><ele>310.0</ele><time>2026-03-31T10:33:09.999Z</time></trkpt><trkpt lat="44.1200108" lon="10.4115271"><ele>310.0</ele><time>2026-03-31T10:33:10.999Z</time></trkpt><trkpt lat="44.1199997" lon="10.4116231"><ele>310.0</ele><time>2026-03-31T10:33:12Z</time></trkpt><trkpt lat="44.1199264" lon="10.411575"><ele>310.0</ele><time>2026-03-31T10:33:15Z</time></trkpt><trkpt lat="44.1199014" lon="10.4114732"><ele>310.0</ele><time>2026-03-31T10:33:15.999Z</time></trkpt><trkpt lat="44.1198871" lon="10.411383"><ele>310.0</ele><time>2026-03-31T10:33:17Z</time></trkpt><trkpt lat="44.1198219" lon="10.411221"><ele>310.0</ele><time>2026-03-31T10:33:19Z</time></trkpt><trkpt lat="44.1197745" lon="10.4111455"><ele>310.0</ele><time>2026-03-31T10:33:19.999Z</time></trkpt><trkpt lat="44.1197047" lon="10.4110925"><ele>310.0</ele><time>2026-03-31T10:33:20.999Z</time></trkpt><trkpt lat="44.1196329" lon="10.4110578"><ele>310.0</ele><time>2026-03-31T10:33:21.999Z</time></trkpt><trkpt lat="44.1195515" lon="10.4110644"><ele>310.0</ele><time>2026-03-31T10:33:23Z</time></trkpt><trkpt lat="44.1194698" lon="10.4110621"><ele>310.0</ele><time>2026-03-31T10:33:24Z</time></trkpt><trkpt lat="44.1193749" lon="10.4110644"><ele>310.0</ele><time>2026-03-31T10:33:25Z</time></trkpt><trkpt lat="44.1192882" lon="10.4110746"><ele>310.0</ele><time>2026-03-31T10:33:26Z</time></trkpt><trkpt lat="44.1192008" lon="10.4110849"><ele>310.0</ele><time>2026-03-31T10:33:27Z</time></trkpt><trkpt lat="44.1191156" lon="10.411076"><ele>310.0</ele><time>2026-03-31T10:33:28Z</time></trkpt><trkpt lat="44.1190346" lon="10.411085"><ele>310.0</ele><time>2026-03-31T10:33:29Z</time></trkpt><trkpt lat="44.1189398" lon="10.4110862"><ele>309.0</ele><time>2026-03-31T10:33:30Z</time></trkpt><trkpt lat="44.1188388" lon="10.4110827"><ele>308.0</ele><time>2026-03-31T10:33:31Z</time></trkpt><trkpt lat="44.1187495" lon="10.4110415"><ele>307.0</ele><time>2026-03-31T10:33:32Z</time></trkpt><trkpt lat="44.118676" lon="10.4109589"><ele>306.0</ele><time>2026-03-31T10:33:32.999Z</time></trkpt><trkpt lat="44.1185948" lon="10.410861"><ele>305.0</ele><time>2026-03-31T10:33:34Z</time></trkpt><trkpt lat="44.1185197" lon="10.4107731"><ele>305.0</ele><time>2026-03-31T10:33:35Z</time></trkpt><trkpt lat="44.118459" lon="10.4106508"><ele>305.0</ele><time>2026-03-31T10:33:36Z</time></trkpt><trkpt lat="44.1184238" lon="10.4105131"><ele>305.0</ele><time>2026-03-31T10:33:37Z</time></trkpt><trkpt lat="44.1183963" lon="10.4103693"><ele>305.0</ele><time>2026-03-31T10:33:38Z</time></trkpt><trkpt lat="44.1183688" lon="10.4102393"><ele>305.0</ele><time>2026-03-31T10:33:39Z</time></trkpt><trkpt lat="44.1183224" lon="10.410092"><ele>303.2</ele><time>2026-03-31T10:33:40Z</time></trkpt><trkpt lat="44.1182582" lon="10.4099703"><ele>301.4</ele><time>2026-03-31T10:33:40.999Z</time></trkpt><trkpt lat="44.1181737" lon="10.409869"><ele>299.6</ele><time>2026-03-31T10:33:42Z</time></trkpt><trkpt lat="44.1180794" lon="10.4097778"><ele>297.8</ele><time>2026-03-31T10:33:43Z</time></trkpt><trkpt lat="44.1179876" lon="10.4096907"><ele>296.0</ele><time>2026-03-31T10:33:44Z</time></trkpt><trkpt lat="44.1178746" lon="10.4096338"><ele>291.75</ele><time>2026-03-31T10:33:45Z</time></trkpt><trkpt lat="44.1177595" lon="10.4095929"><ele>287.5</ele><time>2026-03-31T10:33:46Z</time></trkpt><trkpt lat="44.1176447" lon="10.4095902"><ele>283.25</ele><time>2026-03-31T10:33:46.999Z</time></trkpt><trkpt lat="44.1175175" lon="10.409624"><ele>279.0</ele><time>2026-03-31T10:33:48Z</time></trkpt><trkpt lat="44.1174065" lon="10.4096574"><ele>281.4</ele><time>2026-03-31T10:33:48.999Z</time></trkpt><trkpt lat="44.1173058" lon="10.4096968"><ele>283.79999999999995</ele><time>2026-03-31T10:33:50Z</time></trkpt><trkpt lat="44.1172027" lon="10.4097317"><ele>286.20000000000005</ele><time>2026-03-31T10:33:50.999Z</time></trkpt><trkpt lat="44.1170985" lon="10.4097662"><ele>288.6</ele><time>2026-03-31T10:33:51.999Z</time></trkpt><trkpt lat="44.1169992" lon="10.4097984"><ele>291.0</ele><time>2026-03-31T10:33:53Z</time></trkpt><trkpt lat="44.1169008" lon="10.4098304"><ele>291.0</ele><time>2026-03-31T10:33:53.999Z</time></trkpt><trkpt lat="44.1168129" lon="10.4098504"><ele>291.0</ele><time>2026-03-31T10:33:55Z</time></trkpt><trkpt lat="44.1167387" lon="10.4098609"><ele>291.0</ele><time>2026-03-31T10:33:56Z</time></trkpt><trkpt lat="44.1166735" lon="10.4098485"><ele>291.0</ele><time>2026-03-31T10:33:57Z</time></trkpt><trkpt lat="44.1166125" lon="10.4098165"><ele>291.0</ele><time>2026-03-31T10:33:58Z</time></trkpt><trkpt lat="44.116543" lon="10.4098086"><ele>291.0</ele><time>2026-03-31T10:33:59Z</time></trkpt><trkpt lat="44.1164426" lon="10.4098671"><ele>290.2</ele><time>2026-03-31T10:34:01Z</time></trkpt><trkpt lat="44.1163497" lon="10.4099881"><ele>289.40000000000003</ele><time>2026-03-31T10:34:03Z</time></trkpt><trkpt lat="44.1162936" lon="10.4100362"><ele>288.6</ele><time>2026-03-31T10:34:04Z</time></trkpt><trkpt lat="44.1161895" lon="10.4101088"><ele>287.8</ele><time>2026-03-31T10:34:05.999Z</time></trkpt><trkpt lat="44.1160784" lon="10.4101541"><ele>287.0</ele><time>2026-03-31T10:34:07.999Z</time></trkpt><trkpt lat="44.1159765" lon="10.4102241"><ele>287.0</ele><time>2026-03-31T10:34:10Z</time></trkpt><trkpt lat="44.1158561" lon="10.4102875"><ele>287.0</ele><time>2026-03-31T10:34:11.999Z</time></trkpt><trkpt lat="44.115766" lon="10.4103485"><ele>287.0</ele><time>2026-03-31T10:34:14Z</time></trkpt><trkpt lat="44.115708" lon="10.4103886"><ele>287.0</ele><time>2026-03-31T10:34:15Z</time></trkpt><trkpt lat="44.1155882" lon="10.4104582"><ele>287.0</ele><time>2026-03-31T10:34:17Z</time></trkpt><trkpt lat="44.1155116" lon="10.4104773"><ele>287.83333333333337</ele><time>2026-03-31T10:34:18Z</time></trkpt><trkpt lat="44.11544" lon="10.4104818"><ele>288.6666666666667</ele><time>2026-03-31T10:34:18.999Z</time></trkpt><trkpt lat="44.1153626" lon="10.4104867"><ele>289.5</ele><time>2026-03-31T10:34:19.999Z</time></trkpt><trkpt lat="44.1152864" lon="10.4104998"><ele>290.3333333333333</ele><time>2026-03-31T10:34:21Z</time></trkpt><trkpt lat="44.1152147" lon="10.4105218"><ele>291.16666666666663</ele><time>2026-03-31T10:34:22Z</time></trkpt><trkpt lat="44.1151037" lon="10.4105691"><ele>292.0</ele><time>2026-03-31T10:34:23.999Z</time></trkpt><trkpt lat="44.1150442" lon="10.4106037"><ele>292.0</ele><time>2026-03-31T10:34:25Z</time></trkpt><trkpt lat="44.1149761" lon="10.4106278"><ele>292.0</ele><time>2026-03-31T10:34:25.999Z</time></trkpt><trkpt lat="44.1148717" lon="10.4106879"><ele>292.0</ele><time>2026-03-31T10:34:27.999Z</time></trkpt><trkpt lat="44.1147914" lon="10.4107573"><ele>292.0</ele><time>2026-03-31T10:34:30Z</time></trkpt><trkpt lat="44.1147091" lon="10.4108083"><ele>292.0</ele><time>2026-03-31T10:34:32Z</time></trkpt><trkpt lat="44.1146357" lon="10.4108583"><ele>292.0</ele><time>2026-03-31T10:34:34Z</time></trkpt><trkpt lat="44.1145702" lon="10.4109033"><ele>289.66666666666663</ele><time>2026-03-31T10:34:36Z</time></trkpt><trkpt lat="44.1145062" lon="10.4109681"><ele>287.3333333333333</ele><time>2026-03-31T10:34:38Z</time></trkpt><trkpt lat="44.1144406" lon="10.4110332"><ele>285.0</ele><time>2026-03-31T10:34:39.999Z</time></trkpt><trkpt lat="44.1143746" lon="10.4110916"><ele>282.6666666666667</ele><time>2026-03-31T10:34:42Z</time></trkpt><trkpt lat="44.1143036" lon="10.4111547"><ele>280.33333333333337</ele><time>2026-03-31T10:34:43.999Z</time></trkpt><trkpt lat="44.1142328" lon="10.4112291"><ele>278.0</ele><time>2026-03-31T10:34:45.999Z</time></trkpt><trkpt lat="44.1141593" lon="10.411307"><ele>278.8</ele><time>2026-03-31T10:34:48.11Z</time></trkpt><trkpt lat="44.1140815" lon="10.4113799"><ele>279.6</ele><time>2026-03-31T10:34:50Z</time></trkpt><trkpt lat="44.1139993" lon="10.4114626"><ele>280.4</ele><time>2026-03-31T10:34:51.999Z</time></trkpt><trkpt lat="44.1139341" lon="10.4115334"><ele>281.2</ele><time>2026-03-31T10:34:54Z</time></trkpt><trkpt lat="44.1138665" lon="10.4116018"><ele>282.0</ele><time>2026-03-31T10:34:55.999Z</time></trkpt><trkpt lat="44.1137923" lon="10.4116848"><ele>282.0</ele><time>2026-03-31T10:34:57.999Z</time></trkpt><trkpt lat="44.1137178" lon="10.4117611"><ele>282.0</ele><time>2026-03-31T10:34:59.999Z</time></trkpt><trkpt lat="44.1136453" lon="10.411835"><ele>282.0</ele><time>2026-03-31T10:35:02Z</time></trkpt><trkpt lat="44.1135768" lon="10.4119165"><ele>282.0</ele><time>2026-03-31T10:35:04Z</time></trkpt><trkpt lat="44.1135078" lon="10.4120175"><ele>282.0</ele><time>2026-03-31T10:35:06Z</time></trkpt><trkpt lat="44.1134334" lon="10.4120841"><ele>282.0</ele><time>2026-03-31T10:35:08Z</time></trkpt><trkpt lat="44.1133504" lon="10.4121525"><ele>282.0</ele><time>2026-03-31T10:35:09.999Z</time></trkpt><trkpt lat="44.1132597" lon="10.412187"><ele>282.0</ele><time>2026-03-31T10:35:12Z</time></trkpt><trkpt lat="44.1131674" lon="10.4122503"><ele>282.0</ele><time>2026-03-31T10:35:14Z</time></trkpt><trkpt lat="44.1130709" lon="10.4123091"><ele>282.0</ele><time>2026-03-31T10:35:15.999Z</time></trkpt><trkpt lat="44.11298" lon="10.4123556"><ele>281.75</ele><time>2026-03-31T10:35:18Z</time></trkpt><trkpt lat="44.1128835" lon="10.4124084"><ele>281.5</ele><time>2026-03-31T10:35:20Z</time></trkpt><trkpt lat="44.1127737" lon="10.4124646"><ele>281.25</ele><time>2026-03-31T10:35:22Z</time></trkpt><trkpt lat="44.112665" lon="10.4125125"><ele>281.0</ele><time>2026-03-31T10:35:23.999Z</time></trkpt><trkpt lat="44.1125441" lon="10.412563"><ele>281.0</ele><time>2026-03-31T10:35:26Z</time></trkpt><trkpt lat="44.1124407" lon="10.4126366"><ele>281.0</ele><time>2026-03-31T10:35:28Z</time></trkpt><trkpt lat="44.1123834" lon="10.4126755"><ele>281.0</ele><time>2026-03-31T10:35:28.999Z</time></trkpt><trkpt lat="44.1122855" lon="10.4127452"><ele>281.0</ele><time>2026-03-31T10:35:31Z</time></trkpt><trkpt lat="44.1121949" lon="10.4128102"><ele>281.0</ele><time>2026-03-31T10:35:33Z</time></trkpt><trkpt lat="44.1121157" lon="10.4128737"><ele>282.8</ele><time>2026-03-31T10:35:35Z</time></trkpt><trkpt lat="44.1120211" lon="10.4129245"><ele>284.6</ele><time>2026-03-31T10:35:37Z</time></trkpt><trkpt lat="44.1119465" lon="10.4129759"><ele>286.4</ele><time>2026-03-31T10:35:39Z</time></trkpt><trkpt lat="44.1118553" lon="10.4130441"><ele>288.2</ele><time>2026-03-31T10:35:41Z</time></trkpt><trkpt lat="44.111766" lon="10.413093"><ele>290.0</ele><time>2026-03-31T10:35:43Z</time></trkpt><trkpt lat="44.1116913" lon="10.4131517"><ele>290.0</ele><time>2026-03-31T10:35:45Z</time></trkpt><trkpt lat="44.1116096" lon="10.4132014"><ele>290.0</ele><time>2026-03-31T10:35:46.999Z</time></trkpt><trkpt lat="44.1115213" lon="10.4132532"><ele>290.0</ele><time>2026-03-31T10:35:48.999Z</time></trkpt><trkpt lat="44.1114396" lon="10.4133067"><ele>290.0</ele><time>2026-03-31T10:35:51Z</time></trkpt><trkpt lat="44.1113556" lon="10.413357"><ele>290.0</ele><time>2026-03-31T10:35:53Z</time></trkpt><trkpt lat="44.111269" lon="10.413396"><ele>288.33333333333337</ele><time>2026-03-31T10:35:54.999Z</time></trkpt><trkpt lat="44.1111896" lon="10.4134316"><ele>286.6666666666667</ele><time>2026-03-31T10:35:57Z</time></trkpt><trkpt lat="44.111115" lon="10.413472"><ele>285.0</ele><time>2026-03-31T10:35:59Z</time></trkpt><trkpt lat="44.1110378" lon="10.4135166"><ele>283.3333333333333</ele><time>2026-03-31T10:36:01Z</time></trkpt><trkpt lat="44.1109574" lon="10.4135663"><ele>281.66666666666663</ele><time>2026-03-31T10:36:03Z</time></trkpt><trkpt lat="44.1108833" lon="10.4136137"><ele>280.0</ele><time>2026-03-31T10:36:05Z</time></trkpt><trkpt lat="44.1108031" lon="10.4136616"><ele>279.5</ele><time>2026-03-31T10:36:07Z</time></trkpt><trkpt lat="44.1107271" lon="10.4137104"><ele>279.0</ele><time>2026-03-31T10:36:09Z</time></trkpt><trkpt lat="44.1106493" lon="10.41376"><ele>278.5</ele><time>2026-03-31T10:36:11Z</time></trkpt><trkpt lat="44.1105746" lon="10.4138111"><ele>278.0</ele><time>2026-03-31T10:36:12.999Z</time></trkpt><trkpt lat="44.1104932" lon="10.4138352"><ele>277.5</ele><time>2026-03-31T10:36:14.999Z</time></trkpt><trkpt lat="44.1103973" lon="10.4137909"><ele>277.0</ele><time>2026-03-31T10:36:17Z</time></trkpt><trkpt lat="44.110339" lon="10.4136805"><ele>277.0</ele><time>2026-03-31T10:36:18.999Z</time></trkpt><trkpt lat="44.1102968" lon="10.4135789"><ele>277.0</ele><time>2026-03-31T10:36:21Z</time></trkpt><trkpt lat="44.1102623" lon="10.413472"><ele>277.0</ele><time>2026-03-31T10:36:23Z</time></trkpt><trkpt lat="44.1102223" lon="10.4133678"><ele>277.0</ele><time>2026-03-31T10:36:25Z</time></trkpt><trkpt lat="44.1101805" lon="10.413266"><ele>277.0</ele><time>2026-03-31T10:36:27Z</time></trkpt><trkpt lat="44.1101385" lon="10.4131592"><ele>277.0</ele><time>2026-03-31T10:36:29Z</time></trkpt><trkpt lat="44.1100897" lon="10.4130581"><ele>277.2</ele><time>2026-03-31T10:36:31Z</time></trkpt><trkpt lat="44.1100311" lon="10.4129757"><ele>277.4</ele><time>2026-03-31T10:36:33Z</time></trkpt><trkpt lat="44.1099589" lon="10.412928"><ele>277.6</ele><time>2026-03-31T10:36:35Z</time></trkpt><trkpt lat="44.1098757" lon="10.4129223"><ele>277.8</ele><time>2026-03-31T10:36:37Z</time></trkpt><trkpt lat="44.1097707" lon="10.412963"><ele>278.0</ele><time>2026-03-31T10:36:39Z</time></trkpt><trkpt lat="44.1096684" lon="10.4130489"><ele>278.1666666666667</ele><time>2026-03-31T10:36:40.999Z</time></trkpt><trkpt lat="44.1095532" lon="10.4131366"><ele>278.33333333333337</ele><time>2026-03-31T10:36:43Z</time></trkpt><trkpt lat="44.109499" lon="10.4131924"><ele>278.5</ele><time>2026-03-31T10:36:44Z</time></trkpt><trkpt lat="44.109429" lon="10.413252"><ele>278.6666666666667</ele><time>2026-03-31T10:36:45Z</time></trkpt><trkpt lat="44.1093919" lon="10.4133391"><ele>278.8333333333333</ele><time>2026-03-31T10:36:46Z</time></trkpt><trkpt lat="44.1093498" lon="10.4134203"><ele>279.0</ele><time>2026-03-31T10:36:46.999Z</time></trkpt><trkpt lat="44.1093222" lon="10.4135038"><ele>279.0</ele><time>2026-03-31T10:36:48Z</time></trkpt><trkpt lat="44.1092615" lon="10.4136647"><ele>279.0</ele><time>2026-03-31T10:36:50Z</time></trkpt><trkpt lat="44.1092294" lon="10.4137482"><ele>279.0</ele><time>2026-03-31T10:36:50.999Z</time></trkpt><trkpt lat="44.1091953" lon="10.4138279"><ele>279.0</ele><time>2026-03-31T10:36:52Z</time></trkpt><trkpt lat="44.1091399" lon="10.4139482"><ele>279.0</ele><time>2026-03-31T10:36:54Z</time></trkpt><trkpt lat="44.1090976" lon="10.4140228"><ele>279.0</ele><time>2026-03-31T10:36:56Z</time></trkpt><trkpt lat="44.1090567" lon="10.4141413"><ele>286.4</ele><time>2026-03-31T10:36:58Z</time></trkpt><trkpt lat="44.1090259" lon="10.4142667"><ele>293.79999999999995</ele><time>2026-03-31T10:37:00Z</time></trkpt><trkpt lat="44.1090184" lon="10.4144125"><ele>301.20000000000005</ele><time>2026-03-31T10:37:02Z</time></trkpt><trkpt lat="44.1090084" lon="10.4145436"><ele>308.6</ele><time>2026-03-31T10:37:04Z</time></trkpt><trkpt lat="44.1090215" lon="10.4146734"><ele>316.0</ele><time>2026-03-31T10:37:06Z</time></trkpt><trkpt lat="44.1090431" lon="10.4148058"><ele>309.40000000000003</ele><time>2026-03-31T10:37:08Z</time></trkpt><trkpt lat="44.109079" lon="10.4149304"><ele>302.8</ele><time>2026-03-31T10:37:10Z</time></trkpt><trkpt lat="44.1091174" lon="10.4150599"><ele>296.20000000000005</ele><time>2026-03-31T10:37:11.999Z</time></trkpt><trkpt lat="44.1091594" lon="10.4151878"><ele>289.6</ele><time>2026-03-31T10:37:14Z</time></trkpt><trkpt lat="44.1092219" lon="10.415305"><ele>283.0</ele><time>2026-03-31T10:37:16Z</time></trkpt><trkpt lat="44.1092736" lon="10.4154196"><ele>284.6</ele><time>2026-03-31T10:37:18Z</time></trkpt><trkpt lat="44.1093286" lon="10.4155303"><ele>286.20000000000005</ele><time>2026-03-31T10:37:20Z</time></trkpt><trkpt lat="44.1093903" lon="10.4156384"><ele>287.8</ele><time>2026-03-31T10:37:22Z</time></trkpt><trkpt lat="44.1094434" lon="10.4157442"><ele>289.40000000000003</ele><time>2026-03-31T10:37:24Z</time></trkpt><trkpt lat="44.1094942" lon="10.415851"><ele>291.0</ele><time>2026-03-31T10:37:26Z</time></trkpt><trkpt lat="44.1095408" lon="10.4159487"><ele>291.0</ele><time>2026-03-31T10:37:27.999Z</time></trkpt><trkpt lat="44.1096" lon="10.4160573"><ele>291.0</ele><time>2026-03-31T10:37:30Z</time></trkpt><trkpt lat="44.1096568" lon="10.4161629"><ele>291.0</ele><time>2026-03-31T10:37:32Z</time></trkpt><trkpt lat="44.1097169" lon="10.4162671"><ele>291.0</ele><time>2026-03-31T10:37:33.999Z</time></trkpt><trkpt lat="44.1097773" lon="10.4163631"><ele>291.0</ele><time>2026-03-31T10:37:36Z</time></trkpt><trkpt lat="44.1098392" lon="10.4164685"><ele>289.0</ele><time>2026-03-31T10:37:37.999Z</time></trkpt><trkpt lat="44.1098982" lon="10.4165677"><ele>287.0</ele><time>2026-03-31T10:37:40Z</time></trkpt><trkpt lat="44.1099321" lon="10.4166829"><ele>285.0</ele><time>2026-03-31T10:37:42Z</time></trkpt><trkpt lat="44.1099754" lon="10.4168061"><ele>283.0</ele><time>2026-03-31T10:37:44Z</time></trkpt><trkpt lat="44.1100039" lon="10.416932"><ele>281.0</ele><time>2026-03-31T10:37:46Z</time></trkpt><trkpt lat="44.11002" lon="10.4170617"><ele>283.0</ele><time>2026-03-31T10:37:48Z</time></trkpt><trkpt lat="44.1100259" lon="10.4171964"><ele>285.0</ele><time>2026-03-31T10:37:50Z</time></trkpt><trkpt lat="44.1100305" lon="10.4173291"><ele>287.0</ele><time>2026-03-31T10:37:52Z</time></trkpt><trkpt lat="44.1100407" lon="10.4174535"><ele>289.0</ele><time>2026-03-31T10:37:54Z</time></trkpt><trkpt lat="44.1100392" lon="10.4175717"><ele>291.0</ele><time>2026-03-31T10:37:55.999Z</time></trkpt><trkpt lat="44.1100462" lon="10.4176905"><ele>291.0</ele><time>2026-03-31T10:37:57.999Z</time></trkpt><trkpt lat="44.1100685" lon="10.41781"><ele>291.0</ele><time>2026-03-31T10:38:00Z</time></trkpt><trkpt lat="44.1101143" lon="10.4179177"><ele>291.0</ele><time>2026-03-31T10:38:01.999Z</time></trkpt><trkpt lat="44.1101714" lon="10.4180156"><ele>291.0</ele><time>2026-03-31T10:38:04Z</time></trkpt><trkpt lat="44.1102352" lon="10.4181021"><ele>291.0</ele><time>2026-03-31T10:38:06Z</time></trkpt><trkpt lat="44.1103131" lon="10.4181949"><ele>294.40000000000003</ele><time>2026-03-31T10:38:08Z</time></trkpt><trkpt lat="44.1103897" lon="10.4182763"><ele>297.8</ele><time>2026-03-31T10:38:10Z</time></trkpt><trkpt lat="44.1104743" lon="10.4183418"><ele>301.20000000000005</ele><time>2026-03-31T10:38:12Z</time></trkpt><trkpt lat="44.1105598" lon="10.4183848"><ele>304.6</ele><time>2026-03-31T10:38:14Z</time></trkpt><trkpt lat="44.1106426" lon="10.4184213"><ele>308.0</ele><time>2026-03-31T10:38:15.999Z</time></trkpt><trkpt lat="44.1107225" lon="10.4184574"><ele>301.0</ele><time>2026-03-31T10:38:18Z</time></trkpt><trkpt lat="44.1108112" lon="10.4184875"><ele>294.0</ele><time>2026-03-31T10:38:20Z</time></trkpt><trkpt lat="44.1108948" lon="10.4185147"><ele>287.0</ele><time>2026-03-31T10:38:22Z</time></trkpt><trkpt lat="44.110996" lon="10.4185504"><ele>280.0</ele><time>2026-03-31T10:38:24Z</time></trkpt><trkpt lat="44.1110758" lon="10.4185652"><ele>273.0</ele><time>2026-03-31T10:38:26Z</time></trkpt><trkpt lat="44.1111757" lon="10.4185929"><ele>273.0</ele><time>2026-03-31T10:38:28Z</time></trkpt><trkpt lat="44.1112558" lon="10.4186089"><ele>273.0</ele><time>2026-03-31T10:38:30Z</time></trkpt><trkpt lat="44.1113434" lon="10.4186537"><ele>273.0</ele><time>2026-03-31T10:38:32Z</time></trkpt><trkpt lat="44.1114341" lon="10.4186796"><ele>273.0</ele><time>2026-03-31T10:38:34Z</time></trkpt><trkpt lat="44.1115278" lon="10.4186915"><ele>273.0</ele><time>2026-03-31T10:38:36Z</time></trkpt><trkpt lat="44.1116329" lon="10.4186969"><ele>273.0</ele><time>2026-03-31T10:38:38Z</time></trkpt><trkpt lat="44.1117375" lon="10.418711"><ele>273.0</ele><time>2026-03-31T10:38:40Z</time></trkpt><trkpt lat="44.1118219" lon="10.4187169"><ele>273.0</ele><time>2026-03-31T10:38:42Z</time></trkpt><trkpt lat="44.1119174" lon="10.4187171"><ele>273.0</ele><time>2026-03-31T10:38:44Z</time></trkpt><trkpt lat="44.1120122" lon="10.4187271"><ele>273.0</ele><time>2026-03-31T10:38:45.999Z</time></trkpt><trkpt lat="44.1121011" lon="10.4187317"><ele>273.0</ele><time>2026-03-31T10:38:47.999Z</time></trkpt><trkpt lat="44.1121949" lon="10.418728"><ele>273.0</ele><time>2026-03-31T10:38:50Z</time></trkpt><trkpt lat="44.1122893" lon="10.4187007"><ele>273.0</ele><time>2026-03-31T10:38:52Z</time></trkpt><trkpt lat="44.1123748" lon="10.4186877"><ele>273.0</ele><time>2026-03-31T10:38:54Z</time></trkpt><trkpt lat="44.1124688" lon="10.4186871"><ele>273.0</ele><time>2026-03-31T10:38:56Z</time></trkpt><trkpt lat="44.1125719" lon="10.4186622"><ele>273.4</ele><time>2026-03-31T10:38:58Z</time></trkpt><trkpt lat="44.112666" lon="10.4186486"><ele>273.8</ele><time>2026-03-31T10:39:00Z</time></trkpt><trkpt lat="44.1127595" lon="10.4186403"><ele>274.2</ele><time>2026-03-31T10:39:02Z</time></trkpt><trkpt lat="44.1128528" lon="10.4186271"><ele>274.6</ele><time>2026-03-31T10:39:03.999Z</time></trkpt><trkpt lat="44.1129417" lon="10.4186051"><ele>275.0</ele><time>2026-03-31T10:39:06Z</time></trkpt><trkpt lat="44.1130367" lon="10.4185836"><ele>275.0</ele><time>2026-03-31T10:39:07.999Z</time></trkpt><trkpt lat="44.1131377" lon="10.418565"><ele>275.0</ele><time>2026-03-31T10:39:10Z</time></trkpt><trkpt lat="44.1132231" lon="10.4185591"><ele>275.0</ele><time>2026-03-31T10:39:11.999Z</time></trkpt><trkpt lat="44.113325" lon="10.4185605"><ele>275.0</ele><time>2026-03-31T10:39:13.999Z</time></trkpt><trkpt lat="44.1134159" lon="10.4185757"><ele>275.0</ele><time>2026-03-31T10:39:16Z</time></trkpt><trkpt lat="44.1135064" lon="10.418598"><ele>273.6</ele><time>2026-03-31T10:39:18Z</time></trkpt><trkpt lat="44.1136029" lon="10.418648"><ele>272.2</ele><time>2026-03-31T10:39:20Z</time></trkpt><trkpt lat="44.1136838" lon="10.418705"><ele>270.8</ele><time>2026-03-31T10:39:22Z</time></trkpt><trkpt lat="44.1137603" lon="10.418767"><ele>269.4</ele><time>2026-03-31T10:39:24Z</time></trkpt><trkpt lat="44.1138364" lon="10.4188452"><ele>268.0</ele><time>2026-03-31T10:39:26Z</time></trkpt><trkpt lat="44.1139143" lon="10.4189158"><ele>269.2</ele><time>2026-03-31T10:39:27.999Z</time></trkpt><trkpt lat="44.1139837" lon="10.4189972"><ele>270.4</ele><time>2026-03-31T10:39:30Z</time></trkpt><trkpt lat="44.1140511" lon="10.419082"><ele>271.59999999999997</ele><time>2026-03-31T10:39:32Z</time></trkpt><trkpt lat="44.1141242" lon="10.4191785"><ele>272.8</ele><time>2026-03-31T10:39:33.999Z</time></trkpt><trkpt lat="44.1141783" lon="10.4192831"><ele>274.0</ele><time>2026-03-31T10:39:36Z</time></trkpt><trkpt lat="44.1142221" lon="10.4193911"><ele>274.0</ele><time>2026-03-31T10:39:38Z</time></trkpt><trkpt lat="44.1142473" lon="10.4194887"><ele>274.0</ele><time>2026-03-31T10:39:40Z</time></trkpt><trkpt lat="44.1142674" lon="10.4195946"><ele>274.0</ele><time>2026-03-31T10:39:41.999Z</time></trkpt><trkpt lat="44.1142776" lon="10.4197061"><ele>274.0</ele><time>2026-03-31T10:39:44Z</time></trkpt><trkpt lat="44.1142998" lon="10.4198133"><ele>274.0</ele><time>2026-03-31T10:39:46Z</time></trkpt><trkpt lat="44.1143401" lon="10.4199222"><ele>274.0</ele><time>2026-03-31T10:39:48Z</time></trkpt><trkpt lat="44.1143813" lon="10.4200465"><ele>277.4</ele><time>2026-03-31T10:39:49.999Z</time></trkpt><trkpt lat="44.1144138" lon="10.4201814"><ele>280.79999999999995</ele><time>2026-03-31T10:39:52Z</time></trkpt><trkpt lat="44.1144422" lon="10.4203216"><ele>284.20000000000005</ele><time>2026-03-31T10:39:53.999Z</time></trkpt><trkpt lat="44.1144556" lon="10.4204727"><ele>287.6</ele><time>2026-03-31T10:39:56Z</time></trkpt><trkpt lat="44.1144761" lon="10.4206084"><ele>291.0</ele><time>2026-03-31T10:39:57.999Z</time></trkpt><trkpt lat="44.1145022" lon="10.4207527"><ele>291.0</ele><time>2026-03-31T10:39:59.999Z</time></trkpt><trkpt lat="44.1145169" lon="10.4209003"><ele>291.0</ele><time>2026-03-31T10:40:01.999Z</time></trkpt><trkpt lat="44.114536" lon="10.4210554"><ele>291.0</ele><time>2026-03-31T10:40:03.999Z</time></trkpt><trkpt lat="44.1145557" lon="10.4212016"><ele>291.0</ele><time>2026-03-31T10:40:06Z</time></trkpt><trkpt lat="44.1145685" lon="10.4213419"><ele>291.0</ele><time>2026-03-31T10:40:07.999Z</time></trkpt><trkpt lat="44.1145839" lon="10.4214879"><ele>289.75</ele><time>2026-03-31T10:40:10Z</time></trkpt><trkpt lat="44.1146055" lon="10.4216405"><ele>288.5</ele><time>2026-03-31T10:40:11.999Z</time></trkpt><trkpt lat="44.1146248" lon="10.4218"><ele>287.25</ele><time>2026-03-31T10:40:13.999Z</time></trkpt><trkpt lat="44.1146387" lon="10.4219511"><ele>286.0</ele><time>2026-03-31T10:40:16Z</time></trkpt><trkpt lat="44.1146611" lon="10.422109"><ele>284.75</ele><time>2026-03-31T10:40:18Z</time></trkpt><trkpt lat="44.1146793" lon="10.4222621"><ele>283.5</ele><time>2026-03-31T10:40:20Z</time></trkpt><trkpt lat="44.1146985" lon="10.4224257"><ele>282.25</ele><time>2026-03-31T10:40:21.999Z</time></trkpt><trkpt lat="44.1147153" lon="10.4225849"><ele>281.0</ele><time>2026-03-31T10:40:24Z</time></trkpt><trkpt lat="44.1147322" lon="10.4227391"><ele>281.0</ele><time>2026-03-31T10:40:26Z</time></trkpt><trkpt lat="44.1147521" lon="10.4228999"><ele>281.0</ele><time>2026-03-31T10:40:28Z</time></trkpt><trkpt lat="44.1147723" lon="10.4230537"><ele>281.0</ele><time>2026-03-31T10:40:29.999Z</time></trkpt><trkpt lat="44.1147927" lon="10.4232156"><ele>281.0</ele><time>2026-03-31T10:40:32Z</time></trkpt><trkpt lat="44.1148107" lon="10.4233761"><ele>281.1666666666667</ele><time>2026-03-31T10:40:34Z</time></trkpt><trkpt lat="44.1148311" lon="10.4235445"><ele>281.33333333333337</ele><time>2026-03-31T10:40:35.999Z</time></trkpt><trkpt lat="44.1148421" lon="10.423633"><ele>281.5</ele><time>2026-03-31T10:40:37Z</time></trkpt><trkpt lat="44.1148593" lon="10.4238069"><ele>281.6666666666667</ele><time>2026-03-31T10:40:39Z</time></trkpt><trkpt lat="44.1148682" lon="10.4238967"><ele>281.8333333333333</ele><time>2026-03-31T10:40:40Z</time></trkpt><trkpt lat="44.1148812" lon="10.4239862"><ele>282.0</ele><time>2026-03-31T10:40:41Z</time></trkpt><trkpt lat="44.1148911" lon="10.4240743"><ele>280.7142857142857</ele><time>2026-03-31T10:40:42Z</time></trkpt><trkpt lat="44.1149075" lon="10.4241667"><ele>279.42857142857144</ele><time>2026-03-31T10:40:42.999Z</time></trkpt><trkpt lat="44.1149161" lon="10.4242591"><ele>278.1428571428571</ele><time>2026-03-31T10:40:44Z</time></trkpt><trkpt lat="44.1149247" lon="10.4243515"><ele>276.8571428571429</ele><time>2026-03-31T10:40:45Z</time></trkpt><trkpt lat="44.1149374" lon="10.424446"><ele>275.57142857142856</ele><time>2026-03-31T10:40:46Z</time></trkpt><trkpt lat="44.1149474" lon="10.4245392"><ele>274.2857142857143</ele><time>2026-03-31T10:40:46.999Z</time></trkpt><trkpt lat="44.1149613" lon="10.4246336"><ele>273.0</ele><time>2026-03-31T10:40:47.999Z</time></trkpt><trkpt lat="44.1149698" lon="10.4247325"><ele>273.0</ele><time>2026-03-31T10:40:49Z</time></trkpt><trkpt lat="44.114988" lon="10.4248239"><ele>273.0</ele><time>2026-03-31T10:40:49.999Z</time></trkpt><trkpt lat="44.1150003" lon="10.4249204"><ele>273.0</ele><time>2026-03-31T10:40:51Z</time></trkpt><trkpt lat="44.115011" lon="10.425016"><ele>273.0</ele><time>2026-03-31T10:40:52Z</time></trkpt><trkpt lat="44.1150133" lon="10.4251123"><ele>273.0</ele><time>2026-03-31T10:40:52.999Z</time></trkpt><trkpt lat="44.1150198" lon="10.4252101"><ele>273.0</ele><time>2026-03-31T10:40:54Z</time></trkpt><trkpt lat="44.1150272" lon="10.4253106"><ele>273.0</ele><time>2026-03-31T10:40:55Z</time></trkpt><trkpt lat="44.1150279" lon="10.4254045"><ele>273.7142857142857</ele><time>2026-03-31T10:40:55.999Z</time></trkpt><trkpt lat="44.1150229" lon="10.4254942"><ele>274.42857142857144</ele><time>2026-03-31T10:40:57Z</time></trkpt><trkpt lat="44.1150153" lon="10.4255924"><ele>275.1428571428571</ele><time>2026-03-31T10:40:57.999Z</time></trkpt><trkpt lat="44.1150013" lon="10.4256887"><ele>275.8571428571429</ele><time>2026-03-31T10:40:59Z</time></trkpt><trkpt lat="44.1149836" lon="10.4257875"><ele>276.57142857142856</ele><time>2026-03-31T10:40:59.999Z</time></trkpt><trkpt lat="44.1149643" lon="10.4258822"><ele>277.2857142857143</ele><time>2026-03-31T10:41:01Z</time></trkpt><trkpt lat="44.1149409" lon="10.4259733"><ele>278.0</ele><time>2026-03-31T10:41:02Z</time></trkpt><trkpt lat="44.1149183" lon="10.4260648"><ele>282.1428571428571</ele><time>2026-03-31T10:41:02.999Z</time></trkpt><trkpt lat="44.1148964" lon="10.4261529"><ele>286.2857142857143</ele><time>2026-03-31T10:41:04Z</time></trkpt><trkpt lat="44.1148731" lon="10.4262416"><ele>290.42857142857144</ele><time>2026-03-31T10:41:05Z</time></trkpt><trkpt lat="44.1148491" lon="10.4263297"><ele>294.57142857142856</ele><time>2026-03-31T10:41:06Z</time></trkpt><trkpt lat="44.1148287" lon="10.4264163"><ele>298.7142857142857</ele><time>2026-03-31T10:41:07Z</time></trkpt><trkpt lat="44.1148095" lon="10.4265017"><ele>302.85714285714283</ele><time>2026-03-31T10:41:07.999Z</time></trkpt><trkpt lat="44.1147896" lon="10.4265881"><ele>307.0</ele><time>2026-03-31T10:41:09Z</time></trkpt><trkpt lat="44.1147854" lon="10.4266781"><ele>307.71428571428567</ele><time>2026-03-31T10:41:10Z</time></trkpt><trkpt lat="44.1147752" lon="10.4267746"><ele>308.42857142857144</ele><time>2026-03-31T10:41:10.999Z</time></trkpt><trkpt lat="44.1147621" lon="10.4268696"><ele>309.1428571428571</ele><time>2026-03-31T10:41:12Z</time></trkpt><trkpt lat="44.1147498" lon="10.4269635"><ele>309.85714285714283</ele><time>2026-03-31T10:41:13Z</time></trkpt><trkpt lat="44.1147414" lon="10.4270658"><ele>310.57142857142856</ele><time>2026-03-31T10:41:13.999Z</time></trkpt><trkpt lat="44.1147324" lon="10.4271638"><ele>311.2857142857143</ele><time>2026-03-31T10:41:15Z</time></trkpt><trkpt lat="44.1147238" lon="10.4272651"><ele>312.0</ele><time>2026-03-31T10:41:16Z</time></trkpt><trkpt lat="44.1147189" lon="10.4273674"><ele>312.0</ele><time>2026-03-31T10:41:16.999Z</time></trkpt><trkpt lat="44.1147158" lon="10.4274688"><ele>312.0</ele><time>2026-03-31T10:41:18Z</time></trkpt><trkpt lat="44.1147118" lon="10.4275709"><ele>312.0</ele><time>2026-03-31T10:41:18.999Z</time></trkpt><trkpt lat="44.1147013" lon="10.4276668"><ele>312.0</ele><time>2026-03-31T10:41:19.999Z</time></trkpt><trkpt lat="44.1146939" lon="10.4277613"><ele>312.0</ele><time>2026-03-31T10:41:21Z</time></trkpt><trkpt lat="44.1146813" lon="10.4278591"><ele>312.0</ele><time>2026-03-31T10:41:21.999Z</time></trkpt><trkpt lat="44.1146826" lon="10.4279543"><ele>312.0</ele><time>2026-03-31T10:41:23Z</time></trkpt><trkpt lat="44.1146805" lon="10.4280492"><ele>311.14285714285717</ele><time>2026-03-31T10:41:24Z</time></trkpt><trkpt lat="44.1146703" lon="10.4281453"><ele>310.2857142857143</ele><time>2026-03-31T10:41:25Z</time></trkpt><trkpt lat="44.1146607" lon="10.4282349"><ele>309.42857142857144</ele><time>2026-03-31T10:41:25.999Z</time></trkpt><trkpt lat="44.1146495" lon="10.428328"><ele>308.57142857142856</ele><time>2026-03-31T10:41:27Z</time></trkpt><trkpt lat="44.1146403" lon="10.4284209"><ele>307.7142857142857</ele><time>2026-03-31T10:41:28Z</time></trkpt><trkpt lat="44.1146312" lon="10.4285142"><ele>306.85714285714283</ele><time>2026-03-31T10:41:29Z</time></trkpt><trkpt lat="44.1146166" lon="10.428605"><ele>306.0</ele><time>2026-03-31T10:41:30Z</time></trkpt><trkpt lat="44.1146004" lon="10.4286945"><ele>306.0</ele><time>2026-03-31T10:41:31Z</time></trkpt><trkpt lat="44.1145891" lon="10.4287891"><ele>306.0</ele><time>2026-03-31T10:41:32Z</time></trkpt><trkpt lat="44.114576" lon="10.4288809"><ele>306.0</ele><time>2026-03-31T10:41:33Z</time></trkpt><trkpt lat="44.114561" lon="10.4289698"><ele>306.0</ele><time>2026-03-31T10:41:34Z</time></trkpt><trkpt lat="44.1145429" lon="10.4290575"><ele>306.0</ele><time>2026-03-31T10:41:35Z</time></trkpt><trkpt lat="44.114517" lon="10.4291407"><ele>306.0</ele><time>2026-03-31T10:41:36Z</time></trkpt><trkpt lat="44.1144845" lon="10.4292267"><ele>306.0</ele><time>2026-03-31T10:41:37Z</time></trkpt><trkpt lat="44.1144364" lon="10.4293084"><ele>303.85714285714283</ele><time>2026-03-31T10:41:38Z</time></trkpt><trkpt lat="44.1144012" lon="10.4293927"><ele>301.7142857142857</ele><time>2026-03-31T10:41:39Z</time></trkpt><trkpt lat="44.1143604" lon="10.4294739"><ele>299.57142857142856</ele><time>2026-03-31T10:41:39.999Z</time></trkpt><trkpt lat="44.114316" lon="10.4295592"><ele>297.42857142857144</ele><time>2026-03-31T10:41:41Z</time></trkpt><trkpt lat="44.1142752" lon="10.4296445"><ele>295.2857142857143</ele><time>2026-03-31T10:41:42Z</time></trkpt><trkpt lat="44.114234" lon="10.4297268"><ele>293.1428571428571</ele><time>2026-03-31T10:41:42.999Z</time></trkpt><trkpt lat="44.1141879" lon="10.4298093"><ele>291.0</ele><time>2026-03-31T10:41:44Z</time></trkpt><trkpt lat="44.1141474" lon="10.4298879"><ele>289.6666666666667</ele><time>2026-03-31T10:41:44.999Z</time></trkpt><trkpt lat="44.1140964" lon="10.4299728"><ele>288.3333333333333</ele><time>2026-03-31T10:41:46Z</time></trkpt><trkpt lat="44.1140467" lon="10.4300583"><ele>287.0</ele><time>2026-03-31T10:41:47Z</time></trkpt><trkpt lat="44.1139925" lon="10.430132"><ele>285.66666666666663</ele><time>2026-03-31T10:41:48Z</time></trkpt><trkpt lat="44.113927" lon="10.4302029"><ele>284.3333333333333</ele><time>2026-03-31T10:41:49Z</time></trkpt><trkpt lat="44.1138713" lon="10.4302655"><ele>283.0</ele><time>2026-03-31T10:41:50Z</time></trkpt><trkpt lat="44.113799" lon="10.430323"><ele>283.0</ele><time>2026-03-31T10:41:50.999Z</time></trkpt><trkpt lat="44.1137314" lon="10.430383"><ele>283.0</ele><time>2026-03-31T10:41:52Z</time></trkpt><trkpt lat="44.1136637" lon="10.4304436"><ele>283.0</ele><time>2026-03-31T10:41:53Z</time></trkpt><trkpt lat="44.1136005" lon="10.4304931"><ele>283.0</ele><time>2026-03-31T10:41:54Z</time></trkpt><trkpt lat="44.1135357" lon="10.4305352"><ele>283.0</ele><time>2026-03-31T10:41:55Z</time></trkpt><trkpt lat="44.1134715" lon="10.430577"><ele>283.0</ele><time>2026-03-31T10:41:56Z</time></trkpt><trkpt lat="44.113411" lon="10.4306092"><ele>283.0</ele><time>2026-03-31T10:41:57Z</time></trkpt><trkpt lat="44.1133516" lon="10.430646"><ele>281.2</ele><time>2026-03-31T10:41:58Z</time></trkpt><trkpt lat="44.1132871" lon="10.4306858"><ele>279.4</ele><time>2026-03-31T10:41:59Z</time></trkpt><trkpt lat="44.1131775" lon="10.4307657"><ele>277.59999999999997</ele><time>2026-03-31T10:42:00.999Z</time></trkpt><trkpt lat="44.1130812" lon="10.4308433"><ele>275.8</ele><time>2026-03-31T10:42:03Z</time></trkpt><trkpt lat="44.1130283" lon="10.4309014"><ele>274.0</ele><time>2026-03-31T10:42:04Z</time></trkpt><trkpt lat="44.1129238" lon="10.4309997"><ele>274.0</ele><time>2026-03-31T10:42:05.999Z</time></trkpt><trkpt lat="44.1128305" lon="10.4311168"><ele>274.0</ele><time>2026-03-31T10:42:08Z</time></trkpt><trkpt lat="44.1127564" lon="10.4312401"><ele>274.0</ele><time>2026-03-31T10:42:09.999Z</time></trkpt><trkpt lat="44.1127" lon="10.4313654"><ele>274.0</ele><time>2026-03-31T10:42:12Z</time></trkpt><trkpt lat="44.1126334" lon="10.4314843"><ele>272.4</ele><time>2026-03-31T10:42:14Z</time></trkpt><trkpt lat="44.1125718" lon="10.4316031"><ele>270.79999999999995</ele><time>2026-03-31T10:42:16Z</time></trkpt><trkpt lat="44.1125082" lon="10.4317205"><ele>269.20000000000005</ele><time>2026-03-31T10:42:17.999Z</time></trkpt><trkpt lat="44.1124466" lon="10.4318398"><ele>267.6</ele><time>2026-03-31T10:42:20Z</time></trkpt><trkpt lat="44.112389" lon="10.4319791"><ele>266.0</ele><time>2026-03-31T10:42:21.999Z</time></trkpt><trkpt lat="44.1123513" lon="10.4321077"><ele>273.2</ele><time>2026-03-31T10:42:23.999Z</time></trkpt><trkpt lat="44.112325" lon="10.4322278"><ele>280.40000000000003</ele><time>2026-03-31T10:42:26Z</time></trkpt><trkpt lat="44.1122838" lon="10.4323686"><ele>287.6</ele><time>2026-03-31T10:42:28Z</time></trkpt><trkpt lat="44.1122383" lon="10.4324976"><ele>294.8</ele><time>2026-03-31T10:42:30Z</time></trkpt><trkpt lat="44.1121933" lon="10.4326195"><ele>302.0</ele><time>2026-03-31T10:42:32Z</time></trkpt><trkpt lat="44.1121467" lon="10.4327497"><ele>302.0</ele><time>2026-03-31T10:42:33.999Z</time></trkpt><trkpt lat="44.1121129" lon="10.4328863"><ele>302.0</ele><time>2026-03-31T10:42:36Z</time></trkpt><trkpt lat="44.1120927" lon="10.4330223"><ele>302.0</ele><time>2026-03-31T10:42:38Z</time></trkpt><trkpt lat="44.1120716" lon="10.4331655"><ele>302.0</ele><time>2026-03-31T10:42:40Z</time></trkpt><trkpt lat="44.1120567" lon="10.4332964"><ele>302.0</ele><time>2026-03-31T10:42:42Z</time></trkpt><trkpt lat="44.1120367" lon="10.4334374"><ele>301.4</ele><time>2026-03-31T10:42:44Z</time></trkpt><trkpt lat="44.1120239" lon="10.4335733"><ele>300.79999999999995</ele><time>2026-03-31T10:42:46Z</time></trkpt><trkpt lat="44.1120281" lon="10.4337166"><ele>300.2</ele><time>2026-03-31T10:42:48Z</time></trkpt><trkpt lat="44.1120338" lon="10.4338242"><ele>299.59999999999997</ele><time>2026-03-31T10:42:50Z</time></trkpt><trkpt lat="44.1120651" lon="10.4339559"><ele>299.0</ele><time>2026-03-31T10:42:52Z</time></trkpt><trkpt lat="44.1121151" lon="10.4340942"><ele>299.0</ele><time>2026-03-31T10:42:53.999Z</time></trkpt><trkpt lat="44.112169" lon="10.4342269"><ele>299.0</ele><time>2026-03-31T10:42:56Z</time></trkpt><trkpt lat="44.1122256" lon="10.4343521"><ele>299.0</ele><time>2026-03-31T10:42:57.999Z</time></trkpt><trkpt lat="44.1122793" lon="10.4344678"><ele>299.0</ele><time>2026-03-31T10:42:59.999Z</time></trkpt><trkpt lat="44.1123393" lon="10.4345808"><ele>299.0</ele><time>2026-03-31T10:43:02Z</time></trkpt><trkpt lat="44.1124098" lon="10.434691"><ele>293.2</ele><time>2026-03-31T10:43:04Z</time></trkpt><trkpt lat="44.1124894" lon="10.4347971"><ele>287.4</ele><time>2026-03-31T10:43:06Z</time></trkpt><trkpt lat="44.1125749" lon="10.4348893"><ele>281.6</ele><time>2026-03-31T10:43:07.999Z</time></trkpt><trkpt lat="44.1126579" lon="10.4349819"><ele>275.8</ele><time>2026-03-31T10:43:09.999Z</time></trkpt><trkpt lat="44.1127472" lon="10.4350616"><ele>270.0</ele><time>2026-03-31T10:43:11.999Z</time></trkpt><trkpt lat="44.1128056" lon="10.4350984"><ele>270.0</ele><time>2026-03-31T10:43:13Z</time></trkpt><trkpt lat="44.1129001" lon="10.435161"><ele>270.0</ele><time>2026-03-31T10:43:15Z</time></trkpt><trkpt lat="44.1129982" lon="10.4352009"><ele>270.0</ele><time>2026-03-31T10:43:16.999Z</time></trkpt><trkpt lat="44.1130884" lon="10.4352273"><ele>270.0</ele><time>2026-03-31T10:43:19Z</time></trkpt><trkpt lat="44.1131782" lon="10.4352688"><ele>270.0</ele><time>2026-03-31T10:43:20.999Z</time></trkpt><trkpt lat="44.1132964" lon="10.435271"><ele>266.8</ele><time>2026-03-31T10:43:23Z</time></trkpt><trkpt lat="44.1133949" lon="10.4352779"><ele>263.6</ele><time>2026-03-31T10:43:24.999Z</time></trkpt><trkpt lat="44.1134935" lon="10.4352805"><ele>260.4</ele><time>2026-03-31T10:43:27Z</time></trkpt><trkpt lat="44.1135982" lon="10.4352833"><ele>257.2</ele><time>2026-03-31T10:43:28.999Z</time></trkpt><trkpt lat="44.1137005" lon="10.4352979"><ele>254.0</ele><time>2026-03-31T10:43:31Z</time></trkpt><trkpt lat="44.1138076" lon="10.4353058"><ele>254.0</ele><time>2026-03-31T10:43:33Z</time></trkpt><trkpt lat="44.113904" lon="10.4353157"><ele>253.99999999999997</ele><time>2026-03-31T10:43:34.999Z</time></trkpt><trkpt lat="44.1140061" lon="10.4353192"><ele>253.99999999999997</ele><time>2026-03-31T10:43:36.999Z</time></trkpt><trkpt lat="44.1141083" lon="10.4353225"><ele>254.0</ele><time>2026-03-31T10:43:38.999Z</time></trkpt><trkpt lat="44.1142145" lon="10.4353336"><ele>254.0</ele><time>2026-03-31T10:43:40.999Z</time></trkpt><trkpt lat="44.1143239" lon="10.4353365"><ele>253.2</ele><time>2026-03-31T10:43:43Z</time></trkpt><trkpt lat="44.1144389" lon="10.4353458"><ele>252.39999999999998</ele><time>2026-03-31T10:43:45Z</time></trkpt><trkpt lat="44.1145446" lon="10.4353563"><ele>251.6</ele><time>2026-03-31T10:43:47Z</time></trkpt><trkpt lat="44.1146526" lon="10.4353633"><ele>250.8</ele><time>2026-03-31T10:43:48.999Z</time></trkpt><trkpt lat="44.1147522" lon="10.4353632"><ele>250.0</ele><time>2026-03-31T10:43:50.999Z</time></trkpt><trkpt lat="44.1148624" lon="10.4353699"><ele>249.8</ele><time>2026-03-31T10:43:53Z</time></trkpt><trkpt lat="44.1149669" lon="10.4353793"><ele>249.6</ele><time>2026-03-31T10:43:54.999Z</time></trkpt><trkpt lat="44.1150674" lon="10.4353832"><ele>249.39999999999998</ele><time>2026-03-31T10:43:56.999Z</time></trkpt><trkpt lat="44.1151634" lon="10.4353878"><ele>249.2</ele><time>2026-03-31T10:43:59Z</time></trkpt><trkpt lat="44.1152716" lon="10.4353999"><ele>249.0</ele><time>2026-03-31T10:44:00.999Z</time></trkpt><trkpt lat="44.1153638" lon="10.435431"><ele>251.2</ele><time>2026-03-31T10:44:03Z</time></trkpt><trkpt lat="44.1154649" lon="10.4354741"><ele>253.39999999999998</ele><time>2026-03-31T10:44:04.999Z</time></trkpt><trkpt lat="44.1155613" lon="10.4355384"><ele>255.6</ele><time>2026-03-31T10:44:07Z</time></trkpt><trkpt lat="44.1156536" lon="10.4356062"><ele>257.8</ele><time>2026-03-31T10:44:09Z</time></trkpt><trkpt lat="44.115736" lon="10.4356864"><ele>260.0</ele><time>2026-03-31T10:44:10.999Z</time></trkpt><trkpt lat="44.1158217" lon="10.4357741"><ele>260.0</ele><time>2026-03-31T10:44:13Z</time></trkpt><trkpt lat="44.1158986" lon="10.4358705"><ele>260.0</ele><time>2026-03-31T10:44:15Z</time></trkpt><trkpt lat="44.1159603" lon="10.4359749"><ele>260.0</ele><time>2026-03-31T10:44:17Z</time></trkpt><trkpt lat="44.1160202" lon="10.436092"><ele>260.0</ele><time>2026-03-31T10:44:18.999Z</time></trkpt><trkpt lat="44.1160758" lon="10.436213"><ele>260.0</ele><time>2026-03-31T10:44:21Z</time></trkpt><trkpt lat="44.1161219" lon="10.4363439"><ele>261.4</ele><time>2026-03-31T10:44:22.999Z</time></trkpt><trkpt lat="44.1161651" lon="10.4364687"><ele>262.8</ele><time>2026-03-31T10:44:24.999Z</time></trkpt><trkpt lat="44.1161991" lon="10.436603"><ele>264.2</ele><time>2026-03-31T10:44:26.999Z</time></trkpt><trkpt lat="44.1162207" lon="10.4367375"><ele>265.6</ele><time>2026-03-31T10:44:29Z</time></trkpt><trkpt lat="44.1162332" lon="10.4368809"><ele>267.0</ele><time>2026-03-31T10:44:31Z</time></trkpt><trkpt lat="44.1162393" lon="10.4370166"><ele>266.8</ele><time>2026-03-31T10:44:32.999Z</time></trkpt><trkpt lat="44.1162312" lon="10.4371561"><ele>266.6</ele><time>2026-03-31T10:44:35Z</time></trkpt><trkpt lat="44.1162247" lon="10.4372962"><ele>266.40000000000003</ele><time>2026-03-31T10:44:37Z</time></trkpt><trkpt lat="44.1161938" lon="10.4374322"><ele>266.2</ele><time>2026-03-31T10:44:38.999Z</time></trkpt><trkpt lat="44.1161679" lon="10.4375583"><ele>266.0</ele><time>2026-03-31T10:44:41Z</time></trkpt><trkpt lat="44.1161588" lon="10.4376878"><ele>266.0</ele><time>2026-03-31T10:44:43Z</time></trkpt><trkpt lat="44.1161494" lon="10.4378385"><ele>266.0</ele><time>2026-03-31T10:44:45Z</time></trkpt><trkpt lat="44.1161638" lon="10.4379832"><ele>266.0</ele><time>2026-03-31T10:44:46.999Z</time></trkpt><trkpt lat="44.1161887" lon="10.4381316"><ele>266.0</ele><time>2026-03-31T10:44:49Z</time></trkpt><trkpt lat="44.1162182" lon="10.438271"><ele>266.0</ele><time>2026-03-31T10:44:51Z</time></trkpt><trkpt lat="44.1162515" lon="10.4383943"><ele>268.2</ele><time>2026-03-31T10:44:53Z</time></trkpt><trkpt lat="44.1162896" lon="10.438527"><ele>270.40000000000003</ele><time>2026-03-31T10:44:55Z</time></trkpt><trkpt lat="44.1163197" lon="10.4386581"><ele>272.6</ele><time>2026-03-31T10:44:57Z</time></trkpt><trkpt lat="44.1163582" lon="10.4387923"><ele>274.8</ele><time>2026-03-31T10:44:59Z</time></trkpt><trkpt lat="44.1163872" lon="10.438926"><ele>277.0</ele><time>2026-03-31T10:45:01Z</time></trkpt><trkpt lat="44.1164115" lon="10.4390645"><ele>277.2</ele><time>2026-03-31T10:45:03Z</time></trkpt><trkpt lat="44.1164523" lon="10.4392083"><ele>277.4</ele><time>2026-03-31T10:45:05Z</time></trkpt><trkpt lat="44.1164953" lon="10.4393498"><ele>277.6</ele><time>2026-03-31T10:45:07Z</time></trkpt><trkpt lat="44.1165337" lon="10.4394932"><ele>277.8</ele><time>2026-03-31T10:45:09Z</time></trkpt><trkpt lat="44.1165749" lon="10.4396337"><ele>278.0</ele><time>2026-03-31T10:45:10.999Z</time></trkpt><trkpt lat="44.1166279" lon="10.4397745"><ele>278.0</ele><time>2026-03-31T10:45:13Z</time></trkpt><trkpt lat="44.1166924" lon="10.4399082"><ele>278.0</ele><time>2026-03-31T10:45:14.999Z</time></trkpt><trkpt lat="44.1167597" lon="10.4400426"><ele>278.0</ele><time>2026-03-31T10:45:17Z</time></trkpt><trkpt lat="44.1168287" lon="10.4401688"><ele>278.0</ele><time>2026-03-31T10:45:19Z</time></trkpt><trkpt lat="44.1169116" lon="10.4402923"><ele>278.0</ele><time>2026-03-31T10:45:21Z</time></trkpt><trkpt lat="44.1170042" lon="10.4404133"><ele>278.0</ele><time>2026-03-31T10:45:23Z</time></trkpt><trkpt lat="44.1170922" lon="10.4405308"><ele>278.0</ele><time>2026-03-31T10:45:24.999Z</time></trkpt><trkpt lat="44.1171424" lon="10.4405858"><ele>278.0</ele><time>2026-03-31T10:45:26Z</time></trkpt><trkpt lat="44.1172444" lon="10.440698"><ele>278.0</ele><time>2026-03-31T10:45:28Z</time></trkpt><trkpt lat="44.1172926" lon="10.4407548"><ele>276.0</ele><time>2026-03-31T10:45:28.999Z</time></trkpt><trkpt lat="44.1173477" lon="10.4408095"><ele>274.0</ele><time>2026-03-31T10:45:30Z</time></trkpt><trkpt lat="44.117401" lon="10.4408652"><ele>272.0</ele><time>2026-03-31T10:45:30.999Z</time></trkpt><trkpt lat="44.1174547" lon="10.4409231"><ele>270.0</ele><time>2026-03-31T10:45:32Z</time></trkpt><trkpt lat="44.1175103" lon="10.4409748"><ele>268.0</ele><time>2026-03-31T10:45:32.999Z</time></trkpt><trkpt lat="44.1175618" lon="10.4410299"><ele>266.0</ele><time>2026-03-31T10:45:34Z</time></trkpt><trkpt lat="44.1176172" lon="10.4410875"><ele>264.0</ele><time>2026-03-31T10:45:34.999Z</time></trkpt><trkpt lat="44.1176715" lon="10.4411522"><ele>264.0</ele><time>2026-03-31T10:45:36Z</time></trkpt><trkpt lat="44.1177252" lon="10.4412152"><ele>264.0</ele><time>2026-03-31T10:45:37Z</time></trkpt><trkpt lat="44.1177766" lon="10.4412791"><ele>264.0</ele><time>2026-03-31T10:45:38Z</time></trkpt><trkpt lat="44.1178276" lon="10.4413473"><ele>264.0</ele><time>2026-03-31T10:45:39Z</time></trkpt><trkpt lat="44.1178711" lon="10.4414213"><ele>264.0</ele><time>2026-03-31T10:45:40Z</time></trkpt><trkpt lat="44.117911" lon="10.4414999"><ele>264.0</ele><time>2026-03-31T10:45:41Z</time></trkpt><trkpt lat="44.1179499" lon="10.4415825"><ele>264.0</ele><time>2026-03-31T10:45:42Z</time></trkpt><trkpt lat="44.1179847" lon="10.4416653"><ele>267.57142857142856</ele><time>2026-03-31T10:45:43Z</time></trkpt><trkpt lat="44.1180145" lon="10.4417618"><ele>271.14285714285717</ele><time>2026-03-31T10:45:44Z</time></trkpt><trkpt lat="44.1180408" lon="10.4418554"><ele>274.7142857142857</ele><time>2026-03-31T10:45:44.999Z</time></trkpt><trkpt lat="44.1180631" lon="10.4419458"><ele>278.2857142857143</ele><time>2026-03-31T10:45:46Z</time></trkpt><trkpt lat="44.1180793" lon="10.4420427"><ele>281.85714285714283</ele><time>2026-03-31T10:45:47Z</time></trkpt><trkpt lat="44.1180884" lon="10.4421385"><ele>285.42857142857144</ele><time>2026-03-31T10:45:48Z</time></trkpt><trkpt lat="44.1180925" lon="10.4422367"><ele>289.0</ele><time>2026-03-31T10:45:48.999Z</time></trkpt><trkpt lat="44.1180979" lon="10.4423321"><ele>289.2857142857143</ele><time>2026-03-31T10:45:50Z</time></trkpt><trkpt lat="44.1181015" lon="10.4424351"><ele>289.57142857142856</ele><time>2026-03-31T10:45:51Z</time></trkpt><trkpt lat="44.1181023" lon="10.4425366"><ele>289.85714285714283</ele><time>2026-03-31T10:45:51.999Z</time></trkpt><trkpt lat="44.118102" lon="10.4426307"><ele>290.1428571428571</ele><time>2026-03-31T10:45:53Z</time></trkpt><trkpt lat="44.1180936" lon="10.4427277"><ele>290.4285714285714</ele><time>2026-03-31T10:45:53.999Z</time></trkpt><trkpt lat="44.1180901" lon="10.4428266"><ele>290.7142857142857</ele><time>2026-03-31T10:45:55Z</time></trkpt><trkpt lat="44.118082" lon="10.4429261"><ele>291.0</ele><time>2026-03-31T10:45:56Z</time></trkpt><trkpt lat="44.118069" lon="10.4430195"><ele>291.0</ele><time>2026-03-31T10:45:57Z</time></trkpt><trkpt lat="44.1180574" lon="10.4431169"><ele>291.0</ele><time>2026-03-31T10:45:57.999Z</time></trkpt><trkpt lat="44.1180438" lon="10.4432098"><ele>291.0</ele><time>2026-03-31T10:45:59Z</time></trkpt><trkpt lat="44.1180286" lon="10.443298"><ele>291.0</ele><time>2026-03-31T10:46:00Z</time></trkpt><trkpt lat="44.1180173" lon="10.4433885"><ele>291.0</ele><time>2026-03-31T10:46:01Z</time></trkpt><trkpt lat="44.117969" lon="10.4434781"><ele>291.0</ele><time>2026-03-31T10:46:01.999Z</time></trkpt><trkpt lat="44.1179468" lon="10.4435665"><ele>291.0</ele><time>2026-03-31T10:46:03Z</time></trkpt><trkpt lat="44.117923" lon="10.4436491"><ele>291.0</ele><time>2026-03-31T10:46:04Z</time></trkpt><trkpt lat="44.117859" lon="10.4437883"><ele>291.0</ele><time>2026-03-31T10:46:06Z</time></trkpt><trkpt lat="44.1178417" lon="10.4439259"><ele>291.0</ele><time>2026-03-31T10:46:08Z</time></trkpt><trkpt lat="44.1178857" lon="10.4440478"><ele>291.0</ele><time>2026-03-31T10:46:10Z</time></trkpt><trkpt lat="44.1179321" lon="10.4441123"><ele>291.0</ele><time>2026-03-31T10:46:11Z</time></trkpt><trkpt lat="44.1179757" lon="10.4441764"><ele>291.0</ele><time>2026-03-31T10:46:11.999Z</time></trkpt><trkpt lat="44.118052" lon="10.4442782"><ele>283.8</ele><time>2026-03-31T10:46:14Z</time></trkpt><trkpt lat="44.1181324" lon="10.4443832"><ele>276.6</ele><time>2026-03-31T10:46:16Z</time></trkpt><trkpt lat="44.1182088" lon="10.4444886"><ele>269.4</ele><time>2026-03-31T10:46:17.999Z</time></trkpt><trkpt lat="44.1182848" lon="10.4445843"><ele>262.2</ele><time>2026-03-31T10:46:19.999Z</time></trkpt><trkpt lat="44.1183637" lon="10.4446848"><ele>255.0</ele><time>2026-03-31T10:46:22Z</time></trkpt><trkpt lat="44.1184416" lon="10.4447862"><ele>252.5</ele><time>2026-03-31T10:46:24Z</time></trkpt><trkpt lat="44.1185187" lon="10.4448557"><ele>250.0</ele><time>2026-03-31T10:46:26Z</time></trkpt><trkpt lat="44.1185733" lon="10.4449058"><ele>247.5</ele><time>2026-03-31T10:46:28Z</time></trkpt><trkpt lat="44.1186507" lon="10.444956"><ele>245.0</ele><time>2026-03-31T10:46:31Z</time></trkpt><trkpt lat="44.1187203" lon="10.4450035"><ele>242.5</ele><time>2026-03-31T10:46:34Z</time></trkpt><trkpt lat="44.1187837" lon="10.445056"><ele>240.0</ele><time>2026-03-31T10:46:37Z</time></trkpt><trkpt lat="44.1188504" lon="10.4451134"><ele>240.0</ele><time>2026-03-31T10:46:40Z</time></trkpt><trkpt lat="44.1189148" lon="10.4451674"><ele>240.0</ele><time>2026-03-31T10:46:43Z</time></trkpt><trkpt lat="44.1189814" lon="10.4452221"><ele>240.0</ele><time>2026-03-31T10:46:45.999Z</time></trkpt><trkpt lat="44.1190467" lon="10.4452959"><ele>240.0</ele><time>2026-03-31T10:46:49Z</time></trkpt><trkpt lat="44.1190773" lon="10.4454065"><ele>240.0</ele><time>2026-03-31T10:46:52Z</time></trkpt><trkpt lat="44.1191005" lon="10.4455131"><ele>240.0</ele><time>2026-03-31T10:46:55Z</time></trkpt><trkpt lat="44.1190906" lon="10.4456066"><ele>242.33333333333334</ele><time>2026-03-31T10:46:58Z</time></trkpt><trkpt lat="44.1190165" lon="10.4456769"><ele>244.66666666666669</ele><time>2026-03-31T10:47:01Z</time></trkpt><trkpt lat="44.1189378" lon="10.4457279"><ele>247.0</ele><time>2026-03-31T10:47:03.999Z</time></trkpt><trkpt lat="44.1188582" lon="10.4457803"><ele>249.33333333333334</ele><time>2026-03-31T10:47:06.999Z</time></trkpt><trkpt lat="44.1187867" lon="10.4457922"><ele>251.66666666666669</ele><time>2026-03-31T10:47:10Z</time></trkpt><trkpt lat="44.1187012" lon="10.4457912"><ele>254.0</ele><time>2026-03-31T10:47:13Z</time></trkpt><trkpt lat="44.11861" lon="10.4457744"><ele>254.00000000000003</ele><time>2026-03-31T10:47:15.999Z</time></trkpt><trkpt lat="44.1185269" lon="10.4457522"><ele>254.0</ele><time>2026-03-31T10:47:18.999Z</time></trkpt><trkpt lat="44.1184478" lon="10.445725"><ele>254.0</ele><time>2026-03-31T10:47:22Z</time></trkpt><trkpt lat="44.1183717" lon="10.4456958"><ele>254.0</ele><time>2026-03-31T10:47:25Z</time></trkpt><trkpt lat="44.1182864" lon="10.4456798"><ele>254.00000000000003</ele><time>2026-03-31T10:47:28Z</time></trkpt><trkpt lat="44.1182019" lon="10.4456699"><ele>254.0</ele><time>2026-03-31T10:47:31Z</time></trkpt><trkpt lat="44.1181157" lon="10.4456825"><ele>252.50000000000003</ele><time>2026-03-31T10:47:34Z</time></trkpt><trkpt lat="44.1180337" lon="10.4457093"><ele>251.0</ele><time>2026-03-31T10:47:37Z</time></trkpt><trkpt lat="44.1179511" lon="10.4457448"><ele>249.5</ele><time>2026-03-31T10:47:40Z</time></trkpt><trkpt lat="44.1178739" lon="10.4457799"><ele>248.0</ele><time>2026-03-31T10:47:42.999Z</time></trkpt><trkpt lat="44.1178029" lon="10.4458312"><ele>246.50000000000003</ele><time>2026-03-31T10:47:45.999Z</time></trkpt><trkpt lat="44.1177376" lon="10.4459018"><ele>245.0</ele><time>2026-03-31T10:47:48.999Z</time></trkpt><trkpt lat="44.1176731" lon="10.4459781"><ele>245.00000000000003</ele><time>2026-03-31T10:47:52Z</time></trkpt><trkpt lat="44.1176178" lon="10.4460624"><ele>245.0</ele><time>2026-03-31T10:47:55Z</time></trkpt><trkpt lat="44.117561" lon="10.4461495"><ele>245.0</ele><time>2026-03-31T10:47:58Z</time></trkpt><trkpt lat="44.1175046" lon="10.4462366"><ele>245.0</ele><time>2026-03-31T10:48:01Z</time></trkpt><trkpt lat="44.1174462" lon="10.4463189"><ele>245.00000000000003</ele><time>2026-03-31T10:48:04Z</time></trkpt><trkpt lat="44.1173957" lon="10.4464061"><ele>245.0</ele><time>2026-03-31T10:48:07Z</time></trkpt><trkpt lat="44.1173426" lon="10.4464888"><ele>245.66666666666669</ele><time>2026-03-31T10:48:09.999Z</time></trkpt><trkpt lat="44.1172895" lon="10.446577"><ele>246.33333333333334</ele><time>2026-03-31T10:48:13Z</time></trkpt><trkpt lat="44.1172386" lon="10.446664"><ele>247.0</ele><time>2026-03-31T10:48:15.999Z</time></trkpt><trkpt lat="44.1171878" lon="10.4467528"><ele>247.66666666666669</ele><time>2026-03-31T10:48:19Z</time></trkpt><trkpt lat="44.1171358" lon="10.4468398"><ele>248.33333333333334</ele><time>2026-03-31T10:48:22Z</time></trkpt><trkpt lat="44.1170885" lon="10.4469281"><ele>249.0</ele><time>2026-03-31T10:48:25Z</time></trkpt><trkpt lat="44.1170391" lon="10.4470108"><ele>249.0</ele><time>2026-03-31T10:48:28Z</time></trkpt><trkpt lat="44.1169898" lon="10.4471001"><ele>249.0</ele><time>2026-03-31T10:48:30.999Z</time></trkpt><trkpt lat="44.1169459" lon="10.4471835"><ele>249.0</ele><time>2026-03-31T10:48:34Z</time></trkpt><trkpt lat="44.1169099" lon="10.4472584"><ele>249.0</ele><time>2026-03-31T10:48:36.999Z</time></trkpt><trkpt lat="44.1168507" lon="10.4473383"><ele>249.0</ele><time>2026-03-31T10:48:40Z</time></trkpt><trkpt lat="44.1167871" lon="10.4474126"><ele>249.0</ele><time>2026-03-31T10:48:43Z</time></trkpt><trkpt lat="44.1167261" lon="10.4474934"><ele>249.66666666666666</ele><time>2026-03-31T10:48:46Z</time></trkpt><trkpt lat="44.1166695" lon="10.4475708"><ele>250.33333333333331</ele><time>2026-03-31T10:48:48.999Z</time></trkpt><trkpt lat="44.1166063" lon="10.447644"><ele>251.0</ele><time>2026-03-31T10:48:52Z</time></trkpt><trkpt lat="44.1165495" lon="10.4477131"><ele>251.66666666666666</ele><time>2026-03-31T10:48:55Z</time></trkpt><trkpt lat="44.1164903" lon="10.4477868"><ele>252.33333333333331</ele><time>2026-03-31T10:48:57.999Z</time></trkpt><trkpt lat="44.1164256" lon="10.4478584"><ele>253.0</ele><time>2026-03-31T10:49:01Z</time></trkpt><trkpt lat="44.1163637" lon="10.4479325"><ele>255.16666666666666</ele><time>2026-03-31T10:49:04Z</time></trkpt><trkpt lat="44.1163069" lon="10.4480147"><ele>257.3333333333333</ele><time>2026-03-31T10:49:07Z</time></trkpt><trkpt lat="44.1162596" lon="10.4480962"><ele>259.5</ele><time>2026-03-31T10:49:10Z</time></trkpt><trkpt lat="44.116211" lon="10.4481888"><ele>261.6666666666667</ele><time>2026-03-31T10:49:12.999Z</time></trkpt><trkpt lat="44.1161748" lon="10.4482898"><ele>263.83333333333337</ele><time>2026-03-31T10:49:16Z</time></trkpt><trkpt lat="44.1161408" lon="10.4483954"><ele>266.0</ele><time>2026-03-31T10:49:18.999Z</time></trkpt><trkpt lat="44.116109" lon="10.4485007"><ele>266.0</ele><time>2026-03-31T10:49:21.999Z</time></trkpt><trkpt lat="44.1160865" lon="10.4486017"><ele>266.0</ele><time>2026-03-31T10:49:25Z</time></trkpt><trkpt lat="44.11607" lon="10.4487111"><ele>266.0</ele><time>2026-03-31T10:49:28Z</time></trkpt><trkpt lat="44.116049" lon="10.4488284"><ele>266.0</ele><time>2026-03-31T10:49:31Z</time></trkpt><trkpt lat="44.1160332" lon="10.4489429"><ele>266.0</ele><time>2026-03-31T10:49:34Z</time></trkpt><trkpt lat="44.1160173" lon="10.4490561"><ele>266.0</ele><time>2026-03-31T10:49:37Z</time></trkpt><trkpt lat="44.1159917" lon="10.4491557"><ele>268.1666666666667</ele><time>2026-03-31T10:49:40Z</time></trkpt><trkpt lat="44.1159726" lon="10.4492669"><ele>270.33333333333337</ele><time>2026-03-31T10:49:43Z</time></trkpt><trkpt lat="44.1159402" lon="10.4493742"><ele>272.5</ele><time>2026-03-31T10:49:46Z</time></trkpt><trkpt lat="44.115907" lon="10.4494798"><ele>274.6666666666667</ele><time>2026-03-31T10:49:49Z</time></trkpt><trkpt lat="44.1158801" lon="10.4495875"><ele>276.8333333333333</ele><time>2026-03-31T10:49:51.999Z</time></trkpt><trkpt lat="44.1158601" lon="10.449705"><ele>279.0</ele><time>2026-03-31T10:49:55Z</time></trkpt><trkpt lat="44.1158512" lon="10.4498209"><ele>280.5</ele><time>2026-03-31T10:49:58Z</time></trkpt><trkpt lat="44.11586" lon="10.4499381"><ele>282.0</ele><time>2026-03-31T10:50:01Z</time></trkpt><trkpt lat="44.1158746" lon="10.4500598"><ele>283.5</ele><time>2026-03-31T10:50:04Z</time></trkpt><trkpt lat="44.1159147" lon="10.4501659"><ele>285.0</ele><time>2026-03-31T10:50:06.999Z</time></trkpt><trkpt lat="44.1159662" lon="10.4502493"><ele>286.5</ele><time>2026-03-31T10:50:10Z</time></trkpt><trkpt lat="44.1160201" lon="10.4503345"><ele>288.0</ele><time>2026-03-31T10:50:13Z</time></trkpt><trkpt lat="44.116013" lon="10.4504425"><ele>288.8333333333333</ele><time>2026-03-31T10:50:16Z</time></trkpt><trkpt lat="44.1159356" lon="10.4505033"><ele>289.6666666666667</ele><time>2026-03-31T10:50:19Z</time></trkpt><trkpt lat="44.1158472" lon="10.4505342"><ele>290.5</ele><time>2026-03-31T10:50:22Z</time></trkpt><trkpt lat="44.1157641" lon="10.450577"><ele>291.33333333333337</ele><time>2026-03-31T10:50:25Z</time></trkpt><trkpt lat="44.1156825" lon="10.4506192"><ele>292.1666666666667</ele><time>2026-03-31T10:50:28Z</time></trkpt><trkpt lat="44.1156111" lon="10.4506833"><ele>293.0</ele><time>2026-03-31T10:50:31Z</time></trkpt><trkpt lat="44.1155637" lon="10.45078"><ele>294.1666666666667</ele><time>2026-03-31T10:50:34Z</time></trkpt><trkpt lat="44.1155556" lon="10.4508967"><ele>295.33333333333337</ele><time>2026-03-31T10:50:37Z</time></trkpt><trkpt lat="44.1155863" lon="10.4510069"><ele>296.5</ele><time>2026-03-31T10:50:40Z</time></trkpt><trkpt lat="44.115631" lon="10.451105"><ele>297.6666666666667</ele><time>2026-03-31T10:50:43Z</time></trkpt><trkpt lat="44.115683" lon="10.4512013"><ele>298.8333333333333</ele><time>2026-03-31T10:50:45.999Z</time></trkpt><trkpt lat="44.1157305" lon="10.4512989"><ele>300.0</ele><time>2026-03-31T10:50:49Z</time></trkpt><trkpt lat="44.1157682" lon="10.4514102"><ele>300.0</ele><time>2026-03-31T10:50:52Z</time></trkpt><trkpt lat="44.1158002" lon="10.451523"><ele>300.0</ele><time>2026-03-31T10:50:55Z</time></trkpt><trkpt lat="44.1158326" lon="10.4516269"><ele>300.0</ele><time>2026-03-31T10:50:58Z</time></trkpt><trkpt lat="44.1158608" lon="10.4517336"><ele>300.0</ele><time>2026-03-31T10:51:01Z</time></trkpt><trkpt lat="44.1158835" lon="10.451848"><ele>300.0</ele><time>2026-03-31T10:51:03.999Z</time></trkpt><trkpt lat="44.1159139" lon="10.451955"><ele>300.0</ele><time>2026-03-31T10:51:07Z</time></trkpt><trkpt lat="44.1159517" lon="10.4520575"><ele>300.3333333333333</ele><time>2026-03-31T10:51:10Z</time></trkpt><trkpt lat="44.1159949" lon="10.4521452"><ele>300.6666666666667</ele><time>2026-03-31T10:51:13Z</time></trkpt><trkpt lat="44.1160474" lon="10.4522325"><ele>301.0</ele><time>2026-03-31T10:51:16Z</time></trkpt><trkpt lat="44.1161072" lon="10.4523235"><ele>301.33333333333337</ele><time>2026-03-31T10:51:19Z</time></trkpt><trkpt lat="44.1161526" lon="10.4524269"><ele>301.6666666666667</ele><time>2026-03-31T10:51:22Z</time></trkpt><trkpt lat="44.1161876" lon="10.4525367"><ele>302.0</ele><time>2026-03-31T10:51:24.999Z</time></trkpt><trkpt lat="44.1162198" lon="10.4526522"><ele>302.0</ele><time>2026-03-31T10:51:28Z</time></trkpt><trkpt lat="44.1162345" lon="10.4527632"><ele>302.0</ele><time>2026-03-31T10:51:31Z</time></trkpt><trkpt lat="44.1162181" lon="10.4528636"><ele>302.0</ele><time>2026-03-31T10:51:33.999Z</time></trkpt><trkpt lat="44.1161563" lon="10.4529211"><ele>302.0</ele><time>2026-03-31T10:51:37Z</time></trkpt><trkpt lat="44.1160901" lon="10.4528675"><ele>302.0</ele><time>2026-03-31T10:51:39.999Z</time></trkpt><trkpt lat="44.1160099" lon="10.452808"><ele>302.0</ele><time>2026-03-31T10:51:43Z</time></trkpt><trkpt lat="44.1159484" lon="10.4527852"><ele>302.0</ele><time>2026-03-31T10:51:45Z</time></trkpt><trkpt lat="44.1158677" lon="10.4527559"><ele>302.0</ele><time>2026-03-31T10:51:47.999Z</time></trkpt><trkpt lat="44.1157825" lon="10.4526914"><ele>302.0</ele><time>2026-03-31T10:51:50.999Z</time></trkpt><trkpt lat="44.1157123" lon="10.4526388"><ele>302.0</ele><time>2026-03-31T10:51:54Z</time></trkpt><trkpt lat="44.1156391" lon="10.4525686"><ele>302.0</ele><time>2026-03-31T10:51:56.999Z</time></trkpt><trkpt lat="44.1155641" lon="10.4525045"><ele>302.0</ele><time>2026-03-31T10:52:00Z</time></trkpt><trkpt lat="44.1154841" lon="10.4524745"><ele>302.33333333333337</ele><time>2026-03-31T10:52:03Z</time></trkpt><trkpt lat="44.1154101" lon="10.4525034"><ele>302.6666666666667</ele><time>2026-03-31T10:52:06Z</time></trkpt><trkpt lat="44.1153295" lon="10.4525258"><ele>303.0</ele><time>2026-03-31T10:52:09Z</time></trkpt><trkpt lat="44.1152556" lon="10.4525503"><ele>303.3333333333333</ele><time>2026-03-31T10:52:12Z</time></trkpt><trkpt lat="44.1151757" lon="10.4525777"><ele>303.66666666666663</ele><time>2026-03-31T10:52:14.999Z</time></trkpt><trkpt lat="44.1150993" lon="10.452598"><ele>304.0</ele><time>2026-03-31T10:52:18Z</time></trkpt><trkpt lat="44.1150204" lon="10.4526223"><ele>304.0</ele><time>2026-03-31T10:52:21Z</time></trkpt><trkpt lat="44.1149319" lon="10.4526579"><ele>304.0</ele><time>2026-03-31T10:52:24Z</time></trkpt><trkpt lat="44.1148507" lon="10.4526991"><ele>304.0</ele><time>2026-03-31T10:52:27Z</time></trkpt><trkpt lat="44.1147773" lon="10.4527568"><ele>304.0</ele><time>2026-03-31T10:52:30Z</time></trkpt><trkpt lat="44.1147036" lon="10.4528086"><ele>304.0</ele><time>2026-03-31T10:52:33Z</time></trkpt><trkpt lat="44.1146314" lon="10.4528611"><ele>304.0</ele><time>2026-03-31T10:52:36Z</time></trkpt><trkpt lat="44.114561" lon="10.4529134"><ele>306.16666666666663</ele><time>2026-03-31T10:52:39Z</time></trkpt><trkpt lat="44.1144903" lon="10.4529624"><ele>308.3333333333333</ele><time>2026-03-31T10:52:42Z</time></trkpt><trkpt lat="44.1144122" lon="10.4530005"><ele>310.5</ele><time>2026-03-31T10:52:45Z</time></trkpt><trkpt lat="44.1143279" lon="10.4530293"><ele>312.6666666666667</ele><time>2026-03-31T10:52:48Z</time></trkpt><trkpt lat="44.1142475" lon="10.453053"><ele>314.83333333333337</ele><time>2026-03-31T10:52:51Z</time></trkpt><trkpt lat="44.1141728" lon="10.4530715"><ele>317.0</ele><time>2026-03-31T10:52:54Z</time></trkpt><trkpt lat="44.1141084" lon="10.4531292"><ele>313.5</ele><time>2026-03-31T10:52:57Z</time></trkpt><trkpt lat="44.1140613" lon="10.4532066"><ele>310.0</ele><time>2026-03-31T10:53:00Z</time></trkpt><trkpt lat="44.1140148" lon="10.4532825"><ele>306.5</ele><time>2026-03-31T10:53:03Z</time></trkpt><trkpt lat="44.1139688" lon="10.4533717"><ele>303.0</ele><time>2026-03-31T10:53:06Z</time></trkpt><trkpt lat="44.113934" lon="10.4534721"><ele>299.5</ele><time>2026-03-31T10:53:08.999Z</time></trkpt><trkpt lat="44.1139291" lon="10.4535759"><ele>296.0</ele><time>2026-03-31T10:53:12Z</time></trkpt><trkpt lat="44.1139351" lon="10.4536857"><ele>296.0</ele><time>2026-03-31T10:53:15Z</time></trkpt><trkpt lat="44.1139466" lon="10.453786"><ele>296.0</ele><time>2026-03-31T10:53:17.999Z</time></trkpt><trkpt lat="44.1139507" lon="10.453883"><ele>296.0</ele><time>2026-03-31T10:53:21Z</time></trkpt><trkpt lat="44.1139175" lon="10.453976"><ele>296.0</ele><time>2026-03-31T10:53:24Z</time></trkpt><trkpt lat="44.1138329" lon="10.4540177"><ele>296.0</ele><time>2026-03-31T10:53:27Z</time></trkpt><trkpt lat="44.1137532" lon="10.4540152"><ele>296.0</ele><time>2026-03-31T10:53:30Z</time></trkpt><trkpt lat="44.1136687" lon="10.4540105"><ele>298.83333333333337</ele><time>2026-03-31T10:53:32.999Z</time></trkpt><trkpt lat="44.1135878" lon="10.4540115"><ele>301.6666666666667</ele><time>2026-03-31T10:53:36Z</time></trkpt><trkpt lat="44.1135193" lon="10.454004"><ele>304.5</ele><time>2026-03-31T10:53:39Z</time></trkpt><trkpt lat="44.1134374" lon="10.4539997"><ele>307.3333333333333</ele><time>2026-03-31T10:53:42Z</time></trkpt><trkpt lat="44.1133589" lon="10.4540051"><ele>310.16666666666663</ele><time>2026-03-31T10:53:44.999Z</time></trkpt><trkpt lat="44.1132906" lon="10.4540393"><ele>313.0</ele><time>2026-03-31T10:53:48Z</time></trkpt><trkpt lat="44.1132333" lon="10.4541039"><ele>313.0</ele><time>2026-03-31T10:53:50.999Z</time></trkpt><trkpt lat="44.1131705" lon="10.4541685"><ele>313.0</ele><time>2026-03-31T10:53:54Z</time></trkpt><trkpt lat="44.1130999" lon="10.4542299"><ele>313.0</ele><time>2026-03-31T10:53:56.999Z</time></trkpt><trkpt lat="44.1130303" lon="10.4542789"><ele>313.0</ele><time>2026-03-31T10:54:00Z</time></trkpt><trkpt lat="44.1129543" lon="10.454277"><ele>313.0</ele><time>2026-03-31T10:54:03Z</time></trkpt><trkpt lat="44.1128767" lon="10.4542426"><ele>313.0</ele><time>2026-03-31T10:54:06Z</time></trkpt><trkpt lat="44.112808" lon="10.4542527"><ele>313.0</ele><time>2026-03-31T10:54:09Z</time></trkpt><trkpt lat="44.1127919" lon="10.4543471"><ele>313.0</ele><time>2026-03-31T10:54:12Z</time></trkpt><trkpt lat="44.1128563" lon="10.4544107"><ele>313.0</ele><time>2026-03-31T10:54:15Z</time></trkpt><trkpt lat="44.1129283" lon="10.454425"><ele>313.0</ele><time>2026-03-31T10:54:17.999Z</time></trkpt><trkpt lat="44.1130024" lon="10.4544492"><ele>313.0</ele><time>2026-03-31T10:54:20.999Z</time></trkpt><trkpt lat="44.1130684" lon="10.4544599"><ele>313.0</ele><time>2026-03-31T10:54:24Z</time></trkpt><trkpt lat="44.1131439" lon="10.4544289"><ele>313.0</ele><time>2026-03-31T10:54:27Z</time></trkpt><trkpt lat="44.1131993" lon="10.4543714"><ele>316.66666666666663</ele><time>2026-03-31T10:54:29.999Z</time></trkpt><trkpt lat="44.1132503" lon="10.4543107"><ele>320.3333333333333</ele><time>2026-03-31T10:54:33Z</time></trkpt><trkpt lat="44.1133139" lon="10.4542623"><ele>324.0</ele><time>2026-03-31T10:54:36Z</time></trkpt><trkpt lat="44.1133874" lon="10.4542628"><ele>327.6666666666667</ele><time>2026-03-31T10:54:39Z</time></trkpt><trkpt lat="44.1134665" lon="10.4542928"><ele>331.33333333333337</ele><time>2026-03-31T10:54:42Z</time></trkpt><trkpt lat="44.1135412" lon="10.4543316"><ele>335.0</ele><time>2026-03-31T10:54:45Z</time></trkpt><trkpt lat="44.1136181" lon="10.4543507"><ele>335.0</ele><time>2026-03-31T10:54:47.999Z</time></trkpt><trkpt lat="44.1136985" lon="10.4543751"><ele>335.0</ele><time>2026-03-31T10:54:51Z</time></trkpt><trkpt lat="44.1137779" lon="10.4543862"><ele>335.0</ele><time>2026-03-31T10:54:54Z</time></trkpt><trkpt lat="44.1137087" lon="10.4544295"><ele>335.0</ele><time>2026-03-31T10:55:00Z</time></trkpt><trkpt lat="44.1136407" lon="10.4543836"><ele>335.0</ele><time>2026-03-31T10:55:03Z</time></trkpt><trkpt lat="44.1135725" lon="10.454362"><ele>335.0</ele><time>2026-03-31T10:55:06Z</time></trkpt><trkpt lat="44.1134977" lon="10.4543666"><ele>335.0</ele><time>2026-03-31T10:55:08.999Z</time></trkpt><trkpt lat="44.1134315" lon="10.4543889"><ele>335.0</ele><time>2026-03-31T10:55:12Z</time></trkpt><trkpt lat="44.1133692" lon="10.4544211"><ele>335.0</ele><time>2026-03-31T10:55:15Z</time></trkpt><trkpt lat="44.1133025" lon="10.4544545"><ele>335.0</ele><time>2026-03-31T10:55:17.999Z</time></trkpt><trkpt lat="44.1132309" lon="10.4545002"><ele>335.0</ele><time>2026-03-31T10:55:21Z</time></trkpt><trkpt lat="44.1131507" lon="10.4545572"><ele>335.0</ele><time>2026-03-31T10:55:24Z</time></trkpt><trkpt lat="44.1130788" lon="10.4546003"><ele>335.33333333333337</ele><time>2026-03-31T10:55:27Z</time></trkpt><trkpt lat="44.1130069" lon="10.4546564"><ele>335.6666666666667</ele><time>2026-03-31T10:55:30Z</time></trkpt><trkpt lat="44.1129282" lon="10.4547053"><ele>336.0</ele><time>2026-03-31T10:55:33Z</time></trkpt><trkpt lat="44.112856" lon="10.4547553"><ele>336.3333333333333</ele><time>2026-03-31T10:55:35.999Z</time></trkpt><trkpt lat="44.112782" lon="10.4547998"><ele>336.66666666666663</ele><time>2026-03-31T10:55:38.999Z</time></trkpt><trkpt lat="44.1127072" lon="10.4548485"><ele>337.0</ele><time>2026-03-31T10:55:42Z</time></trkpt><trkpt lat="44.1126413" lon="10.4549021"><ele>337.00000000000006</ele><time>2026-03-31T10:55:45Z</time></trkpt><trkpt lat="44.1125891" lon="10.4549612"><ele>337.0</ele><time>2026-03-31T10:55:48Z</time></trkpt><trkpt lat="44.1125552" lon="10.455051"><ele>337.0</ele><time>2026-03-31T10:55:51Z</time></trkpt><trkpt lat="44.1125565" lon="10.4551512"><ele>337.0</ele><time>2026-03-31T10:55:54Z</time></trkpt><trkpt lat="44.1125903" lon="10.4552298"><ele>337.0</ele><time>2026-03-31T10:55:57Z</time></trkpt><trkpt lat="44.1126524" lon="10.4552802"><ele>337.00000000000006</ele><time>2026-03-31T10:55:59.999Z</time></trkpt><trkpt lat="44.1127292" lon="10.4553138"><ele>337.0</ele><time>2026-03-31T10:56:03Z</time></trkpt><trkpt lat="44.1128032" lon="10.4553511"><ele>337.0</ele><time>2026-03-31T10:56:06Z</time></trkpt><trkpt lat="44.1128689" lon="10.455385"><ele>337.0</ele><time>2026-03-31T10:56:08.999Z</time></trkpt><trkpt lat="44.1129318" lon="10.4554241"><ele>337.0</ele><time>2026-03-31T10:56:12Z</time></trkpt><trkpt lat="44.1129951" lon="10.4554785"><ele>337.0</ele><time>2026-03-31T10:56:15Z</time></trkpt><trkpt lat="44.1130558" lon="10.4555432"><ele>337.0</ele><time>2026-03-31T10:56:18Z</time></trkpt><trkpt lat="44.1131201" lon="10.4556209"><ele>337.0</ele><time>2026-03-31T10:56:21Z</time></trkpt><trkpt lat="44.1131651" lon="10.4557123"><ele>338.28571428571433</ele><time>2026-03-31T10:56:24Z</time></trkpt><trkpt lat="44.1132051" lon="10.4557985"><ele>339.57142857142856</ele><time>2026-03-31T10:56:27Z</time></trkpt><trkpt lat="44.1132454" lon="10.4558663"><ele>340.8571428571429</ele><time>2026-03-31T10:56:30Z</time></trkpt><trkpt lat="44.1132842" lon="10.4559489"><ele>342.14285714285717</ele><time>2026-03-31T10:56:33Z</time></trkpt><trkpt lat="44.1133305" lon="10.4560399"><ele>343.42857142857144</ele><time>2026-03-31T10:56:36Z</time></trkpt><trkpt lat="44.1133834" lon="10.4561028"><ele>344.7142857142857</ele><time>2026-03-31T10:56:39Z</time></trkpt><trkpt lat="44.1134415" lon="10.4561699"><ele>346.0</ele><time>2026-03-31T10:56:42Z</time></trkpt><trkpt lat="44.1134962" lon="10.4562432"><ele>349.66666666666663</ele><time>2026-03-31T10:56:44.999Z</time></trkpt><trkpt lat="44.1135429" lon="10.4563226"><ele>353.3333333333333</ele><time>2026-03-31T10:56:48Z</time></trkpt><trkpt lat="44.1135928" lon="10.4564074"><ele>357.0</ele><time>2026-03-31T10:56:51Z</time></trkpt><trkpt lat="44.1136357" lon="10.4564963"><ele>360.6666666666667</ele><time>2026-03-31T10:56:54Z</time></trkpt><trkpt lat="44.1136615" lon="10.4566008"><ele>364.33333333333337</ele><time>2026-03-31T10:56:57Z</time></trkpt><trkpt lat="44.1136471" lon="10.4567056"><ele>368.0</ele><time>2026-03-31T10:57:00Z</time></trkpt><trkpt lat="44.1135933" lon="10.4567645"><ele>368.0</ele><time>2026-03-31T10:57:03Z</time></trkpt><trkpt lat="44.1135268" lon="10.4567883"><ele>368.0</ele><time>2026-03-31T10:57:06Z</time></trkpt><trkpt lat="44.1134548" lon="10.456801"><ele>368.0</ele><time>2026-03-31T10:57:08.999Z</time></trkpt><trkpt lat="44.1133706" lon="10.4568136"><ele>368.0</ele><time>2026-03-31T10:57:12Z</time></trkpt><trkpt lat="44.1133023" lon="10.4568312"><ele>368.0</ele><time>2026-03-31T10:57:15Z</time></trkpt><trkpt lat="44.1132329" lon="10.4568423"><ele>368.0</ele><time>2026-03-31T10:57:17.999Z</time></trkpt><trkpt lat="44.1131649" lon="10.4568749"><ele>368.0</ele><time>2026-03-31T10:57:21Z</time></trkpt><trkpt lat="44.1130956" lon="10.4569084"><ele>367.33333333333337</ele><time>2026-03-31T10:57:24Z</time></trkpt><trkpt lat="44.1130128" lon="10.4569096"><ele>366.6666666666667</ele><time>2026-03-31T10:57:26.999Z</time></trkpt><trkpt lat="44.112934" lon="10.456913"><ele>366.0</ele><time>2026-03-31T10:57:30Z</time></trkpt><trkpt lat="44.1128494" lon="10.4569059"><ele>365.3333333333333</ele><time>2026-03-31T10:57:33Z</time></trkpt><trkpt lat="44.1127866" lon="10.456892"><ele>364.66666666666663</ele><time>2026-03-31T10:57:35Z</time></trkpt><trkpt lat="44.1126994" lon="10.4568516"><ele>364.0</ele><time>2026-03-31T10:57:38Z</time></trkpt><trkpt lat="44.1126099" lon="10.4568186"><ele>364.0</ele><time>2026-03-31T10:57:40.999Z</time></trkpt><trkpt lat="44.1125257" lon="10.4568038"><ele>364.0</ele><time>2026-03-31T10:57:43.999Z</time></trkpt><trkpt lat="44.1124628" lon="10.4568075"><ele>364.0</ele><time>2026-03-31T10:57:45.999Z</time></trkpt><trkpt lat="44.1123869" lon="10.4568215"><ele>364.0</ele><time>2026-03-31T10:57:48Z</time></trkpt><trkpt lat="44.1123003" lon="10.4568471"><ele>364.0</ele><time>2026-03-31T10:57:50Z</time></trkpt><trkpt lat="44.1122056" lon="10.4568985"><ele>364.0</ele><time>2026-03-31T10:57:51.999Z</time></trkpt><trkpt lat="44.1121148" lon="10.4569857"><ele>365.14285714285717</ele><time>2026-03-31T10:57:54Z</time></trkpt><trkpt lat="44.1120663" lon="10.4570467"><ele>366.2857142857143</ele><time>2026-03-31T10:57:54.999Z</time></trkpt><trkpt lat="44.112016" lon="10.4571027"><ele>367.42857142857144</ele><time>2026-03-31T10:57:56Z</time></trkpt><trkpt lat="44.1119531" lon="10.4571543"><ele>368.57142857142856</ele><time>2026-03-31T10:57:57Z</time></trkpt><trkpt lat="44.1118867" lon="10.4571828"><ele>369.7142857142857</ele><time>2026-03-31T10:57:58Z</time></trkpt><trkpt lat="44.1118109" lon="10.4571975"><ele>370.8571428571429</ele><time>2026-03-31T10:57:59Z</time></trkpt><trkpt lat="44.1117322" lon="10.457211"><ele>372.0</ele><time>2026-03-31T10:57:59.999Z</time></trkpt><trkpt lat="44.1116666" lon="10.4572344"><ele>372.00000000000006</ele><time>2026-03-31T10:58:00.999Z</time></trkpt><trkpt lat="44.1116064" lon="10.4572819"><ele>372.0</ele><time>2026-03-31T10:58:02Z</time></trkpt><trkpt lat="44.1115476" lon="10.4573356"><ele>372.0</ele><time>2026-03-31T10:58:03Z</time></trkpt><trkpt lat="44.1114897" lon="10.4573861"><ele>372.0</ele><time>2026-03-31T10:58:03.999Z</time></trkpt><trkpt lat="44.1114242" lon="10.4574339"><ele>372.0</ele><time>2026-03-31T10:58:05Z</time></trkpt><trkpt lat="44.1113555" lon="10.4574792"><ele>372.00000000000006</ele><time>2026-03-31T10:58:06Z</time></trkpt><trkpt lat="44.1112912" lon="10.4575289"><ele>372.0</ele><time>2026-03-31T10:58:07Z</time></trkpt><trkpt lat="44.1112207" lon="10.4575807"><ele>370.8333333333333</ele><time>2026-03-31T10:58:08Z</time></trkpt><trkpt lat="44.1111541" lon="10.4576232"><ele>369.6666666666667</ele><time>2026-03-31T10:58:09Z</time></trkpt><trkpt lat="44.1110849" lon="10.4576525"><ele>368.5</ele><time>2026-03-31T10:58:09.999Z</time></trkpt><trkpt lat="44.1110089" lon="10.457636"><ele>367.33333333333337</ele><time>2026-03-31T10:58:11Z</time></trkpt><trkpt lat="44.1109384" lon="10.4575929"><ele>366.1666666666667</ele><time>2026-03-31T10:58:12Z</time></trkpt><trkpt lat="44.1108781" lon="10.4575305"><ele>365.0</ele><time>2026-03-31T10:58:13Z</time></trkpt><trkpt lat="44.1108191" lon="10.4574582"><ele>365.0</ele><time>2026-03-31T10:58:14Z</time></trkpt><trkpt lat="44.1107547" lon="10.4573838"><ele>365.0</ele><time>2026-03-31T10:58:15Z</time></trkpt><trkpt lat="44.110679" lon="10.4573179"><ele>365.0</ele><time>2026-03-31T10:58:15.999Z</time></trkpt><trkpt lat="44.1106049" lon="10.4572427"><ele>365.0</ele><time>2026-03-31T10:58:16.999Z</time></trkpt><trkpt lat="44.1105287" lon="10.4571542"><ele>365.0</ele><time>2026-03-31T10:58:18Z</time></trkpt><trkpt lat="44.1104648" lon="10.4570459"><ele>359.8</ele><time>2026-03-31T10:58:19Z</time></trkpt><trkpt lat="44.1104104" lon="10.4569277"><ele>354.6</ele><time>2026-03-31T10:58:20Z</time></trkpt><trkpt lat="44.1103667" lon="10.4568088"><ele>349.4</ele><time>2026-03-31T10:58:20.999Z</time></trkpt><trkpt lat="44.110319" lon="10.4566891"><ele>344.2</ele><time>2026-03-31T10:58:22Z</time></trkpt><trkpt lat="44.11027" lon="10.4565805"><ele>339.0</ele><time>2026-03-31T10:58:23Z</time></trkpt><trkpt lat="44.1102195" lon="10.4564711"><ele>339.0</ele><time>2026-03-31T10:58:23.999Z</time></trkpt><trkpt lat="44.110172" lon="10.456363"><ele>339.0</ele><time>2026-03-31T10:58:25Z</time></trkpt><trkpt lat="44.1101169" lon="10.4562667"><ele>339.0</ele><time>2026-03-31T10:58:26Z</time></trkpt><trkpt lat="44.1100407" lon="10.4562164"><ele>339.0</ele><time>2026-03-31T10:58:27Z</time></trkpt><trkpt lat="44.1099754" lon="10.456212"><ele>339.0</ele><time>2026-03-31T10:58:27.999Z</time></trkpt><trkpt lat="44.1098915" lon="10.4562965"><ele>339.0</ele><time>2026-03-31T10:58:29.999Z</time></trkpt><trkpt lat="44.1098688" lon="10.4564203"><ele>339.0</ele><time>2026-03-31T10:58:32Z</time></trkpt><trkpt lat="44.1098944" lon="10.456553"><ele>339.0</ele><time>2026-03-31T10:58:33.999Z</time></trkpt><trkpt lat="44.10993" lon="10.456626"><ele>339.0</ele><time>2026-03-31T10:58:35Z</time></trkpt><trkpt lat="44.1099726" lon="10.4566973"><ele>339.0</ele><time>2026-03-31T10:58:36Z</time></trkpt><trkpt lat="44.1100076" lon="10.4567806"><ele>339.0</ele><time>2026-03-31T10:58:36.999Z</time></trkpt><trkpt lat="44.1100469" lon="10.4568723"><ele>339.0</ele><time>2026-03-31T10:58:37.999Z</time></trkpt><trkpt lat="44.1100764" lon="10.4569743"><ele>339.0</ele><time>2026-03-31T10:58:39Z</time></trkpt><trkpt lat="44.1100943" lon="10.4570977"><ele>339.0</ele><time>2026-03-31T10:58:40Z</time></trkpt><trkpt lat="44.1100918" lon="10.4572138"><ele>339.0</ele><time>2026-03-31T10:58:40.999Z</time></trkpt><trkpt lat="44.1100717" lon="10.457342"><ele>339.0</ele><time>2026-03-31T10:58:42Z</time></trkpt><trkpt lat="44.1100501" lon="10.4574818"><ele>339.0</ele><time>2026-03-31T10:58:42.999Z</time></trkpt><trkpt lat="44.1100231" lon="10.4576305"><ele>339.5</ele><time>2026-03-31T10:58:44Z</time></trkpt><trkpt lat="44.1099992" lon="10.4577874"><ele>340.0</ele><time>2026-03-31T10:58:45Z</time></trkpt><trkpt lat="44.1099877" lon="10.4579536"><ele>340.5</ele><time>2026-03-31T10:58:46Z</time></trkpt><trkpt lat="44.109988" lon="10.4581186"><ele>341.0</ele><time>2026-03-31T10:58:47Z</time></trkpt><trkpt lat="44.1099788" lon="10.4583095"><ele>341.25</ele><time>2026-03-31T10:58:48Z</time></trkpt><trkpt lat="44.1099415" lon="10.4584837"><ele>341.5</ele><time>2026-03-31T10:58:49Z</time></trkpt><trkpt lat="44.1098945" lon="10.4586626"><ele>341.75</ele><time>2026-03-31T10:58:50Z</time></trkpt><trkpt lat="44.1098433" lon="10.4588409"><ele>342.0</ele><time>2026-03-31T10:58:51Z</time></trkpt><trkpt lat="44.1097929" lon="10.4590245"><ele>342.0</ele><time>2026-03-31T10:58:52Z</time></trkpt><trkpt lat="44.1097542" lon="10.4592046"><ele>342.0</ele><time>2026-03-31T10:58:53Z</time></trkpt><trkpt lat="44.1097107" lon="10.4593672"><ele>342.0</ele><time>2026-03-31T10:58:54Z</time></trkpt><trkpt lat="44.1096767" lon="10.4595165"><ele>342.0</ele><time>2026-03-31T10:58:55Z</time></trkpt><trkpt lat="44.1096426" lon="10.4596495"><ele>343.6666666666667</ele><time>2026-03-31T10:58:56Z</time></trkpt><trkpt lat="44.10959" lon="10.459747"><ele>345.3333333333333</ele><time>2026-03-31T10:58:56.999Z</time></trkpt><trkpt lat="44.1095293" lon="10.4598284"><ele>347.0</ele><time>2026-03-31T10:58:58Z</time></trkpt><trkpt lat="44.1094543" lon="10.459881"><ele>348.66666666666663</ele><time>2026-03-31T10:58:58.999Z</time></trkpt><trkpt lat="44.1093941" lon="10.4599333"><ele>350.3333333333333</ele><time>2026-03-31T10:59:00Z</time></trkpt><trkpt lat="44.1093422" lon="10.4600245"><ele>352.0</ele><time>2026-03-31T10:59:01.999Z</time></trkpt><trkpt lat="44.1093347" lon="10.4601521"><ele>352.0</ele><time>2026-03-31T10:59:04Z</time></trkpt><trkpt lat="44.1093225" lon="10.4602557"><ele>352.0</ele><time>2026-03-31T10:59:06Z</time></trkpt><trkpt lat="44.1092892" lon="10.4601498"><ele>352.0</ele><time>2026-03-31T10:59:10Z</time></trkpt><trkpt lat="44.1092837" lon="10.4599761"><ele>352.0</ele><time>2026-03-31T10:59:11.999Z</time></trkpt><trkpt lat="44.1092724" lon="10.4598822"><ele>352.0</ele><time>2026-03-31T10:59:13Z</time></trkpt><trkpt lat="44.1092376" lon="10.4596845"><ele>350.57142857142856</ele><time>2026-03-31T10:59:15Z</time></trkpt><trkpt lat="44.109217" lon="10.459579"><ele>349.1428571428571</ele><time>2026-03-31T10:59:16Z</time></trkpt><trkpt lat="44.1092048" lon="10.4594898"><ele>347.71428571428567</ele><time>2026-03-31T10:59:16.999Z</time></trkpt><trkpt lat="44.1092026" lon="10.4593928"><ele>346.2857142857143</ele><time>2026-03-31T10:59:18Z</time></trkpt><trkpt lat="44.1092175" lon="10.4593024"><ele>344.85714285714283</ele><time>2026-03-31T10:59:18.999Z</time></trkpt><trkpt lat="44.1092446" lon="10.4592195"><ele>343.4285714285714</ele><time>2026-03-31T10:59:20Z</time></trkpt><trkpt lat="44.1092836" lon="10.4591063"><ele>342.0</ele><time>2026-03-31T10:59:22Z</time></trkpt><trkpt lat="44.1092892" lon="10.459001"><ele>342.0</ele><time>2026-03-31T10:59:24Z</time></trkpt><trkpt lat="44.1092838" lon="10.4588857"><ele>342.0</ele><time>2026-03-31T10:59:26.999Z</time></trkpt><trkpt lat="44.1092752" lon="10.4587815"><ele>342.0</ele><time>2026-03-31T10:59:31Z</time></trkpt><trkpt lat="44.1092484" lon="10.4586732"><ele>342.0</ele><time>2026-03-31T10:59:34Z</time></trkpt><trkpt lat="44.1092235" lon="10.4585555"><ele>342.0</ele><time>2026-03-31T10:59:37Z</time></trkpt><trkpt lat="44.10919" lon="10.4584497"><ele>342.0</ele><time>2026-03-31T10:59:40Z</time></trkpt><trkpt lat="44.1091321" lon="10.4583768"><ele>342.71428571428567</ele><time>2026-03-31T10:59:43Z</time></trkpt><trkpt lat="44.1090633" lon="10.4583308"><ele>343.42857142857144</ele><time>2026-03-31T10:59:47Z</time></trkpt><trkpt lat="44.1089991" lon="10.4582681"><ele>344.1428571428571</ele><time>2026-03-31T10:59:51Z</time></trkpt><trkpt lat="44.1089337" lon="10.4582116"><ele>344.85714285714283</ele><time>2026-03-31T10:59:55Z</time></trkpt><trkpt lat="44.1088789" lon="10.4581674"><ele>345.57142857142856</ele><time>2026-03-31T10:59:58Z</time></trkpt><trkpt lat="44.1088063" lon="10.4581198"><ele>346.2857142857143</ele><time>2026-03-31T11:00:01.999Z</time></trkpt><trkpt lat="44.1087405" lon="10.4580872"><ele>347.0</ele><time>2026-03-31T11:00:05Z</time></trkpt><trkpt lat="44.1086697" lon="10.4580473"><ele>347.0</ele><time>2026-03-31T11:00:08Z</time></trkpt><trkpt lat="44.1086008" lon="10.4580237"><ele>347.0</ele><time>2026-03-31T11:00:10.999Z</time></trkpt><trkpt lat="44.1085352" lon="10.4579983"><ele>347.0</ele><time>2026-03-31T11:00:13.999Z</time></trkpt><trkpt lat="44.108456" lon="10.4579717"><ele>347.0</ele><time>2026-03-31T11:00:18Z</time></trkpt><trkpt lat="44.1083848" lon="10.4579646"><ele>347.0</ele><time>2026-03-31T11:00:21Z</time></trkpt><trkpt lat="44.1083154" lon="10.4579574"><ele>347.0</ele><time>2026-03-31T11:00:24Z</time></trkpt><trkpt lat="44.108245" lon="10.4579445"><ele>347.0</ele><time>2026-03-31T11:00:27Z</time></trkpt><trkpt lat="44.1081744" lon="10.4579251"><ele>347.42857142857144</ele><time>2026-03-31T11:00:29.999Z</time></trkpt><trkpt lat="44.1081053" lon="10.4579014"><ele>347.85714285714283</ele><time>2026-03-31T11:00:33Z</time></trkpt><trkpt lat="44.1080346" lon="10.4578832"><ele>348.2857142857143</ele><time>2026-03-31T11:00:36Z</time></trkpt><trkpt lat="44.10797" lon="10.4578578"><ele>348.7142857142857</ele><time>2026-03-31T11:00:38.999Z</time></trkpt><trkpt lat="44.1079148" lon="10.4578057"><ele>349.1428571428571</ele><time>2026-03-31T11:00:42Z</time></trkpt><trkpt lat="44.1078617" lon="10.4577514"><ele>349.57142857142856</ele><time>2026-03-31T11:00:45Z</time></trkpt><trkpt lat="44.1078179" lon="10.4576883"><ele>350.0</ele><time>2026-03-31T11:00:48Z</time></trkpt><trkpt lat="44.1077831" lon="10.4576138"><ele>350.0</ele><time>2026-03-31T11:00:51Z</time></trkpt><trkpt lat="44.1077497" lon="10.4575222"><ele>350.0</ele><time>2026-03-31T11:00:54Z</time></trkpt><trkpt lat="44.1077216" lon="10.4574363"><ele>350.0</ele><time>2026-03-31T11:00:58Z</time></trkpt><trkpt lat="44.1077011" lon="10.4573526"><ele>350.0</ele><time>2026-03-31T11:01:01Z</time></trkpt><trkpt lat="44.1076644" lon="10.457276"><ele>350.0</ele><time>2026-03-31T11:01:04Z</time></trkpt><trkpt lat="44.107621" lon="10.457181"><ele>350.0</ele><time>2026-03-31T11:01:08Z</time></trkpt><trkpt lat="44.1075753" lon="10.4571116"><ele>350.0</ele><time>2026-03-31T11:01:10.999Z</time></trkpt><trkpt lat="44.1075226" lon="10.4570522"><ele>349.5</ele><time>2026-03-31T11:01:14Z</time></trkpt><trkpt lat="44.1074692" lon="10.4569972"><ele>349.0</ele><time>2026-03-31T11:01:17Z</time></trkpt><trkpt lat="44.107405" lon="10.4569256"><ele>348.5</ele><time>2026-03-31T11:01:21Z</time></trkpt><trkpt lat="44.1073378" lon="10.456872"><ele>348.0</ele><time>2026-03-31T11:01:24.999Z</time></trkpt><trkpt lat="44.1072633" lon="10.4568256"><ele>347.5</ele><time>2026-03-31T11:01:28.999Z</time></trkpt><trkpt lat="44.1071976" lon="10.4567981"><ele>347.0</ele><time>2026-03-31T11:01:32Z</time></trkpt><trkpt lat="44.107124" lon="10.4567934"><ele>347.0</ele><time>2026-03-31T11:01:35Z</time></trkpt><trkpt lat="44.1070418" lon="10.4568026"><ele>347.0</ele><time>2026-03-31T11:01:38.999Z</time></trkpt><trkpt lat="44.1069643" lon="10.4568141"><ele>347.0</ele><time>2026-03-31T11:01:43Z</time></trkpt><trkpt lat="44.1068996" lon="10.4568684"><ele>347.0</ele><time>2026-03-31T11:01:47Z</time></trkpt><trkpt lat="44.1068942" lon="10.4569578"><ele>347.0</ele><time>2026-03-31T11:01:52Z</time></trkpt><trkpt lat="44.1069731" lon="10.4569774"><ele>347.0</ele><time>2026-03-31T11:01:56Z</time></trkpt><trkpt lat="44.1070483" lon="10.4569817"><ele>347.0</ele><time>2026-03-31T11:02:00Z</time></trkpt><trkpt lat="44.1071277" lon="10.4570104"><ele>347.0</ele><time>2026-03-31T11:02:03.999Z</time></trkpt><trkpt lat="44.1071958" lon="10.4570559"><ele>347.0</ele><time>2026-03-31T11:02:07Z</time></trkpt><trkpt lat="44.1072511" lon="10.4571195"><ele>347.0</ele><time>2026-03-31T11:02:10Z</time></trkpt><trkpt lat="44.1073029" lon="10.4572116"><ele>347.0</ele><time>2026-03-31T11:02:14Z</time></trkpt><trkpt lat="44.1073452" lon="10.457299"><ele>347.0</ele><time>2026-03-31T11:02:18Z</time></trkpt><trkpt lat="44.1073786" lon="10.4573976"><ele>347.1666666666667</ele><time>2026-03-31T11:02:21.999Z</time></trkpt><trkpt lat="44.1074029" lon="10.4575055"><ele>347.33333333333337</ele><time>2026-03-31T11:02:26Z</time></trkpt><trkpt lat="44.1074137" lon="10.4576161"><ele>347.5</ele><time>2026-03-31T11:02:29.999Z</time></trkpt><trkpt lat="44.1074048" lon="10.4577109"><ele>347.6666666666667</ele><time>2026-03-31T11:02:34Z</time></trkpt><trkpt lat="44.1073813" lon="10.4578169"><ele>347.8333333333333</ele><time>2026-03-31T11:02:37.999Z</time></trkpt><trkpt lat="44.1073671" lon="10.4579355"><ele>348.0</ele><time>2026-03-31T11:02:42Z</time></trkpt><trkpt lat="44.1073653" lon="10.4580356"><ele>349.57142857142856</ele><time>2026-03-31T11:02:45Z</time></trkpt><trkpt lat="44.1073837" lon="10.4581259"><ele>351.14285714285717</ele><time>2026-03-31T11:02:47.999Z</time></trkpt><trkpt lat="44.1074303" lon="10.4582181"><ele>352.7142857142857</ele><time>2026-03-31T11:02:52Z</time></trkpt><trkpt lat="44.1074822" lon="10.458305"><ele>354.2857142857143</ele><time>2026-03-31T11:02:56Z</time></trkpt><trkpt lat="44.1075093" lon="10.4584016"><ele>355.8571428571429</ele><time>2026-03-31T11:02:59.999Z</time></trkpt><trkpt lat="44.1074413" lon="10.4584315"><ele>357.42857142857144</ele><time>2026-03-31T11:03:04Z</time></trkpt><trkpt lat="44.1073829" lon="10.4583947"><ele>359.0</ele><time>2026-03-31T11:03:07Z</time></trkpt><trkpt lat="44.107327" lon="10.4583536"><ele>359.0</ele><time>2026-03-31T11:03:10Z</time></trkpt><trkpt lat="44.1072566" lon="10.4583022"><ele>359.0</ele><time>2026-03-31T11:03:14Z</time></trkpt><trkpt lat="44.1071782" lon="10.4582762"><ele>359.0</ele><time>2026-03-31T11:03:18Z</time></trkpt><trkpt lat="44.1071138" lon="10.4582728"><ele>359.0</ele><time>2026-03-31T11:03:21Z</time></trkpt><trkpt lat="44.1070506" lon="10.4582857"><ele>359.0</ele><time>2026-03-31T11:03:23.999Z</time></trkpt><trkpt lat="44.1069924" lon="10.458337"><ele>359.0</ele><time>2026-03-31T11:03:26.999Z</time></trkpt><trkpt lat="44.1069544" lon="10.4584076"><ele>359.0</ele><time>2026-03-31T11:03:30Z</time></trkpt><trkpt lat="44.106925" lon="10.4584859"><ele>359.0</ele><time>2026-03-31T11:03:33Z</time></trkpt><trkpt lat="44.1068944" lon="10.4585685"><ele>359.0</ele><time>2026-03-31T11:03:36Z</time></trkpt><trkpt lat="44.1068575" lon="10.4586469"><ele>359.0</ele><time>2026-03-31T11:03:39Z</time></trkpt><trkpt lat="44.1068144" lon="10.4587187"><ele>359.0</ele><time>2026-03-31T11:03:42Z</time></trkpt><trkpt lat="44.1067626" lon="10.4587804"><ele>359.0</ele><time>2026-03-31T11:03:44.999Z</time></trkpt><trkpt lat="44.1067093" lon="10.4588329"><ele>359.0</ele><time>2026-03-31T11:03:48Z</time></trkpt><trkpt lat="44.1066578" lon="10.4588877"><ele>359.0</ele><time>2026-03-31T11:03:50.999Z</time></trkpt><trkpt lat="44.10661" lon="10.4589849"><ele>362.6666666666667</ele><time>2026-03-31T11:03:55Z</time></trkpt><trkpt lat="44.1065868" lon="10.459072"><ele>366.33333333333337</ele><time>2026-03-31T11:03:58Z</time></trkpt><trkpt lat="44.1065635" lon="10.4591823"><ele>370.0</ele><time>2026-03-31T11:04:02Z</time></trkpt><trkpt lat="44.1065663" lon="10.4592961"><ele>373.6666666666667</ele><time>2026-03-31T11:04:05.999Z</time></trkpt><trkpt lat="44.1065727" lon="10.4593987"><ele>377.3333333333333</ele><time>2026-03-31T11:04:10Z</time></trkpt><trkpt lat="44.1065723" lon="10.4595154"><ele>381.0</ele><time>2026-03-31T11:04:14Z</time></trkpt><trkpt lat="44.1065513" lon="10.4596015"><ele>381.0</ele><time>2026-03-31T11:04:17Z</time></trkpt><trkpt lat="44.1064924" lon="10.4596687"><ele>381.0</ele><time>2026-03-31T11:04:21Z</time></trkpt><trkpt lat="44.1064349" lon="10.4597071"><ele>381.0</ele><time>2026-03-31T11:04:23.999Z</time></trkpt><trkpt lat="44.106365" lon="10.4597115"><ele>381.0</ele><time>2026-03-31T11:04:27Z</time></trkpt><trkpt lat="44.1063056" lon="10.4596733"><ele>381.0</ele><time>2026-03-31T11:04:30Z</time></trkpt><trkpt lat="44.1062548" lon="10.4596103"><ele>381.0</ele><time>2026-03-31T11:04:33Z</time></trkpt><trkpt lat="44.1062017" lon="10.4595541"><ele>381.0</ele><time>2026-03-31T11:04:36Z</time></trkpt><trkpt lat="44.1061466" lon="10.4594847"><ele>381.0</ele><time>2026-03-31T11:04:40Z</time></trkpt><trkpt lat="44.1060967" lon="10.4594156"><ele>381.0</ele><time>2026-03-31T11:04:44Z</time></trkpt><trkpt lat="44.1060548" lon="10.4593494"><ele>381.0</ele><time>2026-03-31T11:04:47Z</time></trkpt><trkpt lat="44.106017" lon="10.4592771"><ele>381.0</ele><time>2026-03-31T11:04:50Z</time></trkpt><trkpt lat="44.1059774" lon="10.4592041"><ele>381.0</ele><time>2026-03-31T11:04:53Z</time></trkpt><trkpt lat="44.1059244" lon="10.4591452"><ele>381.0</ele><time>2026-03-31T11:04:56Z</time></trkpt><trkpt lat="44.1058574" lon="10.4591471"><ele>381.0</ele><time>2026-03-31T11:04:59Z</time></trkpt><trkpt lat="44.1057953" lon="10.4592204"><ele>381.0</ele><time>2026-03-31T11:05:02.999Z</time></trkpt><trkpt lat="44.1057629" lon="10.4593218"><ele>381.0</ele><time>2026-03-31T11:05:06.999Z</time></trkpt><trkpt lat="44.1057524" lon="10.4594295"><ele>381.0</ele><time>2026-03-31T11:05:11Z</time></trkpt><trkpt lat="44.1057394" lon="10.4595163"><ele>381.0</ele><time>2026-03-31T11:05:14Z</time></trkpt><trkpt lat="44.1057245" lon="10.4596028"><ele>381.0</ele><time>2026-03-31T11:05:16.999Z</time></trkpt><trkpt lat="44.1057061" lon="10.4596923"><ele>381.0</ele><time>2026-03-31T11:05:20Z</time></trkpt><trkpt lat="44.1056849" lon="10.4597772"><ele>381.0</ele><time>2026-03-31T11:05:23Z</time></trkpt><trkpt lat="44.1056604" lon="10.4598624"><ele>380.1428571428571</ele><time>2026-03-31T11:05:26Z</time></trkpt><trkpt lat="44.1056381" lon="10.4599472"><ele>379.28571428571433</ele><time>2026-03-31T11:05:29Z</time></trkpt><trkpt lat="44.1056001" lon="10.460026"><ele>378.42857142857144</ele><time>2026-03-31T11:05:32Z</time></trkpt><trkpt lat="44.1055552" lon="10.4600983"><ele>377.57142857142856</ele><time>2026-03-31T11:05:34.999Z</time></trkpt><trkpt lat="44.1054974" lon="10.4601761"><ele>376.71428571428567</ele><time>2026-03-31T11:05:39Z</time></trkpt><trkpt lat="44.1054378" lon="10.4602518"><ele>375.8571428571429</ele><time>2026-03-31T11:05:43Z</time></trkpt><trkpt lat="44.1053851" lon="10.4603034"><ele>375.0</ele><time>2026-03-31T11:05:46Z</time></trkpt><trkpt lat="44.1053343" lon="10.4603621"><ele>375.0</ele><time>2026-03-31T11:05:49Z</time></trkpt><trkpt lat="44.1052856" lon="10.4604189"><ele>375.0</ele><time>2026-03-31T11:05:51.999Z</time></trkpt><trkpt lat="44.1052362" lon="10.4604832"><ele>375.0</ele><time>2026-03-31T11:05:55Z</time></trkpt><trkpt lat="44.1051909" lon="10.4605551"><ele>375.0</ele><time>2026-03-31T11:05:58Z</time></trkpt><trkpt lat="44.105149" lon="10.4606255"><ele>375.0</ele><time>2026-03-31T11:06:01Z</time></trkpt><trkpt lat="44.1051046" lon="10.4606974"><ele>375.0</ele><time>2026-03-31T11:06:04Z</time></trkpt><trkpt lat="44.1050451" lon="10.4607809"><ele>375.0</ele><time>2026-03-31T11:06:07.999Z</time></trkpt><trkpt lat="44.1049821" lon="10.4608555"><ele>375.1666666666667</ele><time>2026-03-31T11:06:11.999Z</time></trkpt><trkpt lat="44.1049302" lon="10.4609159"><ele>375.3333333333333</ele><time>2026-03-31T11:06:15Z</time></trkpt><trkpt lat="44.1048665" lon="10.4609802"><ele>375.5</ele><time>2026-03-31T11:06:18.999Z</time></trkpt><trkpt lat="44.1048113" lon="10.4610497"><ele>375.66666666666663</ele><time>2026-03-31T11:06:22.999Z</time></trkpt><trkpt lat="44.1047781" lon="10.461158"><ele>375.8333333333333</ele><time>2026-03-31T11:06:27Z</time></trkpt><trkpt lat="44.1047593" lon="10.4612638"><ele>376.0</ele><time>2026-03-31T11:06:31Z</time></trkpt><trkpt lat="44.1047459" lon="10.4613686"><ele>381.2857142857143</ele><time>2026-03-31T11:06:34.999Z</time></trkpt><trkpt lat="44.1047286" lon="10.4614653"><ele>386.57142857142856</ele><time>2026-03-31T11:06:39Z</time></trkpt><trkpt lat="44.1046759" lon="10.4615391"><ele>391.8571428571429</ele><time>2026-03-31T11:06:42Z</time></trkpt><trkpt lat="44.1046201" lon="10.4615844"><ele>397.1428571428571</ele><time>2026-03-31T11:06:45Z</time></trkpt><trkpt lat="44.1045433" lon="10.4616251"><ele>402.42857142857144</ele><time>2026-03-31T11:06:48Z</time></trkpt><trkpt lat="44.1044799" lon="10.4616569"><ele>407.7142857142857</ele><time>2026-03-31T11:06:51Z</time></trkpt><trkpt lat="44.1044139" lon="10.4616784"><ele>413.0</ele><time>2026-03-31T11:06:53.999Z</time></trkpt><trkpt lat="44.1043441" lon="10.4616972"><ele>413.0</ele><time>2026-03-31T11:06:57Z</time></trkpt><trkpt lat="44.1042782" lon="10.4617173"><ele>413.0</ele><time>2026-03-31T11:06:59.999Z</time></trkpt><trkpt lat="44.1042097" lon="10.4617479"><ele>413.0</ele><time>2026-03-31T11:07:02.999Z</time></trkpt><trkpt lat="44.1041397" lon="10.4617778"><ele>413.0</ele><time>2026-03-31T11:07:05.999Z</time></trkpt><trkpt lat="44.104079" lon="10.4618099"><ele>413.0</ele><time>2026-03-31T11:07:09Z</time></trkpt><trkpt lat="44.1040021" lon="10.4618409"><ele>413.0</ele><time>2026-03-31T11:07:13Z</time></trkpt><trkpt lat="44.1039368" lon="10.4618817"><ele>413.0</ele><time>2026-03-31T11:07:15.999Z</time></trkpt><trkpt lat="44.1038785" lon="10.4619252"><ele>412.0</ele><time>2026-03-31T11:07:19Z</time></trkpt><trkpt lat="44.1038059" lon="10.4619882"><ele>411.0</ele><time>2026-03-31T11:07:22.999Z</time></trkpt><trkpt lat="44.1037529" lon="10.4620544"><ele>410.0</ele><time>2026-03-31T11:07:26Z</time></trkpt><trkpt lat="44.1037054" lon="10.4621327"><ele>409.0</ele><time>2026-03-31T11:07:29Z</time></trkpt><trkpt lat="44.1036665" lon="10.4622111"><ele>408.0</ele><time>2026-03-31T11:07:32Z</time></trkpt><trkpt lat="44.1036291" lon="10.4622882"><ele>407.0</ele><time>2026-03-31T11:07:35Z</time></trkpt><trkpt lat="44.1035945" lon="10.4623661"><ele>406.0</ele><time>2026-03-31T11:07:38Z</time></trkpt><trkpt lat="44.1035301" lon="10.462436"><ele>406.83333333333337</ele><time>2026-03-31T11:07:42Z</time></trkpt><trkpt lat="44.1034502" lon="10.4624356"><ele>407.6666666666667</ele><time>2026-03-31T11:07:44.999Z</time></trkpt><trkpt lat="44.1033791" lon="10.4623814"><ele>408.5</ele><time>2026-03-31T11:07:48Z</time></trkpt><trkpt lat="44.1033131" lon="10.4623037"><ele>409.33333333333337</ele><time>2026-03-31T11:07:50.999Z</time></trkpt><trkpt lat="44.1032489" lon="10.4622415"><ele>410.1666666666667</ele><time>2026-03-31T11:07:54Z</time></trkpt><trkpt lat="44.1031812" lon="10.4621751"><ele>411.0</ele><time>2026-03-31T11:07:57Z</time></trkpt><trkpt lat="44.1031174" lon="10.4621058"><ele>411.0</ele><time>2026-03-31T11:07:59.999Z</time></trkpt><trkpt lat="44.1030525" lon="10.4620287"><ele>411.0</ele><time>2026-03-31T11:08:03Z</time></trkpt><trkpt lat="44.1029772" lon="10.4619798"><ele>411.0</ele><time>2026-03-31T11:08:06Z</time></trkpt><trkpt lat="44.1029004" lon="10.4619745"><ele>411.0</ele><time>2026-03-31T11:08:08.999Z</time></trkpt><trkpt lat="44.1028383" lon="10.4619946"><ele>411.0</ele><time>2026-03-31T11:08:12Z</time></trkpt><trkpt lat="44.1027799" lon="10.4620282"><ele>411.0</ele><time>2026-03-31T11:08:14.999Z</time></trkpt><trkpt lat="44.1027179" lon="10.4620607"><ele>411.0</ele><time>2026-03-31T11:08:18Z</time></trkpt><trkpt lat="44.1026391" lon="10.4621067"><ele>411.42857142857144</ele><time>2026-03-31T11:08:22Z</time></trkpt><trkpt lat="44.1025728" lon="10.462125"><ele>411.85714285714283</ele><time>2026-03-31T11:08:24.999Z</time></trkpt><trkpt lat="44.1025111" lon="10.4621474"><ele>412.28571428571433</ele><time>2026-03-31T11:08:27.999Z</time></trkpt><trkpt lat="44.1024311" lon="10.4621815"><ele>412.7142857142857</ele><time>2026-03-31T11:08:32Z</time></trkpt><trkpt lat="44.10237" lon="10.462215"><ele>413.14285714285717</ele><time>2026-03-31T11:08:35Z</time></trkpt><trkpt lat="44.1023092" lon="10.4622581"><ele>413.5714285714286</ele><time>2026-03-31T11:08:38Z</time></trkpt><trkpt lat="44.1022499" lon="10.4623092"><ele>414.0</ele><time>2026-03-31T11:08:40.999Z</time></trkpt><trkpt lat="44.1021964" lon="10.4623679"><ele>414.00000000000006</ele><time>2026-03-31T11:08:44Z</time></trkpt><trkpt lat="44.1021497" lon="10.4624375"><ele>414.0</ele><time>2026-03-31T11:08:47Z</time></trkpt><trkpt lat="44.1021055" lon="10.4625112"><ele>414.0</ele><time>2026-03-31T11:08:50Z</time></trkpt><trkpt lat="44.1020612" lon="10.462583"><ele>414.0</ele><time>2026-03-31T11:08:53Z</time></trkpt><trkpt lat="44.1020171" lon="10.4626494"><ele>414.0</ele><time>2026-03-31T11:08:56Z</time></trkpt><trkpt lat="44.1019686" lon="10.4627097"><ele>414.00000000000006</ele><time>2026-03-31T11:08:59Z</time></trkpt><trkpt lat="44.101926" lon="10.4627755"><ele>414.0</ele><time>2026-03-31T11:09:02Z</time></trkpt><trkpt lat="44.1018844" lon="10.4628498"><ele>414.00000000000006</ele><time>2026-03-31T11:09:05Z</time></trkpt><trkpt lat="44.101845" lon="10.462922"><ele>414.0</ele><time>2026-03-31T11:09:08Z</time></trkpt><trkpt lat="44.1017923" lon="10.4630084"><ele>414.0</ele><time>2026-03-31T11:09:12Z</time></trkpt><trkpt lat="44.1017485" lon="10.4630769"><ele>414.0</ele><time>2026-03-31T11:09:15Z</time></trkpt><trkpt lat="44.1017038" lon="10.4631394"><ele>414.0</ele><time>2026-03-31T11:09:18Z</time></trkpt><trkpt lat="44.1016551" lon="10.4631999"><ele>414.00000000000006</ele><time>2026-03-31T11:09:21Z</time></trkpt><trkpt lat="44.1016002" lon="10.4632534"><ele>414.0</ele><time>2026-03-31T11:09:24Z</time></trkpt><trkpt lat="44.1015423" lon="10.4632961"><ele>415.14285714285717</ele><time>2026-03-31T11:09:27Z</time></trkpt><trkpt lat="44.1014846" lon="10.4633448"><ele>416.2857142857143</ele><time>2026-03-31T11:09:30Z</time></trkpt><trkpt lat="44.1014128" lon="10.4634055"><ele>417.42857142857144</ele><time>2026-03-31T11:09:34Z</time></trkpt><trkpt lat="44.1013325" lon="10.4634531"><ele>418.57142857142856</ele><time>2026-03-31T11:09:37.999Z</time></trkpt><trkpt lat="44.1012778" lon="10.4634997"><ele>419.7142857142857</ele><time>2026-03-31T11:09:41Z</time></trkpt><trkpt lat="44.1012149" lon="10.4635435"><ele>420.8571428571429</ele><time>2026-03-31T11:09:44Z</time></trkpt><trkpt lat="44.101156" lon="10.4635944"><ele>422.0</ele><time>2026-03-31T11:09:47Z</time></trkpt><trkpt lat="44.1011003" lon="10.463642"><ele>422.0</ele><time>2026-03-31T11:09:50Z</time></trkpt><trkpt lat="44.1010419" lon="10.4636894"><ele>422.0</ele><time>2026-03-31T11:09:53Z</time></trkpt><trkpt lat="44.1009855" lon="10.4637334"><ele>422.0</ele><time>2026-03-31T11:09:56Z</time></trkpt><trkpt lat="44.1009228" lon="10.4638096"><ele>422.0</ele><time>2026-03-31T11:10:00Z</time></trkpt><trkpt lat="44.1008767" lon="10.4638758"><ele>422.0</ele><time>2026-03-31T11:10:03Z</time></trkpt><trkpt lat="44.1008356" lon="10.4639502"><ele>422.0</ele><time>2026-03-31T11:10:06Z</time></trkpt><trkpt lat="44.1008017" lon="10.4640298"><ele>422.0</ele><time>2026-03-31T11:10:09Z</time></trkpt><trkpt lat="44.1007648" lon="10.4641044"><ele>421.2857142857143</ele><time>2026-03-31T11:10:12Z</time></trkpt><trkpt lat="44.1007303" lon="10.4641841"><ele>420.57142857142856</ele><time>2026-03-31T11:10:14.999Z</time></trkpt><trkpt lat="44.1006955" lon="10.4642619"><ele>419.8571428571429</ele><time>2026-03-31T11:10:18Z</time></trkpt><trkpt lat="44.1006532" lon="10.4643408"><ele>419.1428571428571</ele><time>2026-03-31T11:10:21Z</time></trkpt><trkpt lat="44.1006111" lon="10.4644134"><ele>418.4285714285714</ele><time>2026-03-31T11:10:24Z</time></trkpt><trkpt lat="44.1005673" lon="10.4644808"><ele>417.7142857142857</ele><time>2026-03-31T11:10:27Z</time></trkpt><trkpt lat="44.1005235" lon="10.4645487"><ele>417.0</ele><time>2026-03-31T11:10:30Z</time></trkpt><trkpt lat="44.1004822" lon="10.4646217"><ele>420.8571428571429</ele><time>2026-03-31T11:10:33Z</time></trkpt><trkpt lat="44.1004364" lon="10.4646911"><ele>424.71428571428567</ele><time>2026-03-31T11:10:35.999Z</time></trkpt><trkpt lat="44.1003837" lon="10.4647541"><ele>428.57142857142856</ele><time>2026-03-31T11:10:38.999Z</time></trkpt><trkpt lat="44.1003213" lon="10.4648264"><ele>432.42857142857144</ele><time>2026-03-31T11:10:42.999Z</time></trkpt><trkpt lat="44.1002693" lon="10.4648881"><ele>436.28571428571433</ele><time>2026-03-31T11:10:46Z</time></trkpt><trkpt lat="44.1002156" lon="10.4649482"><ele>440.1428571428571</ele><time>2026-03-31T11:10:49Z</time></trkpt><trkpt lat="44.1001666" lon="10.4650108"><ele>444.0</ele><time>2026-03-31T11:10:52Z</time></trkpt><trkpt lat="44.1001158" lon="10.465074"><ele>444.0</ele><time>2026-03-31T11:10:55Z</time></trkpt><trkpt lat="44.1000685" lon="10.4651405"><ele>444.0</ele><time>2026-03-31T11:10:57.999Z</time></trkpt><trkpt lat="44.1000189" lon="10.4652094"><ele>444.0</ele><time>2026-03-31T11:11:01Z</time></trkpt><trkpt lat="44.0999695" lon="10.4652729"><ele>444.0</ele><time>2026-03-31T11:11:04Z</time></trkpt><trkpt lat="44.0999207" lon="10.4653332"><ele>444.0</ele><time>2026-03-31T11:11:07Z</time></trkpt><trkpt lat="44.0998686" lon="10.4653832"><ele>444.0</ele><time>2026-03-31T11:11:10Z</time></trkpt><trkpt lat="44.0998201" lon="10.4654415"><ele>444.0</ele><time>2026-03-31T11:11:13Z</time></trkpt><trkpt lat="44.0997634" lon="10.465523"><ele>446.71428571428567</ele><time>2026-03-31T11:11:17Z</time></trkpt><trkpt lat="44.0997131" lon="10.4655916"><ele>449.42857142857144</ele><time>2026-03-31T11:11:20Z</time></trkpt><trkpt lat="44.099656" lon="10.4656438"><ele>452.1428571428571</ele><time>2026-03-31T11:11:22.999Z</time></trkpt><trkpt lat="44.0995884" lon="10.465682"><ele>454.85714285714283</ele><time>2026-03-31T11:11:26Z</time></trkpt><trkpt lat="44.0995186" lon="10.4657134"><ele>457.57142857142856</ele><time>2026-03-31T11:11:28.999Z</time></trkpt><trkpt lat="44.0994542" lon="10.465741"><ele>460.2857142857143</ele><time>2026-03-31T11:11:32Z</time></trkpt><trkpt lat="44.099381" lon="10.4657679"><ele>463.0</ele><time>2026-03-31T11:11:35Z</time></trkpt><trkpt lat="44.0993083" lon="10.465779"><ele>463.0</ele><time>2026-03-31T11:11:38Z</time></trkpt><trkpt lat="44.0992399" lon="10.4657735"><ele>462.99999999999994</ele><time>2026-03-31T11:11:41Z</time></trkpt><trkpt lat="44.0991652" lon="10.4657815"><ele>463.0</ele><time>2026-03-31T11:11:44Z</time></trkpt><trkpt lat="44.0990941" lon="10.4657902"><ele>463.0</ele><time>2026-03-31T11:11:47Z</time></trkpt><trkpt lat="44.099028" lon="10.465798"><ele>462.99999999999994</ele><time>2026-03-31T11:11:49.999Z</time></trkpt><trkpt lat="44.0989611" lon="10.465808"><ele>463.0</ele><time>2026-03-31T11:11:53Z</time></trkpt><trkpt lat="44.0988946" lon="10.4658142"><ele>463.0</ele><time>2026-03-31T11:11:56Z</time></trkpt><trkpt lat="44.0988311" lon="10.4658227"><ele>463.85714285714283</ele><time>2026-03-31T11:11:59Z</time></trkpt><trkpt lat="44.0987683" lon="10.4658003"><ele>464.71428571428567</ele><time>2026-03-31T11:12:01.999Z</time></trkpt><trkpt lat="44.0987064" lon="10.4657597"><ele>465.57142857142856</ele><time>2026-03-31T11:12:05Z</time></trkpt><trkpt lat="44.0986476" lon="10.465708"><ele>466.42857142857144</ele><time>2026-03-31T11:12:07.999Z</time></trkpt><trkpt lat="44.0985846" lon="10.4656724"><ele>467.2857142857143</ele><time>2026-03-31T11:12:10.999Z</time></trkpt><trkpt lat="44.0985204" lon="10.4656511"><ele>468.1428571428571</ele><time>2026-03-31T11:12:14Z</time></trkpt><trkpt lat="44.0984478" lon="10.4656538"><ele>469.0</ele><time>2026-03-31T11:12:17Z</time></trkpt><trkpt lat="44.0983676" lon="10.4656689"><ele>469.0</ele><time>2026-03-31T11:12:21Z</time></trkpt><trkpt lat="44.098289" lon="10.4656799"><ele>469.0</ele><time>2026-03-31T11:12:25Z</time></trkpt><trkpt lat="44.0982183" lon="10.4656756"><ele>469.0</ele><time>2026-03-31T11:12:28Z</time></trkpt><trkpt lat="44.0981559" lon="10.4656885"><ele>469.0</ele><time>2026-03-31T11:12:30.999Z</time></trkpt><trkpt lat="44.0980926" lon="10.4657119"><ele>469.0</ele><time>2026-03-31T11:12:33.999Z</time></trkpt><trkpt lat="44.0980275" lon="10.4657401"><ele>469.0</ele><time>2026-03-31T11:12:37Z</time></trkpt><trkpt lat="44.0979661" lon="10.4657771"><ele>469.0</ele><time>2026-03-31T11:12:40Z</time></trkpt><trkpt lat="44.0979046" lon="10.4658296"><ele>468.42857142857144</ele><time>2026-03-31T11:12:43Z</time></trkpt><trkpt lat="44.0978385" lon="10.4658814"><ele>467.8571428571429</ele><time>2026-03-31T11:12:46Z</time></trkpt><trkpt lat="44.0977714" lon="10.4659177"><ele>467.2857142857143</ele><time>2026-03-31T11:12:48.999Z</time></trkpt><trkpt lat="44.0977028" lon="10.4659401"><ele>466.7142857142857</ele><time>2026-03-31T11:12:52Z</time></trkpt><trkpt lat="44.0976376" lon="10.4659555"><ele>466.14285714285717</ele><time>2026-03-31T11:12:55Z</time></trkpt><trkpt lat="44.097569" lon="10.4659581"><ele>465.57142857142856</ele><time>2026-03-31T11:12:57.999Z</time></trkpt><trkpt lat="44.0975027" lon="10.4659711"><ele>465.0</ele><time>2026-03-31T11:13:01Z</time></trkpt><trkpt lat="44.0974338" lon="10.4659818"><ele>465.8333333333333</ele><time>2026-03-31T11:13:04Z</time></trkpt><trkpt lat="44.0973705" lon="10.4659916"><ele>466.66666666666663</ele><time>2026-03-31T11:13:07Z</time></trkpt><trkpt lat="44.0972872" lon="10.4659912"><ele>467.5</ele><time>2026-03-31T11:13:10.999Z</time></trkpt><trkpt lat="44.0972212" lon="10.4659767"><ele>468.3333333333333</ele><time>2026-03-31T11:13:13.999Z</time></trkpt><trkpt lat="44.0971397" lon="10.4659557"><ele>469.16666666666663</ele><time>2026-03-31T11:13:18Z</time></trkpt><trkpt lat="44.0970571" lon="10.4659612"><ele>470.0</ele><time>2026-03-31T11:13:22Z</time></trkpt><trkpt lat="44.0969785" lon="10.4659909"><ele>469.99999999999994</ele><time>2026-03-31T11:13:26Z</time></trkpt><trkpt lat="44.0969026" lon="10.4660378"><ele>470.0</ele><time>2026-03-31T11:13:29.999Z</time></trkpt><trkpt lat="44.096836" lon="10.4660723"><ele>470.0</ele><time>2026-03-31T11:13:33Z</time></trkpt><trkpt lat="44.0967655" lon="10.466103"><ele>470.0</ele><time>2026-03-31T11:13:36Z</time></trkpt><trkpt lat="44.0966891" lon="10.4661266"><ele>469.99999999999994</ele><time>2026-03-31T11:13:39Z</time></trkpt><trkpt lat="44.0966127" lon="10.4661319"><ele>470.0</ele><time>2026-03-31T11:13:41.999Z</time></trkpt><trkpt lat="44.0965456" lon="10.4661435"><ele>469.57142857142856</ele><time>2026-03-31T11:13:44.999Z</time></trkpt><trkpt lat="44.0964601" lon="10.4661469"><ele>469.1428571428571</ele><time>2026-03-31T11:13:49Z</time></trkpt><trkpt lat="44.0963963" lon="10.466149"><ele>468.71428571428567</ele><time>2026-03-31T11:13:51.999Z</time></trkpt><trkpt lat="44.0963296" lon="10.4661482"><ele>468.2857142857142</ele><time>2026-03-31T11:13:55Z</time></trkpt><trkpt lat="44.096245" lon="10.4661476"><ele>467.85714285714283</ele><time>2026-03-31T11:13:58.999Z</time></trkpt><trkpt lat="44.0961765" lon="10.4661473"><ele>467.42857142857133</ele><time>2026-03-31T11:14:02Z</time></trkpt><trkpt lat="44.0961086" lon="10.4661604"><ele>466.99999999999994</ele><time>2026-03-31T11:14:06Z</time></trkpt><trkpt lat="44.0960432" lon="10.4661813"><ele>466.99999999999994</ele><time>2026-03-31T11:14:11Z</time></trkpt><trkpt lat="44.0959524" lon="10.4661918"><ele>467.0</ele><time>2026-03-31T11:14:15Z</time></trkpt><trkpt lat="44.0958424" lon="10.4662134"><ele>467.0</ele><time>2026-03-31T11:14:17Z</time></trkpt><trkpt lat="44.0957767" lon="10.4662328"><ele>467.0</ele><time>2026-03-31T11:14:18Z</time></trkpt><trkpt lat="44.0956963" lon="10.4662456"><ele>466.99999999999994</ele><time>2026-03-31T11:14:19Z</time></trkpt><trkpt lat="44.0956182" lon="10.466252"><ele>467.0</ele><time>2026-03-31T11:14:20Z</time></trkpt><trkpt lat="44.0955455" lon="10.4662544"><ele>466.8333333333333</ele><time>2026-03-31T11:14:20.999Z</time></trkpt><trkpt lat="44.0954757" lon="10.4662493"><ele>466.66666666666663</ele><time>2026-03-31T11:14:22Z</time></trkpt><trkpt lat="44.0953599" lon="10.466234"><ele>466.5</ele><time>2026-03-31T11:14:24Z</time></trkpt><trkpt lat="44.0952765" lon="10.4662381"><ele>466.33333333333337</ele><time>2026-03-31T11:14:26Z</time></trkpt><trkpt lat="44.0952091" lon="10.4662976"><ele>466.1666666666667</ele><time>2026-03-31T11:14:27.999Z</time></trkpt><trkpt lat="44.095184" lon="10.4663843"><ele>466.0</ele><time>2026-03-31T11:14:30Z</time></trkpt><trkpt lat="44.095168" lon="10.4665164"><ele>466.00000000000006</ele><time>2026-03-31T11:14:33Z</time></trkpt><trkpt lat="44.0951445" lon="10.4666118"><ele>466.0</ele><time>2026-03-31T11:14:35Z</time></trkpt><trkpt lat="44.0951142" lon="10.466692"><ele>466.0</ele><time>2026-03-31T11:14:37Z</time></trkpt><trkpt lat="44.0950946" lon="10.4668144"><ele>466.0</ele><time>2026-03-31T11:14:39.999Z</time></trkpt><trkpt lat="44.0951026" lon="10.4669023"><ele>466.00000000000006</ele><time>2026-03-31T11:14:43Z</time></trkpt><trkpt lat="44.095123" lon="10.467017"><ele>466.0</ele><time>2026-03-31T11:14:46.999Z</time></trkpt><trkpt lat="44.0951339" lon="10.4671308"><ele>467.0</ele><time>2026-03-31T11:14:51Z</time></trkpt><trkpt lat="44.095143" lon="10.4672262"><ele>468.0</ele><time>2026-03-31T11:14:54Z</time></trkpt><trkpt lat="44.0951334" lon="10.4673131"><ele>469.0</ele><time>2026-03-31T11:14:57Z</time></trkpt><trkpt lat="44.0951088" lon="10.4673951"><ele>470.0</ele><time>2026-03-31T11:15:00Z</time></trkpt><trkpt lat="44.0950782" lon="10.4674753"><ele>471.0</ele><time>2026-03-31T11:15:02.999Z</time></trkpt><trkpt lat="44.0950414" lon="10.4675763"><ele>472.0</ele><time>2026-03-31T11:15:06.999Z</time></trkpt><trkpt lat="44.09501" lon="10.4676549"><ele>473.0</ele><time>2026-03-31T11:15:10Z</time></trkpt><trkpt lat="44.0949759" lon="10.467757"><ele>472.99999999999994</ele><time>2026-03-31T11:15:13.999Z</time></trkpt><trkpt lat="44.0949545" lon="10.4678459"><ele>473.0</ele><time>2026-03-31T11:15:18Z</time></trkpt><trkpt lat="44.0949309" lon="10.4679531"><ele>473.0</ele><time>2026-03-31T11:15:21.999Z</time></trkpt><trkpt lat="44.0949317" lon="10.4680465"><ele>473.0</ele><time>2026-03-31T11:15:23.999Z</time></trkpt><trkpt lat="44.0949597" lon="10.4681781"><ele>472.99999999999994</ele><time>2026-03-31T11:15:26Z</time></trkpt><trkpt lat="44.0949973" lon="10.4682951"><ele>473.0</ele><time>2026-03-31T11:15:28Z</time></trkpt><trkpt lat="44.0950455" lon="10.4683723"><ele>473.28571428571433</ele><time>2026-03-31T11:15:31Z</time></trkpt><trkpt lat="44.0950801" lon="10.4684762"><ele>473.57142857142856</ele><time>2026-03-31T11:15:35Z</time></trkpt><trkpt lat="44.0951027" lon="10.4685617"><ele>473.8571428571429</ele><time>2026-03-31T11:15:38Z</time></trkpt><trkpt lat="44.0951202" lon="10.4686509"><ele>474.14285714285717</ele><time>2026-03-31T11:15:42Z</time></trkpt><trkpt lat="44.0951171" lon="10.4687474"><ele>474.42857142857144</ele><time>2026-03-31T11:15:45Z</time></trkpt><trkpt lat="44.0951022" lon="10.4688361"><ele>474.7142857142857</ele><time>2026-03-31T11:15:49Z</time></trkpt><trkpt lat="44.0950671" lon="10.4689469"><ele>475.0</ele><time>2026-03-31T11:15:52Z</time></trkpt><trkpt lat="44.0950311" lon="10.4690542"><ele>475.42857142857144</ele><time>2026-03-31T11:15:53.999Z</time></trkpt><trkpt lat="44.0950009" lon="10.4691464"><ele>475.8571428571429</ele><time>2026-03-31T11:15:55.999Z</time></trkpt><trkpt lat="44.0949673" lon="10.4692219"><ele>476.28571428571433</ele><time>2026-03-31T11:15:58Z</time></trkpt><trkpt lat="44.0949202" lon="10.4692933"><ele>476.7142857142858</ele><time>2026-03-31T11:16:01Z</time></trkpt><trkpt lat="44.0948644" lon="10.4693626"><ele>477.14285714285717</ele><time>2026-03-31T11:16:04Z</time></trkpt><trkpt lat="44.0948537" lon="10.4694531"><ele>477.57142857142867</ele><time>2026-03-31T11:16:06Z</time></trkpt><trkpt lat="44.0948452" lon="10.4695439"><ele>478.00000000000006</ele><time>2026-03-31T11:16:07.999Z</time></trkpt><trkpt lat="44.0948241" lon="10.4696296"><ele>474.00000000000006</ele><time>2026-03-31T11:16:10Z</time></trkpt><trkpt lat="44.0947779" lon="10.4697117"><ele>470.0</ele><time>2026-03-31T11:16:12Z</time></trkpt><trkpt lat="44.094724" lon="10.4698001"><ele>466.0</ele><time>2026-03-31T11:16:14Z</time></trkpt><trkpt lat="44.0946832" lon="10.4699238"><ele>462.0</ele><time>2026-03-31T11:16:16Z</time></trkpt><trkpt lat="44.094658" lon="10.4700481"><ele>458.00000000000006</ele><time>2026-03-31T11:16:18Z</time></trkpt><trkpt lat="44.0946188" lon="10.4701564"><ele>454.0</ele><time>2026-03-31T11:16:20Z</time></trkpt><trkpt lat="44.0945789" lon="10.470258"><ele>454.0</ele><time>2026-03-31T11:16:22.999Z</time></trkpt><trkpt lat="44.0945445" lon="10.4703527"><ele>454.00000000000006</ele><time>2026-03-31T11:16:26Z</time></trkpt><trkpt lat="44.0944912" lon="10.470441"><ele>454.0</ele><time>2026-03-31T11:16:28Z</time></trkpt><trkpt lat="44.094449" lon="10.4705099"><ele>454.0</ele><time>2026-03-31T11:16:29Z</time></trkpt><trkpt lat="44.0943943" lon="10.4705894"><ele>454.00000000000006</ele><time>2026-03-31T11:16:31Z</time></trkpt><trkpt lat="44.0943638" lon="10.4706821"><ele>454.0</ele><time>2026-03-31T11:16:32.999Z</time></trkpt><trkpt lat="44.0943382" lon="10.4707698"><ele>454.0</ele><time>2026-03-31T11:16:35Z</time></trkpt><trkpt lat="44.0943036" lon="10.470898"><ele>455.28571428571433</ele><time>2026-03-31T11:16:37Z</time></trkpt><trkpt lat="44.0942976" lon="10.4710156"><ele>456.5714285714286</ele><time>2026-03-31T11:16:41Z</time></trkpt><trkpt lat="44.0943305" lon="10.4711095"><ele>457.8571428571429</ele><time>2026-03-31T11:16:44Z</time></trkpt><trkpt lat="44.094346" lon="10.4711984"><ele>459.1428571428571</ele><time>2026-03-31T11:16:47Z</time></trkpt><trkpt lat="44.0942916" lon="10.4713013"><ele>460.4285714285714</ele><time>2026-03-31T11:16:51.999Z</time></trkpt><trkpt lat="44.0942378" lon="10.471357"><ele>461.71428571428567</ele><time>2026-03-31T11:17:05Z</time></trkpt><trkpt lat="44.0941739" lon="10.4713729"><ele>463.0</ele><time>2026-03-31T11:17:08.999Z</time></trkpt><trkpt lat="44.0941182" lon="10.4713116"><ele>469.50000000000006</ele><time>2026-03-31T11:17:15Z</time></trkpt><trkpt lat="44.0940766" lon="10.4712339"><ele>476.0</ele><time>2026-03-31T11:17:20Z</time></trkpt><trkpt lat="44.094023" lon="10.4711583"><ele>482.5</ele><time>2026-03-31T11:17:26Z</time></trkpt><trkpt lat="44.0939689" lon="10.4710973"><ele>489.0</ele><time>2026-03-31T11:17:29Z</time></trkpt><trkpt lat="44.0938958" lon="10.4710016"><ele>495.50000000000006</ele><time>2026-03-31T11:17:32Z</time></trkpt><trkpt lat="44.0938535" lon="10.470919"><ele>502.0</ele><time>2026-03-31T11:17:34Z</time></trkpt><trkpt lat="44.0938067" lon="10.4708539"><ele>501.99999999999994</ele><time>2026-03-31T11:17:39.999Z</time></trkpt><trkpt lat="44.0937534" lon="10.4707983"><ele>502.0</ele><time>2026-03-31T11:17:47Z</time></trkpt><trkpt lat="44.093715" lon="10.4707218"><ele>501.99999999999994</ele><time>2026-03-31T11:17:51Z</time></trkpt><trkpt lat="44.0937108" lon="10.4706288"><ele>501.99999999999994</ele><time>2026-03-31T11:17:54Z</time></trkpt><trkpt lat="44.0937214" lon="10.4705174"><ele>502.0</ele><time>2026-03-31T11:17:56.999Z</time></trkpt><trkpt lat="44.0936945" lon="10.4704155"><ele>501.99999999999994</ele><time>2026-03-31T11:18:01Z</time></trkpt><trkpt lat="44.0936476" lon="10.470322"><ele>501.99999999999994</ele><time>2026-03-31T11:18:04.999Z</time></trkpt><trkpt lat="44.093614" lon="10.4701974"><ele>496.1666666666667</ele><time>2026-03-31T11:18:08Z</time></trkpt><trkpt lat="44.0935731" lon="10.4700851"><ele>490.33333333333337</ele><time>2026-03-31T11:18:10Z</time></trkpt><trkpt lat="44.0934879" lon="10.4700217"><ele>484.5</ele><time>2026-03-31T11:18:11.999Z</time></trkpt><trkpt lat="44.0934165" lon="10.4699285"><ele>478.66666666666663</ele><time>2026-03-31T11:18:14Z</time></trkpt><trkpt lat="44.0933878" lon="10.4698232"><ele>472.8333333333333</ele><time>2026-03-31T11:18:14.999Z</time></trkpt><trkpt lat="44.0933404" lon="10.4697572"><ele>467.0</ele><time>2026-03-31T11:18:16Z</time></trkpt><trkpt lat="44.0932921" lon="10.4696828"><ele>471.6</ele><time>2026-03-31T11:18:18Z</time></trkpt><trkpt lat="44.0932296" lon="10.4695614"><ele>476.20000000000005</ele><time>2026-03-31T11:18:20Z</time></trkpt><trkpt lat="44.0931557" lon="10.4694502"><ele>480.8</ele><time>2026-03-31T11:18:21Z</time></trkpt><trkpt lat="44.0931028" lon="10.4692834"><ele>485.4</ele><time>2026-03-31T11:18:23Z</time></trkpt><trkpt lat="44.093077" lon="10.4691915"><ele>490.0</ele><time>2026-03-31T11:18:23.999Z</time></trkpt><trkpt lat="44.0930532" lon="10.4690371"><ele>490.0</ele><time>2026-03-31T11:18:26Z</time></trkpt><trkpt lat="44.0930241" lon="10.4688626"><ele>490.0</ele><time>2026-03-31T11:18:27.999Z</time></trkpt><trkpt lat="44.093001" lon="10.468727"><ele>490.0</ele><time>2026-03-31T11:18:29Z</time></trkpt><trkpt lat="44.0929705" lon="10.4686008"><ele>490.0</ele><time>2026-03-31T11:18:30Z</time></trkpt><trkpt lat="44.0929329" lon="10.4684979"><ele>490.0</ele><time>2026-03-31T11:18:31Z</time></trkpt><trkpt lat="44.0928658" lon="10.4683671"><ele>487.2857142857143</ele><time>2026-03-31T11:18:32.999Z</time></trkpt><trkpt lat="44.0928194" lon="10.4682428"><ele>484.57142857142856</ele><time>2026-03-31T11:18:35Z</time></trkpt><trkpt lat="44.0927607" lon="10.468197"><ele>481.8571428571429</ele><time>2026-03-31T11:18:39Z</time></trkpt><trkpt lat="44.0927034" lon="10.4681507"><ele>479.14285714285717</ele><time>2026-03-31T11:18:44.999Z</time></trkpt><trkpt lat="44.0926783" lon="10.4680702"><ele>476.42857142857144</ele><time>2026-03-31T11:18:50Z</time></trkpt><trkpt lat="44.0926497" lon="10.4679897"><ele>473.7142857142858</ele><time>2026-03-31T11:18:55Z</time></trkpt><trkpt lat="44.0926064" lon="10.4679187"><ele>471.00000000000006</ele><time>2026-03-31T11:19:00Z</time></trkpt><trkpt lat="44.0925694" lon="10.4678199"><ele>469.1428571428572</ele><time>2026-03-31T11:19:05Z</time></trkpt><trkpt lat="44.0925664" lon="10.4677256"><ele>467.28571428571433</ele><time>2026-03-31T11:19:09Z</time></trkpt><trkpt lat="44.0925264" lon="10.4676514"><ele>465.42857142857144</ele><time>2026-03-31T11:19:14Z</time></trkpt><trkpt lat="44.092474" lon="10.4675869"><ele>463.5714285714286</ele><time>2026-03-31T11:19:18.999Z</time></trkpt><trkpt lat="44.0924152" lon="10.4675234"><ele>461.7142857142858</ele><time>2026-03-31T11:19:23Z</time></trkpt><trkpt lat="44.0923754" lon="10.4674403"><ele>459.85714285714283</ele><time>2026-03-31T11:19:27Z</time></trkpt><trkpt lat="44.0923408" lon="10.4673498"><ele>458.0</ele><time>2026-03-31T11:19:31Z</time></trkpt><trkpt lat="44.0922821" lon="10.4672878"><ele>458.0</ele><time>2026-03-31T11:19:35Z</time></trkpt><trkpt lat="44.0922254" lon="10.4672491"><ele>458.0</ele><time>2026-03-31T11:19:38Z</time></trkpt><trkpt lat="44.0921616" lon="10.467237"><ele>458.0</ele><time>2026-03-31T11:19:40.999Z</time></trkpt><trkpt lat="44.0920873" lon="10.4672568"><ele>458.0</ele><time>2026-03-31T11:19:46Z</time></trkpt><trkpt lat="44.0920266" lon="10.467328"><ele>458.0</ele><time>2026-03-31T11:19:48.999Z</time></trkpt><trkpt lat="44.0919601" lon="10.4673539"><ele>458.0</ele><time>2026-03-31T11:19:51Z</time></trkpt><trkpt lat="44.0918825" lon="10.4673662"><ele>458.0</ele><time>2026-03-31T11:19:52.999Z</time></trkpt><trkpt lat="44.091761" lon="10.4673796"><ele>457.99999999999994</ele><time>2026-03-31T11:19:55Z</time></trkpt><trkpt lat="44.0916588" lon="10.4673832"><ele>458.0</ele><time>2026-03-31T11:19:56.999Z</time></trkpt><trkpt lat="44.0916" lon="10.4674626"><ele>458.0</ele><time>2026-03-31T11:19:59Z</time></trkpt><trkpt lat="44.091565" lon="10.4675466"><ele>458.0</ele><time>2026-03-31T11:20:00.999Z</time></trkpt><trkpt lat="44.091484" lon="10.4676126"><ele>457.99999999999994</ele><time>2026-03-31T11:20:04Z</time></trkpt><trkpt lat="44.0914031" lon="10.4676101"><ele>458.0</ele><time>2026-03-31T11:20:05.999Z</time></trkpt><trkpt lat="44.0913435" lon="10.467563"><ele>456.85714285714283</ele><time>2026-03-31T11:20:08Z</time></trkpt><trkpt lat="44.0912728" lon="10.4675003"><ele>455.7142857142858</ele><time>2026-03-31T11:20:11Z</time></trkpt><trkpt lat="44.0912093" lon="10.4674762"><ele>454.5714285714286</ele><time>2026-03-31T11:20:14Z</time></trkpt><trkpt lat="44.0911528" lon="10.4674164"><ele>453.42857142857144</ele><time>2026-03-31T11:20:17Z</time></trkpt><trkpt lat="44.091133" lon="10.4673174"><ele>452.28571428571433</ele><time>2026-03-31T11:20:20.999Z</time></trkpt><trkpt lat="44.0911365" lon="10.4672153"><ele>451.1428571428572</ele><time>2026-03-31T11:20:24Z</time></trkpt><trkpt lat="44.0911375" lon="10.4671246"><ele>450.00000000000006</ele><time>2026-03-31T11:20:26.999Z</time></trkpt><trkpt lat="44.0911221" lon="10.4670219"><ele>450.0</ele><time>2026-03-31T11:20:29.999Z</time></trkpt><trkpt lat="44.0910754" lon="10.4669422"><ele>450.0</ele><time>2026-03-31T11:20:32.999Z</time></trkpt><trkpt lat="44.091024" lon="10.4668823"><ele>450.0</ele><time>2026-03-31T11:20:37Z</time></trkpt><trkpt lat="44.0909695" lon="10.4668216"><ele>450.0</ele><time>2026-03-31T11:20:41Z</time></trkpt><trkpt lat="44.090915" lon="10.4667368"><ele>450.0</ele><time>2026-03-31T11:20:45Z</time></trkpt><trkpt lat="44.0908588" lon="10.4666482"><ele>450.0</ele><time>2026-03-31T11:20:49Z</time></trkpt><trkpt lat="44.0908132" lon="10.4665629"><ele>450.00000000000006</ele><time>2026-03-31T11:20:51.999Z</time></trkpt><trkpt lat="44.0907795" lon="10.4664851"><ele>450.0</ele><time>2026-03-31T11:20:54.999Z</time></trkpt><trkpt lat="44.0907212" lon="10.466399"><ele>450.00000000000006</ele><time>2026-03-31T11:20:59Z</time></trkpt><trkpt lat="44.0906705" lon="10.4663278"><ele>450.00000000000006</ele><time>2026-03-31T11:21:01.999Z</time></trkpt><trkpt lat="44.0906071" lon="10.4662504"><ele>450.0</ele><time>2026-03-31T11:21:06Z</time></trkpt><trkpt lat="44.0905599" lon="10.4661854"><ele>450.00000000000006</ele><time>2026-03-31T11:21:09Z</time></trkpt><trkpt lat="44.0905096" lon="10.4661165"><ele>450.00000000000006</ele><time>2026-03-31T11:21:11.999Z</time></trkpt><trkpt lat="44.0904573" lon="10.4660342"><ele>449.7142857142858</ele><time>2026-03-31T11:21:15Z</time></trkpt><trkpt lat="44.0904194" lon="10.4659439"><ele>449.42857142857144</ele><time>2026-03-31T11:21:18Z</time></trkpt><trkpt lat="44.0903898" lon="10.465849"><ele>449.14285714285717</ele><time>2026-03-31T11:21:20.999Z</time></trkpt><trkpt lat="44.0903638" lon="10.4657583"><ele>448.8571428571429</ele><time>2026-03-31T11:21:24Z</time></trkpt><trkpt lat="44.0903239" lon="10.4656707"><ele>448.57142857142856</ele><time>2026-03-31T11:21:27.999Z</time></trkpt><trkpt lat="44.0902563" lon="10.4656643"><ele>448.2857142857143</ele><time>2026-03-31T11:21:31.999Z</time></trkpt><trkpt lat="44.0902017" lon="10.4656152"><ele>448.0</ele><time>2026-03-31T11:21:36Z</time></trkpt><trkpt lat="44.0901702" lon="10.465503"><ele>447.0</ele><time>2026-03-31T11:21:39Z</time></trkpt><trkpt lat="44.0901518" lon="10.4654119"><ele>445.99999999999994</ele><time>2026-03-31T11:21:41Z</time></trkpt><trkpt lat="44.0901178" lon="10.4653018"><ele>444.99999999999994</ele><time>2026-03-31T11:21:43Z</time></trkpt><trkpt lat="44.0900865" lon="10.4651759"><ele>444.0</ele><time>2026-03-31T11:21:45Z</time></trkpt><trkpt lat="44.0900428" lon="10.4650438"><ele>443.0</ele><time>2026-03-31T11:21:47Z</time></trkpt><trkpt lat="44.0899825" lon="10.4649244"><ele>438.66666666666663</ele><time>2026-03-31T11:21:49Z</time></trkpt><trkpt lat="44.0899242" lon="10.4648626"><ele>434.3333333333333</ele><time>2026-03-31T11:21:50.999Z</time></trkpt><trkpt lat="44.0898588" lon="10.4649151"><ele>430.0</ele><time>2026-03-31T11:21:53Z</time></trkpt><trkpt lat="44.0898311" lon="10.4650234"><ele>425.66666666666663</ele><time>2026-03-31T11:21:54.999Z</time></trkpt><trkpt lat="44.0898362" lon="10.4651169"><ele>421.3333333333333</ele><time>2026-03-31T11:21:57Z</time></trkpt><trkpt lat="44.0898454" lon="10.4652249"><ele>417.0</ele><time>2026-03-31T11:22:00Z</time></trkpt><trkpt lat="44.0898512" lon="10.4653346"><ele>417.0</ele><time>2026-03-31T11:22:03Z</time></trkpt><trkpt lat="44.0898446" lon="10.4654224"><ele>417.0</ele><time>2026-03-31T11:22:05.999Z</time></trkpt><trkpt lat="44.0898552" lon="10.4655216"><ele>417.0</ele><time>2026-03-31T11:22:08.999Z</time></trkpt><trkpt lat="44.089845" lon="10.4656392"><ele>417.0</ele><time>2026-03-31T11:22:12Z</time></trkpt><trkpt lat="44.0898373" lon="10.4657641"><ele>417.0</ele><time>2026-03-31T11:22:14.999Z</time></trkpt><trkpt lat="44.0898374" lon="10.4658782"><ele>417.0</ele><time>2026-03-31T11:22:18Z</time></trkpt><trkpt lat="44.0898347" lon="10.4659759"><ele>416.8333333333333</ele><time>2026-03-31T11:22:20Z</time></trkpt><trkpt lat="44.0898256" lon="10.4660766"><ele>416.66666666666663</ele><time>2026-03-31T11:22:22Z</time></trkpt><trkpt lat="44.0898164" lon="10.4661815"><ele>416.5</ele><time>2026-03-31T11:22:24Z</time></trkpt><trkpt lat="44.089799" lon="10.4662984"><ele>416.3333333333333</ele><time>2026-03-31T11:22:26Z</time></trkpt><trkpt lat="44.0897848" lon="10.4664215"><ele>416.16666666666663</ele><time>2026-03-31T11:22:28Z</time></trkpt><trkpt lat="44.0897675" lon="10.466554"><ele>416.0</ele><time>2026-03-31T11:22:29.999Z</time></trkpt><trkpt lat="44.0897694" lon="10.4666732"><ele>415.99999999999994</ele><time>2026-03-31T11:22:32Z</time></trkpt><trkpt lat="44.0897604" lon="10.4668128"><ele>416.0</ele><time>2026-03-31T11:22:34Z</time></trkpt><trkpt lat="44.0897735" lon="10.4669568"><ele>416.0</ele><time>2026-03-31T11:22:36Z</time></trkpt><trkpt lat="44.0897815" lon="10.4670679"><ele>416.0</ele><time>2026-03-31T11:22:38Z</time></trkpt><trkpt lat="44.0897917" lon="10.4671586"><ele>415.99999999999994</ele><time>2026-03-31T11:22:41Z</time></trkpt><trkpt lat="44.0897949" lon="10.467251"><ele>416.0</ele><time>2026-03-31T11:22:44.999Z</time></trkpt><trkpt lat="44.0897995" lon="10.4673405"><ele>418.1428571428571</ele><time>2026-03-31T11:22:49Z</time></trkpt><trkpt lat="44.0898099" lon="10.4674281"><ele>420.28571428571433</ele><time>2026-03-31T11:22:52.999Z</time></trkpt><trkpt lat="44.0898018" lon="10.4675227"><ele>422.42857142857144</ele><time>2026-03-31T11:22:57Z</time></trkpt><trkpt lat="44.0897647" lon="10.467608"><ele>424.57142857142856</ele><time>2026-03-31T11:23:01.999Z</time></trkpt><trkpt lat="44.0897278" lon="10.4676838"><ele>426.71428571428567</ele><time>2026-03-31T11:23:06Z</time></trkpt><trkpt lat="44.0896895" lon="10.4677631"><ele>428.8571428571429</ele><time>2026-03-31T11:23:10Z</time></trkpt><trkpt lat="44.0896551" lon="10.4678477"><ele>431.0</ele><time>2026-03-31T11:23:14Z</time></trkpt><trkpt lat="44.0896405" lon="10.4679426"><ele>431.16666666666663</ele><time>2026-03-31T11:23:18Z</time></trkpt><trkpt lat="44.0896207" lon="10.4680515"><ele>431.3333333333333</ele><time>2026-03-31T11:23:22Z</time></trkpt><trkpt lat="44.089618" lon="10.4681673"><ele>431.5</ele><time>2026-03-31T11:23:26Z</time></trkpt><trkpt lat="44.0896312" lon="10.4682659"><ele>431.66666666666663</ele><time>2026-03-31T11:23:30Z</time></trkpt><trkpt lat="44.0896575" lon="10.468371"><ele>431.8333333333333</ele><time>2026-03-31T11:23:35Z</time></trkpt><trkpt lat="44.0896746" lon="10.4684587"><ele>432.0</ele><time>2026-03-31T11:23:37.999Z</time></trkpt><trkpt lat="44.0897125" lon="10.4685802"><ele>432.0</ele><time>2026-03-31T11:23:41Z</time></trkpt><trkpt lat="44.0897457" lon="10.4686768"><ele>432.0</ele><time>2026-03-31T11:23:43Z</time></trkpt><trkpt lat="44.0897793" lon="10.4687754"><ele>432.0</ele><time>2026-03-31T11:23:45Z</time></trkpt><trkpt lat="44.0898109" lon="10.4688721"><ele>432.0</ele><time>2026-03-31T11:23:47Z</time></trkpt><trkpt lat="44.089834" lon="10.468965"><ele>432.0</ele><time>2026-03-31T11:23:49Z</time></trkpt><trkpt lat="44.0898509" lon="10.4690658"><ele>432.0</ele><time>2026-03-31T11:23:51Z</time></trkpt><trkpt lat="44.0898713" lon="10.4691738"><ele>430.1666666666667</ele><time>2026-03-31T11:23:53Z</time></trkpt><trkpt lat="44.0898896" lon="10.469278"><ele>428.33333333333337</ele><time>2026-03-31T11:23:54.999Z</time></trkpt><trkpt lat="44.0899032" lon="10.4693757"><ele>426.5</ele><time>2026-03-31T11:23:57Z</time></trkpt><trkpt lat="44.0899216" lon="10.4694902"><ele>424.6666666666667</ele><time>2026-03-31T11:24:00Z</time></trkpt><trkpt lat="44.0899329" lon="10.469603"><ele>422.83333333333337</ele><time>2026-03-31T11:24:02.999Z</time></trkpt><trkpt lat="44.0899142" lon="10.4696946"><ele>421.0</ele><time>2026-03-31T11:24:06Z</time></trkpt><trkpt lat="44.0898969" lon="10.469795"><ele>420.33333333333337</ele><time>2026-03-31T11:24:10Z</time></trkpt><trkpt lat="44.0898943" lon="10.4698885"><ele>419.6666666666667</ele><time>2026-03-31T11:24:13.999Z</time></trkpt><trkpt lat="44.0899133" lon="10.4699896"><ele>419.0</ele><time>2026-03-31T11:24:15.999Z</time></trkpt><trkpt lat="44.0899362" lon="10.4700984"><ele>418.33333333333337</ele><time>2026-03-31T11:24:18Z</time></trkpt><trkpt lat="44.0899541" lon="10.4702028"><ele>417.6666666666667</ele><time>2026-03-31T11:24:20.999Z</time></trkpt><trkpt lat="44.0899175" lon="10.4703001"><ele>417.0</ele><time>2026-03-31T11:24:22.999Z</time></trkpt><trkpt lat="44.0898583" lon="10.4704291"><ele>419.1666666666667</ele><time>2026-03-31T11:24:24.999Z</time></trkpt><trkpt lat="44.0898036" lon="10.470535"><ele>421.33333333333337</ele><time>2026-03-31T11:24:27Z</time></trkpt><trkpt lat="44.0897307" lon="10.4706384"><ele>423.5</ele><time>2026-03-31T11:24:28.999Z</time></trkpt><trkpt lat="44.0896844" lon="10.4707126"><ele>425.6666666666667</ele><time>2026-03-31T11:24:32Z</time></trkpt><trkpt lat="44.0896166" lon="10.4707108"><ele>427.83333333333337</ele><time>2026-03-31T11:24:37.999Z</time></trkpt><trkpt lat="44.0895506" lon="10.470709"><ele>430.0</ele><time>2026-03-31T11:24:40.999Z</time></trkpt><trkpt lat="44.0894926" lon="10.4707528"><ele>430.0</ele><time>2026-03-31T11:24:43Z</time></trkpt><trkpt lat="44.0894345" lon="10.4707923"><ele>430.0</ele><time>2026-03-31T11:24:45Z</time></trkpt><trkpt lat="44.089402" lon="10.4708834"><ele>430.0</ele><time>2026-03-31T11:24:48Z</time></trkpt><trkpt lat="44.0893678" lon="10.4709852"><ele>430.0</ele><time>2026-03-31T11:24:52Z</time></trkpt><trkpt lat="44.0893697" lon="10.4710859"><ele>430.0</ele><time>2026-03-31T11:24:54.999Z</time></trkpt><trkpt lat="44.0893444" lon="10.4711802"><ele>430.0</ele><time>2026-03-31T11:24:58Z</time></trkpt><trkpt lat="44.0893249" lon="10.4712796"><ele>430.0</ele><time>2026-03-31T11:25:01Z</time></trkpt><trkpt lat="44.08935" lon="10.4713632"><ele>431.50000000000006</ele><time>2026-03-31T11:25:04Z</time></trkpt><trkpt lat="44.0893835" lon="10.4714431"><ele>433.0</ele><time>2026-03-31T11:25:08Z</time></trkpt><trkpt lat="44.0893473" lon="10.47154"><ele>434.5</ele><time>2026-03-31T11:25:13Z</time></trkpt><trkpt lat="44.0893597" lon="10.4716392"><ele>436.0</ele><time>2026-03-31T11:25:15Z</time></trkpt><trkpt lat="44.0893509" lon="10.4717575"><ele>437.50000000000006</ele><time>2026-03-31T11:25:19Z</time></trkpt><trkpt lat="44.0893333" lon="10.4718696"><ele>439.0</ele><time>2026-03-31T11:25:22.999Z</time></trkpt><trkpt lat="44.0893202" lon="10.4719736"><ele>439.0</ele><time>2026-03-31T11:25:26.999Z</time></trkpt><trkpt lat="44.0893156" lon="10.4720631"><ele>439.0</ele><time>2026-03-31T11:25:30Z</time></trkpt><trkpt lat="44.0893181" lon="10.4721709"><ele>439.0</ele><time>2026-03-31T11:25:33.999Z</time></trkpt><trkpt lat="44.0893321" lon="10.4722583"><ele>439.0</ele><time>2026-03-31T11:25:38Z</time></trkpt><trkpt lat="44.0893511" lon="10.4723493"><ele>439.0</ele><time>2026-03-31T11:25:40.999Z</time></trkpt><trkpt lat="44.0893875" lon="10.4724436"><ele>439.0</ele><time>2026-03-31T11:25:43.999Z</time></trkpt><trkpt lat="44.0893456" lon="10.47252"><ele>439.0</ele><time>2026-03-31T11:25:51Z</time></trkpt><trkpt lat="44.0892577" lon="10.472497"><ele>441.83333333333337</ele><time>2026-03-31T11:25:56Z</time></trkpt><trkpt lat="44.089168" lon="10.4724559"><ele>444.6666666666667</ele><time>2026-03-31T11:25:58Z</time></trkpt><trkpt lat="44.0890877" lon="10.4724516"><ele>447.5</ele><time>2026-03-31T11:26:00Z</time></trkpt><trkpt lat="44.0890293" lon="10.472511"><ele>450.33333333333337</ele><time>2026-03-31T11:26:02Z</time></trkpt><trkpt lat="44.08896" lon="10.4724613"><ele>453.1666666666667</ele><time>2026-03-31T11:26:06.999Z</time></trkpt><trkpt lat="44.088911" lon="10.472379"><ele>456.0</ele><time>2026-03-31T11:26:11Z</time></trkpt><trkpt lat="44.0888636" lon="10.4722926"><ele>456.71428571428567</ele><time>2026-03-31T11:26:15Z</time></trkpt><trkpt lat="44.0888159" lon="10.4722231"><ele>457.4285714285714</ele><time>2026-03-31T11:26:18.999Z</time></trkpt><trkpt lat="44.088769" lon="10.4721561"><ele>458.1428571428571</ele><time>2026-03-31T11:26:22Z</time></trkpt><trkpt lat="44.0886868" lon="10.4721328"><ele>458.8571428571429</ele><time>2026-03-31T11:26:27Z</time></trkpt><trkpt lat="44.0886193" lon="10.4721012"><ele>459.5714285714286</ele><time>2026-03-31T11:26:30Z</time></trkpt><trkpt lat="44.0885491" lon="10.472099"><ele>460.28571428571433</ele><time>2026-03-31T11:26:33Z</time></trkpt><trkpt lat="44.0884705" lon="10.4720813"><ele>461.0</ele><time>2026-03-31T11:26:36Z</time></trkpt><trkpt lat="44.0884093" lon="10.4720497"><ele>460.14285714285717</ele><time>2026-03-31T11:26:39Z</time></trkpt><trkpt lat="44.0883468" lon="10.471999"><ele>459.28571428571433</ele><time>2026-03-31T11:26:43.999Z</time></trkpt><trkpt lat="44.0882847" lon="10.4719543"><ele>458.42857142857144</ele><time>2026-03-31T11:26:46Z</time></trkpt><trkpt lat="44.0881965" lon="10.4719698"><ele>457.57142857142856</ele><time>2026-03-31T11:26:49Z</time></trkpt><trkpt lat="44.0881695" lon="10.4720629"><ele>456.7142857142857</ele><time>2026-03-31T11:26:51Z</time></trkpt><trkpt lat="44.0881126" lon="10.4721014"><ele>455.8571428571429</ele><time>2026-03-31T11:26:54Z</time></trkpt><trkpt lat="44.0880476" lon="10.472124"><ele>455.0</ele><time>2026-03-31T11:26:57Z</time></trkpt><trkpt lat="44.0879864" lon="10.4720201"><ele>452.16666666666663</ele><time>2026-03-31T11:27:00Z</time></trkpt><trkpt lat="44.0879554" lon="10.4719015"><ele>449.3333333333333</ele><time>2026-03-31T11:27:02Z</time></trkpt><trkpt lat="44.0879182" lon="10.4718198"><ele>446.5</ele><time>2026-03-31T11:27:03.999Z</time></trkpt><trkpt lat="44.0878524" lon="10.4717771"><ele>443.66666666666663</ele><time>2026-03-31T11:27:06Z</time></trkpt><trkpt lat="44.0877778" lon="10.4717602"><ele>440.8333333333333</ele><time>2026-03-31T11:27:07.999Z</time></trkpt><trkpt lat="44.0877035" lon="10.4717408"><ele>438.0</ele><time>2026-03-31T11:27:10Z</time></trkpt><trkpt lat="44.0876509" lon="10.4716855"><ele>438.0</ele><time>2026-03-31T11:27:12Z</time></trkpt><trkpt lat="44.0875918" lon="10.4716243"><ele>437.99999999999994</ele><time>2026-03-31T11:27:14Z</time></trkpt><trkpt lat="44.0875194" lon="10.4715889"><ele>437.99999999999994</ele><time>2026-03-31T11:27:16Z</time></trkpt><trkpt lat="44.0873908" lon="10.4715361"><ele>438.0</ele><time>2026-03-31T11:27:18Z</time></trkpt><trkpt lat="44.0872879" lon="10.4715618"><ele>438.0</ele><time>2026-03-31T11:27:20Z</time></trkpt><trkpt lat="44.087184" lon="10.4715339"><ele>435.3333333333333</ele><time>2026-03-31T11:27:22Z</time></trkpt><trkpt lat="44.0870892" lon="10.4715441"><ele>432.66666666666663</ele><time>2026-03-31T11:27:23.999Z</time></trkpt><trkpt lat="44.0869959" lon="10.4715367"><ele>430.0</ele><time>2026-03-31T11:27:26Z</time></trkpt><trkpt lat="44.0869156" lon="10.4715046"><ele>427.3333333333333</ele><time>2026-03-31T11:27:27Z</time></trkpt><trkpt lat="44.0868327" lon="10.471504"><ele>424.66666666666663</ele><time>2026-03-31T11:27:28Z</time></trkpt><trkpt lat="44.0867476" lon="10.4714703"><ele>422.0</ele><time>2026-03-31T11:27:29Z</time></trkpt><trkpt lat="44.0866497" lon="10.4714823"><ele>419.0</ele><time>2026-03-31T11:27:30.999Z</time></trkpt><trkpt lat="44.0865932" lon="10.4715273"><ele>416.0</ele><time>2026-03-31T11:27:33Z</time></trkpt><trkpt lat="44.0865564" lon="10.4716139"><ele>413.0</ele><time>2026-03-31T11:27:37Z</time></trkpt><trkpt lat="44.0865244" lon="10.4717043"><ele>410.0</ele><time>2026-03-31T11:27:43Z</time></trkpt><trkpt lat="44.0864947" lon="10.4717996"><ele>407.0</ele><time>2026-03-31T11:27:48Z</time></trkpt><trkpt lat="44.0864716" lon="10.4718973"><ele>404.0</ele><time>2026-03-31T11:27:53Z</time></trkpt><trkpt lat="44.0864423" lon="10.471978"><ele>401.0</ele><time>2026-03-31T11:27:56.999Z</time></trkpt><trkpt lat="44.0863954" lon="10.4720512"><ele>402.16666666666663</ele><time>2026-03-31T11:28:00Z</time></trkpt><trkpt lat="44.0863407" lon="10.4721432"><ele>403.3333333333333</ele><time>2026-03-31T11:28:04Z</time></trkpt><trkpt lat="44.0862648" lon="10.4721456"><ele>404.5</ele><time>2026-03-31T11:28:07Z</time></trkpt><trkpt lat="44.0862049" lon="10.4721945"><ele>405.66666666666663</ele><time>2026-03-31T11:28:11Z</time></trkpt><trkpt lat="44.0861594" lon="10.4722898"><ele>406.8333333333333</ele><time>2026-03-31T11:28:13Z</time></trkpt><trkpt lat="44.0861306" lon="10.4724341"><ele>408.0</ele><time>2026-03-31T11:28:15Z</time></trkpt><trkpt lat="44.0860918" lon="10.4725557"><ele>408.0</ele><time>2026-03-31T11:28:16.999Z</time></trkpt><trkpt lat="44.0860429" lon="10.472682"><ele>408.0</ele><time>2026-03-31T11:28:19Z</time></trkpt><trkpt lat="44.0860205" lon="10.472824"><ele>408.0</ele><time>2026-03-31T11:28:21Z</time></trkpt><trkpt lat="44.0860056" lon="10.4729695"><ele>408.0</ele><time>2026-03-31T11:28:22.999Z</time></trkpt><trkpt lat="44.0859947" lon="10.473112"><ele>408.0</ele><time>2026-03-31T11:28:25Z</time></trkpt><trkpt lat="44.0859627" lon="10.4732578"><ele>408.3333333333333</ele><time>2026-03-31T11:28:27Z</time></trkpt><trkpt lat="44.0859027" lon="10.4734165"><ele>408.66666666666663</ele><time>2026-03-31T11:28:29Z</time></trkpt><trkpt lat="44.0858541" lon="10.4734919"><ele>409.0</ele><time>2026-03-31T11:28:29.999Z</time></trkpt><trkpt lat="44.0857969" lon="10.473559"><ele>409.3333333333333</ele><time>2026-03-31T11:28:31Z</time></trkpt><trkpt lat="44.0857423" lon="10.4736258"><ele>409.66666666666663</ele><time>2026-03-31T11:28:32Z</time></trkpt><trkpt lat="44.0856882" lon="10.4736875"><ele>410.0</ele><time>2026-03-31T11:28:33Z</time></trkpt><trkpt lat="44.0856372" lon="10.473753"><ele>408.16666666666663</ele><time>2026-03-31T11:28:34Z</time></trkpt><trkpt lat="44.0855852" lon="10.4738278"><ele>406.3333333333333</ele><time>2026-03-31T11:28:35Z</time></trkpt><trkpt lat="44.0855319" lon="10.4739029"><ele>404.5</ele><time>2026-03-31T11:28:36Z</time></trkpt><trkpt lat="44.0854781" lon="10.4739787"><ele>402.66666666666663</ele><time>2026-03-31T11:28:36.999Z</time></trkpt><trkpt lat="44.0854287" lon="10.4740607"><ele>400.8333333333333</ele><time>2026-03-31T11:28:38Z</time></trkpt><trkpt lat="44.0853811" lon="10.4741457"><ele>399.0</ele><time>2026-03-31T11:28:39Z</time></trkpt><trkpt lat="44.0853292" lon="10.4742346"><ele>399.0</ele><time>2026-03-31T11:28:40Z</time></trkpt><trkpt lat="44.0852782" lon="10.4743154"><ele>399.0</ele><time>2026-03-31T11:28:41Z</time></trkpt><trkpt lat="44.0852268" lon="10.4744063"><ele>399.0</ele><time>2026-03-31T11:28:42Z</time></trkpt><trkpt lat="44.0851753" lon="10.4744926"><ele>399.0</ele><time>2026-03-31T11:28:43Z</time></trkpt><trkpt lat="44.0851242" lon="10.47458"><ele>399.0</ele><time>2026-03-31T11:28:44Z</time></trkpt><trkpt lat="44.0850709" lon="10.4746729"><ele>399.0</ele><time>2026-03-31T11:28:45Z</time></trkpt><trkpt lat="44.0850178" lon="10.4747572"><ele>400.5</ele><time>2026-03-31T11:28:46Z</time></trkpt><trkpt lat="44.0849642" lon="10.4748449"><ele>402.0</ele><time>2026-03-31T11:28:47Z</time></trkpt><trkpt lat="44.0849071" lon="10.47493"><ele>403.5</ele><time>2026-03-31T11:28:48Z</time></trkpt><trkpt lat="44.0848551" lon="10.4750163"><ele>405.0</ele><time>2026-03-31T11:28:48.999Z</time></trkpt><trkpt lat="44.0848088" lon="10.475096"><ele>406.5</ele><time>2026-03-31T11:28:50Z</time></trkpt><trkpt lat="44.0847597" lon="10.4751791"><ele>408.0</ele><time>2026-03-31T11:28:50.999Z</time></trkpt><trkpt lat="44.0847131" lon="10.4752787"><ele>405.1666666666667</ele><time>2026-03-31T11:28:52Z</time></trkpt><trkpt lat="44.0846719" lon="10.4753492"><ele>402.33333333333337</ele><time>2026-03-31T11:28:53Z</time></trkpt><trkpt lat="44.0845994" lon="10.475474"><ele>399.5</ele><time>2026-03-31T11:28:55Z</time></trkpt><trkpt lat="44.084551" lon="10.475589"><ele>396.6666666666667</ele><time>2026-03-31T11:28:57Z</time></trkpt><trkpt lat="44.0845308" lon="10.4756898"><ele>393.83333333333337</ele><time>2026-03-31T11:28:59Z</time></trkpt><trkpt lat="44.0845162" lon="10.4757832"><ele>391.0</ele><time>2026-03-31T11:29:01Z</time></trkpt><trkpt lat="44.0845093" lon="10.4759002"><ele>390.99999999999994</ele><time>2026-03-31T11:29:03.999Z</time></trkpt><trkpt lat="44.0845059" lon="10.4759884"><ele>391.0</ele><time>2026-03-31T11:29:07Z</time></trkpt><trkpt lat="44.0845143" lon="10.4760767"><ele>391.0</ele><time>2026-03-31T11:29:10Z</time></trkpt><trkpt lat="44.084525" lon="10.4761718"><ele>391.0</ele><time>2026-03-31T11:29:12.999Z</time></trkpt><trkpt lat="44.0845205" lon="10.4762654"><ele>391.0</ele><time>2026-03-31T11:29:16Z</time></trkpt><trkpt lat="44.0845242" lon="10.4763678"><ele>390.99999999999994</ele><time>2026-03-31T11:29:19Z</time></trkpt><trkpt lat="44.0845309" lon="10.4764686"><ele>391.0</ele><time>2026-03-31T11:29:22Z</time></trkpt><trkpt lat="44.0845351" lon="10.4765723"><ele>390.83333333333337</ele><time>2026-03-31T11:29:25Z</time></trkpt><trkpt lat="44.0845453" lon="10.4766813"><ele>390.6666666666667</ele><time>2026-03-31T11:29:28Z</time></trkpt><trkpt lat="44.084563" lon="10.4767932"><ele>390.5</ele><time>2026-03-31T11:29:31Z</time></trkpt><trkpt lat="44.0845929" lon="10.476908"><ele>390.33333333333337</ele><time>2026-03-31T11:29:33.999Z</time></trkpt><trkpt lat="44.0846182" lon="10.4769938"><ele>390.1666666666667</ele><time>2026-03-31T11:29:36Z</time></trkpt><trkpt lat="44.0846473" lon="10.4770797"><ele>390.0</ele><time>2026-03-31T11:29:38Z</time></trkpt><trkpt lat="44.08468" lon="10.4771699"><ele>388.1666666666667</ele><time>2026-03-31T11:29:40Z</time></trkpt><trkpt lat="44.0847143" lon="10.4772598"><ele>386.3333333333333</ele><time>2026-03-31T11:29:42Z</time></trkpt><trkpt lat="44.0847527" lon="10.4773517"><ele>384.5</ele><time>2026-03-31T11:29:44Z</time></trkpt><trkpt lat="44.0847977" lon="10.4774575"><ele>382.66666666666663</ele><time>2026-03-31T11:29:45.999Z</time></trkpt><trkpt lat="44.0848522" lon="10.4775708"><ele>380.8333333333333</ele><time>2026-03-31T11:29:48Z</time></trkpt><trkpt lat="44.0849058" lon="10.4776684"><ele>379.0</ele><time>2026-03-31T11:29:50Z</time></trkpt><trkpt lat="44.0849678" lon="10.4777549"><ele>381.66666666666663</ele><time>2026-03-31T11:29:52Z</time></trkpt><trkpt lat="44.0850284" lon="10.4778425"><ele>384.3333333333333</ele><time>2026-03-31T11:29:53.999Z</time></trkpt><trkpt lat="44.0850837" lon="10.4779198"><ele>387.0</ele><time>2026-03-31T11:29:55.999Z</time></trkpt><trkpt lat="44.0851436" lon="10.4779761"><ele>389.66666666666663</ele><time>2026-03-31T11:29:58Z</time></trkpt><trkpt lat="44.0851929" lon="10.4780324"><ele>392.3333333333333</ele><time>2026-03-31T11:30:00Z</time></trkpt><trkpt lat="44.0852558" lon="10.4781055"><ele>395.0</ele><time>2026-03-31T11:30:02.999Z</time></trkpt><trkpt lat="44.0853169" lon="10.4781805"><ele>394.99999999999994</ele><time>2026-03-31T11:30:06Z</time></trkpt><trkpt lat="44.0853701" lon="10.4782637"><ele>395.0</ele><time>2026-03-31T11:30:08.999Z</time></trkpt><trkpt lat="44.0854254" lon="10.4783472"><ele>395.0</ele><time>2026-03-31T11:30:12Z</time></trkpt><trkpt lat="44.0854734" lon="10.4784153"><ele>395.0</ele><time>2026-03-31T11:30:15Z</time></trkpt><trkpt lat="44.0855289" lon="10.4784941"><ele>394.99999999999994</ele><time>2026-03-31T11:30:19Z</time></trkpt><trkpt lat="44.0855884" lon="10.4785848"><ele>395.0</ele><time>2026-03-31T11:30:22Z</time></trkpt><trkpt lat="44.085678" lon="10.4786155"><ele>395.8</ele><time>2026-03-31T11:30:23.999Z</time></trkpt><trkpt lat="44.0857925" lon="10.478636"><ele>396.6</ele><time>2026-03-31T11:30:25.999Z</time></trkpt><trkpt lat="44.0858563" lon="10.4786576"><ele>397.4</ele><time>2026-03-31T11:30:27Z</time></trkpt><trkpt lat="44.0859554" lon="10.4787174"><ele>398.2</ele><time>2026-03-31T11:30:29Z</time></trkpt><trkpt lat="44.0859872" lon="10.4787985"><ele>399.0</ele><time>2026-03-31T11:30:30.999Z</time></trkpt><trkpt lat="44.08584" lon="10.4788376"><ele>399.0</ele><time>2026-03-31T11:30:34Z</time></trkpt><trkpt lat="44.0857705" lon="10.4788529"><ele>399.0</ele><time>2026-03-31T11:30:35Z</time></trkpt><trkpt lat="44.0856889" lon="10.4788557"><ele>399.0</ele><time>2026-03-31T11:30:36Z</time></trkpt><trkpt lat="44.0855902" lon="10.4788702"><ele>399.0</ele><time>2026-03-31T11:30:36.999Z</time></trkpt><trkpt lat="44.0854864" lon="10.4788889"><ele>399.0</ele><time>2026-03-31T11:30:38Z</time></trkpt><trkpt lat="44.0853784" lon="10.4789059"><ele>395.79999999999995</ele><time>2026-03-31T11:30:39Z</time></trkpt><trkpt lat="44.0852567" lon="10.4789111"><ele>392.59999999999997</ele><time>2026-03-31T11:30:39.999Z</time></trkpt><trkpt lat="44.0851455" lon="10.4789166"><ele>389.4</ele><time>2026-03-31T11:30:40.999Z</time></trkpt><trkpt lat="44.0850486" lon="10.4789199"><ele>386.2</ele><time>2026-03-31T11:30:42Z</time></trkpt><trkpt lat="44.0849641" lon="10.4788863"><ele>383.0</ele><time>2026-03-31T11:30:43Z</time></trkpt><trkpt lat="44.0848951" lon="10.478834"><ele>383.0</ele><time>2026-03-31T11:30:44Z</time></trkpt><trkpt lat="44.0848374" lon="10.4787858"><ele>383.0</ele><time>2026-03-31T11:30:45Z</time></trkpt><trkpt lat="44.0847641" lon="10.4788228"><ele>383.0</ele><time>2026-03-31T11:30:47Z</time></trkpt><trkpt lat="44.0847865" lon="10.478908"><ele>383.0</ele><time>2026-03-31T11:30:48.999Z</time></trkpt><trkpt lat="44.0848706" lon="10.4789936"><ele>383.0</ele><time>2026-03-31T11:30:51Z</time></trkpt><trkpt lat="44.0849176" lon="10.4790597"><ele>383.0</ele><time>2026-03-31T11:30:51.999Z</time></trkpt><trkpt lat="44.0849686" lon="10.4791158"><ele>383.0</ele><time>2026-03-31T11:30:52.999Z</time></trkpt><trkpt lat="44.085024" lon="10.4791758"><ele>383.0</ele><time>2026-03-31T11:30:54Z</time></trkpt><trkpt lat="44.0850917" lon="10.4792488"><ele>383.0</ele><time>2026-03-31T11:30:55Z</time></trkpt><trkpt lat="44.0851415" lon="10.479325"><ele>383.0</ele><time>2026-03-31T11:30:56Z</time></trkpt><trkpt lat="44.0851725" lon="10.479419"><ele>383.0</ele><time>2026-03-31T11:30:57Z</time></trkpt><trkpt lat="44.0851825" lon="10.4795664"><ele>383.0</ele><time>2026-03-31T11:30:59Z</time></trkpt><trkpt lat="44.0851271" lon="10.479635"><ele>383.0</ele><time>2026-03-31T11:31:00Z</time></trkpt><trkpt lat="44.0849716" lon="10.4796225"><ele>379.2</ele><time>2026-03-31T11:31:02.999Z</time></trkpt><trkpt lat="44.0848642" lon="10.4796112"><ele>375.4</ele><time>2026-03-31T11:31:04.999Z</time></trkpt><trkpt lat="44.0847568" lon="10.4796033"><ele>371.59999999999997</ele><time>2026-03-31T11:31:06.999Z</time></trkpt><trkpt lat="44.0846544" lon="10.4796453"><ele>367.79999999999995</ele><time>2026-03-31T11:31:08.999Z</time></trkpt><trkpt lat="44.0845879" lon="10.4797676"><ele>364.0</ele><time>2026-03-31T11:31:11Z</time></trkpt><trkpt lat="44.0845478" lon="10.4798438"><ele>364.0</ele><time>2026-03-31T11:31:12Z</time></trkpt><trkpt lat="44.0844908" lon="10.4799162"><ele>364.0</ele><time>2026-03-31T11:31:13Z</time></trkpt><trkpt lat="44.0844306" lon="10.4799636"><ele>364.0</ele><time>2026-03-31T11:31:14Z</time></trkpt><trkpt lat="44.0843227" lon="10.4800022"><ele>364.0</ele><time>2026-03-31T11:31:16Z</time></trkpt><trkpt lat="44.0842997" lon="10.4798906"><ele>364.0</ele><time>2026-03-31T11:31:18Z</time></trkpt><trkpt lat="44.0843555" lon="10.4797486"><ele>364.0</ele><time>2026-03-31T11:31:20Z</time></trkpt><trkpt lat="44.0844147" lon="10.4796023"><ele>364.0</ele><time>2026-03-31T11:31:21.999Z</time></trkpt><trkpt lat="44.0844181" lon="10.4794928"><ele>364.0</ele><time>2026-03-31T11:31:25Z</time></trkpt><trkpt lat="44.0843103" lon="10.4795419"><ele>364.0</ele><time>2026-03-31T11:31:27Z</time></trkpt><trkpt lat="44.0842701" lon="10.4796734"><ele>364.0</ele><time>2026-03-31T11:31:28Z</time></trkpt><trkpt lat="44.0842049" lon="10.4797279"><ele>364.0</ele><time>2026-03-31T11:31:29Z</time></trkpt><trkpt lat="44.0841433" lon="10.4797989"><ele>364.0</ele><time>2026-03-31T11:31:30Z</time></trkpt><trkpt lat="44.0840345" lon="10.4798397"><ele>364.0</ele><time>2026-03-31T11:31:31Z</time></trkpt><trkpt lat="44.0839389" lon="10.4798512"><ele>364.0</ele><time>2026-03-31T11:31:31.999Z</time></trkpt><trkpt lat="44.0838533" lon="10.479856"><ele>364.0</ele><time>2026-03-31T11:31:33Z</time></trkpt><trkpt lat="44.0837851" lon="10.4798558"><ele>364.0</ele><time>2026-03-31T11:31:34Z</time></trkpt><trkpt lat="44.0837187" lon="10.4798652"><ele>360.79999999999995</ele><time>2026-03-31T11:31:35Z</time></trkpt><trkpt lat="44.0836513" lon="10.4797813"><ele>357.59999999999997</ele><time>2026-03-31T11:31:37Z</time></trkpt><trkpt lat="44.0836349" lon="10.4796526"><ele>354.4</ele><time>2026-03-31T11:31:38.999Z</time></trkpt><trkpt lat="44.0836492" lon="10.4795671"><ele>351.2</ele><time>2026-03-31T11:31:40Z</time></trkpt><trkpt lat="44.083652" lon="10.4794229"><ele>348.0</ele><time>2026-03-31T11:31:41.999Z</time></trkpt><trkpt lat="44.083581" lon="10.479274"><ele>347.1666666666667</ele><time>2026-03-31T11:31:43.999Z</time></trkpt><trkpt lat="44.0835308" lon="10.4792184"><ele>346.3333333333333</ele><time>2026-03-31T11:31:45Z</time></trkpt><trkpt lat="44.0834642" lon="10.4791617"><ele>345.5</ele><time>2026-03-31T11:31:46Z</time></trkpt><trkpt lat="44.0833984" lon="10.4790977"><ele>344.66666666666663</ele><time>2026-03-31T11:31:47Z</time></trkpt><trkpt lat="44.083333" lon="10.4790278"><ele>343.8333333333333</ele><time>2026-03-31T11:31:48Z</time></trkpt><trkpt lat="44.0832711" lon="10.4789504"><ele>343.0</ele><time>2026-03-31T11:31:48.999Z</time></trkpt><trkpt lat="44.0832103" lon="10.478863"><ele>339.0</ele><time>2026-03-31T11:31:49.999Z</time></trkpt><trkpt lat="44.0831345" lon="10.4787598"><ele>335.0</ele><time>2026-03-31T11:31:51Z</time></trkpt><trkpt lat="44.0830633" lon="10.4786604"><ele>331.0</ele><time>2026-03-31T11:31:52Z</time></trkpt><trkpt lat="44.0829714" lon="10.4785213"><ele>327.0</ele><time>2026-03-31T11:31:52.999Z</time></trkpt><trkpt lat="44.082884" lon="10.4783757"><ele>327.0</ele><time>2026-03-31T11:31:54Z</time></trkpt><trkpt lat="44.0827949" lon="10.4782688"><ele>327.0</ele><time>2026-03-31T11:31:55Z</time></trkpt><trkpt lat="44.0827012" lon="10.4781478"><ele>327.0</ele><time>2026-03-31T11:31:56Z</time></trkpt><trkpt lat="44.0826" lon="10.4780228"><ele>327.0</ele><time>2026-03-31T11:31:57Z</time></trkpt><trkpt lat="44.0824946" lon="10.477899"><ele>324.8</ele><time>2026-03-31T11:31:58Z</time></trkpt><trkpt lat="44.0823947" lon="10.4778185"><ele>322.6</ele><time>2026-03-31T11:31:59Z</time></trkpt><trkpt lat="44.0823051" lon="10.4777454"><ele>320.40000000000003</ele><time>2026-03-31T11:32:00Z</time></trkpt><trkpt lat="44.0822345" lon="10.477689"><ele>318.20000000000005</ele><time>2026-03-31T11:32:00.999Z</time></trkpt><trkpt lat="44.082164" lon="10.4776347"><ele>316.0</ele><time>2026-03-31T11:32:02Z</time></trkpt><trkpt lat="44.0821068" lon="10.4775591"><ele>316.0</ele><time>2026-03-31T11:32:05Z</time></trkpt><trkpt lat="44.0820732" lon="10.4774764"><ele>316.0</ele><time>2026-03-31T11:32:07Z</time></trkpt><trkpt lat="44.0820494" lon="10.4773811"><ele>316.0</ele><time>2026-03-31T11:32:09Z</time></trkpt><trkpt lat="44.0820218" lon="10.4772751"><ele>316.0</ele><time>2026-03-31T11:32:11Z</time></trkpt><trkpt lat="44.0819842" lon="10.4771629"><ele>316.0</ele><time>2026-03-31T11:32:13Z</time></trkpt><trkpt lat="44.0819564" lon="10.477056"><ele>316.0</ele><time>2026-03-31T11:32:14.999Z</time></trkpt><trkpt lat="44.0819231" lon="10.4769381"><ele>315.5</ele><time>2026-03-31T11:32:16.999Z</time></trkpt><trkpt lat="44.0818746" lon="10.4767963"><ele>315.0</ele><time>2026-03-31T11:32:19Z</time></trkpt><trkpt lat="44.0818353" lon="10.4766542"><ele>314.5</ele><time>2026-03-31T11:32:20.999Z</time></trkpt><trkpt lat="44.0817852" lon="10.4765011"><ele>314.0</ele><time>2026-03-31T11:32:23Z</time></trkpt><trkpt lat="44.0817145" lon="10.4763662"><ele>314.0</ele><time>2026-03-31T11:32:25Z</time></trkpt><trkpt lat="44.0816565" lon="10.4763217"><ele>314.0</ele><time>2026-03-31T11:32:26Z</time></trkpt><trkpt lat="44.0815889" lon="10.476286"><ele>314.0</ele><time>2026-03-31T11:32:27Z</time></trkpt><trkpt lat="44.0814603" lon="10.4762591"><ele>314.0</ele><time>2026-03-31T11:32:29Z</time></trkpt><trkpt lat="44.0813945" lon="10.4762423"><ele>314.0</ele><time>2026-03-31T11:32:30Z</time></trkpt><trkpt lat="44.0813267" lon="10.4762286"><ele>314.0</ele><time>2026-03-31T11:32:31Z</time></trkpt><trkpt lat="44.0812544" lon="10.4762093"><ele>311.85714285714283</ele><time>2026-03-31T11:32:32Z</time></trkpt><trkpt lat="44.0811916" lon="10.4761809"><ele>309.7142857142857</ele><time>2026-03-31T11:32:33Z</time></trkpt><trkpt lat="44.0811321" lon="10.4761282"><ele>307.57142857142856</ele><time>2026-03-31T11:32:34Z</time></trkpt><trkpt lat="44.0810884" lon="10.4760429"><ele>305.42857142857144</ele><time>2026-03-31T11:32:35Z</time></trkpt><trkpt lat="44.0810625" lon="10.4759514"><ele>303.2857142857143</ele><time>2026-03-31T11:32:36Z</time></trkpt><trkpt lat="44.0810615" lon="10.4758485"><ele>301.1428571428571</ele><time>2026-03-31T11:32:37Z</time></trkpt><trkpt lat="44.0810677" lon="10.4757475"><ele>299.0</ele><time>2026-03-31T11:32:38Z</time></trkpt><trkpt lat="44.0810765" lon="10.4756476"><ele>299.0</ele><time>2026-03-31T11:32:38.999Z</time></trkpt><trkpt lat="44.0810927" lon="10.4755509"><ele>299.0</ele><time>2026-03-31T11:32:40Z</time></trkpt><trkpt lat="44.0811055" lon="10.4754477"><ele>299.0</ele><time>2026-03-31T11:32:41Z</time></trkpt><trkpt lat="44.0811155" lon="10.4753548"><ele>299.0</ele><time>2026-03-31T11:32:42Z</time></trkpt><trkpt lat="44.0811311" lon="10.4752564"><ele>299.0</ele><time>2026-03-31T11:32:43Z</time></trkpt><trkpt lat="44.0811455" lon="10.47516"><ele>299.0</ele><time>2026-03-31T11:32:43.999Z</time></trkpt><trkpt lat="44.081165" lon="10.4750573"><ele>299.0</ele><time>2026-03-31T11:32:45Z</time></trkpt><trkpt lat="44.081184" lon="10.4749605"><ele>298.85714285714283</ele><time>2026-03-31T11:32:46Z</time></trkpt><trkpt lat="44.0811945" lon="10.4748558"><ele>298.7142857142857</ele><time>2026-03-31T11:32:47Z</time></trkpt><trkpt lat="44.0812068" lon="10.4747559"><ele>298.57142857142856</ele><time>2026-03-31T11:32:48Z</time></trkpt><trkpt lat="44.0812193" lon="10.4746554"><ele>298.42857142857144</ele><time>2026-03-31T11:32:48.999Z</time></trkpt><trkpt lat="44.0812289" lon="10.4745527"><ele>298.2857142857143</ele><time>2026-03-31T11:32:49.999Z</time></trkpt><trkpt lat="44.0812438" lon="10.4744526"><ele>298.1428571428571</ele><time>2026-03-31T11:32:51Z</time></trkpt><trkpt lat="44.0812568" lon="10.474351"><ele>298.0</ele><time>2026-03-31T11:32:52Z</time></trkpt><trkpt lat="44.081268" lon="10.4742481"><ele>296.7142857142857</ele><time>2026-03-31T11:32:53Z</time></trkpt><trkpt lat="44.0812785" lon="10.4741479"><ele>295.4285714285714</ele><time>2026-03-31T11:32:54Z</time></trkpt><trkpt lat="44.0812879" lon="10.4740492"><ele>294.1428571428571</ele><time>2026-03-31T11:32:55Z</time></trkpt><trkpt lat="44.0812952" lon="10.4739486"><ele>292.85714285714283</ele><time>2026-03-31T11:32:56Z</time></trkpt><trkpt lat="44.0813006" lon="10.4738505"><ele>291.57142857142856</ele><time>2026-03-31T11:32:57Z</time></trkpt><trkpt lat="44.0813053" lon="10.4737502"><ele>290.2857142857143</ele><time>2026-03-31T11:32:58Z</time></trkpt><trkpt lat="44.0813074" lon="10.4736526"><ele>289.0</ele><time>2026-03-31T11:32:59Z</time></trkpt><trkpt lat="44.0813109" lon="10.4735514"><ele>287.8571428571429</ele><time>2026-03-31T11:33:00Z</time></trkpt><trkpt lat="44.0813101" lon="10.4734486"><ele>286.7142857142857</ele><time>2026-03-31T11:33:01Z</time></trkpt><trkpt lat="44.0813095" lon="10.4733488"><ele>285.57142857142856</ele><time>2026-03-31T11:33:01.999Z</time></trkpt><trkpt lat="44.0813098" lon="10.4732505"><ele>284.42857142857144</ele><time>2026-03-31T11:33:03Z</time></trkpt><trkpt lat="44.0813125" lon="10.4731475"><ele>283.2857142857143</ele><time>2026-03-31T11:33:04Z</time></trkpt><trkpt lat="44.0813085" lon="10.4730432"><ele>282.14285714285717</ele><time>2026-03-31T11:33:05Z</time></trkpt><trkpt lat="44.0813058" lon="10.4729332"><ele>281.0</ele><time>2026-03-31T11:33:06Z</time></trkpt><trkpt lat="44.081306" lon="10.4728258"><ele>281.0</ele><time>2026-03-31T11:33:07Z</time></trkpt><trkpt lat="44.0813054" lon="10.4727196"><ele>281.0</ele><time>2026-03-31T11:33:08Z</time></trkpt><trkpt lat="44.0813064" lon="10.4726135"><ele>281.0</ele><time>2026-03-31T11:33:09Z</time></trkpt><trkpt lat="44.0813078" lon="10.4725061"><ele>281.0</ele><time>2026-03-31T11:33:10Z</time></trkpt><trkpt lat="44.0813069" lon="10.4724005"><ele>281.0</ele><time>2026-03-31T11:33:10.999Z</time></trkpt><trkpt lat="44.0813077" lon="10.4722956"><ele>281.0</ele><time>2026-03-31T11:33:12Z</time></trkpt><trkpt lat="44.0813117" lon="10.4721868"><ele>281.0</ele><time>2026-03-31T11:33:13Z</time></trkpt><trkpt lat="44.0813234" lon="10.472077"><ele>281.0</ele><time>2026-03-31T11:33:13.999Z</time></trkpt><trkpt lat="44.081337" lon="10.4719679"><ele>281.0</ele><time>2026-03-31T11:33:15Z</time></trkpt><trkpt lat="44.0813584" lon="10.4718572"><ele>281.0</ele><time>2026-03-31T11:33:16Z</time></trkpt><trkpt lat="44.0813799" lon="10.4717446"><ele>281.0</ele><time>2026-03-31T11:33:17Z</time></trkpt><trkpt lat="44.0814017" lon="10.4716326"><ele>281.0</ele><time>2026-03-31T11:33:18Z</time></trkpt><trkpt lat="44.0814264" lon="10.4715272"><ele>281.0</ele><time>2026-03-31T11:33:19Z</time></trkpt><trkpt lat="44.0814514" lon="10.4714203"><ele>281.0</ele><time>2026-03-31T11:33:20Z</time></trkpt><trkpt lat="44.0814771" lon="10.4713145"><ele>281.0</ele><time>2026-03-31T11:33:21Z</time></trkpt><trkpt lat="44.0815009" lon="10.471204"><ele>281.0</ele><time>2026-03-31T11:33:22Z</time></trkpt><trkpt lat="44.0815244" lon="10.4710983"><ele>281.0</ele><time>2026-03-31T11:33:23Z</time></trkpt><trkpt lat="44.0815495" lon="10.4709881"><ele>281.0</ele><time>2026-03-31T11:33:23.999Z</time></trkpt><trkpt lat="44.0815771" lon="10.4708827"><ele>282.1666666666667</ele><time>2026-03-31T11:33:25Z</time></trkpt><trkpt lat="44.0816055" lon="10.4707756"><ele>283.33333333333337</ele><time>2026-03-31T11:33:26Z</time></trkpt><trkpt lat="44.0816372" lon="10.4706663"><ele>284.5</ele><time>2026-03-31T11:33:27Z</time></trkpt><trkpt lat="44.08167" lon="10.4705594"><ele>285.6666666666667</ele><time>2026-03-31T11:33:28Z</time></trkpt><trkpt lat="44.0817071" lon="10.4704524"><ele>286.8333333333333</ele><time>2026-03-31T11:33:29Z</time></trkpt><trkpt lat="44.081747" lon="10.4703409"><ele>288.0</ele><time>2026-03-31T11:33:29.999Z</time></trkpt><trkpt lat="44.0817849" lon="10.4702337"><ele>288.0</ele><time>2026-03-31T11:33:30.999Z</time></trkpt><trkpt lat="44.0818221" lon="10.470121"><ele>288.0</ele><time>2026-03-31T11:33:32Z</time></trkpt><trkpt lat="44.0818592" lon="10.470009"><ele>288.0</ele><time>2026-03-31T11:33:33Z</time></trkpt><trkpt lat="44.0818967" lon="10.4698955"><ele>288.0</ele><time>2026-03-31T11:33:34Z</time></trkpt><trkpt lat="44.0819332" lon="10.4697788"><ele>288.0</ele><time>2026-03-31T11:33:35Z</time></trkpt><trkpt lat="44.0819659" lon="10.4696585"><ele>287.2</ele><time>2026-03-31T11:33:35.999Z</time></trkpt><trkpt lat="44.0819976" lon="10.469539"><ele>286.4</ele><time>2026-03-31T11:33:37Z</time></trkpt><trkpt lat="44.0820236" lon="10.4694207"><ele>285.59999999999997</ele><time>2026-03-31T11:33:38Z</time></trkpt><trkpt lat="44.0820408" lon="10.4692952"><ele>284.8</ele><time>2026-03-31T11:33:39Z</time></trkpt><trkpt lat="44.082065" lon="10.4691679"><ele>284.0</ele><time>2026-03-31T11:33:40Z</time></trkpt><trkpt lat="44.08209" lon="10.4690381"><ele>284.0</ele><time>2026-03-31T11:33:41Z</time></trkpt><trkpt lat="44.0821094" lon="10.4689082"><ele>284.0</ele><time>2026-03-31T11:33:42Z</time></trkpt><trkpt lat="44.082125" lon="10.4687773"><ele>284.0</ele><time>2026-03-31T11:33:43Z</time></trkpt><trkpt lat="44.0821426" lon="10.4686456"><ele>284.0</ele><time>2026-03-31T11:33:44Z</time></trkpt><trkpt lat="44.082161" lon="10.4685147"><ele>284.0</ele><time>2026-03-31T11:33:45Z</time></trkpt><trkpt lat="44.0821784" lon="10.4683838"><ele>282.8</ele><time>2026-03-31T11:33:45.999Z</time></trkpt><trkpt lat="44.082194" lon="10.4682492"><ele>281.59999999999997</ele><time>2026-03-31T11:33:47Z</time></trkpt><trkpt lat="44.0822106" lon="10.468114"><ele>280.4</ele><time>2026-03-31T11:33:47.999Z</time></trkpt><trkpt lat="44.0822305" lon="10.4679798"><ele>279.2</ele><time>2026-03-31T11:33:48.999Z</time></trkpt><trkpt lat="44.0822497" lon="10.4678459"><ele>278.0</ele><time>2026-03-31T11:33:49.999Z</time></trkpt><trkpt lat="44.0822677" lon="10.4677035"><ele>277.6</ele><time>2026-03-31T11:33:50.999Z</time></trkpt><trkpt lat="44.0822886" lon="10.4675533"><ele>277.20000000000005</ele><time>2026-03-31T11:33:51.999Z</time></trkpt><trkpt lat="44.0823142" lon="10.4674233"><ele>276.8</ele><time>2026-03-31T11:33:53Z</time></trkpt><trkpt lat="44.082335" lon="10.4672858"><ele>276.40000000000003</ele><time>2026-03-31T11:33:54Z</time></trkpt><trkpt lat="44.0823537" lon="10.4671466"><ele>276.0</ele><time>2026-03-31T11:33:55Z</time></trkpt><trkpt lat="44.0823714" lon="10.4670045"><ele>276.0</ele><time>2026-03-31T11:33:56Z</time></trkpt><trkpt lat="44.0823921" lon="10.466864"><ele>276.0</ele><time>2026-03-31T11:33:56.999Z</time></trkpt><trkpt lat="44.0824082" lon="10.46672"><ele>276.0</ele><time>2026-03-31T11:33:58Z</time></trkpt><trkpt lat="44.0824283" lon="10.4665777"><ele>276.0</ele><time>2026-03-31T11:33:59Z</time></trkpt><trkpt lat="44.0824442" lon="10.4664307"><ele>276.0</ele><time>2026-03-31T11:33:59.999Z</time></trkpt><trkpt lat="44.0824649" lon="10.4662866"><ele>274.8</ele><time>2026-03-31T11:34:01Z</time></trkpt><trkpt lat="44.0824829" lon="10.46614"><ele>273.6</ele><time>2026-03-31T11:34:01.999Z</time></trkpt><trkpt lat="44.0825062" lon="10.4659985"><ele>272.4</ele><time>2026-03-31T11:34:02.999Z</time></trkpt><trkpt lat="44.0825283" lon="10.4658479"><ele>271.2</ele><time>2026-03-31T11:34:04Z</time></trkpt><trkpt lat="44.0825432" lon="10.4657015"><ele>270.0</ele><time>2026-03-31T11:34:05Z</time></trkpt><trkpt lat="44.0825619" lon="10.4655514"><ele>269.6</ele><time>2026-03-31T11:34:05.999Z</time></trkpt><trkpt lat="44.0825806" lon="10.4654026"><ele>269.2</ele><time>2026-03-31T11:34:07Z</time></trkpt><trkpt lat="44.0825993" lon="10.465254"><ele>268.8</ele><time>2026-03-31T11:34:08Z</time></trkpt><trkpt lat="44.0826202" lon="10.4651033"><ele>268.4</ele><time>2026-03-31T11:34:09Z</time></trkpt><trkpt lat="44.0826422" lon="10.46495"><ele>268.0</ele><time>2026-03-31T11:34:09.999Z</time></trkpt><trkpt lat="44.0826624" lon="10.4647963"><ele>268.0</ele><time>2026-03-31T11:34:10.999Z</time></trkpt><trkpt lat="44.0826796" lon="10.4646428"><ele>268.0</ele><time>2026-03-31T11:34:12Z</time></trkpt><trkpt lat="44.0826964" lon="10.4644919"><ele>268.0</ele><time>2026-03-31T11:34:13Z</time></trkpt><trkpt lat="44.0827206" lon="10.4643522"><ele>268.0</ele><time>2026-03-31T11:34:13.999Z</time></trkpt><trkpt lat="44.0827424" lon="10.4642001"><ele>268.0</ele><time>2026-03-31T11:34:15Z</time></trkpt><trkpt lat="44.0827615" lon="10.4640486"><ele>267.6</ele><time>2026-03-31T11:34:16Z</time></trkpt><trkpt lat="44.0827822" lon="10.4638976"><ele>267.20000000000005</ele><time>2026-03-31T11:34:17Z</time></trkpt><trkpt lat="44.0828021" lon="10.4637512"><ele>266.8</ele><time>2026-03-31T11:34:18Z</time></trkpt><trkpt lat="44.0828214" lon="10.4636124"><ele>266.40000000000003</ele><time>2026-03-31T11:34:19Z</time></trkpt><trkpt lat="44.082836" lon="10.4634704"><ele>266.0</ele><time>2026-03-31T11:34:20Z</time></trkpt><trkpt lat="44.0828529" lon="10.4633297"><ele>265.6</ele><time>2026-03-31T11:34:21Z</time></trkpt><trkpt lat="44.0828734" lon="10.4631948"><ele>265.20000000000005</ele><time>2026-03-31T11:34:22Z</time></trkpt><trkpt lat="44.0828933" lon="10.4630595"><ele>264.79999999999995</ele><time>2026-03-31T11:34:23Z</time></trkpt><trkpt lat="44.0829072" lon="10.4629287"><ele>264.4</ele><time>2026-03-31T11:34:23.999Z</time></trkpt><trkpt lat="44.0829239" lon="10.4627973"><ele>264.0</ele><time>2026-03-31T11:34:25Z</time></trkpt><trkpt lat="44.0829435" lon="10.4626733"><ele>263.0</ele><time>2026-03-31T11:34:25.999Z</time></trkpt><trkpt lat="44.0829586" lon="10.4625481"><ele>262.0</ele><time>2026-03-31T11:34:27Z</time></trkpt><trkpt lat="44.082975" lon="10.462425"><ele>261.0</ele><time>2026-03-31T11:34:28Z</time></trkpt><trkpt lat="44.0829935" lon="10.4623015"><ele>260.0</ele><time>2026-03-31T11:34:28.999Z</time></trkpt><trkpt lat="44.0830104" lon="10.4621798"><ele>259.0</ele><time>2026-03-31T11:34:29.999Z</time></trkpt><trkpt lat="44.0830261" lon="10.4620544"><ele>258.2</ele><time>2026-03-31T11:34:31Z</time></trkpt><trkpt lat="44.0830433" lon="10.4619216"><ele>257.4</ele><time>2026-03-31T11:34:31.999Z</time></trkpt><trkpt lat="44.0830595" lon="10.4617948"><ele>256.6</ele><time>2026-03-31T11:34:33Z</time></trkpt><trkpt lat="44.0830742" lon="10.461668"><ele>255.8</ele><time>2026-03-31T11:34:34Z</time></trkpt><trkpt lat="44.0830921" lon="10.4615416"><ele>255.0</ele><time>2026-03-31T11:34:35Z</time></trkpt><trkpt lat="44.0831072" lon="10.4614166"><ele>255.0</ele><time>2026-03-31T11:34:35.999Z</time></trkpt><trkpt lat="44.0831254" lon="10.4612912"><ele>255.0</ele><time>2026-03-31T11:34:36.999Z</time></trkpt><trkpt lat="44.0831373" lon="10.4611714"><ele>255.0</ele><time>2026-03-31T11:34:38Z</time></trkpt><trkpt lat="44.0831537" lon="10.461049"><ele>255.0</ele><time>2026-03-31T11:34:39Z</time></trkpt><trkpt lat="44.0831668" lon="10.460926"><ele>255.0</ele><time>2026-03-31T11:34:40Z</time></trkpt><trkpt lat="44.0831831" lon="10.4608102"><ele>255.0</ele><time>2026-03-31T11:34:40.999Z</time></trkpt><trkpt lat="44.0832" lon="10.4606965"><ele>254.83333333333334</ele><time>2026-03-31T11:34:41.999Z</time></trkpt><trkpt lat="44.0832132" lon="10.4605873"><ele>254.66666666666669</ele><time>2026-03-31T11:34:43Z</time></trkpt><trkpt lat="44.0832292" lon="10.4604768"><ele>254.5</ele><time>2026-03-31T11:34:44Z</time></trkpt><trkpt lat="44.0832445" lon="10.4603685"><ele>254.33333333333334</ele><time>2026-03-31T11:34:45Z</time></trkpt><trkpt lat="44.0832587" lon="10.4602598"><ele>254.16666666666669</ele><time>2026-03-31T11:34:46Z</time></trkpt><trkpt lat="44.0832777" lon="10.4601504"><ele>254.0</ele><time>2026-03-31T11:34:47Z</time></trkpt><trkpt lat="44.0832947" lon="10.4600405"><ele>254.00000000000003</ele><time>2026-03-31T11:34:48Z</time></trkpt><trkpt lat="44.0833119" lon="10.4599375"><ele>254.0</ele><time>2026-03-31T11:34:48.999Z</time></trkpt><trkpt lat="44.0833307" lon="10.4598252"><ele>254.0</ele><time>2026-03-31T11:34:50Z</time></trkpt><trkpt lat="44.0833487" lon="10.4597174"><ele>254.0</ele><time>2026-03-31T11:34:51Z</time></trkpt><trkpt lat="44.0833615" lon="10.4596175"><ele>254.00000000000003</ele><time>2026-03-31T11:34:52Z</time></trkpt><trkpt lat="44.0833781" lon="10.4595152"><ele>254.0</ele><time>2026-03-31T11:34:53Z</time></trkpt><trkpt lat="44.0833907" lon="10.4594105"><ele>253.83333333333334</ele><time>2026-03-31T11:34:54Z</time></trkpt><trkpt lat="44.0834078" lon="10.4593113"><ele>253.66666666666669</ele><time>2026-03-31T11:34:55Z</time></trkpt><trkpt lat="44.0834246" lon="10.4592096"><ele>253.5</ele><time>2026-03-31T11:34:56Z</time></trkpt><trkpt lat="44.0834385" lon="10.4591047"><ele>253.33333333333331</ele><time>2026-03-31T11:34:57Z</time></trkpt><trkpt lat="44.0834592" lon="10.4590056"><ele>253.16666666666666</ele><time>2026-03-31T11:34:57.999Z</time></trkpt><trkpt lat="44.0834754" lon="10.4589053"><ele>253.0</ele><time>2026-03-31T11:34:59Z</time></trkpt><trkpt lat="44.0834955" lon="10.4588019"><ele>251.99999999999997</ele><time>2026-03-31T11:35:00Z</time></trkpt><trkpt lat="44.0835234" lon="10.4587019"><ele>251.0</ele><time>2026-03-31T11:35:01Z</time></trkpt><trkpt lat="44.0835445" lon="10.4586012"><ele>250.0</ele><time>2026-03-31T11:35:01.999Z</time></trkpt><trkpt lat="44.0835687" lon="10.4585026"><ele>249.0</ele><time>2026-03-31T11:35:03Z</time></trkpt><trkpt lat="44.0835939" lon="10.4584027"><ele>247.99999999999997</ele><time>2026-03-31T11:35:03.999Z</time></trkpt><trkpt lat="44.0836185" lon="10.4583021"><ele>247.0</ele><time>2026-03-31T11:35:05Z</time></trkpt><trkpt lat="44.0836442" lon="10.4582043"><ele>246.99999999999997</ele><time>2026-03-31T11:35:06Z</time></trkpt><trkpt lat="44.0836692" lon="10.4580986"><ele>247.0</ele><time>2026-03-31T11:35:07Z</time></trkpt><trkpt lat="44.0836964" lon="10.4579971"><ele>247.0</ele><time>2026-03-31T11:35:07.999Z</time></trkpt><trkpt lat="44.0837254" lon="10.4578978"><ele>247.0</ele><time>2026-03-31T11:35:08.999Z</time></trkpt><trkpt lat="44.0837539" lon="10.457803"><ele>246.99999999999997</ele><time>2026-03-31T11:35:09.999Z</time></trkpt><trkpt lat="44.0837764" lon="10.4576992"><ele>247.0</ele><time>2026-03-31T11:35:11Z</time></trkpt><trkpt lat="44.0837994" lon="10.457605"><ele>246.14285714285717</ele><time>2026-03-31T11:35:12Z</time></trkpt><trkpt lat="44.0838219" lon="10.4575081"><ele>245.28571428571428</ele><time>2026-03-31T11:35:13Z</time></trkpt><trkpt lat="44.0838558" lon="10.4574181"><ele>244.42857142857144</ele><time>2026-03-31T11:35:14Z</time></trkpt><trkpt lat="44.0838962" lon="10.45733"><ele>243.57142857142858</ele><time>2026-03-31T11:35:14.999Z</time></trkpt><trkpt lat="44.0839402" lon="10.4572525"><ele>242.71428571428572</ele><time>2026-03-31T11:35:16Z</time></trkpt><trkpt lat="44.0839861" lon="10.4571718"><ele>241.85714285714286</ele><time>2026-03-31T11:35:17Z</time></trkpt><trkpt lat="44.0840326" lon="10.4570958"><ele>241.0</ele><time>2026-03-31T11:35:17.999Z</time></trkpt><trkpt lat="44.0840823" lon="10.4570197"><ele>240.71428571428572</ele><time>2026-03-31T11:35:19Z</time></trkpt><trkpt lat="44.0841322" lon="10.4569387"><ele>240.42857142857144</ele><time>2026-03-31T11:35:19.999Z</time></trkpt><trkpt lat="44.0841816" lon="10.4568594"><ele>240.14285714285717</ele><time>2026-03-31T11:35:21Z</time></trkpt><trkpt lat="44.0842257" lon="10.4567799"><ele>239.8571428571429</ele><time>2026-03-31T11:35:22Z</time></trkpt><trkpt lat="44.0842613" lon="10.4567041"><ele>239.57142857142858</ele><time>2026-03-31T11:35:23Z</time></trkpt><trkpt lat="44.0843053" lon="10.4566296"><ele>239.28571428571433</ele><time>2026-03-31T11:35:23.999Z</time></trkpt><trkpt lat="44.0843454" lon="10.4565594"><ele>239.00000000000003</ele><time>2026-03-31T11:35:24.999Z</time></trkpt><trkpt lat="44.0843874" lon="10.4564909"><ele>239.0</ele><time>2026-03-31T11:35:26Z</time></trkpt><trkpt lat="44.0844751" lon="10.4563679"><ele>238.99999999999997</ele><time>2026-03-31T11:35:27.999Z</time></trkpt><trkpt lat="44.0845179" lon="10.4563012"><ele>238.99999999999997</ele><time>2026-03-31T11:35:29Z</time></trkpt><trkpt lat="44.0845668" lon="10.4562341"><ele>239.0</ele><time>2026-03-31T11:35:30Z</time></trkpt><trkpt lat="44.0846496" lon="10.4561052"><ele>239.0</ele><time>2026-03-31T11:35:32Z</time></trkpt><trkpt lat="44.0846991" lon="10.4560396"><ele>237.6</ele><time>2026-03-31T11:35:33Z</time></trkpt><trkpt lat="44.0847485" lon="10.4559804"><ele>236.2</ele><time>2026-03-31T11:35:34Z</time></trkpt><trkpt lat="44.0848441" lon="10.4558772"><ele>234.79999999999998</ele><time>2026-03-31T11:35:36Z</time></trkpt><trkpt lat="44.0849396" lon="10.4557784"><ele>233.39999999999998</ele><time>2026-03-31T11:35:38Z</time></trkpt><trkpt lat="44.0850431" lon="10.4556957"><ele>232.0</ele><time>2026-03-31T11:35:39.999Z</time></trkpt><trkpt lat="44.0850973" lon="10.4556477"><ele>231.99999999999997</ele><time>2026-03-31T11:35:40.999Z</time></trkpt><trkpt lat="44.085159" lon="10.4556067"><ele>232.0</ele><time>2026-03-31T11:35:42Z</time></trkpt><trkpt lat="44.085222" lon="10.4555655"><ele>232.0</ele><time>2026-03-31T11:35:42.999Z</time></trkpt><trkpt lat="44.0852851" lon="10.4555337"><ele>232.0</ele><time>2026-03-31T11:35:44Z</time></trkpt><trkpt lat="44.08535" lon="10.4554996"><ele>231.99999999999997</ele><time>2026-03-31T11:35:45Z</time></trkpt><trkpt lat="44.0854709" lon="10.4554417"><ele>232.0</ele><time>2026-03-31T11:35:47Z</time></trkpt><trkpt lat="44.0855388" lon="10.4554137"><ele>231.66666666666666</ele><time>2026-03-31T11:35:48Z</time></trkpt><trkpt lat="44.0856097" lon="10.4553791"><ele>231.33333333333331</ele><time>2026-03-31T11:35:49Z</time></trkpt><trkpt lat="44.0856854" lon="10.4553415"><ele>231.0</ele><time>2026-03-31T11:35:50Z</time></trkpt><trkpt lat="44.0857457" lon="10.4553089"><ele>230.66666666666669</ele><time>2026-03-31T11:35:50.999Z</time></trkpt><trkpt lat="44.0858194" lon="10.4552751"><ele>230.33333333333334</ele><time>2026-03-31T11:35:52Z</time></trkpt><trkpt lat="44.0858959" lon="10.4552256"><ele>230.0</ele><time>2026-03-31T11:35:52.999Z</time></trkpt><trkpt lat="44.0859729" lon="10.4552025"><ele>229.50000000000003</ele><time>2026-03-31T11:35:54Z</time></trkpt><trkpt lat="44.0860481" lon="10.4552146"><ele>229.0</ele><time>2026-03-31T11:35:55Z</time></trkpt><trkpt lat="44.0861235" lon="10.4552364"><ele>228.5</ele><time>2026-03-31T11:35:56Z</time></trkpt><trkpt lat="44.086201" lon="10.4552809"><ele>228.0</ele><time>2026-03-31T11:35:57Z</time></trkpt><trkpt lat="44.0862772" lon="10.4553421"><ele>227.50000000000003</ele><time>2026-03-31T11:35:57.999Z</time></trkpt><trkpt lat="44.0863536" lon="10.4554"><ele>227.0</ele><time>2026-03-31T11:35:59Z</time></trkpt><trkpt lat="44.0864255" lon="10.4554589"><ele>227.00000000000003</ele><time>2026-03-31T11:36:00Z</time></trkpt><trkpt lat="44.0865017" lon="10.4555176"><ele>227.0</ele><time>2026-03-31T11:36:01Z</time></trkpt><trkpt lat="44.0865719" lon="10.4555504"><ele>227.0</ele><time>2026-03-31T11:36:01.999Z</time></trkpt><trkpt lat="44.08666" lon="10.4555538"><ele>227.0</ele><time>2026-03-31T11:36:02.999Z</time></trkpt><trkpt lat="44.0867451" lon="10.4555219"><ele>227.00000000000003</ele><time>2026-03-31T11:36:04Z</time></trkpt><trkpt lat="44.0868144" lon="10.4554427"><ele>227.0</ele><time>2026-03-31T11:36:05Z</time></trkpt><trkpt lat="44.0868721" lon="10.4553521"><ele>226.6</ele><time>2026-03-31T11:36:06Z</time></trkpt><trkpt lat="44.0869067" lon="10.4552364"><ele>226.2</ele><time>2026-03-31T11:36:07Z</time></trkpt><trkpt lat="44.0869351" lon="10.4551181"><ele>225.8</ele><time>2026-03-31T11:36:08Z</time></trkpt><trkpt lat="44.0869672" lon="10.4550014"><ele>225.4</ele><time>2026-03-31T11:36:09Z</time></trkpt><trkpt lat="44.086997" lon="10.4548713"><ele>225.0</ele><time>2026-03-31T11:36:10Z</time></trkpt><trkpt lat="44.0870319" lon="10.454748"><ele>225.0</ele><time>2026-03-31T11:36:10.999Z</time></trkpt><trkpt lat="44.0870648" lon="10.4546331"><ele>225.0</ele><time>2026-03-31T11:36:11.999Z</time></trkpt><trkpt lat="44.0871155" lon="10.4545246"><ele>225.0</ele><time>2026-03-31T11:36:13Z</time></trkpt><trkpt lat="44.0871716" lon="10.454429"><ele>225.0</ele><time>2026-03-31T11:36:14Z</time></trkpt><trkpt lat="44.0872341" lon="10.4543409"><ele>225.0</ele><time>2026-03-31T11:36:15Z</time></trkpt><trkpt lat="44.0872973" lon="10.4542571"><ele>225.0</ele><time>2026-03-31T11:36:15.999Z</time></trkpt><trkpt lat="44.0873571" lon="10.4541661"><ele>225.83333333333334</ele><time>2026-03-31T11:36:17Z</time></trkpt><trkpt lat="44.0874204" lon="10.4540879"><ele>226.66666666666669</ele><time>2026-03-31T11:36:18Z</time></trkpt><trkpt lat="44.0874815" lon="10.4540043"><ele>227.5</ele><time>2026-03-31T11:36:19Z</time></trkpt><trkpt lat="44.0875449" lon="10.4539298"><ele>228.33333333333334</ele><time>2026-03-31T11:36:20Z</time></trkpt><trkpt lat="44.0876047" lon="10.453845"><ele>229.16666666666669</ele><time>2026-03-31T11:36:20.999Z</time></trkpt><trkpt lat="44.087665" lon="10.4537677"><ele>230.0</ele><time>2026-03-31T11:36:22Z</time></trkpt><trkpt lat="44.0877322" lon="10.4537054"><ele>227.28571428571425</ele><time>2026-03-31T11:36:22.999Z</time></trkpt><trkpt lat="44.0877995" lon="10.4536411"><ele>224.57142857142856</ele><time>2026-03-31T11:36:24Z</time></trkpt><trkpt lat="44.087871" lon="10.4535963"><ele>221.85714285714283</ele><time>2026-03-31T11:36:25Z</time></trkpt><trkpt lat="44.0879411" lon="10.4535835"><ele>219.1428571428571</ele><time>2026-03-31T11:36:26Z</time></trkpt><trkpt lat="44.0880092" lon="10.4535818"><ele>216.42857142857144</ele><time>2026-03-31T11:36:27Z</time></trkpt><trkpt lat="44.0880795" lon="10.4535938"><ele>213.71428571428572</ele><time>2026-03-31T11:36:28Z</time></trkpt><trkpt lat="44.0881491" lon="10.4536158"><ele>211.0</ele><time>2026-03-31T11:36:28.999Z</time></trkpt><trkpt lat="44.0882126" lon="10.4536372"><ele>210.33333333333331</ele><time>2026-03-31T11:36:30Z</time></trkpt><trkpt lat="44.0882783" lon="10.4536596"><ele>209.66666666666666</ele><time>2026-03-31T11:36:31Z</time></trkpt><trkpt lat="44.0883451" lon="10.453678"><ele>209.0</ele><time>2026-03-31T11:36:32Z</time></trkpt><trkpt lat="44.0884093" lon="10.4536985"><ele>208.33333333333331</ele><time>2026-03-31T11:36:33Z</time></trkpt><trkpt lat="44.0884717" lon="10.4537253"><ele>207.66666666666666</ele><time>2026-03-31T11:36:33.999Z</time></trkpt><trkpt lat="44.0885322" lon="10.453753"><ele>207.0</ele><time>2026-03-31T11:36:35Z</time></trkpt><trkpt lat="44.0886519" lon="10.4538039"><ele>208.0</ele><time>2026-03-31T11:36:37Z</time></trkpt><trkpt lat="44.0887695" lon="10.4538452"><ele>209.0</ele><time>2026-03-31T11:36:39Z</time></trkpt><trkpt lat="44.0888752" lon="10.4539066"><ele>210.0</ele><time>2026-03-31T11:36:41Z</time></trkpt><trkpt lat="44.0889686" lon="10.4539558"><ele>211.0</ele><time>2026-03-31T11:36:42.999Z</time></trkpt><trkpt lat="44.0890571" lon="10.4539846"><ele>212.0</ele><time>2026-03-31T11:36:45Z</time></trkpt><trkpt lat="44.0891383" lon="10.4539797"><ele>212.0</ele><time>2026-03-31T11:36:48Z</time></trkpt><trkpt lat="44.0891732" lon="10.4538705"><ele>212.0</ele><time>2026-03-31T11:36:51.999Z</time></trkpt><trkpt lat="44.0891125" lon="10.4537768"><ele>212.0</ele><time>2026-03-31T11:36:55Z</time></trkpt><trkpt lat="44.0890261" lon="10.4537219"><ele>212.0</ele><time>2026-03-31T11:36:58Z</time></trkpt><trkpt lat="44.0889394" lon="10.4536794"><ele>212.0</ele><time>2026-03-31T11:37:01Z</time></trkpt><trkpt lat="44.0888484" lon="10.4536505"><ele>211.2857142857143</ele><time>2026-03-31T11:37:04Z</time></trkpt><trkpt lat="44.0887831" lon="10.4536267"><ele>210.57142857142856</ele><time>2026-03-31T11:37:06Z</time></trkpt><trkpt lat="44.0887177" lon="10.4536021"><ele>209.85714285714286</ele><time>2026-03-31T11:37:08Z</time></trkpt><trkpt lat="44.0886558" lon="10.4535743"><ele>209.14285714285717</ele><time>2026-03-31T11:37:10Z</time></trkpt><trkpt lat="44.088591" lon="10.4535535"><ele>208.42857142857144</ele><time>2026-03-31T11:37:12Z</time></trkpt><trkpt lat="44.0885256" lon="10.4535327"><ele>207.71428571428572</ele><time>2026-03-31T11:37:14Z</time></trkpt><trkpt lat="44.0884568" lon="10.4535012"><ele>207.0</ele><time>2026-03-31T11:37:15.999Z</time></trkpt><trkpt lat="44.0883818" lon="10.4534662"><ele>207.0</ele><time>2026-03-31T11:37:18Z</time></trkpt><trkpt lat="44.0883058" lon="10.4534268"><ele>207.0</ele><time>2026-03-31T11:37:19.999Z</time></trkpt><trkpt lat="44.0882272" lon="10.4533913"><ele>207.0</ele><time>2026-03-31T11:37:22Z</time></trkpt><trkpt lat="44.088161" lon="10.4533535"><ele>207.0</ele><time>2026-03-31T11:37:23.999Z</time></trkpt><trkpt lat="44.0880962" lon="10.4533166"><ele>207.0</ele><time>2026-03-31T11:37:25.999Z</time></trkpt><trkpt lat="44.0880241" lon="10.4532755"><ele>207.0</ele><time>2026-03-31T11:37:28Z</time></trkpt><trkpt lat="44.0879522" lon="10.4532486"><ele>207.66666666666666</ele><time>2026-03-31T11:37:30Z</time></trkpt><trkpt lat="44.0878761" lon="10.4532408"><ele>208.33333333333331</ele><time>2026-03-31T11:37:32Z</time></trkpt><trkpt lat="44.0877929" lon="10.4532558"><ele>209.0</ele><time>2026-03-31T11:37:34Z</time></trkpt><trkpt lat="44.0877162" lon="10.4532971"><ele>209.66666666666666</ele><time>2026-03-31T11:37:35.999Z</time></trkpt><trkpt lat="44.0876535" lon="10.4533594"><ele>210.33333333333331</ele><time>2026-03-31T11:37:37.999Z</time></trkpt><trkpt lat="44.087596" lon="10.453436"><ele>211.0</ele><time>2026-03-31T11:37:40Z</time></trkpt><trkpt lat="44.0875428" lon="10.453517"><ele>210.99999999999997</ele><time>2026-03-31T11:37:42Z</time></trkpt><trkpt lat="44.0874966" lon="10.4535995"><ele>211.0</ele><time>2026-03-31T11:37:43.999Z</time></trkpt><trkpt lat="44.0874467" lon="10.4536809"><ele>211.0</ele><time>2026-03-31T11:37:46Z</time></trkpt><trkpt lat="44.0873902" lon="10.4537597"><ele>211.0</ele><time>2026-03-31T11:37:48Z</time></trkpt><trkpt lat="44.0873268" lon="10.4538289"><ele>210.99999999999997</ele><time>2026-03-31T11:37:49.999Z</time></trkpt><trkpt lat="44.0872587" lon="10.4539028"><ele>211.0</ele><time>2026-03-31T11:37:52Z</time></trkpt><trkpt lat="44.0871966" lon="10.4539667"><ele>212.33333333333331</ele><time>2026-03-31T11:37:54Z</time></trkpt><trkpt lat="44.0871346" lon="10.4540223"><ele>213.66666666666666</ele><time>2026-03-31T11:37:55.999Z</time></trkpt><trkpt lat="44.0870515" lon="10.4540584"><ele>215.0</ele><time>2026-03-31T11:37:58Z</time></trkpt><trkpt lat="44.0869663" lon="10.4540606"><ele>216.33333333333331</ele><time>2026-03-31T11:37:59.999Z</time></trkpt><trkpt lat="44.0868863" lon="10.4540299"><ele>217.66666666666666</ele><time>2026-03-31T11:38:02Z</time></trkpt><trkpt lat="44.0868287" lon="10.4539669"><ele>219.0</ele><time>2026-03-31T11:38:04Z</time></trkpt><trkpt lat="44.0867763" lon="10.453877"><ele>217.66666666666666</ele><time>2026-03-31T11:38:06Z</time></trkpt><trkpt lat="44.0867307" lon="10.4537861"><ele>216.33333333333331</ele><time>2026-03-31T11:38:08Z</time></trkpt><trkpt lat="44.0866786" lon="10.4537003"><ele>215.0</ele><time>2026-03-31T11:38:10Z</time></trkpt><trkpt lat="44.0866117" lon="10.4536236"><ele>213.66666666666666</ele><time>2026-03-31T11:38:12Z</time></trkpt><trkpt lat="44.0865504" lon="10.4535826"><ele>212.33333333333331</ele><time>2026-03-31T11:38:14Z</time></trkpt><trkpt lat="44.086474" lon="10.4535637"><ele>211.0</ele><time>2026-03-31T11:38:16Z</time></trkpt><trkpt lat="44.0863945" lon="10.4535678"><ele>210.99999999999997</ele><time>2026-03-31T11:38:18Z</time></trkpt><trkpt lat="44.0863161" lon="10.4535779"><ele>211.0</ele><time>2026-03-31T11:38:20Z</time></trkpt><trkpt lat="44.0862417" lon="10.4535868"><ele>211.0</ele><time>2026-03-31T11:38:21.999Z</time></trkpt><trkpt lat="44.0861678" lon="10.4535984"><ele>211.0</ele><time>2026-03-31T11:38:24Z</time></trkpt><trkpt lat="44.0860849" lon="10.453604"><ele>210.99999999999997</ele><time>2026-03-31T11:38:26Z</time></trkpt><trkpt lat="44.0860042" lon="10.4536025"><ele>211.0</ele><time>2026-03-31T11:38:28Z</time></trkpt><trkpt lat="44.0859258" lon="10.4535933"><ele>210.99999999999997</ele><time>2026-03-31T11:38:29.999Z</time></trkpt><trkpt lat="44.0858417" lon="10.453574"><ele>211.0</ele><time>2026-03-31T11:38:31.999Z</time></trkpt><trkpt lat="44.0857714" lon="10.4535491"><ele>211.0</ele><time>2026-03-31T11:38:34Z</time></trkpt><trkpt lat="44.0856977" lon="10.4535105"><ele>211.0</ele><time>2026-03-31T11:38:36Z</time></trkpt><trkpt lat="44.0856394" lon="10.4534688"><ele>210.99999999999997</ele><time>2026-03-31T11:38:38Z</time></trkpt><trkpt lat="44.0855723" lon="10.4534106"><ele>211.0</ele><time>2026-03-31T11:38:39.999Z</time></trkpt><trkpt lat="44.0855106" lon="10.4533542"><ele>212.49999999999997</ele><time>2026-03-31T11:38:42Z</time></trkpt><trkpt lat="44.0854507" lon="10.4532989"><ele>214.0</ele><time>2026-03-31T11:38:44Z</time></trkpt><trkpt lat="44.0853851" lon="10.4532447"><ele>215.5</ele><time>2026-03-31T11:38:46Z</time></trkpt><trkpt lat="44.0853192" lon="10.4531854"><ele>217.0</ele><time>2026-03-31T11:38:48Z</time></trkpt><trkpt lat="44.085249" lon="10.4531265"><ele>218.49999999999997</ele><time>2026-03-31T11:38:50Z</time></trkpt><trkpt lat="44.0851738" lon="10.4530737"><ele>220.0</ele><time>2026-03-31T11:38:51.999Z</time></trkpt><trkpt lat="44.0851018" lon="10.4530327"><ele>219.99999999999997</ele><time>2026-03-31T11:38:54Z</time></trkpt><trkpt lat="44.0850333" lon="10.4530126"><ele>220.0</ele><time>2026-03-31T11:38:55.999Z</time></trkpt><trkpt lat="44.0849621" lon="10.4530068"><ele>220.0</ele><time>2026-03-31T11:38:58Z</time></trkpt><trkpt lat="44.08489" lon="10.4530044"><ele>220.0</ele><time>2026-03-31T11:38:59.999Z</time></trkpt><trkpt lat="44.0848187" lon="10.4530156"><ele>220.0</ele><time>2026-03-31T11:39:01.999Z</time></trkpt><trkpt lat="44.0847499" lon="10.4530257"><ele>219.99999999999997</ele><time>2026-03-31T11:39:03.999Z</time></trkpt><trkpt lat="44.084681" lon="10.4530353"><ele>220.0</ele><time>2026-03-31T11:39:06Z</time></trkpt><trkpt lat="44.0845996" lon="10.4530401"><ele>220.66666666666666</ele><time>2026-03-31T11:39:08Z</time></trkpt><trkpt lat="44.0845179" lon="10.4530357"><ele>221.33333333333331</ele><time>2026-03-31T11:39:10Z</time></trkpt><trkpt lat="44.084429" lon="10.4530083"><ele>222.0</ele><time>2026-03-31T11:39:12Z</time></trkpt><trkpt lat="44.0843402" lon="10.4529704"><ele>222.66666666666669</ele><time>2026-03-31T11:39:14Z</time></trkpt><trkpt lat="44.0842605" lon="10.452938"><ele>223.33333333333334</ele><time>2026-03-31T11:39:16Z</time></trkpt><trkpt lat="44.0841779" lon="10.4529135"><ele>224.0</ele><time>2026-03-31T11:39:18Z</time></trkpt><trkpt lat="44.0841008" lon="10.4528897"><ele>222.28571428571428</ele><time>2026-03-31T11:39:19.999Z</time></trkpt><trkpt lat="44.0840176" lon="10.4528708"><ele>220.57142857142856</ele><time>2026-03-31T11:39:22Z</time></trkpt><trkpt lat="44.0839379" lon="10.4528612"><ele>218.85714285714286</ele><time>2026-03-31T11:39:23.999Z</time></trkpt><trkpt lat="44.0838623" lon="10.4528578"><ele>217.14285714285714</ele><time>2026-03-31T11:39:25.999Z</time></trkpt><trkpt lat="44.0837922" lon="10.4528575"><ele>215.42857142857142</ele><time>2026-03-31T11:39:28Z</time></trkpt><trkpt lat="44.0837245" lon="10.452864"><ele>213.71428571428572</ele><time>2026-03-31T11:39:30Z</time></trkpt><trkpt lat="44.0836557" lon="10.4528759"><ele>212.0</ele><time>2026-03-31T11:39:32Z</time></trkpt><trkpt lat="44.0835764" lon="10.4528885"><ele>212.00000000000003</ele><time>2026-03-31T11:39:34Z</time></trkpt><trkpt lat="44.0834983" lon="10.4529032"><ele>212.0</ele><time>2026-03-31T11:39:36Z</time></trkpt><trkpt lat="44.0834269" lon="10.4529158"><ele>212.0</ele><time>2026-03-31T11:39:38Z</time></trkpt><trkpt lat="44.0833521" lon="10.4529261"><ele>212.0</ele><time>2026-03-31T11:39:40Z</time></trkpt><trkpt lat="44.0832728" lon="10.4529419"><ele>212.00000000000003</ele><time>2026-03-31T11:39:42Z</time></trkpt><trkpt lat="44.0831942" lon="10.4529516"><ele>212.0</ele><time>2026-03-31T11:39:43.999Z</time></trkpt><trkpt lat="44.0831192" lon="10.4529618"><ele>213.66666666666669</ele><time>2026-03-31T11:39:46Z</time></trkpt><trkpt lat="44.0830418" lon="10.4529658"><ele>215.33333333333334</ele><time>2026-03-31T11:39:47.999Z</time></trkpt><trkpt lat="44.0829613" lon="10.4529463"><ele>217.0</ele><time>2026-03-31T11:39:49.999Z</time></trkpt><trkpt lat="44.0828801" lon="10.4528952"><ele>218.66666666666669</ele><time>2026-03-31T11:39:52Z</time></trkpt><trkpt lat="44.0828242" lon="10.4528176"><ele>220.33333333333334</ele><time>2026-03-31T11:39:54Z</time></trkpt><trkpt lat="44.0827876" lon="10.4527276"><ele>222.0</ele><time>2026-03-31T11:39:56Z</time></trkpt><trkpt lat="44.0827677" lon="10.4526206"><ele>222.0</ele><time>2026-03-31T11:39:57.999Z</time></trkpt><trkpt lat="44.082763" lon="10.4525037"><ele>222.0</ele><time>2026-03-31T11:40:00Z</time></trkpt><trkpt lat="44.0827632" lon="10.4523865"><ele>222.0</ele><time>2026-03-31T11:40:02Z</time></trkpt><trkpt lat="44.0827655" lon="10.4522759"><ele>222.0</ele><time>2026-03-31T11:40:03.999Z</time></trkpt><trkpt lat="44.0827675" lon="10.4521685"><ele>222.0</ele><time>2026-03-31T11:40:06Z</time></trkpt><trkpt lat="44.0827696" lon="10.4520569"><ele>222.0</ele><time>2026-03-31T11:40:07.999Z</time></trkpt><trkpt lat="44.0827713" lon="10.4519413"><ele>221.16666666666666</ele><time>2026-03-31T11:40:10Z</time></trkpt><trkpt lat="44.0827699" lon="10.4518228"><ele>220.33333333333331</ele><time>2026-03-31T11:40:12Z</time></trkpt><trkpt lat="44.0827673" lon="10.451702"><ele>219.5</ele><time>2026-03-31T11:40:14Z</time></trkpt><trkpt lat="44.0827613" lon="10.4515854"><ele>218.66666666666666</ele><time>2026-03-31T11:40:16Z</time></trkpt><trkpt lat="44.0827448" lon="10.4514769"><ele>217.83333333333331</ele><time>2026-03-31T11:40:18Z</time></trkpt><trkpt lat="44.0827143" lon="10.451369"><ele>217.0</ele><time>2026-03-31T11:40:20Z</time></trkpt><trkpt lat="44.0826702" lon="10.4512599"><ele>217.0</ele><time>2026-03-31T11:40:22Z</time></trkpt><trkpt lat="44.0826147" lon="10.4511367"><ele>217.0</ele><time>2026-03-31T11:40:24Z</time></trkpt><trkpt lat="44.0825624" lon="10.4510163"><ele>217.0</ele><time>2026-03-31T11:40:25.999Z</time></trkpt><trkpt lat="44.082482" lon="10.450908"><ele>217.0</ele><time>2026-03-31T11:40:28Z</time></trkpt><trkpt lat="44.0823898" lon="10.4508421"><ele>217.0</ele><time>2026-03-31T11:40:30Z</time></trkpt><trkpt lat="44.0822847" lon="10.4508183"><ele>217.0</ele><time>2026-03-31T11:40:32Z</time></trkpt><trkpt lat="44.082162" lon="10.450809"><ele>217.0</ele><time>2026-03-31T11:40:33.999Z</time></trkpt><trkpt lat="44.0820335" lon="10.4507956"><ele>217.0</ele><time>2026-03-31T11:40:36Z</time></trkpt><trkpt lat="44.0819151" lon="10.4507887"><ele>217.0</ele><time>2026-03-31T11:40:38Z</time></trkpt><trkpt lat="44.0818445" lon="10.4507766"><ele>217.0</ele><time>2026-03-31T11:40:39Z</time></trkpt><trkpt lat="44.0817808" lon="10.4507524"><ele>217.0</ele><time>2026-03-31T11:40:39.999Z</time></trkpt><trkpt lat="44.0817181" lon="10.4507258"><ele>217.0</ele><time>2026-03-31T11:40:40.999Z</time></trkpt><trkpt lat="44.0816538" lon="10.4506921"><ele>217.0</ele><time>2026-03-31T11:40:42Z</time></trkpt><trkpt lat="44.0815888" lon="10.4506591"><ele>217.0</ele><time>2026-03-31T11:40:43Z</time></trkpt><trkpt lat="44.0815265" lon="10.4506271"><ele>217.0</ele><time>2026-03-31T11:40:44Z</time></trkpt><trkpt lat="44.0814591" lon="10.4505957"><ele>217.0</ele><time>2026-03-31T11:40:45Z</time></trkpt><trkpt lat="44.0813923" lon="10.4505595"><ele>217.0</ele><time>2026-03-31T11:40:46Z</time></trkpt><trkpt lat="44.0813292" lon="10.4505196"><ele>217.42857142857142</ele><time>2026-03-31T11:40:47Z</time></trkpt><trkpt lat="44.0812634" lon="10.4504776"><ele>217.85714285714286</ele><time>2026-03-31T11:40:48Z</time></trkpt><trkpt lat="44.0811976" lon="10.4504393"><ele>218.28571428571428</ele><time>2026-03-31T11:40:49Z</time></trkpt><trkpt lat="44.08113" lon="10.4503935"><ele>218.71428571428572</ele><time>2026-03-31T11:40:50Z</time></trkpt><trkpt lat="44.081064" lon="10.4503358"><ele>219.14285714285714</ele><time>2026-03-31T11:40:51Z</time></trkpt><trkpt lat="44.0810085" lon="10.4502597"><ele>219.57142857142856</ele><time>2026-03-31T11:40:51.999Z</time></trkpt><trkpt lat="44.0809586" lon="10.4501831"><ele>220.0</ele><time>2026-03-31T11:40:53Z</time></trkpt><trkpt lat="44.0809079" lon="10.4501093"><ele>217.99999999999997</ele><time>2026-03-31T11:40:54Z</time></trkpt><trkpt lat="44.080855" lon="10.4500316"><ele>216.0</ele><time>2026-03-31T11:40:55Z</time></trkpt><trkpt lat="44.080804" lon="10.4499566"><ele>214.0</ele><time>2026-03-31T11:40:56Z</time></trkpt><trkpt lat="44.0807522" lon="10.4498748"><ele>212.0</ele><time>2026-03-31T11:40:57Z</time></trkpt><trkpt lat="44.0807003" lon="10.4497936"><ele>209.99999999999997</ele><time>2026-03-31T11:40:58Z</time></trkpt><trkpt lat="44.0806486" lon="10.4497343"><ele>208.0</ele><time>2026-03-31T11:40:59Z</time></trkpt><trkpt lat="44.0805832" lon="10.4496672"><ele>207.42857142857142</ele><time>2026-03-31T11:40:59.999Z</time></trkpt><trkpt lat="44.0805124" lon="10.4496086"><ele>206.85714285714286</ele><time>2026-03-31T11:41:00.999Z</time></trkpt><trkpt lat="44.0804449" lon="10.4495898"><ele>206.28571428571428</ele><time>2026-03-31T11:41:02Z</time></trkpt><trkpt lat="44.0803765" lon="10.4495784"><ele>205.71428571428572</ele><time>2026-03-31T11:41:02.999Z</time></trkpt><trkpt lat="44.0803117" lon="10.4495939"><ele>205.14285714285717</ele><time>2026-03-31T11:41:04Z</time></trkpt><trkpt lat="44.0802473" lon="10.4496333"><ele>204.57142857142858</ele><time>2026-03-31T11:41:05Z</time></trkpt><trkpt lat="44.0801794" lon="10.4496844"><ele>204.0</ele><time>2026-03-31T11:41:06Z</time></trkpt><trkpt lat="44.0801152" lon="10.4497432"><ele>204.0</ele><time>2026-03-31T11:41:06.999Z</time></trkpt><trkpt lat="44.0800559" lon="10.4498085"><ele>204.0</ele><time>2026-03-31T11:41:08Z</time></trkpt><trkpt lat="44.0799933" lon="10.4498742"><ele>204.0</ele><time>2026-03-31T11:41:09Z</time></trkpt><trkpt lat="44.0799289" lon="10.4499345"><ele>204.0</ele><time>2026-03-31T11:41:09.999Z</time></trkpt><trkpt lat="44.0798551" lon="10.4499858"><ele>204.0</ele><time>2026-03-31T11:41:11Z</time></trkpt><trkpt lat="44.0797839" lon="10.450022"><ele>204.0</ele><time>2026-03-31T11:41:12Z</time></trkpt><trkpt lat="44.0797099" lon="10.450061"><ele>202.71428571428572</ele><time>2026-03-31T11:41:13Z</time></trkpt><trkpt lat="44.079644" lon="10.450099"><ele>201.42857142857144</ele><time>2026-03-31T11:41:14Z</time></trkpt><trkpt lat="44.0795748" lon="10.450132"><ele>200.14285714285714</ele><time>2026-03-31T11:41:14.999Z</time></trkpt><trkpt lat="44.079504" lon="10.4501588"><ele>198.85714285714286</ele><time>2026-03-31T11:41:15.999Z</time></trkpt><trkpt lat="44.0794389" lon="10.4501873"><ele>197.57142857142856</ele><time>2026-03-31T11:41:17Z</time></trkpt><trkpt lat="44.0793758" lon="10.4502126"><ele>196.28571428571428</ele><time>2026-03-31T11:41:18Z</time></trkpt><trkpt lat="44.0793123" lon="10.4502356"><ele>195.0</ele><time>2026-03-31T11:41:19Z</time></trkpt><trkpt lat="44.0791961" lon="10.4502738"><ele>196.2</ele><time>2026-03-31T11:41:20.999Z</time></trkpt><trkpt lat="44.0790841" lon="10.4503197"><ele>197.4</ele><time>2026-03-31T11:41:23Z</time></trkpt><trkpt lat="44.0789842" lon="10.4503577"><ele>198.60000000000002</ele><time>2026-03-31T11:41:25Z</time></trkpt><trkpt lat="44.0788844" lon="10.4503947"><ele>199.8</ele><time>2026-03-31T11:41:27Z</time></trkpt><trkpt lat="44.0787829" lon="10.4504304"><ele>201.0</ele><time>2026-03-31T11:41:29Z</time></trkpt><trkpt lat="44.0786864" lon="10.4504645"><ele>202.0</ele><time>2026-03-31T11:41:31Z</time></trkpt><trkpt lat="44.0785836" lon="10.4504956"><ele>203.0</ele><time>2026-03-31T11:41:33Z</time></trkpt><trkpt lat="44.0784989" lon="10.4505346"><ele>204.0</ele><time>2026-03-31T11:41:35Z</time></trkpt><trkpt lat="44.0784122" lon="10.4505481"><ele>205.0</ele><time>2026-03-31T11:41:37Z</time></trkpt><trkpt lat="44.0783237" lon="10.4505716"><ele>206.0</ele><time>2026-03-31T11:41:38.999Z</time></trkpt><trkpt lat="44.0782398" lon="10.4505799"><ele>206.16666666666669</ele><time>2026-03-31T11:41:41Z</time></trkpt><trkpt lat="44.078158" lon="10.4505714"><ele>206.33333333333334</ele><time>2026-03-31T11:41:43Z</time></trkpt><trkpt lat="44.0780771" lon="10.4505563"><ele>206.5</ele><time>2026-03-31T11:41:45Z</time></trkpt><trkpt lat="44.0780054" lon="10.4505327"><ele>206.66666666666669</ele><time>2026-03-31T11:41:47Z</time></trkpt><trkpt lat="44.0779356" lon="10.4504895"><ele>206.83333333333334</ele><time>2026-03-31T11:41:49Z</time></trkpt><trkpt lat="44.0778642" lon="10.4504301"><ele>207.0</ele><time>2026-03-31T11:41:51Z</time></trkpt><trkpt lat="44.0778055" lon="10.4503661"><ele>207.00000000000003</ele><time>2026-03-31T11:41:52.999Z</time></trkpt><trkpt lat="44.0777547" lon="10.4502924"><ele>207.0</ele><time>2026-03-31T11:41:55Z</time></trkpt><trkpt lat="44.0777057" lon="10.4502201"><ele>207.0</ele><time>2026-03-31T11:41:57Z</time></trkpt><trkpt lat="44.0776607" lon="10.4501465"><ele>207.0</ele><time>2026-03-31T11:41:59Z</time></trkpt><trkpt lat="44.0776165" lon="10.4500659"><ele>207.0</ele><time>2026-03-31T11:42:00.999Z</time></trkpt><trkpt lat="44.0775667" lon="10.4499857"><ele>207.00000000000003</ele><time>2026-03-31T11:42:03Z</time></trkpt><trkpt lat="44.077518" lon="10.4499058"><ele>207.0</ele><time>2026-03-31T11:42:05Z</time></trkpt><trkpt lat="44.0774648" lon="10.4498247"><ele>207.57142857142858</ele><time>2026-03-31T11:42:06.999Z</time></trkpt><trkpt lat="44.0774136" lon="10.449742"><ele>208.14285714285714</ele><time>2026-03-31T11:42:09Z</time></trkpt><trkpt lat="44.0773683" lon="10.4496636"><ele>208.71428571428572</ele><time>2026-03-31T11:42:10.999Z</time></trkpt><trkpt lat="44.0773247" lon="10.4495847"><ele>209.28571428571428</ele><time>2026-03-31T11:42:13Z</time></trkpt><trkpt lat="44.0772807" lon="10.4495105"><ele>209.85714285714286</ele><time>2026-03-31T11:42:15Z</time></trkpt><trkpt lat="44.0772348" lon="10.4494399"><ele>210.42857142857144</ele><time>2026-03-31T11:42:17Z</time></trkpt><trkpt lat="44.0772588" lon="10.4493398"><ele>211.0</ele><time>2026-03-31T11:42:20Z</time></trkpt><trkpt lat="44.0773266" lon="10.4493504"><ele>208.99999999999997</ele><time>2026-03-31T11:42:22Z</time></trkpt><trkpt lat="44.0773976" lon="10.449386"><ele>207.0</ele><time>2026-03-31T11:42:23.999Z</time></trkpt><trkpt lat="44.077465" lon="10.4494398"><ele>205.0</ele><time>2026-03-31T11:42:26Z</time></trkpt><trkpt lat="44.0775261" lon="10.4494792"><ele>203.0</ele><time>2026-03-31T11:42:28Z</time></trkpt><trkpt lat="44.0776072" lon="10.4495309"><ele>200.99999999999997</ele><time>2026-03-31T11:42:31Z</time></trkpt><trkpt lat="44.0776776" lon="10.4495719"><ele>199.0</ele><time>2026-03-31T11:42:32.999Z</time></trkpt><trkpt lat="44.0777395" lon="10.449607"><ele>199.33333333333331</ele><time>2026-03-31T11:42:35Z</time></trkpt><trkpt lat="44.0778325" lon="10.4496242"><ele>199.66666666666666</ele><time>2026-03-31T11:42:38Z</time></trkpt><trkpt lat="44.0779269" lon="10.4496282"><ele>200.0</ele><time>2026-03-31T11:42:41Z</time></trkpt><trkpt lat="44.0780082" lon="10.4496202"><ele>200.33333333333331</ele><time>2026-03-31T11:42:43.999Z</time></trkpt><trkpt lat="44.0780921" lon="10.4496398"><ele>200.66666666666666</ele><time>2026-03-31T11:42:46.999Z</time></trkpt><trkpt lat="44.0781795" lon="10.4496766"><ele>201.0</ele><time>2026-03-31T11:42:48.999Z</time></trkpt><trkpt lat="44.0782932" lon="10.4496851"><ele>201.0</ele><time>2026-03-31T11:42:51Z</time></trkpt><trkpt lat="44.0783603" lon="10.4496634"><ele>201.0</ele><time>2026-03-31T11:42:51.999Z</time></trkpt><trkpt lat="44.0784347" lon="10.4496336"><ele>201.0</ele><time>2026-03-31T11:42:52.999Z</time></trkpt><trkpt lat="44.0785028" lon="10.449599"><ele>201.0</ele><time>2026-03-31T11:42:54Z</time></trkpt><trkpt lat="44.0785625" lon="10.4495669"><ele>201.0</ele><time>2026-03-31T11:42:55Z</time></trkpt><trkpt lat="44.0786593" lon="10.4494739"><ele>201.0</ele><time>2026-03-31T11:42:56.999Z</time></trkpt><trkpt lat="44.0787242" lon="10.4493363"><ele>199.60000000000002</ele><time>2026-03-31T11:42:58.999Z</time></trkpt><trkpt lat="44.0787098" lon="10.4491852"><ele>198.2</ele><time>2026-03-31T11:43:01Z</time></trkpt><trkpt lat="44.0786725" lon="10.4491131"><ele>196.8</ele><time>2026-03-31T11:43:02Z</time></trkpt><trkpt lat="44.0786151" lon="10.4489684"><ele>195.39999999999998</ele><time>2026-03-31T11:43:03.999Z</time></trkpt><trkpt lat="44.0785522" lon="10.448826"><ele>194.0</ele><time>2026-03-31T11:43:06Z</time></trkpt><trkpt lat="44.0784934" lon="10.4486942"><ele>193.39999999999998</ele><time>2026-03-31T11:43:07.999Z</time></trkpt><trkpt lat="44.0784407" lon="10.4485577"><ele>192.8</ele><time>2026-03-31T11:43:10Z</time></trkpt><trkpt lat="44.0783761" lon="10.4484099"><ele>192.2</ele><time>2026-03-31T11:43:11.999Z</time></trkpt><trkpt lat="44.0783218" lon="10.4482568"><ele>191.60000000000002</ele><time>2026-03-31T11:43:14Z</time></trkpt><trkpt lat="44.0782922" lon="10.4481793"><ele>191.0</ele><time>2026-03-31T11:43:15Z</time></trkpt><trkpt lat="44.0782352" lon="10.4480354"><ele>190.4</ele><time>2026-03-31T11:43:17Z</time></trkpt><trkpt lat="44.0781759" lon="10.447903"><ele>189.8</ele><time>2026-03-31T11:43:18.999Z</time></trkpt><trkpt lat="44.0780966" lon="10.4478211"><ele>189.20000000000002</ele><time>2026-03-31T11:43:20.999Z</time></trkpt><trkpt lat="44.0780145" lon="10.4477957"><ele>188.60000000000002</ele><time>2026-03-31T11:43:22.999Z</time></trkpt><trkpt lat="44.0779189" lon="10.447749"><ele>188.0</ele><time>2026-03-31T11:43:25Z</time></trkpt><trkpt lat="44.0778363" lon="10.4476893"><ele>188.0</ele><time>2026-03-31T11:43:27Z</time></trkpt><trkpt lat="44.0777647" lon="10.4476323"><ele>188.0</ele><time>2026-03-31T11:43:29Z</time></trkpt><trkpt lat="44.0776837" lon="10.4475413"><ele>188.0</ele><time>2026-03-31T11:43:30.999Z</time></trkpt><trkpt lat="44.0775905" lon="10.4474529"><ele>188.0</ele><time>2026-03-31T11:43:33Z</time></trkpt><trkpt lat="44.0775102" lon="10.4473768"><ele>188.0</ele><time>2026-03-31T11:43:35Z</time></trkpt><trkpt lat="44.0774363" lon="10.4472795"><ele>187.60000000000002</ele><time>2026-03-31T11:43:36.999Z</time></trkpt><trkpt lat="44.0773533" lon="10.4471667"><ele>187.20000000000002</ele><time>2026-03-31T11:43:39Z</time></trkpt><trkpt lat="44.0772884" lon="10.4470591"><ele>186.8</ele><time>2026-03-31T11:43:40.999Z</time></trkpt><trkpt lat="44.0772169" lon="10.44695"><ele>186.4</ele><time>2026-03-31T11:43:43Z</time></trkpt><trkpt lat="44.0771305" lon="10.4468367"><ele>186.0</ele><time>2026-03-31T11:43:45Z</time></trkpt><trkpt lat="44.0770673" lon="10.4467223"><ele>185.60000000000002</ele><time>2026-03-31T11:43:47Z</time></trkpt><trkpt lat="44.0769942" lon="10.4466069"><ele>185.2</ele><time>2026-03-31T11:43:49Z</time></trkpt><trkpt lat="44.0769421" lon="10.4464906"><ele>184.8</ele><time>2026-03-31T11:43:51Z</time></trkpt><trkpt lat="44.0768837" lon="10.4464136"><ele>184.39999999999998</ele><time>2026-03-31T11:43:53Z</time></trkpt><trkpt lat="44.076824" lon="10.4462803"><ele>184.0</ele><time>2026-03-31T11:43:55Z</time></trkpt><trkpt lat="44.0767594" lon="10.4461578"><ele>183.79999999999998</ele><time>2026-03-31T11:43:57Z</time></trkpt><trkpt lat="44.0766702" lon="10.4460452"><ele>183.6</ele><time>2026-03-31T11:43:59Z</time></trkpt><trkpt lat="44.076607" lon="10.4459634"><ele>183.4</ele><time>2026-03-31T11:44:01Z</time></trkpt><trkpt lat="44.0765616" lon="10.4458413"><ele>183.2</ele><time>2026-03-31T11:44:02.999Z</time></trkpt><trkpt lat="44.0765689" lon="10.4457334"><ele>183.0</ele><time>2026-03-31T11:44:05Z</time></trkpt><trkpt lat="44.0765429" lon="10.4456157"><ele>182.33333333333334</ele><time>2026-03-31T11:44:07Z</time></trkpt><trkpt lat="44.076491" lon="10.4454982"><ele>181.66666666666666</ele><time>2026-03-31T11:44:09Z</time></trkpt><trkpt lat="44.0764189" lon="10.4453899"><ele>181.0</ele><time>2026-03-31T11:44:11Z</time></trkpt><trkpt lat="44.0763943" lon="10.4453004"><ele>180.33333333333331</ele><time>2026-03-31T11:44:11.999Z</time></trkpt><trkpt lat="44.0763401" lon="10.4452012"><ele>179.66666666666666</ele><time>2026-03-31T11:44:14Z</time></trkpt><trkpt lat="44.0762983" lon="10.4451113"><ele>179.0</ele><time>2026-03-31T11:44:16Z</time></trkpt><trkpt lat="44.0762352" lon="10.4450207"><ele>178.66666666666666</ele><time>2026-03-31T11:44:17.999Z</time></trkpt><trkpt lat="44.0761655" lon="10.4449251"><ele>178.33333333333331</ele><time>2026-03-31T11:44:19.999Z</time></trkpt><trkpt lat="44.0760883" lon="10.4448486"><ele>178.0</ele><time>2026-03-31T11:44:21.999Z</time></trkpt><trkpt lat="44.0759998" lon="10.444802"><ele>177.66666666666666</ele><time>2026-03-31T11:44:24Z</time></trkpt><trkpt lat="44.0759213" lon="10.4447411"><ele>177.33333333333334</ele><time>2026-03-31T11:44:26Z</time></trkpt><trkpt lat="44.0758626" lon="10.4446991"><ele>177.0</ele><time>2026-03-31T11:44:28Z</time></trkpt><trkpt lat="44.0758131" lon="10.4446374"><ele>176.66666666666666</ele><time>2026-03-31T11:44:30Z</time></trkpt><trkpt lat="44.075766" lon="10.4445575"><ele>176.33333333333334</ele><time>2026-03-31T11:44:32Z</time></trkpt><trkpt lat="44.075718" lon="10.4444855"><ele>176.0</ele><time>2026-03-31T11:44:34Z</time></trkpt><trkpt lat="44.075661" lon="10.4443886"><ele>175.66666666666669</ele><time>2026-03-31T11:44:36.999Z</time></trkpt><trkpt lat="44.0756189" lon="10.4443209"><ele>175.33333333333334</ele><time>2026-03-31T11:44:39Z</time></trkpt><trkpt lat="44.0755845" lon="10.4442453"><ele>175.0</ele><time>2026-03-31T11:44:41Z</time></trkpt><trkpt lat="44.0755329" lon="10.4441463"><ele>175.0</ele><time>2026-03-31T11:44:44Z</time></trkpt><trkpt lat="44.0754533" lon="10.4440888"><ele>175.0</ele><time>2026-03-31T11:44:47Z</time></trkpt><trkpt lat="44.0753872" lon="10.4440838"><ele>175.0</ele><time>2026-03-31T11:44:49Z</time></trkpt><trkpt lat="44.0753198" lon="10.4440875"><ele>175.0</ele><time>2026-03-31T11:44:51Z</time></trkpt><trkpt lat="44.0752565" lon="10.4441312"><ele>175.0</ele><time>2026-03-31T11:44:54Z</time></trkpt><trkpt lat="44.075209" lon="10.4442005"><ele>175.0</ele><time>2026-03-31T11:44:58Z</time></trkpt><trkpt lat="44.0751652" lon="10.4442981"><ele>175.0</ele><time>2026-03-31T11:45:01Z</time></trkpt><trkpt lat="44.0751271" lon="10.4444008"><ele>175.0</ele><time>2026-03-31T11:45:04Z</time></trkpt><trkpt lat="44.0750702" lon="10.444457"><ele>175.0</ele><time>2026-03-31T11:45:06Z</time></trkpt><trkpt lat="44.07501" lon="10.4445158"><ele>175.0</ele><time>2026-03-31T11:45:08Z</time></trkpt><trkpt lat="44.0749493" lon="10.444567"><ele>175.0</ele><time>2026-03-31T11:45:10Z</time></trkpt><trkpt lat="44.0748928" lon="10.4446197"><ele>175.0</ele><time>2026-03-31T11:45:12Z</time></trkpt><trkpt lat="44.0748369" lon="10.4446685"><ele>175.0</ele><time>2026-03-31T11:45:14Z</time></trkpt><trkpt lat="44.0747764" lon="10.4447005"><ele>175.0</ele><time>2026-03-31T11:45:16Z</time></trkpt><trkpt lat="44.074693" lon="10.444706"><ele>175.33333333333334</ele><time>2026-03-31T11:45:19Z</time></trkpt><trkpt lat="44.0746134" lon="10.4446556"><ele>175.66666666666669</ele><time>2026-03-31T11:45:22Z</time></trkpt><trkpt lat="44.0745744" lon="10.4445833"><ele>176.0</ele><time>2026-03-31T11:45:23.999Z</time></trkpt><trkpt lat="44.0745166" lon="10.4444914"><ele>176.33333333333334</ele><time>2026-03-31T11:45:27Z</time></trkpt><trkpt lat="44.0744503" lon="10.4444019"><ele>176.66666666666666</ele><time>2026-03-31T11:45:29.999Z</time></trkpt><trkpt lat="44.0744077" lon="10.4443059"><ele>177.0</ele><time>2026-03-31T11:45:33Z</time></trkpt><trkpt lat="44.0743913" lon="10.4442142"><ele>177.0</ele><time>2026-03-31T11:45:37Z</time></trkpt><trkpt lat="44.0743304" lon="10.4441463"><ele>177.0</ele><time>2026-03-31T11:45:41Z</time></trkpt><trkpt lat="44.0742537" lon="10.4441742"><ele>177.0</ele><time>2026-03-31T11:45:44.999Z</time></trkpt><trkpt lat="44.0741984" lon="10.444219"><ele>177.0</ele><time>2026-03-31T11:45:47.999Z</time></trkpt><trkpt lat="44.0741429" lon="10.4442924"><ele>177.0</ele><time>2026-03-31T11:45:51Z</time></trkpt><trkpt lat="44.0740697" lon="10.4443595"><ele>177.0</ele><time>2026-03-31T11:45:53.999Z</time></trkpt><trkpt lat="44.0740082" lon="10.4443998"><ele>176.5</ele><time>2026-03-31T11:45:55.999Z</time></trkpt><trkpt lat="44.0739461" lon="10.4444565"><ele>176.0</ele><time>2026-03-31T11:45:58Z</time></trkpt><trkpt lat="44.0738858" lon="10.4445146"><ele>175.5</ele><time>2026-03-31T11:46:00Z</time></trkpt><trkpt lat="44.0738157" lon="10.4445745"><ele>175.0</ele><time>2026-03-31T11:46:02Z</time></trkpt><trkpt lat="44.0737475" lon="10.4446249"><ele>174.5</ele><time>2026-03-31T11:46:03.999Z</time></trkpt><trkpt lat="44.0736862" lon="10.4446816"><ele>174.0</ele><time>2026-03-31T11:46:06Z</time></trkpt><trkpt lat="44.0736315" lon="10.4447445"><ele>174.0</ele><time>2026-03-31T11:46:08Z</time></trkpt><trkpt lat="44.0735737" lon="10.4448007"><ele>174.0</ele><time>2026-03-31T11:46:10Z</time></trkpt><trkpt lat="44.0735181" lon="10.4448567"><ele>174.0</ele><time>2026-03-31T11:46:12.033Z</time></trkpt><trkpt lat="44.073459" lon="10.4449285"><ele>174.0</ele><time>2026-03-31T11:46:13.999Z</time></trkpt><trkpt lat="44.0734059" lon="10.445011"><ele>174.0</ele><time>2026-03-31T11:46:15.999Z</time></trkpt><trkpt lat="44.0733496" lon="10.445087"><ele>174.0</ele><time>2026-03-31T11:46:18.026Z</time></trkpt><trkpt lat="44.0733071" lon="10.4451683"><ele>174.0</ele><time>2026-03-31T11:46:20Z</time></trkpt><trkpt lat="44.0732496" lon="10.4452326"><ele>173.66666666666666</ele><time>2026-03-31T11:46:21.999Z</time></trkpt><trkpt lat="44.0731914" lon="10.4453127"><ele>173.33333333333334</ele><time>2026-03-31T11:46:24Z</time></trkpt><trkpt lat="44.0731213" lon="10.4453562"><ele>173.0</ele><time>2026-03-31T11:46:25.999Z</time></trkpt><trkpt lat="44.0730524" lon="10.445404"><ele>172.66666666666669</ele><time>2026-03-31T11:46:28Z</time></trkpt><trkpt lat="44.0729901" lon="10.4454701"><ele>172.33333333333334</ele><time>2026-03-31T11:46:30Z</time></trkpt><trkpt lat="44.0729312" lon="10.4455411"><ele>172.0</ele><time>2026-03-31T11:46:32Z</time></trkpt><trkpt lat="44.0728739" lon="10.4456092"><ele>172.00000000000003</ele><time>2026-03-31T11:46:34Z</time></trkpt><trkpt lat="44.072825" lon="10.4456862"><ele>172.0</ele><time>2026-03-31T11:46:36Z</time></trkpt><trkpt lat="44.0727789" lon="10.445762"><ele>172.0</ele><time>2026-03-31T11:46:38Z</time></trkpt><trkpt lat="44.0727252" lon="10.445825"><ele>172.0</ele><time>2026-03-31T11:46:40Z</time></trkpt><trkpt lat="44.0726866" lon="10.4458943"><ele>172.0</ele><time>2026-03-31T11:46:41.999Z</time></trkpt><trkpt lat="44.072643" lon="10.4459753"><ele>172.00000000000003</ele><time>2026-03-31T11:46:44Z</time></trkpt><trkpt lat="44.0725936" lon="10.4460365"><ele>172.0</ele><time>2026-03-31T11:46:46Z</time></trkpt><trkpt lat="44.0725375" lon="10.4461072"><ele>172.00000000000003</ele><time>2026-03-31T11:46:48Z</time></trkpt><trkpt lat="44.072482" lon="10.4461704"><ele>172.0</ele><time>2026-03-31T11:46:49.999Z</time></trkpt><trkpt lat="44.0724328" lon="10.4462422"><ele>172.0</ele><time>2026-03-31T11:46:51.999Z</time></trkpt><trkpt lat="44.0723914" lon="10.4463241"><ele>172.0</ele><time>2026-03-31T11:46:54Z</time></trkpt><trkpt lat="44.072343" lon="10.4463981"><ele>172.0</ele><time>2026-03-31T11:46:56Z</time></trkpt><trkpt lat="44.0722802" lon="10.4464634"><ele>172.00000000000003</ele><time>2026-03-31T11:46:57.999Z</time></trkpt><trkpt lat="44.0722149" lon="10.4465289"><ele>172.0</ele><time>2026-03-31T11:47:00Z</time></trkpt><trkpt lat="44.0721621" lon="10.4465969"><ele>172.00000000000003</ele><time>2026-03-31T11:47:01.999Z</time></trkpt><trkpt lat="44.0721" lon="10.4466482"><ele>172.0</ele><time>2026-03-31T11:47:04Z</time></trkpt><trkpt lat="44.0720315" lon="10.4466798"><ele>172.0</ele><time>2026-03-31T11:47:06Z</time></trkpt><trkpt lat="44.0719644" lon="10.4467256"><ele>172.0</ele><time>2026-03-31T11:47:08Z</time></trkpt><trkpt lat="44.0719094" lon="10.4467797"><ele>172.0</ele><time>2026-03-31T11:47:09.999Z</time></trkpt><trkpt lat="44.0718585" lon="10.4468458"><ele>172.00000000000003</ele><time>2026-03-31T11:47:12Z</time></trkpt><trkpt lat="44.0718085" lon="10.4469094"><ele>172.0</ele><time>2026-03-31T11:47:13.999Z</time></trkpt><trkpt lat="44.0717567" lon="10.446995"><ele>172.00000000000003</ele><time>2026-03-31T11:47:16.999Z</time></trkpt><trkpt lat="44.0716916" lon="10.4470337"><ele>172.0</ele><time>2026-03-31T11:47:18.999Z</time></trkpt><trkpt lat="44.0716298" lon="10.4470698"><ele>172.0</ele><time>2026-03-31T11:47:21Z</time></trkpt><trkpt lat="44.0715701" lon="10.4471134"><ele>172.0</ele><time>2026-03-31T11:47:22.999Z</time></trkpt><trkpt lat="44.071511" lon="10.447174"><ele>172.0</ele><time>2026-03-31T11:47:25Z</time></trkpt><trkpt lat="44.0714534" lon="10.4472527"><ele>172.00000000000003</ele><time>2026-03-31T11:47:27Z</time></trkpt><trkpt lat="44.0713987" lon="10.4473343"><ele>172.0</ele><time>2026-03-31T11:47:29Z</time></trkpt><trkpt lat="44.071346" lon="10.4474141"><ele>171.83333333333334</ele><time>2026-03-31T11:47:31Z</time></trkpt><trkpt lat="44.0712787" lon="10.4474636"><ele>171.66666666666669</ele><time>2026-03-31T11:47:33Z</time></trkpt><trkpt lat="44.0712151" lon="10.4475183"><ele>171.5</ele><time>2026-03-31T11:47:34.999Z</time></trkpt><trkpt lat="44.0711572" lon="10.4475778"><ele>171.33333333333334</ele><time>2026-03-31T11:47:37Z</time></trkpt><trkpt lat="44.0711016" lon="10.4476237"><ele>171.16666666666666</ele><time>2026-03-31T11:47:39Z</time></trkpt><trkpt lat="44.0710285" lon="10.4477023"><ele>171.0</ele><time>2026-03-31T11:47:40.999Z</time></trkpt><trkpt lat="44.0709452" lon="10.4477629"><ele>171.0</ele><time>2026-03-31T11:47:42.999Z</time></trkpt><trkpt lat="44.0708762" lon="10.4478159"><ele>171.0</ele><time>2026-03-31T11:47:45Z</time></trkpt><trkpt lat="44.0708009" lon="10.4478683"><ele>171.0</ele><time>2026-03-31T11:47:47Z</time></trkpt><trkpt lat="44.0707303" lon="10.4479105"><ele>171.0</ele><time>2026-03-31T11:47:49Z</time></trkpt><trkpt lat="44.0706587" lon="10.447947"><ele>171.0</ele><time>2026-03-31T11:47:51Z</time></trkpt><trkpt lat="44.0705871" lon="10.4479846"><ele>171.0</ele><time>2026-03-31T11:47:53Z</time></trkpt><trkpt lat="44.0705164" lon="10.4480198"><ele>171.5</ele><time>2026-03-31T11:47:55Z</time></trkpt><trkpt lat="44.0704456" lon="10.4480432"><ele>172.0</ele><time>2026-03-31T11:47:56.999Z</time></trkpt><trkpt lat="44.0703764" lon="10.4480649"><ele>172.5</ele><time>2026-03-31T11:47:59Z</time></trkpt><trkpt lat="44.0703084" lon="10.4480976"><ele>173.0</ele><time>2026-03-31T11:48:01Z</time></trkpt><trkpt lat="44.0702468" lon="10.4481256"><ele>173.5</ele><time>2026-03-31T11:48:03Z</time></trkpt><trkpt lat="44.0701641" lon="10.4481848"><ele>174.0</ele><time>2026-03-31T11:48:06Z</time></trkpt><trkpt lat="44.0700942" lon="10.448267"><ele>174.0</ele><time>2026-03-31T11:48:09Z</time></trkpt><trkpt lat="44.0700363" lon="10.4483459"><ele>174.0</ele><time>2026-03-31T11:48:12Z</time></trkpt><trkpt lat="44.0699786" lon="10.4484156"><ele>174.0</ele><time>2026-03-31T11:48:14.999Z</time></trkpt><trkpt lat="44.0699186" lon="10.4484821"><ele>174.0</ele><time>2026-03-31T11:48:18Z</time></trkpt><trkpt lat="44.0698652" lon="10.4485516"><ele>174.0</ele><time>2026-03-31T11:48:22Z</time></trkpt><trkpt lat="44.0698382" lon="10.4486314"><ele>174.0</ele><time>2026-03-31T11:48:27Z</time></trkpt><trkpt lat="44.0697818" lon="10.4487042"><ele>174.0</ele><time>2026-03-31T11:48:30.999Z</time></trkpt><trkpt lat="44.0697169" lon="10.4487764"><ele>173.66666666666666</ele><time>2026-03-31T11:48:34Z</time></trkpt><trkpt lat="44.0696916" lon="10.4488926"><ele>173.33333333333334</ele><time>2026-03-31T11:48:37Z</time></trkpt><trkpt lat="44.0696988" lon="10.4490166"><ele>173.0</ele><time>2026-03-31T11:48:40Z</time></trkpt><trkpt lat="44.0697069" lon="10.4491373"><ele>172.66666666666669</ele><time>2026-03-31T11:48:43Z</time></trkpt><trkpt lat="44.0697194" lon="10.4492474"><ele>172.33333333333334</ele><time>2026-03-31T11:48:46Z</time></trkpt><trkpt lat="44.0697348" lon="10.4493492"><ele>172.0</ele><time>2026-03-31T11:48:49Z</time></trkpt><trkpt lat="44.0697312" lon="10.4494542"><ele>172.0</ele><time>2026-03-31T11:48:53Z</time></trkpt><trkpt lat="44.069683" lon="10.4495439"><ele>172.0</ele><time>2026-03-31T11:48:57Z</time></trkpt><trkpt lat="44.0696043" lon="10.4495874"><ele>172.0</ele><time>2026-03-31T11:49:00Z</time></trkpt><trkpt lat="44.0695353" lon="10.4496036"><ele>172.0</ele><time>2026-03-31T11:49:01.999Z</time></trkpt><trkpt lat="44.0694621" lon="10.4496049"><ele>172.0</ele><time>2026-03-31T11:49:04Z</time></trkpt><trkpt lat="44.0693751" lon="10.449624"><ele>172.0</ele><time>2026-03-31T11:49:06Z</time></trkpt><trkpt lat="44.0692879" lon="10.4496505"><ele>171.85714285714286</ele><time>2026-03-31T11:49:08Z</time></trkpt><trkpt lat="44.0692069" lon="10.4496755"><ele>171.71428571428572</ele><time>2026-03-31T11:49:10Z</time></trkpt><trkpt lat="44.0691287" lon="10.4496958"><ele>171.57142857142856</ele><time>2026-03-31T11:49:11.999Z</time></trkpt><trkpt lat="44.0690525" lon="10.449722"><ele>171.42857142857144</ele><time>2026-03-31T11:49:14Z</time></trkpt><trkpt lat="44.0689822" lon="10.4497429"><ele>171.28571428571428</ele><time>2026-03-31T11:49:16Z</time></trkpt><trkpt lat="44.0689165" lon="10.4497593"><ele>171.14285714285714</ele><time>2026-03-31T11:49:18Z</time></trkpt><trkpt lat="44.068853" lon="10.4497786"><ele>171.0</ele><time>2026-03-31T11:49:20Z</time></trkpt><trkpt lat="44.0687619" lon="10.4497952"><ele>170.99999999999997</ele><time>2026-03-31T11:49:23Z</time></trkpt><trkpt lat="44.0686757" lon="10.4498113"><ele>171.0</ele><time>2026-03-31T11:49:26Z</time></trkpt><trkpt lat="44.0685832" lon="10.4498236"><ele>171.0</ele><time>2026-03-31T11:49:28.999Z</time></trkpt><trkpt lat="44.0685216" lon="10.4498439"><ele>171.0</ele><time>2026-03-31T11:49:30.999Z</time></trkpt><trkpt lat="44.0684603" lon="10.4498713"><ele>171.0</ele><time>2026-03-31T11:49:33Z</time></trkpt><trkpt lat="44.0683996" lon="10.4499007"><ele>170.99999999999997</ele><time>2026-03-31T11:49:35Z</time></trkpt><trkpt lat="44.0683375" lon="10.4499355"><ele>171.0</ele><time>2026-03-31T11:49:36.999Z</time></trkpt><trkpt lat="44.0682733" lon="10.4499704"><ele>170.60000000000002</ele><time>2026-03-31T11:49:39Z</time></trkpt><trkpt lat="44.0682008" lon="10.4500026"><ele>170.2</ele><time>2026-03-31T11:49:41Z</time></trkpt><trkpt lat="44.0681191" lon="10.4500501"><ele>169.8</ele><time>2026-03-31T11:49:43Z</time></trkpt><trkpt lat="44.0680302" lon="10.4501202"><ele>169.39999999999998</ele><time>2026-03-31T11:49:45Z</time></trkpt><trkpt lat="44.0679532" lon="10.4502105"><ele>169.0</ele><time>2026-03-31T11:49:47Z</time></trkpt><trkpt lat="44.0679001" lon="10.450329"><ele>169.0</ele><time>2026-03-31T11:49:49Z</time></trkpt><trkpt lat="44.0678984" lon="10.4504378"><ele>169.0</ele><time>2026-03-31T11:49:51Z</time></trkpt><trkpt lat="44.0679183" lon="10.4505232"><ele>169.0</ele><time>2026-03-31T11:49:53Z</time></trkpt><trkpt lat="44.0679342" lon="10.450645"><ele>169.0</ele><time>2026-03-31T11:49:56Z</time></trkpt><trkpt lat="44.0679023" lon="10.4507212"><ele>169.0</ele><time>2026-03-31T11:49:58Z</time></trkpt><trkpt lat="44.0678518" lon="10.4507763"><ele>169.0</ele><time>2026-03-31T11:50:00Z</time></trkpt><trkpt lat="44.0677976" lon="10.4508316"><ele>169.0</ele><time>2026-03-31T11:50:02Z</time></trkpt><trkpt lat="44.0677434" lon="10.4508806"><ele>169.14285714285714</ele><time>2026-03-31T11:50:04Z</time></trkpt><trkpt lat="44.0676889" lon="10.4509253"><ele>169.28571428571428</ele><time>2026-03-31T11:50:06Z</time></trkpt><trkpt lat="44.0676346" lon="10.4509713"><ele>169.42857142857144</ele><time>2026-03-31T11:50:08Z</time></trkpt><trkpt lat="44.0675829" lon="10.4510265"><ele>169.57142857142856</ele><time>2026-03-31T11:50:09.999Z</time></trkpt><trkpt lat="44.0675285" lon="10.4510749"><ele>169.7142857142857</ele><time>2026-03-31T11:50:12Z</time></trkpt><trkpt lat="44.0674726" lon="10.4511216"><ele>169.85714285714286</ele><time>2026-03-31T11:50:13.999Z</time></trkpt><trkpt lat="44.0674167" lon="10.451177"><ele>170.0</ele><time>2026-03-31T11:50:15.999Z</time></trkpt><trkpt lat="44.0673546" lon="10.4512322"><ele>169.83333333333331</ele><time>2026-03-31T11:50:18Z</time></trkpt><trkpt lat="44.0672955" lon="10.4512799"><ele>169.66666666666666</ele><time>2026-03-31T11:50:20Z</time></trkpt><trkpt lat="44.0672264" lon="10.4513261"><ele>169.5</ele><time>2026-03-31T11:50:22Z</time></trkpt><trkpt lat="44.0671542" lon="10.4513769"><ele>169.33333333333334</ele><time>2026-03-31T11:50:24Z</time></trkpt><trkpt lat="44.0670802" lon="10.4514151"><ele>169.16666666666669</ele><time>2026-03-31T11:50:26Z</time></trkpt><trkpt lat="44.0670098" lon="10.451441"><ele>169.0</ele><time>2026-03-31T11:50:28Z</time></trkpt><trkpt lat="44.0669351" lon="10.4514611"><ele>169.0</ele><time>2026-03-31T11:50:29.999Z</time></trkpt><trkpt lat="44.0668636" lon="10.4514836"><ele>169.0</ele><time>2026-03-31T11:50:32Z</time></trkpt><trkpt lat="44.0667899" lon="10.4515249"><ele>169.0</ele><time>2026-03-31T11:50:34Z</time></trkpt><trkpt lat="44.0667113" lon="10.4515651"><ele>169.0</ele><time>2026-03-31T11:50:36Z</time></trkpt><trkpt lat="44.0666352" lon="10.4516101"><ele>169.0</ele><time>2026-03-31T11:50:37.999Z</time></trkpt><trkpt lat="44.0665626" lon="10.4516525"><ele>169.0</ele><time>2026-03-31T11:50:40Z</time></trkpt><trkpt lat="44.0664874" lon="10.4516893"><ele>169.0</ele><time>2026-03-31T11:50:42Z</time></trkpt><trkpt lat="44.0664092" lon="10.4517218"><ele>169.0</ele><time>2026-03-31T11:50:44Z</time></trkpt><trkpt lat="44.0663306" lon="10.4517562"><ele>169.0</ele><time>2026-03-31T11:50:46Z</time></trkpt><trkpt lat="44.0662528" lon="10.4517815"><ele>169.0</ele><time>2026-03-31T11:50:47.999Z</time></trkpt><trkpt lat="44.0661672" lon="10.4517796"><ele>169.0</ele><time>2026-03-31T11:50:50Z</time></trkpt><trkpt lat="44.0660693" lon="10.4517642"><ele>169.0</ele><time>2026-03-31T11:50:52Z</time></trkpt><trkpt lat="44.065965" lon="10.4517696"><ele>169.0</ele><time>2026-03-31T11:50:54Z</time></trkpt><trkpt lat="44.0658623" lon="10.4517986"><ele>169.0</ele><time>2026-03-31T11:50:55.999Z</time></trkpt><trkpt lat="44.0657549" lon="10.4518212"><ele>169.0</ele><time>2026-03-31T11:50:58Z</time></trkpt><trkpt lat="44.0656468" lon="10.4518429"><ele>169.0</ele><time>2026-03-31T11:51:00Z</time></trkpt><trkpt lat="44.0655374" lon="10.4518625"><ele>169.0</ele><time>2026-03-31T11:51:02Z</time></trkpt><trkpt lat="44.0654294" lon="10.4518793"><ele>168.83333333333334</ele><time>2026-03-31T11:51:04Z</time></trkpt><trkpt lat="44.0653281" lon="10.4519011"><ele>168.66666666666669</ele><time>2026-03-31T11:51:05.999Z</time></trkpt><trkpt lat="44.0652283" lon="10.4519018"><ele>168.5</ele><time>2026-03-31T11:51:08Z</time></trkpt><trkpt lat="44.0651349" lon="10.4519002"><ele>168.33333333333334</ele><time>2026-03-31T11:51:09.999Z</time></trkpt><trkpt lat="44.0650702" lon="10.4518648"><ele>168.16666666666666</ele><time>2026-03-31T11:51:12Z</time></trkpt><trkpt lat="44.0650254" lon="10.4517917"><ele>168.0</ele><time>2026-03-31T11:51:14Z</time></trkpt><trkpt lat="44.0650021" lon="10.4517052"><ele>168.0</ele><time>2026-03-31T11:51:16Z</time></trkpt><trkpt lat="44.0649874" lon="10.4516026"><ele>168.0</ele><time>2026-03-31T11:51:19Z</time></trkpt><trkpt lat="44.0649675" lon="10.4514894"><ele>168.0</ele><time>2026-03-31T11:51:22Z</time></trkpt><trkpt lat="44.0649451" lon="10.4513725"><ele>168.0</ele><time>2026-03-31T11:51:25Z</time></trkpt><trkpt lat="44.0649211" lon="10.4512597"><ele>168.0</ele><time>2026-03-31T11:51:28Z</time></trkpt><trkpt lat="44.064905" lon="10.4511532"><ele>168.0</ele><time>2026-03-31T11:51:31Z</time></trkpt><trkpt lat="44.0648887" lon="10.4510412"><ele>167.66666666666666</ele><time>2026-03-31T11:51:34Z</time></trkpt><trkpt lat="44.0648789" lon="10.450949"><ele>167.33333333333334</ele><time>2026-03-31T11:51:36Z</time></trkpt><trkpt lat="44.0648633" lon="10.4508595"><ele>167.0</ele><time>2026-03-31T11:51:38Z</time></trkpt><trkpt lat="44.0648393" lon="10.4507471"><ele>166.66666666666669</ele><time>2026-03-31T11:51:40.999Z</time></trkpt><trkpt lat="44.0648099" lon="10.4506237"><ele>166.33333333333334</ele><time>2026-03-31T11:51:44Z</time></trkpt><trkpt lat="44.0647874" lon="10.450515"><ele>166.0</ele><time>2026-03-31T11:51:47Z</time></trkpt><trkpt lat="44.0647682" lon="10.4504047"><ele>166.0</ele><time>2026-03-31T11:51:50Z</time></trkpt><trkpt lat="44.0647392" lon="10.4502939"><ele>166.0</ele><time>2026-03-31T11:51:53Z</time></trkpt><trkpt lat="44.064715" lon="10.4501783"><ele>166.0</ele><time>2026-03-31T11:51:56Z</time></trkpt><trkpt lat="44.0646945" lon="10.4500715"><ele>166.0</ele><time>2026-03-31T11:51:59Z</time></trkpt><trkpt lat="44.0646581" lon="10.449879"><ele>166.0</ele><time>2026-03-31T11:52:03.999Z</time></trkpt><trkpt lat="44.0646403" lon="10.4497615"><ele>166.0</ele><time>2026-03-31T11:52:07Z</time></trkpt><trkpt lat="44.0646129" lon="10.4496445"><ele>166.0</ele><time>2026-03-31T11:52:10Z</time></trkpt><trkpt lat="44.0645863" lon="10.4495359"><ele>166.0</ele><time>2026-03-31T11:52:12.999Z</time></trkpt><trkpt lat="44.0645646" lon="10.449425"><ele>166.0</ele><time>2026-03-31T11:52:16Z</time></trkpt><trkpt lat="44.0645444" lon="10.4493138"><ele>166.0</ele><time>2026-03-31T11:52:19Z</time></trkpt><trkpt lat="44.0645198" lon="10.4492081"><ele>166.0</ele><time>2026-03-31T11:52:22Z</time></trkpt><trkpt lat="44.0645017" lon="10.4491047"><ele>166.0</ele><time>2026-03-31T11:52:25Z</time></trkpt><trkpt lat="44.0644777" lon="10.4489967"><ele>166.0</ele><time>2026-03-31T11:52:27.999Z</time></trkpt><trkpt lat="44.0644572" lon="10.4488864"><ele>166.0</ele><time>2026-03-31T11:52:31Z</time></trkpt><trkpt lat="44.0644379" lon="10.4487709"><ele>166.0</ele><time>2026-03-31T11:52:33.999Z</time></trkpt><trkpt lat="44.0644109" lon="10.4486654"><ele>166.0</ele><time>2026-03-31T11:52:37Z</time></trkpt><trkpt lat="44.0643844" lon="10.4485585"><ele>166.0</ele><time>2026-03-31T11:52:39.999Z</time></trkpt><trkpt lat="44.0643565" lon="10.4484509"><ele>166.0</ele><time>2026-03-31T11:52:43Z</time></trkpt><trkpt lat="44.0643339" lon="10.4483474"><ele>166.0</ele><time>2026-03-31T11:52:45.999Z</time></trkpt><trkpt lat="44.0643045" lon="10.4482378"><ele>166.0</ele><time>2026-03-31T11:52:49Z</time></trkpt><trkpt lat="44.0642883" lon="10.4481494"><ele>166.0</ele><time>2026-03-31T11:52:52Z</time></trkpt><trkpt lat="44.0642688" lon="10.4480315"><ele>166.0</ele><time>2026-03-31T11:52:54.999Z</time></trkpt><trkpt lat="44.0642477" lon="10.4479257"><ele>166.0</ele><time>2026-03-31T11:52:58Z</time></trkpt><trkpt lat="44.0642202" lon="10.4478211"><ele>165.66666666666669</ele><time>2026-03-31T11:53:01Z</time></trkpt><trkpt lat="44.0641973" lon="10.4477074"><ele>165.33333333333334</ele><time>2026-03-31T11:53:04Z</time></trkpt><trkpt lat="44.0641761" lon="10.4476032"><ele>165.0</ele><time>2026-03-31T11:53:07Z</time></trkpt><trkpt lat="44.0641562" lon="10.4474858"><ele>164.66666666666666</ele><time>2026-03-31T11:53:10Z</time></trkpt><trkpt lat="44.0641379" lon="10.4473724"><ele>164.33333333333331</ele><time>2026-03-31T11:53:13Z</time></trkpt><trkpt lat="44.0641131" lon="10.447255"><ele>164.0</ele><time>2026-03-31T11:53:15.999Z</time></trkpt><trkpt lat="44.0640968" lon="10.4471426"><ele>163.33333333333331</ele><time>2026-03-31T11:53:18.999Z</time></trkpt><trkpt lat="44.0640727" lon="10.4470237"><ele>162.66666666666666</ele><time>2026-03-31T11:53:21.999Z</time></trkpt><trkpt lat="44.0640456" lon="10.4469094"><ele>162.0</ele><time>2026-03-31T11:53:25Z</time></trkpt><trkpt lat="44.0640176" lon="10.4467883"><ele>161.33333333333334</ele><time>2026-03-31T11:53:28Z</time></trkpt><trkpt lat="44.0639916" lon="10.4466724"><ele>160.66666666666669</ele><time>2026-03-31T11:53:31Z</time></trkpt><trkpt lat="44.0639622" lon="10.4465554"><ele>160.0</ele><time>2026-03-31T11:53:34Z</time></trkpt><trkpt lat="44.0639402" lon="10.4464421"><ele>160.0</ele><time>2026-03-31T11:53:37Z</time></trkpt><trkpt lat="44.0639187" lon="10.446326"><ele>160.0</ele><time>2026-03-31T11:53:40Z</time></trkpt><trkpt lat="44.0638946" lon="10.4462133"><ele>160.0</ele><time>2026-03-31T11:53:42.999Z</time></trkpt><trkpt lat="44.0638651" lon="10.446099"><ele>160.0</ele><time>2026-03-31T11:53:46Z</time></trkpt><trkpt lat="44.0638371" lon="10.4459895"><ele>160.0</ele><time>2026-03-31T11:53:49Z</time></trkpt><trkpt lat="44.0638207" lon="10.4458855"><ele>160.0</ele><time>2026-03-31T11:53:52Z</time></trkpt><trkpt lat="44.0637995" lon="10.4457837"><ele>160.83333333333334</ele><time>2026-03-31T11:53:54.999Z</time></trkpt><trkpt lat="44.0637829" lon="10.4456835"><ele>161.66666666666669</ele><time>2026-03-31T11:53:58Z</time></trkpt><trkpt lat="44.0637632" lon="10.4455776"><ele>162.5</ele><time>2026-03-31T11:54:01Z</time></trkpt><trkpt lat="44.0637504" lon="10.4454862"><ele>163.33333333333334</ele><time>2026-03-31T11:54:03.999Z</time></trkpt><trkpt lat="44.0637311" lon="10.4453744"><ele>164.16666666666666</ele><time>2026-03-31T11:54:07Z</time></trkpt><trkpt lat="44.06371" lon="10.4452555"><ele>165.0</ele><time>2026-03-31T11:54:10Z</time></trkpt><trkpt lat="44.0636911" lon="10.4451447"><ele>165.5</ele><time>2026-03-31T11:54:13Z</time></trkpt><trkpt lat="44.0636661" lon="10.4450474"><ele>166.0</ele><time>2026-03-31T11:54:16Z</time></trkpt><trkpt lat="44.0636418" lon="10.4449236"><ele>166.5</ele><time>2026-03-31T11:54:19Z</time></trkpt><trkpt lat="44.0636221" lon="10.4448218"><ele>167.0</ele><time>2026-03-31T11:54:22Z</time></trkpt><trkpt lat="44.0636069" lon="10.4447166"><ele>167.5</ele><time>2026-03-31T11:54:25Z</time></trkpt><trkpt lat="44.0635905" lon="10.4446147"><ele>168.0</ele><time>2026-03-31T11:54:27.999Z</time></trkpt><trkpt lat="44.0635691" lon="10.4444954"><ele>168.5</ele><time>2026-03-31T11:54:31Z</time></trkpt><trkpt lat="44.0635595" lon="10.4443746"><ele>169.0</ele><time>2026-03-31T11:54:33.999Z</time></trkpt><trkpt lat="44.0635416" lon="10.4442594"><ele>169.5</ele><time>2026-03-31T11:54:37Z</time></trkpt><trkpt lat="44.0635187" lon="10.4441547"><ele>170.0</ele><time>2026-03-31T11:54:40Z</time></trkpt><trkpt lat="44.0634955" lon="10.4440485"><ele>170.5</ele><time>2026-03-31T11:54:42.999Z</time></trkpt><trkpt lat="44.0634674" lon="10.4439378"><ele>171.0</ele><time>2026-03-31T11:54:46Z</time></trkpt><trkpt lat="44.0634434" lon="10.4438324"><ele>172.0</ele><time>2026-03-31T11:54:48.999Z</time></trkpt><trkpt lat="44.0634179" lon="10.4437262"><ele>173.0</ele><time>2026-03-31T11:54:51.999Z</time></trkpt><trkpt lat="44.0633902" lon="10.4436351"><ele>174.0</ele><time>2026-03-31T11:54:55Z</time></trkpt><trkpt lat="44.0633713" lon="10.4435193"><ele>175.0</ele><time>2026-03-31T11:54:58Z</time></trkpt><trkpt lat="44.0633466" lon="10.4434178"><ele>176.0</ele><time>2026-03-31T11:55:01Z</time></trkpt><trkpt lat="44.0633276" lon="10.4433133"><ele>177.0</ele><time>2026-03-31T11:55:04Z</time></trkpt><trkpt lat="44.063305" lon="10.4432071"><ele>177.0</ele><time>2026-03-31T11:55:07Z</time></trkpt><trkpt lat="44.0632869" lon="10.44311"><ele>177.0</ele><time>2026-03-31T11:55:10Z</time></trkpt><trkpt lat="44.0632699" lon="10.4429986"><ele>177.0</ele><time>2026-03-31T11:55:13Z</time></trkpt><trkpt lat="44.0632406" lon="10.4428821"><ele>177.0</ele><time>2026-03-31T11:55:15.999Z</time></trkpt><trkpt lat="44.0632173" lon="10.4427712"><ele>177.0</ele><time>2026-03-31T11:55:19Z</time></trkpt><trkpt lat="44.0631947" lon="10.4426618"><ele>177.0</ele><time>2026-03-31T11:55:22Z</time></trkpt><trkpt lat="44.0631716" lon="10.442554"><ele>177.83333333333334</ele><time>2026-03-31T11:55:25Z</time></trkpt><trkpt lat="44.0631444" lon="10.4424464"><ele>178.66666666666666</ele><time>2026-03-31T11:55:27.999Z</time></trkpt><trkpt lat="44.0631218" lon="10.4423434"><ele>179.5</ele><time>2026-03-31T11:55:31Z</time></trkpt><trkpt lat="44.0631044" lon="10.4422436"><ele>180.33333333333331</ele><time>2026-03-31T11:55:34Z</time></trkpt><trkpt lat="44.0630888" lon="10.4421511"><ele>181.16666666666666</ele><time>2026-03-31T11:55:37Z</time></trkpt><trkpt lat="44.0630656" lon="10.4420373"><ele>182.0</ele><time>2026-03-31T11:55:41Z</time></trkpt><trkpt lat="44.0630435" lon="10.4419243"><ele>182.5</ele><time>2026-03-31T11:55:44Z</time></trkpt><trkpt lat="44.0630144" lon="10.4418082"><ele>183.0</ele><time>2026-03-31T11:55:47Z</time></trkpt><trkpt lat="44.0629878" lon="10.4416983"><ele>183.5</ele><time>2026-03-31T11:55:49.999Z</time></trkpt><trkpt lat="44.0629672" lon="10.4415939"><ele>184.0</ele><time>2026-03-31T11:55:53Z</time></trkpt><trkpt lat="44.0629401" lon="10.4414948"><ele>184.5</ele><time>2026-03-31T11:55:56Z</time></trkpt><trkpt lat="44.0629189" lon="10.4413864"><ele>185.0</ele><time>2026-03-31T11:55:59Z</time></trkpt><trkpt lat="44.0628982" lon="10.4412796"><ele>185.33333333333331</ele><time>2026-03-31T11:56:01.999Z</time></trkpt><trkpt lat="44.0628944" lon="10.4411875"><ele>185.66666666666666</ele><time>2026-03-31T11:56:05Z</time></trkpt><trkpt lat="44.0628758" lon="10.4410789"><ele>186.0</ele><time>2026-03-31T11:56:08Z</time></trkpt><trkpt lat="44.062853" lon="10.4409635"><ele>186.33333333333334</ele><time>2026-03-31T11:56:10.999Z</time></trkpt><trkpt lat="44.0628235" lon="10.4408402"><ele>186.66666666666669</ele><time>2026-03-31T11:56:14Z</time></trkpt><trkpt lat="44.062798" lon="10.4407252"><ele>187.0</ele><time>2026-03-31T11:56:17Z</time></trkpt><trkpt lat="44.0627736" lon="10.4406205"><ele>187.0</ele><time>2026-03-31T11:56:20Z</time></trkpt><trkpt lat="44.0627502" lon="10.4405167"><ele>187.0</ele><time>2026-03-31T11:56:23Z</time></trkpt><trkpt lat="44.0627294" lon="10.4404081"><ele>187.0</ele><time>2026-03-31T11:56:25.999Z</time></trkpt><trkpt lat="44.0627064" lon="10.440298"><ele>187.0</ele><time>2026-03-31T11:56:29Z</time></trkpt><trkpt lat="44.0626886" lon="10.4402052"><ele>187.0</ele><time>2026-03-31T11:56:31.999Z</time></trkpt><trkpt lat="44.0626698" lon="10.4401111"><ele>187.0</ele><time>2026-03-31T11:56:35Z</time></trkpt><trkpt lat="44.0626403" lon="10.4399991"><ele>187.0</ele><time>2026-03-31T11:56:38Z</time></trkpt><trkpt lat="44.0626188" lon="10.4398875"><ele>187.0</ele><time>2026-03-31T11:56:41Z</time></trkpt><trkpt lat="44.0625905" lon="10.43978"><ele>187.0</ele><time>2026-03-31T11:56:43.999Z</time></trkpt><trkpt lat="44.0625743" lon="10.4396769"><ele>187.0</ele><time>2026-03-31T11:56:46.999Z</time></trkpt><trkpt lat="44.062548" lon="10.4395832"><ele>187.0</ele><time>2026-03-31T11:56:50Z</time></trkpt><trkpt lat="44.0625231" lon="10.4394933"><ele>187.0</ele><time>2026-03-31T11:56:52.999Z</time></trkpt><trkpt lat="44.0625002" lon="10.4393897"><ele>187.42857142857142</ele><time>2026-03-31T11:56:56Z</time></trkpt><trkpt lat="44.0624798" lon="10.4392874"><ele>187.85714285714286</ele><time>2026-03-31T11:56:59Z</time></trkpt><trkpt lat="44.0624576" lon="10.4391794"><ele>188.28571428571428</ele><time>2026-03-31T11:57:02Z</time></trkpt><trkpt lat="44.0624495" lon="10.439078"><ele>188.71428571428572</ele><time>2026-03-31T11:57:05.999Z</time></trkpt><trkpt lat="44.0625066" lon="10.439007"><ele>189.14285714285717</ele><time>2026-03-31T11:57:10Z</time></trkpt><trkpt lat="44.0625798" lon="10.4389938"><ele>189.57142857142858</ele><time>2026-03-31T11:57:15Z</time></trkpt><trkpt lat="44.062639" lon="10.439041"><ele>190.0</ele><time>2026-03-31T11:57:17.999Z</time></trkpt><trkpt lat="44.0627074" lon="10.4391018"><ele>190.0</ele><time>2026-03-31T11:57:20.999Z</time></trkpt><trkpt lat="44.0627848" lon="10.4391509"><ele>190.0</ele><time>2026-03-31T11:57:23.999Z</time></trkpt><trkpt lat="44.0628759" lon="10.4391605"><ele>190.0</ele><time>2026-03-31T11:57:27Z</time></trkpt><trkpt lat="44.0629421" lon="10.4391316"><ele>190.0</ele><time>2026-03-31T11:57:29.999Z</time></trkpt><trkpt lat="44.0630162" lon="10.4391468"><ele>190.0</ele><time>2026-03-31T11:57:34.999Z</time></trkpt><trkpt lat="44.0630723" lon="10.4392098"><ele>190.0</ele><time>2026-03-31T11:57:38Z</time></trkpt><trkpt lat="44.0631293" lon="10.4392664"><ele>190.0</ele><time>2026-03-31T11:57:41Z</time></trkpt><trkpt lat="44.0631941" lon="10.4393391"><ele>190.0</ele><time>2026-03-31T11:57:45Z</time></trkpt><trkpt lat="44.0632454" lon="10.4393967"><ele>190.0</ele><time>2026-03-31T11:57:48Z</time></trkpt><trkpt lat="44.0633085" lon="10.4394649"><ele>190.0</ele><time>2026-03-31T11:57:52Z</time></trkpt><trkpt lat="44.0633551" lon="10.4395283"><ele>190.0</ele><time>2026-03-31T11:57:54.999Z</time></trkpt><trkpt lat="44.0634146" lon="10.4395835"><ele>190.0</ele><time>2026-03-31T11:57:58.999Z</time></trkpt><trkpt lat="44.0634862" lon="10.4396526"><ele>189.71428571428572</ele><time>2026-03-31T11:58:03Z</time></trkpt><trkpt lat="44.06354" lon="10.4397097"><ele>189.42857142857144</ele><time>2026-03-31T11:58:05.999Z</time></trkpt><trkpt lat="44.0635931" lon="10.439765"><ele>189.14285714285714</ele><time>2026-03-31T11:58:09Z</time></trkpt><trkpt lat="44.0636482" lon="10.4398187"><ele>188.85714285714286</ele><time>2026-03-31T11:58:12Z</time></trkpt><trkpt lat="44.0637005" lon="10.4398751"><ele>188.57142857142856</ele><time>2026-03-31T11:58:15Z</time></trkpt><trkpt lat="44.0637577" lon="10.4399293"><ele>188.28571428571428</ele><time>2026-03-31T11:58:17.999Z</time></trkpt><trkpt lat="44.0638233" lon="10.4399825"><ele>188.0</ele><time>2026-03-31T11:58:21.999Z</time></trkpt><trkpt lat="44.0638985" lon="10.4400265"><ele>188.0</ele><time>2026-03-31T11:58:25.999Z</time></trkpt><trkpt lat="44.0639725" lon="10.4400339"><ele>188.0</ele><time>2026-03-31T11:58:29.999Z</time></trkpt><trkpt lat="44.0640357" lon="10.4400384"><ele>188.0</ele><time>2026-03-31T11:58:32.999Z</time></trkpt><trkpt lat="44.0641022" lon="10.4400209"><ele>188.0</ele><time>2026-03-31T11:58:36Z</time></trkpt><trkpt lat="44.0641741" lon="10.4399884"><ele>188.0</ele><time>2026-03-31T11:58:39Z</time></trkpt><trkpt lat="44.0642404" lon="10.4399526"><ele>188.0</ele><time>2026-03-31T11:58:41.999Z</time></trkpt><trkpt lat="44.0643184" lon="10.4399268"><ele>188.0</ele><time>2026-03-31T11:58:45.999Z</time></trkpt><trkpt lat="44.0643776" lon="10.4398763"><ele>188.85714285714286</ele><time>2026-03-31T11:58:48.999Z</time></trkpt><trkpt lat="44.0644366" lon="10.4397946"><ele>189.71428571428572</ele><time>2026-03-31T11:58:53Z</time></trkpt><trkpt lat="44.064452" lon="10.4396843"><ele>190.57142857142856</ele><time>2026-03-31T11:58:57Z</time></trkpt><trkpt lat="44.0644367" lon="10.4395993"><ele>191.42857142857144</ele><time>2026-03-31T11:59:00Z</time></trkpt><trkpt lat="44.0644019" lon="10.4394972"><ele>192.2857142857143</ele><time>2026-03-31T11:59:04Z</time></trkpt><trkpt lat="44.0643668" lon="10.4394227"><ele>193.14285714285714</ele><time>2026-03-31T11:59:06.999Z</time></trkpt><trkpt lat="44.0643353" lon="10.439344"><ele>194.0</ele><time>2026-03-31T11:59:09.999Z</time></trkpt><trkpt lat="44.0643004" lon="10.4392416"><ele>195.42857142857142</ele><time>2026-03-31T11:59:15Z</time></trkpt><trkpt lat="44.0642892" lon="10.439143"><ele>196.85714285714286</ele><time>2026-03-31T11:59:18.999Z</time></trkpt><trkpt lat="44.0642973" lon="10.439037"><ele>198.28571428571428</ele><time>2026-03-31T11:59:23Z</time></trkpt><trkpt lat="44.0643216" lon="10.4389533"><ele>199.71428571428572</ele><time>2026-03-31T11:59:26Z</time></trkpt><trkpt lat="44.0643591" lon="10.4388678"><ele>201.14285714285717</ele><time>2026-03-31T11:59:29Z</time></trkpt><trkpt lat="44.0644194" lon="10.4388146"><ele>202.57142857142858</ele><time>2026-03-31T11:59:33Z</time></trkpt><trkpt lat="44.0644881" lon="10.4388224"><ele>204.0</ele><time>2026-03-31T11:59:37Z</time></trkpt><trkpt lat="44.0645651" lon="10.4388544"><ele>204.0</ele><time>2026-03-31T11:59:41Z</time></trkpt><trkpt lat="44.0646298" lon="10.4388862"><ele>204.0</ele><time>2026-03-31T11:59:45Z</time></trkpt><trkpt lat="44.0647074" lon="10.4389011"><ele>204.0</ele><time>2026-03-31T11:59:49Z</time></trkpt><trkpt lat="44.0647807" lon="10.4388869"><ele>204.0</ele><time>2026-03-31T11:59:52.999Z</time></trkpt><trkpt lat="44.0648406" lon="10.4388589"><ele>204.0</ele><time>2026-03-31T11:59:56Z</time></trkpt><trkpt lat="44.0649128" lon="10.4388056"><ele>204.0</ele><time>2026-03-31T12:00:00Z</time></trkpt><trkpt lat="44.0649658" lon="10.4387467"><ele>204.0</ele><time>2026-03-31T12:00:03Z</time></trkpt><trkpt lat="44.0650176" lon="10.4386843"><ele>206.28571428571428</ele><time>2026-03-31T12:00:05.999Z</time></trkpt><trkpt lat="44.0650649" lon="10.4386228"><ele>208.57142857142858</ele><time>2026-03-31T12:00:09Z</time></trkpt><trkpt lat="44.065106" lon="10.4385456"><ele>210.85714285714283</ele><time>2026-03-31T12:00:13Z</time></trkpt><trkpt lat="44.0651534" lon="10.4384669"><ele>213.14285714285714</ele><time>2026-03-31T12:00:17Z</time></trkpt><trkpt lat="44.065204" lon="10.4383852"><ele>215.42857142857142</ele><time>2026-03-31T12:00:20.999Z</time></trkpt><trkpt lat="44.0652556" lon="10.4383219"><ele>217.7142857142857</ele><time>2026-03-31T12:00:24.999Z</time></trkpt><trkpt lat="44.0653175" lon="10.4382504"><ele>220.0</ele><time>2026-03-31T12:00:29Z</time></trkpt><trkpt lat="44.0653808" lon="10.4381797"><ele>219.99999999999997</ele><time>2026-03-31T12:00:33Z</time></trkpt><trkpt lat="44.0654487" lon="10.4381493"><ele>220.0</ele><time>2026-03-31T12:00:36Z</time></trkpt><trkpt lat="44.0655141" lon="10.4381637"><ele>220.0</ele><time>2026-03-31T12:00:39Z</time></trkpt><trkpt lat="44.0655809" lon="10.4382322"><ele>220.0</ele><time>2026-03-31T12:00:43Z</time></trkpt><trkpt lat="44.0655991" lon="10.4383258"><ele>220.0</ele><time>2026-03-31T12:00:47Z</time></trkpt><trkpt lat="44.0655855" lon="10.4384188"><ele>219.99999999999997</ele><time>2026-03-31T12:00:50.999Z</time></trkpt><trkpt lat="44.0655731" lon="10.4385124"><ele>220.0</ele><time>2026-03-31T12:00:55Z</time></trkpt><trkpt lat="44.0655616" lon="10.4386134"><ele>219.99999999999997</ele><time>2026-03-31T12:00:59Z</time></trkpt><trkpt lat="44.0655511" lon="10.4387283"><ele>220.0</ele><time>2026-03-31T12:01:03.025Z</time></trkpt><trkpt lat="44.0655286" lon="10.4388293"><ele>220.0</ele><time>2026-03-31T12:01:06.999Z</time></trkpt><trkpt lat="44.0655035" lon="10.4389252"><ele>220.0</ele><time>2026-03-31T12:01:11.054Z</time></trkpt><trkpt lat="44.0654885" lon="10.439026"><ele>219.99999999999997</ele><time>2026-03-31T12:01:15.012Z</time></trkpt><trkpt lat="44.0654966" lon="10.4391298"><ele>220.0</ele><time>2026-03-31T12:01:19Z</time></trkpt><trkpt lat="44.065518" lon="10.4392245"><ele>220.66666666666666</ele><time>2026-03-31T12:01:23.04Z</time></trkpt><trkpt lat="44.0655767" lon="10.4392996"><ele>221.33333333333331</ele><time>2026-03-31T12:01:26.999Z</time></trkpt><trkpt lat="44.0656412" lon="10.4393536"><ele>222.0</ele><time>2026-03-31T12:01:31.069Z</time></trkpt><trkpt lat="44.0657132" lon="10.4393419"><ele>222.66666666666669</ele><time>2026-03-31T12:01:35.025Z</time></trkpt><trkpt lat="44.0657802" lon="10.4393244"><ele>223.33333333333334</ele><time>2026-03-31T12:01:39Z</time></trkpt><trkpt lat="44.0658575" lon="10.4393036"><ele>224.0</ele><time>2026-03-31T12:01:44Z</time></trkpt><trkpt lat="44.0659321" lon="10.4392792"><ele>224.00000000000003</ele><time>2026-03-31T12:01:49Z</time></trkpt><trkpt lat="44.0660089" lon="10.4392545"><ele>224.0</ele><time>2026-03-31T12:01:54.033Z</time></trkpt><trkpt lat="44.066079" lon="10.4392262"><ele>224.0</ele><time>2026-03-31T12:01:56.999Z</time></trkpt><trkpt lat="44.0661498" lon="10.4391836"><ele>224.0</ele><time>2026-03-31T12:02:02Z</time></trkpt><trkpt lat="44.0662295" lon="10.4391607"><ele>224.00000000000003</ele><time>2026-03-31T12:02:06.019Z</time></trkpt><trkpt lat="44.0663092" lon="10.4391424"><ele>224.0</ele><time>2026-03-31T12:02:10Z</time></trkpt><trkpt lat="44.0663875" lon="10.4391183"><ele>224.0</ele><time>2026-03-31T12:02:13.999Z</time></trkpt><trkpt lat="44.0664526" lon="10.4390744"><ele>224.0</ele><time>2026-03-31T12:02:18Z</time></trkpt><trkpt lat="44.0665207" lon="10.4390187"><ele>224.0</ele><time>2026-03-31T12:02:22Z</time></trkpt><trkpt lat="44.0665829" lon="10.4389715"><ele>224.0</ele><time>2026-03-31T12:02:26Z</time></trkpt><trkpt lat="44.0666517" lon="10.4389245"><ele>224.0</ele><time>2026-03-31T12:02:31Z</time></trkpt><trkpt lat="44.0667066" lon="10.4388627"><ele>224.0</ele><time>2026-03-31T12:02:35Z</time></trkpt><trkpt lat="44.0667563" lon="10.4387829"><ele>224.0</ele><time>2026-03-31T12:02:39Z</time></trkpt><trkpt lat="44.0667936" lon="10.4386965"><ele>228.33333333333334</ele><time>2026-03-31T12:02:43Z</time></trkpt><trkpt lat="44.0668408" lon="10.4386117"><ele>232.66666666666669</ele><time>2026-03-31T12:02:47Z</time></trkpt><trkpt lat="44.0668823" lon="10.4385219"><ele>237.0</ele><time>2026-03-31T12:02:52Z</time></trkpt><trkpt lat="44.0669016" lon="10.438433"><ele>241.33333333333331</ele><time>2026-03-31T12:02:56Z</time></trkpt><trkpt lat="44.0669443" lon="10.4383423"><ele>245.66666666666666</ele><time>2026-03-31T12:03:00Z</time></trkpt><trkpt lat="44.066997" lon="10.4382608"><ele>250.0</ele><time>2026-03-31T12:03:04Z</time></trkpt><trkpt lat="44.0670546" lon="10.438197"><ele>250.0</ele><time>2026-03-31T12:03:08Z</time></trkpt><trkpt lat="44.0671241" lon="10.4381566"><ele>250.0</ele><time>2026-03-31T12:03:13Z</time></trkpt><trkpt lat="44.0671929" lon="10.4381113"><ele>250.0</ele><time>2026-03-31T12:03:17Z</time></trkpt><trkpt lat="44.0672594" lon="10.4380679"><ele>250.0</ele><time>2026-03-31T12:03:21Z</time></trkpt><trkpt lat="44.0673268" lon="10.4380476"><ele>250.0</ele><time>2026-03-31T12:03:25Z</time></trkpt><trkpt lat="44.0673862" lon="10.4380122"><ele>250.0</ele><time>2026-03-31T12:03:29Z</time></trkpt><trkpt lat="44.0674542" lon="10.4379735"><ele>250.0</ele><time>2026-03-31T12:03:34Z</time></trkpt><trkpt lat="44.0675222" lon="10.4379255"><ele>252.42857142857142</ele><time>2026-03-31T12:03:38.999Z</time></trkpt><trkpt lat="44.0675905" lon="10.4378953"><ele>254.8571428571429</ele><time>2026-03-31T12:03:43Z</time></trkpt><trkpt lat="44.0676505" lon="10.4378472"><ele>257.28571428571433</ele><time>2026-03-31T12:03:48Z</time></trkpt><trkpt lat="44.0677167" lon="10.4377867"><ele>259.7142857142857</ele><time>2026-03-31T12:03:53Z</time></trkpt><trkpt lat="44.0677783" lon="10.4377207"><ele>262.14285714285717</ele><time>2026-03-31T12:03:57.999Z</time></trkpt><trkpt lat="44.0678371" lon="10.4376619"><ele>264.5714285714286</ele><time>2026-03-31T12:04:03Z</time></trkpt><trkpt lat="44.0678943" lon="10.4376189"><ele>267.0</ele><time>2026-03-31T12:04:08Z</time></trkpt><trkpt lat="44.0679647" lon="10.4375918"><ele>267.00000000000006</ele><time>2026-03-31T12:04:13Z</time></trkpt><trkpt lat="44.0680364" lon="10.4376052"><ele>267.0</ele><time>2026-03-31T12:04:17Z</time></trkpt><trkpt lat="44.0681129" lon="10.4376225"><ele>267.0</ele><time>2026-03-31T12:04:22Z</time></trkpt><trkpt lat="44.068187" lon="10.4376154"><ele>267.0</ele><time>2026-03-31T12:04:26Z</time></trkpt><trkpt lat="44.0682622" lon="10.4376162"><ele>267.0</ele><time>2026-03-31T12:04:30Z</time></trkpt><trkpt lat="44.0683347" lon="10.4376248"><ele>267.00000000000006</ele><time>2026-03-31T12:04:33Z</time></trkpt><trkpt lat="44.0684048" lon="10.4376352"><ele>267.0</ele><time>2026-03-31T12:04:36Z</time></trkpt><trkpt lat="44.0684885" lon="10.4376411"><ele>266.14285714285717</ele><time>2026-03-31T12:04:40Z</time></trkpt><trkpt lat="44.0685582" lon="10.4376362"><ele>265.2857142857143</ele><time>2026-03-31T12:04:43Z</time></trkpt><trkpt lat="44.0686295" lon="10.4376217"><ele>264.42857142857144</ele><time>2026-03-31T12:04:46Z</time></trkpt><trkpt lat="44.0686963" lon="10.4376031"><ele>263.57142857142856</ele><time>2026-03-31T12:04:49Z</time></trkpt><trkpt lat="44.0687561" lon="10.4375742"><ele>262.7142857142857</ele><time>2026-03-31T12:04:52Z</time></trkpt><trkpt lat="44.0688247" lon="10.4375138"><ele>261.8571428571429</ele><time>2026-03-31T12:04:56Z</time></trkpt><trkpt lat="44.0688893" lon="10.4374506"><ele>261.0</ele><time>2026-03-31T12:04:59.999Z</time></trkpt><trkpt lat="44.0689411" lon="10.4373964"><ele>261.0</ele><time>2026-03-31T12:05:03Z</time></trkpt><trkpt lat="44.0689924" lon="10.4373401"><ele>261.0</ele><time>2026-03-31T12:05:06Z</time></trkpt><trkpt lat="44.0690472" lon="10.4372634"><ele>261.0</ele><time>2026-03-31T12:05:09.999Z</time></trkpt><trkpt lat="44.0690985" lon="10.4371847"><ele>261.0</ele><time>2026-03-31T12:05:14Z</time></trkpt><trkpt lat="44.0691259" lon="10.4370926"><ele>261.0</ele><time>2026-03-31T12:05:18Z</time></trkpt><trkpt lat="44.0691616" lon="10.4369999"><ele>261.0</ele><time>2026-03-31T12:05:22Z</time></trkpt><trkpt lat="44.0692131" lon="10.4369325"><ele>261.0</ele><time>2026-03-31T12:05:25.999Z</time></trkpt><trkpt lat="44.0692723" lon="10.4368973"><ele>262.42857142857144</ele><time>2026-03-31T12:05:30Z</time></trkpt><trkpt lat="44.069349" lon="10.4368789"><ele>263.85714285714283</ele><time>2026-03-31T12:05:34Z</time></trkpt><trkpt lat="44.0694134" lon="10.4368333"><ele>265.2857142857143</ele><time>2026-03-31T12:05:38Z</time></trkpt><trkpt lat="44.069454" lon="10.4367393"><ele>266.7142857142857</ele><time>2026-03-31T12:05:42Z</time></trkpt><trkpt lat="44.0694594" lon="10.4366409"><ele>268.14285714285717</ele><time>2026-03-31T12:05:45.999Z</time></trkpt><trkpt lat="44.0694227" lon="10.4365635"><ele>269.57142857142856</ele><time>2026-03-31T12:05:49Z</time></trkpt><trkpt lat="44.0693567" lon="10.4365005"><ele>271.0</ele><time>2026-03-31T12:05:53Z</time></trkpt><trkpt lat="44.0692774" lon="10.4365109"><ele>271.0</ele><time>2026-03-31T12:05:56.999Z</time></trkpt><trkpt lat="44.069204" lon="10.4365557"><ele>271.0</ele><time>2026-03-31T12:06:01Z</time></trkpt><trkpt lat="44.0691349" lon="10.4365918"><ele>271.0</ele><time>2026-03-31T12:06:04.999Z</time></trkpt><trkpt lat="44.0690726" lon="10.4366302"><ele>271.0</ele><time>2026-03-31T12:06:08Z</time></trkpt><trkpt lat="44.069012" lon="10.4366549"><ele>271.0</ele><time>2026-03-31T12:06:11.999Z</time></trkpt><trkpt lat="44.0689432" lon="10.4366933"><ele>271.0</ele><time>2026-03-31T12:06:16Z</time></trkpt><trkpt lat="44.0688759" lon="10.4367405"><ele>271.0</ele><time>2026-03-31T12:06:20Z</time></trkpt><trkpt lat="44.0687923" lon="10.4367622"><ele>273.2857142857143</ele><time>2026-03-31T12:06:25Z</time></trkpt><trkpt lat="44.0687282" lon="10.4367664"><ele>275.57142857142856</ele><time>2026-03-31T12:06:28Z</time></trkpt><trkpt lat="44.0686552" lon="10.436767"><ele>277.8571428571429</ele><time>2026-03-31T12:06:32Z</time></trkpt><trkpt lat="44.0685757" lon="10.4367562"><ele>280.1428571428571</ele><time>2026-03-31T12:06:35.999Z</time></trkpt><trkpt lat="44.0685063" lon="10.4367447"><ele>282.42857142857144</ele><time>2026-03-31T12:06:39Z</time></trkpt><trkpt lat="44.0684314" lon="10.4367471"><ele>284.7142857142857</ele><time>2026-03-31T12:06:41.999Z</time></trkpt><trkpt lat="44.0683631" lon="10.4367446"><ele>287.0</ele><time>2026-03-31T12:06:45Z</time></trkpt><trkpt lat="44.0682893" lon="10.4367358"><ele>286.42857142857144</ele><time>2026-03-31T12:06:48Z</time></trkpt><trkpt lat="44.0682207" lon="10.4367412"><ele>285.8571428571429</ele><time>2026-03-31T12:06:51Z</time></trkpt><trkpt lat="44.068155" lon="10.4367514"><ele>285.2857142857143</ele><time>2026-03-31T12:06:54Z</time></trkpt><trkpt lat="44.0680902" lon="10.4367551"><ele>284.7142857142857</ele><time>2026-03-31T12:06:57Z</time></trkpt><trkpt lat="44.0680094" lon="10.4367576"><ele>284.14285714285717</ele><time>2026-03-31T12:07:01Z</time></trkpt><trkpt lat="44.0679357" lon="10.4367551"><ele>283.57142857142856</ele><time>2026-03-31T12:07:04Z</time></trkpt><trkpt lat="44.0678716" lon="10.4367736"><ele>283.0</ele><time>2026-03-31T12:07:06.999Z</time></trkpt><trkpt lat="44.0677973" lon="10.4367993"><ele>283.0</ele><time>2026-03-31T12:07:11Z</time></trkpt><trkpt lat="44.0677177" lon="10.436831"><ele>283.0</ele><time>2026-03-31T12:07:15Z</time></trkpt><trkpt lat="44.0676542" lon="10.4368607"><ele>283.0</ele><time>2026-03-31T12:07:18.102Z</time></trkpt><trkpt lat="44.0675897" lon="10.4368686"><ele>283.0</ele><time>2026-03-31T12:07:20.999Z</time></trkpt><trkpt lat="44.0675328" lon="10.4368127"><ele>283.0</ele><time>2026-03-31T12:07:24Z</time></trkpt><trkpt lat="44.0675612" lon="10.4367239"><ele>283.0</ele><time>2026-03-31T12:07:28Z</time></trkpt><trkpt lat="44.0676275" lon="10.4366963"><ele>283.0</ele><time>2026-03-31T12:07:32Z</time></trkpt><trkpt lat="44.0676996" lon="10.4366824"><ele>283.0</ele><time>2026-03-31T12:07:36Z</time></trkpt><trkpt lat="44.0677636" lon="10.4366626"><ele>283.0</ele><time>2026-03-31T12:07:40Z</time></trkpt><trkpt lat="44.067827" lon="10.4366387"><ele>283.0</ele><time>2026-03-31T12:07:43.999Z</time></trkpt><trkpt lat="44.0679041" lon="10.4366178"><ele>283.0</ele><time>2026-03-31T12:07:47.999Z</time></trkpt><trkpt lat="44.0679736" lon="10.4365841"><ele>283.0</ele><time>2026-03-31T12:07:51.999Z</time></trkpt><trkpt lat="44.0680375" lon="10.436562"><ele>283.0</ele><time>2026-03-31T12:07:55.999Z</time></trkpt><trkpt lat="44.0681035" lon="10.4365378"><ele>283.0</ele><time>2026-03-31T12:08:00Z</time></trkpt><trkpt lat="44.0681797" lon="10.4365177"><ele>283.0</ele><time>2026-03-31T12:08:05Z</time></trkpt><trkpt lat="44.0682445" lon="10.4364834"><ele>283.0</ele><time>2026-03-31T12:08:09Z</time></trkpt><trkpt lat="44.0683124" lon="10.4364554"><ele>283.0</ele><time>2026-03-31T12:08:13Z</time></trkpt><trkpt lat="44.0683763" lon="10.4364292"><ele>283.0</ele><time>2026-03-31T12:08:17Z</time></trkpt><trkpt lat="44.0684534" lon="10.4363872"><ele>283.0</ele><time>2026-03-31T12:08:21Z</time></trkpt><trkpt lat="44.0685215" lon="10.4363438"><ele>283.0</ele><time>2026-03-31T12:08:25Z</time></trkpt><trkpt lat="44.0685888" lon="10.4362995"><ele>283.0</ele><time>2026-03-31T12:08:27.999Z</time></trkpt><trkpt lat="44.0686439" lon="10.4362537"><ele>286.2857142857143</ele><time>2026-03-31T12:08:31Z</time></trkpt><trkpt lat="44.0687045" lon="10.4362015"><ele>289.5714285714286</ele><time>2026-03-31T12:08:33.999Z</time></trkpt><trkpt lat="44.0687664" lon="10.4361625"><ele>292.8571428571429</ele><time>2026-03-31T12:08:37Z</time></trkpt><trkpt lat="44.0688318" lon="10.4361219"><ele>296.14285714285717</ele><time>2026-03-31T12:08:40Z</time></trkpt><trkpt lat="44.0688944" lon="10.436098"><ele>299.42857142857144</ele><time>2026-03-31T12:08:43Z</time></trkpt><trkpt lat="44.068963" lon="10.4360698"><ele>302.7142857142857</ele><time>2026-03-31T12:08:46Z</time></trkpt><trkpt lat="44.0690283" lon="10.4360347"><ele>306.0</ele><time>2026-03-31T12:08:49Z</time></trkpt><trkpt lat="44.0690979" lon="10.4359955"><ele>305.6666666666667</ele><time>2026-03-31T12:08:52Z</time></trkpt><trkpt lat="44.0691605" lon="10.435929"><ele>305.3333333333333</ele><time>2026-03-31T12:08:55Z</time></trkpt><trkpt lat="44.0692134" lon="10.4358446"><ele>305.0</ele><time>2026-03-31T12:08:58Z</time></trkpt><trkpt lat="44.0692651" lon="10.4357615"><ele>304.66666666666663</ele><time>2026-03-31T12:09:00.999Z</time></trkpt><trkpt lat="44.0693071" lon="10.4356669"><ele>304.3333333333333</ele><time>2026-03-31T12:09:04Z</time></trkpt><trkpt lat="44.0693485" lon="10.4355889"><ele>304.0</ele><time>2026-03-31T12:09:07Z</time></trkpt><trkpt lat="44.0693898" lon="10.4355051"><ele>305.85714285714283</ele><time>2026-03-31T12:09:10Z</time></trkpt><trkpt lat="44.069426" lon="10.4354253"><ele>307.7142857142857</ele><time>2026-03-31T12:09:12.999Z</time></trkpt><trkpt lat="44.0694586" lon="10.4353406"><ele>309.57142857142856</ele><time>2026-03-31T12:09:15.999Z</time></trkpt><trkpt lat="44.0694853" lon="10.4352299"><ele>311.42857142857144</ele><time>2026-03-31T12:09:20Z</time></trkpt><trkpt lat="44.0695084" lon="10.4351411"><ele>313.2857142857143</ele><time>2026-03-31T12:09:23Z</time></trkpt><trkpt lat="44.0695251" lon="10.4350462"><ele>315.14285714285717</ele><time>2026-03-31T12:09:26Z</time></trkpt><trkpt lat="44.0695436" lon="10.4349466"><ele>317.0</ele><time>2026-03-31T12:09:28.999Z</time></trkpt><trkpt lat="44.0695546" lon="10.4348594"><ele>317.0</ele><time>2026-03-31T12:09:32Z</time></trkpt><trkpt lat="44.0695687" lon="10.4347493"><ele>317.0</ele><time>2026-03-31T12:09:35.999Z</time></trkpt><trkpt lat="44.0695821" lon="10.4346573"><ele>317.0</ele><time>2026-03-31T12:09:39Z</time></trkpt><trkpt lat="44.0695997" lon="10.434546"><ele>317.0</ele><time>2026-03-31T12:09:43Z</time></trkpt><trkpt lat="44.0696251" lon="10.4344358"><ele>317.0</ele><time>2026-03-31T12:09:46.999Z</time></trkpt><trkpt lat="44.0696548" lon="10.4343551"><ele>317.0</ele><time>2026-03-31T12:09:50Z</time></trkpt><trkpt lat="44.0697007" lon="10.4342667"><ele>317.8571428571429</ele><time>2026-03-31T12:09:54Z</time></trkpt><trkpt lat="44.0697729" lon="10.4342091"><ele>318.7142857142857</ele><time>2026-03-31T12:09:58Z</time></trkpt><trkpt lat="44.0698379" lon="10.4341834"><ele>319.57142857142856</ele><time>2026-03-31T12:10:00.999Z</time></trkpt><trkpt lat="44.0699071" lon="10.4341731"><ele>320.42857142857144</ele><time>2026-03-31T12:10:04Z</time></trkpt><trkpt lat="44.0699711" lon="10.4341676"><ele>321.2857142857143</ele><time>2026-03-31T12:10:06.999Z</time></trkpt><trkpt lat="44.0700517" lon="10.4341507"><ele>322.14285714285717</ele><time>2026-03-31T12:10:11Z</time></trkpt><trkpt lat="44.0701256" lon="10.434125"><ele>323.0</ele><time>2026-03-31T12:10:14Z</time></trkpt><trkpt lat="44.0702068" lon="10.4341004"><ele>323.00000000000006</ele><time>2026-03-31T12:10:18Z</time></trkpt><trkpt lat="44.0702849" lon="10.4340766"><ele>323.0</ele><time>2026-03-31T12:10:22Z</time></trkpt><trkpt lat="44.0703458" lon="10.434043"><ele>323.0</ele><time>2026-03-31T12:10:25Z</time></trkpt><trkpt lat="44.0704078" lon="10.4339976"><ele>323.0</ele><time>2026-03-31T12:10:27.999Z</time></trkpt><trkpt lat="44.0704521" lon="10.4339206"><ele>323.0</ele><time>2026-03-31T12:10:31Z</time></trkpt><trkpt lat="44.0704778" lon="10.4338362"><ele>323.00000000000006</ele><time>2026-03-31T12:10:33.999Z</time></trkpt><trkpt lat="44.0704534" lon="10.4337403"><ele>323.0</ele><time>2026-03-31T12:10:38Z</time></trkpt><trkpt lat="44.0703972" lon="10.4337003"><ele>325.5714285714286</ele><time>2026-03-31T12:10:40.999Z</time></trkpt><trkpt lat="44.0703208" lon="10.4336893"><ele>328.14285714285717</ele><time>2026-03-31T12:10:45Z</time></trkpt><trkpt lat="44.0702479" lon="10.4337117"><ele>330.7142857142857</ele><time>2026-03-31T12:10:49Z</time></trkpt><trkpt lat="44.0701769" lon="10.433738"><ele>333.28571428571433</ele><time>2026-03-31T12:10:52.999Z</time></trkpt><trkpt lat="44.0701141" lon="10.4337549"><ele>335.8571428571429</ele><time>2026-03-31T12:10:55.999Z</time></trkpt><trkpt lat="44.0700381" lon="10.4337706"><ele>338.42857142857144</ele><time>2026-03-31T12:10:59.999Z</time></trkpt><trkpt lat="44.069966" lon="10.4337692"><ele>341.0</ele><time>2026-03-31T12:11:04Z</time></trkpt><trkpt lat="44.0698884" lon="10.4337747"><ele>341.7142857142857</ele><time>2026-03-31T12:11:08Z</time></trkpt><trkpt lat="44.0698211" lon="10.4337688"><ele>342.42857142857144</ele><time>2026-03-31T12:11:11Z</time></trkpt><trkpt lat="44.0697453" lon="10.4337755"><ele>343.1428571428571</ele><time>2026-03-31T12:11:15Z</time></trkpt><trkpt lat="44.0696642" lon="10.4337945"><ele>343.8571428571429</ele><time>2026-03-31T12:11:19Z</time></trkpt><trkpt lat="44.069599" lon="10.4338328"><ele>344.5714285714286</ele><time>2026-03-31T12:11:22Z</time></trkpt><trkpt lat="44.0695355" lon="10.4338467"><ele>345.2857142857143</ele><time>2026-03-31T12:11:26Z</time></trkpt><trkpt lat="44.0694718" lon="10.433884"><ele>346.0</ele><time>2026-03-31T12:11:31Z</time></trkpt><trkpt lat="44.069397" lon="10.4339066"><ele>346.0</ele><time>2026-03-31T12:11:34Z</time></trkpt><trkpt lat="44.0693283" lon="10.4339064"><ele>346.0</ele><time>2026-03-31T12:11:37Z</time></trkpt><trkpt lat="44.0692562" lon="10.4338739"><ele>346.0</ele><time>2026-03-31T12:11:40.999Z</time></trkpt><trkpt lat="44.0692166" lon="10.4337914"><ele>346.0</ele><time>2026-03-31T12:11:45.999Z</time></trkpt><trkpt lat="44.0692448" lon="10.4337065"><ele>346.0</ele><time>2026-03-31T12:11:50Z</time></trkpt><trkpt lat="44.0693013" lon="10.433663"><ele>346.0</ele><time>2026-03-31T12:11:54Z</time></trkpt><trkpt lat="44.0693745" lon="10.4336369"><ele>346.0</ele><time>2026-03-31T12:11:58Z</time></trkpt><trkpt lat="44.0694395" lon="10.4336046"><ele>346.0</ele><time>2026-03-31T12:12:01.999Z</time></trkpt><trkpt lat="44.0695184" lon="10.433558"><ele>346.0</ele><time>2026-03-31T12:12:07Z</time></trkpt><trkpt lat="44.0695806" lon="10.4334906"><ele>346.0</ele><time>2026-03-31T12:12:10.999Z</time></trkpt><trkpt lat="44.0696317" lon="10.4334283"><ele>346.0</ele><time>2026-03-31T12:12:14Z</time></trkpt><trkpt lat="44.069699" lon="10.4333598"><ele>346.0</ele><time>2026-03-31T12:12:17.999Z</time></trkpt><trkpt lat="44.0697448" lon="10.4332877"><ele>346.0</ele><time>2026-03-31T12:12:22Z</time></trkpt><trkpt lat="44.0697968" lon="10.4332236"><ele>346.0</ele><time>2026-03-31T12:12:25Z</time></trkpt><trkpt lat="44.0698506" lon="10.4331675"><ele>346.0</ele><time>2026-03-31T12:12:27.999Z</time></trkpt><trkpt lat="44.069907" lon="10.4331119"><ele>346.0</ele><time>2026-03-31T12:12:31Z</time></trkpt><trkpt lat="44.0699646" lon="10.4330682"><ele>346.0</ele><time>2026-03-31T12:12:33.999Z</time></trkpt><trkpt lat="44.0700418" lon="10.4330178"><ele>346.0</ele><time>2026-03-31T12:12:38Z</time></trkpt><trkpt lat="44.0701129" lon="10.4329592"><ele>346.0</ele><time>2026-03-31T12:12:42Z</time></trkpt><trkpt lat="44.0701751" lon="10.4329053"><ele>346.0</ele><time>2026-03-31T12:12:46Z</time></trkpt><trkpt lat="44.0702441" lon="10.4328548"><ele>348.0</ele><time>2026-03-31T12:12:50Z</time></trkpt><trkpt lat="44.0703115" lon="10.4327994"><ele>350.0</ele><time>2026-03-31T12:12:54Z</time></trkpt><trkpt lat="44.070385" lon="10.4327594"><ele>352.0</ele><time>2026-03-31T12:12:57.999Z</time></trkpt><trkpt lat="44.0704432" lon="10.4327193"><ele>354.0</ele><time>2026-03-31T12:13:01Z</time></trkpt><trkpt lat="44.0705133" lon="10.4326709"><ele>356.0</ele><time>2026-03-31T12:13:04.999Z</time></trkpt><trkpt lat="44.0705731" lon="10.4326196"><ele>358.0</ele><time>2026-03-31T12:13:09Z</time></trkpt><trkpt lat="44.0706447" lon="10.4325846"><ele>360.0</ele><time>2026-03-31T12:13:12.999Z</time></trkpt><trkpt lat="44.0707103" lon="10.4325209"><ele>360.0</ele><time>2026-03-31T12:13:17Z</time></trkpt><trkpt lat="44.0707662" lon="10.4324659"><ele>360.0</ele><time>2026-03-31T12:13:19.999Z</time></trkpt><trkpt lat="44.0708124" lon="10.4324008"><ele>360.0</ele><time>2026-03-31T12:13:23Z</time></trkpt><trkpt lat="44.0708528" lon="10.432305"><ele>360.0</ele><time>2026-03-31T12:13:27Z</time></trkpt><trkpt lat="44.0708175" lon="10.4321981"><ele>360.0</ele><time>2026-03-31T12:13:30.999Z</time></trkpt><trkpt lat="44.0707796" lon="10.4321213"><ele>360.0</ele><time>2026-03-31T12:13:34Z</time></trkpt><trkpt lat="44.0707328" lon="10.4320423"><ele>360.0</ele><time>2026-03-31T12:13:37.999Z</time></trkpt><trkpt lat="44.0706722" lon="10.4319715"><ele>359.7142857142857</ele><time>2026-03-31T12:13:41.999Z</time></trkpt><trkpt lat="44.0706142" lon="10.4319002"><ele>359.42857142857144</ele><time>2026-03-31T12:13:46Z</time></trkpt><trkpt lat="44.0705563" lon="10.431843"><ele>359.14285714285717</ele><time>2026-03-31T12:13:49Z</time></trkpt><trkpt lat="44.0704967" lon="10.4317973"><ele>358.8571428571429</ele><time>2026-03-31T12:13:52Z</time></trkpt><trkpt lat="44.0704229" lon="10.4317594"><ele>358.57142857142856</ele><time>2026-03-31T12:13:55Z</time></trkpt><trkpt lat="44.0703518" lon="10.4317333"><ele>358.28571428571433</ele><time>2026-03-31T12:13:57.999Z</time></trkpt><trkpt lat="44.0702854" lon="10.4317035"><ele>358.0</ele><time>2026-03-31T12:14:01Z</time></trkpt><trkpt lat="44.0701982" lon="10.4316531"><ele>358.0</ele><time>2026-03-31T12:14:04Z</time></trkpt><trkpt lat="44.0701115" lon="10.4316036"><ele>358.0</ele><time>2026-03-31T12:14:07Z</time></trkpt><trkpt lat="44.0700276" lon="10.4315617"><ele>358.0</ele><time>2026-03-31T12:14:09.999Z</time></trkpt><trkpt lat="44.0699535" lon="10.43153"><ele>358.0</ele><time>2026-03-31T12:14:13Z</time></trkpt><trkpt lat="44.0698681" lon="10.4314899"><ele>358.0</ele><time>2026-03-31T12:14:16Z</time></trkpt><trkpt lat="44.0697905" lon="10.4314728"><ele>358.0</ele><time>2026-03-31T12:14:18.999Z</time></trkpt><trkpt lat="44.0697203" lon="10.4314697"><ele>358.8333333333333</ele><time>2026-03-31T12:14:22Z</time></trkpt><trkpt lat="44.0696371" lon="10.4314703"><ele>359.66666666666663</ele><time>2026-03-31T12:14:24.999Z</time></trkpt><trkpt lat="44.0695647" lon="10.4314891"><ele>360.5</ele><time>2026-03-31T12:14:27.999Z</time></trkpt><trkpt lat="44.0694893" lon="10.4315048"><ele>361.3333333333333</ele><time>2026-03-31T12:14:31Z</time></trkpt><trkpt lat="44.0694034" lon="10.4315123"><ele>362.1666666666667</ele><time>2026-03-31T12:14:34Z</time></trkpt><trkpt lat="44.069317" lon="10.4315181"><ele>363.0</ele><time>2026-03-31T12:14:36.999Z</time></trkpt><trkpt lat="44.0692463" lon="10.431531"><ele>363.0</ele><time>2026-03-31T12:14:40Z</time></trkpt><trkpt lat="44.0691714" lon="10.43153"><ele>363.0</ele><time>2026-03-31T12:14:43Z</time></trkpt><trkpt lat="44.0690927" lon="10.4315325"><ele>363.0</ele><time>2026-03-31T12:14:46Z</time></trkpt><trkpt lat="44.0690145" lon="10.4315222"><ele>363.0</ele><time>2026-03-31T12:14:49Z</time></trkpt><trkpt lat="44.0689316" lon="10.4315164"><ele>363.0</ele><time>2026-03-31T12:14:51.999Z</time></trkpt><trkpt lat="44.0688523" lon="10.4315067"><ele>363.0</ele><time>2026-03-31T12:14:55Z</time></trkpt><trkpt lat="44.0687672" lon="10.4314953"><ele>365.1666666666667</ele><time>2026-03-31T12:14:57.999Z</time></trkpt><trkpt lat="44.0686799" lon="10.431482"><ele>367.3333333333333</ele><time>2026-03-31T12:15:01Z</time></trkpt><trkpt lat="44.0685948" lon="10.4314693"><ele>369.5</ele><time>2026-03-31T12:15:04Z</time></trkpt><trkpt lat="44.0685165" lon="10.4314588"><ele>371.66666666666663</ele><time>2026-03-31T12:15:06.999Z</time></trkpt><trkpt lat="44.06843" lon="10.4314469"><ele>373.8333333333333</ele><time>2026-03-31T12:15:09.999Z</time></trkpt><trkpt lat="44.0683563" lon="10.4314354"><ele>376.0</ele><time>2026-03-31T12:15:13Z</time></trkpt><trkpt lat="44.0682851" lon="10.4314088"><ele>375.42857142857144</ele><time>2026-03-31T12:15:15.999Z</time></trkpt><trkpt lat="44.068218" lon="10.4313576"><ele>374.85714285714283</ele><time>2026-03-31T12:15:19.999Z</time></trkpt><trkpt lat="44.0681691" lon="10.4312644"><ele>374.28571428571433</ele><time>2026-03-31T12:15:24Z</time></trkpt><trkpt lat="44.0681709" lon="10.4311705"><ele>373.7142857142857</ele><time>2026-03-31T12:15:27Z</time></trkpt><trkpt lat="44.0681964" lon="10.4310837"><ele>373.14285714285717</ele><time>2026-03-31T12:15:29.999Z</time></trkpt><trkpt lat="44.0682394" lon="10.4310194"><ele>372.5714285714286</ele><time>2026-03-31T12:15:32.999Z</time></trkpt><trkpt lat="44.0682977" lon="10.4309513"><ele>372.0</ele><time>2026-03-31T12:15:36Z</time></trkpt><trkpt lat="44.0683619" lon="10.4308941"><ele>372.0</ele><time>2026-03-31T12:15:39.103Z</time></trkpt><trkpt lat="44.0684256" lon="10.4308341"><ele>372.0</ele><time>2026-03-31T12:15:42Z</time></trkpt><trkpt lat="44.0684932" lon="10.4307848"><ele>372.0</ele><time>2026-03-31T12:15:45Z</time></trkpt><trkpt lat="44.0685845" lon="10.4307409"><ele>372.0</ele><time>2026-03-31T12:15:49Z</time></trkpt><trkpt lat="44.0686539" lon="10.4306763"><ele>372.0</ele><time>2026-03-31T12:15:52Z</time></trkpt><trkpt lat="44.0687132" lon="10.4306082"><ele>372.0</ele><time>2026-03-31T12:15:54.999Z</time></trkpt><trkpt lat="44.0687377" lon="10.4305154"><ele>371.5</ele><time>2026-03-31T12:15:58Z</time></trkpt><trkpt lat="44.0687434" lon="10.4304014"><ele>371.0</ele><time>2026-03-31T12:16:01Z</time></trkpt><trkpt lat="44.0687156" lon="10.4303092"><ele>370.5</ele><time>2026-03-31T12:16:04Z</time></trkpt><trkpt lat="44.0686442" lon="10.4302507"><ele>370.0</ele><time>2026-03-31T12:16:07Z</time></trkpt><trkpt lat="44.0685587" lon="10.430206"><ele>369.5</ele><time>2026-03-31T12:16:09.999Z</time></trkpt><trkpt lat="44.0684865" lon="10.4301623"><ele>369.0</ele><time>2026-03-31T12:16:13Z</time></trkpt><trkpt lat="44.0684228" lon="10.4301262"><ele>369.0</ele><time>2026-03-31T12:16:15.999Z</time></trkpt><trkpt lat="44.068362" lon="10.4300848"><ele>369.0</ele><time>2026-03-31T12:16:18.999Z</time></trkpt><trkpt lat="44.0682813" lon="10.4300369"><ele>369.0</ele><time>2026-03-31T12:16:22Z</time></trkpt><trkpt lat="44.0682066" lon="10.4299883"><ele>369.0</ele><time>2026-03-31T12:16:25Z</time></trkpt><trkpt lat="44.0681277" lon="10.429936"><ele>369.0</ele><time>2026-03-31T12:16:28Z</time></trkpt><trkpt lat="44.0680735" lon="10.4298852"><ele>369.0</ele><time>2026-03-31T12:16:30Z</time></trkpt><trkpt lat="44.0680246" lon="10.4298259"><ele>371.3333333333333</ele><time>2026-03-31T12:16:31.999Z</time></trkpt><trkpt lat="44.0679605" lon="10.4297422"><ele>373.6666666666667</ele><time>2026-03-31T12:16:35Z</time></trkpt><trkpt lat="44.0678905" lon="10.4296555"><ele>376.0</ele><time>2026-03-31T12:16:38Z</time></trkpt><trkpt lat="44.0678184" lon="10.4295739"><ele>378.33333333333337</ele><time>2026-03-31T12:16:41Z</time></trkpt><trkpt lat="44.067775" lon="10.4295083"><ele>380.6666666666667</ele><time>2026-03-31T12:16:43Z</time></trkpt><trkpt lat="44.0677342" lon="10.4294048"><ele>383.0</ele><time>2026-03-31T12:16:46Z</time></trkpt><trkpt lat="44.0677359" lon="10.4293155"><ele>383.0</ele><time>2026-03-31T12:16:48Z</time></trkpt><trkpt lat="44.0677681" lon="10.4292193"><ele>383.0</ele><time>2026-03-31T12:16:51Z</time></trkpt><trkpt lat="44.0678335" lon="10.4291461"><ele>383.0</ele><time>2026-03-31T12:16:55Z</time></trkpt><trkpt lat="44.0678928" lon="10.4290714"><ele>383.0</ele><time>2026-03-31T12:16:57.999Z</time></trkpt><trkpt lat="44.0679584" lon="10.4289886"><ele>383.0</ele><time>2026-03-31T12:17:01Z</time></trkpt><trkpt lat="44.0680282" lon="10.4289017"><ele>383.0</ele><time>2026-03-31T12:17:04Z</time></trkpt><trkpt lat="44.0680792" lon="10.4287914"><ele>382.33333333333337</ele><time>2026-03-31T12:17:07Z</time></trkpt><trkpt lat="44.0680967" lon="10.428666"><ele>381.6666666666667</ele><time>2026-03-31T12:17:09.999Z</time></trkpt><trkpt lat="44.068091" lon="10.4285774"><ele>381.0</ele><time>2026-03-31T12:17:12Z</time></trkpt><trkpt lat="44.0680569" lon="10.4284635"><ele>380.3333333333333</ele><time>2026-03-31T12:17:14.999Z</time></trkpt><trkpt lat="44.0679833" lon="10.4283882"><ele>379.66666666666663</ele><time>2026-03-31T12:17:18Z</time></trkpt><trkpt lat="44.0679001" lon="10.4283463"><ele>379.0</ele><time>2026-03-31T12:17:20.999Z</time></trkpt><trkpt lat="44.06781" lon="10.4283074"><ele>379.0</ele><time>2026-03-31T12:17:24Z</time></trkpt><trkpt lat="44.0677486" lon="10.4282835"><ele>379.0</ele><time>2026-03-31T12:17:26Z</time></trkpt><trkpt lat="44.0676614" lon="10.4282426"><ele>379.0</ele><time>2026-03-31T12:17:29Z</time></trkpt><trkpt lat="44.0675784" lon="10.4281989"><ele>379.0</ele><time>2026-03-31T12:17:32Z</time></trkpt><trkpt lat="44.0674943" lon="10.4281574"><ele>379.0</ele><time>2026-03-31T12:17:34.999Z</time></trkpt><trkpt lat="44.067411" lon="10.428115"><ele>379.0</ele><time>2026-03-31T12:17:38Z</time></trkpt><trkpt lat="44.0673286" lon="10.4280731"><ele>380.79999999999995</ele><time>2026-03-31T12:17:41Z</time></trkpt><trkpt lat="44.0672427" lon="10.4280342"><ele>382.59999999999997</ele><time>2026-03-31T12:17:44Z</time></trkpt><trkpt lat="44.0671276" lon="10.4279746"><ele>384.4</ele><time>2026-03-31T12:17:48Z</time></trkpt><trkpt lat="44.0670447" lon="10.4279249"><ele>386.2</ele><time>2026-03-31T12:17:51Z</time></trkpt><trkpt lat="44.066965" lon="10.4278655"><ele>388.0</ele><time>2026-03-31T12:17:54Z</time></trkpt><trkpt lat="44.0668917" lon="10.4277871"><ele>388.00000000000006</ele><time>2026-03-31T12:17:57Z</time></trkpt><trkpt lat="44.06684" lon="10.4276868"><ele>388.0</ele><time>2026-03-31T12:18:00Z</time></trkpt><trkpt lat="44.0668206" lon="10.4275703"><ele>388.0</ele><time>2026-03-31T12:18:03Z</time></trkpt><trkpt lat="44.066827" lon="10.4274444"><ele>388.0</ele><time>2026-03-31T12:18:05.999Z</time></trkpt><trkpt lat="44.0668369" lon="10.4273269"><ele>388.00000000000006</ele><time>2026-03-31T12:18:09Z</time></trkpt><trkpt lat="44.0668554" lon="10.4272058"><ele>388.0</ele><time>2026-03-31T12:18:12Z</time></trkpt><trkpt lat="44.0668658" lon="10.4270803"><ele>387.33333333333337</ele><time>2026-03-31T12:18:15Z</time></trkpt><trkpt lat="44.0668693" lon="10.4269536"><ele>386.6666666666667</ele><time>2026-03-31T12:18:18Z</time></trkpt><trkpt lat="44.0668661" lon="10.4268644"><ele>386.0</ele><time>2026-03-31T12:18:19.999Z</time></trkpt><trkpt lat="44.0668633" lon="10.4267421"><ele>385.33333333333337</ele><time>2026-03-31T12:18:23Z</time></trkpt><trkpt lat="44.0668672" lon="10.4266546"><ele>384.6666666666667</ele><time>2026-03-31T12:18:24.999Z</time></trkpt><trkpt lat="44.0668631" lon="10.4265242"><ele>384.0</ele><time>2026-03-31T12:18:28Z</time></trkpt><trkpt lat="44.0668834" lon="10.4263986"><ele>384.1666666666667</ele><time>2026-03-31T12:18:31Z</time></trkpt><trkpt lat="44.0669253" lon="10.4262876"><ele>384.33333333333337</ele><time>2026-03-31T12:18:34Z</time></trkpt><trkpt lat="44.0669786" lon="10.4261939"><ele>384.5</ele><time>2026-03-31T12:18:37Z</time></trkpt><trkpt lat="44.0670563" lon="10.4261453"><ele>384.6666666666667</ele><time>2026-03-31T12:18:39.999Z</time></trkpt><trkpt lat="44.0671392" lon="10.4261392"><ele>384.83333333333337</ele><time>2026-03-31T12:18:43Z</time></trkpt><trkpt lat="44.0672094" lon="10.4262005"><ele>385.0</ele><time>2026-03-31T12:18:45.999Z</time></trkpt><trkpt lat="44.0672608" lon="10.4263056"><ele>384.83333333333337</ele><time>2026-03-31T12:18:49Z</time></trkpt><trkpt lat="44.0673078" lon="10.4264079"><ele>384.6666666666667</ele><time>2026-03-31T12:18:51.999Z</time></trkpt><trkpt lat="44.0673582" lon="10.4264996"><ele>384.5</ele><time>2026-03-31T12:18:55Z</time></trkpt><trkpt lat="44.0674187" lon="10.4265837"><ele>384.33333333333337</ele><time>2026-03-31T12:18:58Z</time></trkpt><trkpt lat="44.0674848" lon="10.4266567"><ele>384.1666666666667</ele><time>2026-03-31T12:19:01Z</time></trkpt><trkpt lat="44.0675568" lon="10.4267131"><ele>384.0</ele><time>2026-03-31T12:19:05Z</time></trkpt><trkpt lat="44.0676219" lon="10.4267449"><ele>383.85714285714283</ele><time>2026-03-31T12:19:08Z</time></trkpt><trkpt lat="44.0676984" lon="10.4267607"><ele>383.7142857142857</ele><time>2026-03-31T12:19:11.999Z</time></trkpt><trkpt lat="44.0677628" lon="10.426733"><ele>383.57142857142856</ele><time>2026-03-31T12:19:15Z</time></trkpt><trkpt lat="44.067818" lon="10.4266814"><ele>383.42857142857144</ele><time>2026-03-31T12:19:18Z</time></trkpt><trkpt lat="44.0678592" lon="10.4266149"><ele>383.2857142857143</ele><time>2026-03-31T12:19:21Z</time></trkpt><trkpt lat="44.0678921" lon="10.426536"><ele>383.1428571428571</ele><time>2026-03-31T12:19:24Z</time></trkpt><trkpt lat="44.0679059" lon="10.4264428"><ele>383.0</ele><time>2026-03-31T12:19:26.999Z</time></trkpt><trkpt lat="44.067901" lon="10.4263456"><ele>383.85714285714283</ele><time>2026-03-31T12:19:29.999Z</time></trkpt><trkpt lat="44.0678753" lon="10.4262514"><ele>384.71428571428567</ele><time>2026-03-31T12:19:33Z</time></trkpt><trkpt lat="44.0678422" lon="10.4261627"><ele>385.57142857142856</ele><time>2026-03-31T12:19:35.999Z</time></trkpt><trkpt lat="44.0678157" lon="10.4260741"><ele>386.42857142857144</ele><time>2026-03-31T12:19:39Z</time></trkpt><trkpt lat="44.0677842" lon="10.4259872"><ele>387.2857142857143</ele><time>2026-03-31T12:19:42Z</time></trkpt><trkpt lat="44.0677356" lon="10.4258982"><ele>388.14285714285717</ele><time>2026-03-31T12:19:47Z</time></trkpt><trkpt lat="44.0677003" lon="10.4257964"><ele>389.0</ele><time>2026-03-31T12:19:49.999Z</time></trkpt><trkpt lat="44.0676753" lon="10.4257061"><ele>388.99999999999994</ele><time>2026-03-31T12:19:53Z</time></trkpt><trkpt lat="44.0676649" lon="10.4256013"><ele>389.0</ele><time>2026-03-31T12:19:56Z</time></trkpt><trkpt lat="44.0676555" lon="10.4254951"><ele>389.0</ele><time>2026-03-31T12:19:59Z</time></trkpt><trkpt lat="44.0676605" lon="10.4253921"><ele>389.0</ele><time>2026-03-31T12:20:02Z</time></trkpt><trkpt lat="44.0676616" lon="10.4252759"><ele>388.99999999999994</ele><time>2026-03-31T12:20:05.999Z</time></trkpt><trkpt lat="44.0676652" lon="10.425187"><ele>389.0</ele><time>2026-03-31T12:20:09Z</time></trkpt><trkpt lat="44.0676691" lon="10.4250717"><ele>389.99999999999994</ele><time>2026-03-31T12:20:13Z</time></trkpt><trkpt lat="44.0676787" lon="10.4249577"><ele>391.0</ele><time>2026-03-31T12:20:17Z</time></trkpt><trkpt lat="44.0676888" lon="10.4248463"><ele>392.0</ele><time>2026-03-31T12:20:20.999Z</time></trkpt><trkpt lat="44.0677074" lon="10.4247405"><ele>393.0</ele><time>2026-03-31T12:20:25Z</time></trkpt><trkpt lat="44.0677299" lon="10.4246546"><ele>393.99999999999994</ele><time>2026-03-31T12:20:27.999Z</time></trkpt><trkpt lat="44.067777" lon="10.4245637"><ele>395.0</ele><time>2026-03-31T12:20:31.999Z</time></trkpt><trkpt lat="44.0678288" lon="10.4244742"><ele>395.4285714285714</ele><time>2026-03-31T12:20:36Z</time></trkpt><trkpt lat="44.0678751" lon="10.4244097"><ele>395.8571428571429</ele><time>2026-03-31T12:20:38.999Z</time></trkpt><trkpt lat="44.0679447" lon="10.4243472"><ele>396.2857142857143</ele><time>2026-03-31T12:20:43Z</time></trkpt><trkpt lat="44.0680167" lon="10.4242938"><ele>396.71428571428567</ele><time>2026-03-31T12:20:47Z</time></trkpt><trkpt lat="44.0680899" lon="10.4242689"><ele>397.1428571428571</ele><time>2026-03-31T12:20:50.999Z</time></trkpt><trkpt lat="44.0681543" lon="10.424253"><ele>397.57142857142856</ele><time>2026-03-31T12:20:54Z</time></trkpt><trkpt lat="44.0682162" lon="10.4242254"><ele>398.0</ele><time>2026-03-31T12:20:57Z</time></trkpt><trkpt lat="44.0682851" lon="10.4241749"><ele>397.99999999999994</ele><time>2026-03-31T12:21:01Z</time></trkpt><trkpt lat="44.0683367" lon="10.4241174"><ele>398.0</ele><time>2026-03-31T12:21:04Z</time></trkpt><trkpt lat="44.0683939" lon="10.4240243"><ele>398.0</ele><time>2026-03-31T12:21:08Z</time></trkpt><trkpt lat="44.0684311" lon="10.4239406"><ele>398.0</ele><time>2026-03-31T12:21:12Z</time></trkpt><trkpt lat="44.0684528" lon="10.4238583"><ele>398.0</ele><time>2026-03-31T12:21:14.999Z</time></trkpt><trkpt lat="44.0684772" lon="10.4237484"><ele>397.99999999999994</ele><time>2026-03-31T12:21:19Z</time></trkpt><trkpt lat="44.0684849" lon="10.4236444"><ele>398.0</ele><time>2026-03-31T12:21:23Z</time></trkpt><trkpt lat="44.0684815" lon="10.4235568"><ele>400.66666666666663</ele><time>2026-03-31T12:21:26Z</time></trkpt><trkpt lat="44.0684632" lon="10.4234578"><ele>403.3333333333333</ele><time>2026-03-31T12:21:29Z</time></trkpt><trkpt lat="44.068453" lon="10.42336"><ele>406.0</ele><time>2026-03-31T12:21:31.999Z</time></trkpt><trkpt lat="44.0684463" lon="10.4232631"><ele>408.66666666666663</ele><time>2026-03-31T12:21:35Z</time></trkpt><trkpt lat="44.0684394" lon="10.4231528"><ele>411.3333333333333</ele><time>2026-03-31T12:21:38.999Z</time></trkpt><trkpt lat="44.0684262" lon="10.4230567"><ele>414.0</ele><time>2026-03-31T12:21:43Z</time></trkpt><trkpt lat="44.0684119" lon="10.4229397"><ele>415.3333333333333</ele><time>2026-03-31T12:21:46.999Z</time></trkpt><trkpt lat="44.0684122" lon="10.4228426"><ele>416.66666666666663</ele><time>2026-03-31T12:21:50Z</time></trkpt><trkpt lat="44.0684134" lon="10.4227255"><ele>418.0</ele><time>2026-03-31T12:21:53.999Z</time></trkpt><trkpt lat="44.0684104" lon="10.4226078"><ele>419.3333333333333</ele><time>2026-03-31T12:21:58Z</time></trkpt><trkpt lat="44.06841" lon="10.4225157"><ele>420.66666666666663</ele><time>2026-03-31T12:22:01Z</time></trkpt><trkpt lat="44.0684282" lon="10.4224082"><ele>422.0</ele><time>2026-03-31T12:22:05Z</time></trkpt><trkpt lat="44.0684503" lon="10.4222969"><ele>422.0</ele><time>2026-03-31T12:22:09Z</time></trkpt><trkpt lat="44.0684662" lon="10.4222005"><ele>422.0</ele><time>2026-03-31T12:22:12Z</time></trkpt><trkpt lat="44.0684824" lon="10.4221102"><ele>422.0</ele><time>2026-03-31T12:22:15Z</time></trkpt><trkpt lat="44.0685025" lon="10.4220179"><ele>422.0</ele><time>2026-03-31T12:22:18Z</time></trkpt><trkpt lat="44.0685291" lon="10.4219337"><ele>422.0</ele><time>2026-03-31T12:22:20.999Z</time></trkpt><trkpt lat="44.0685536" lon="10.4218483"><ele>422.0</ele><time>2026-03-31T12:22:24Z</time></trkpt><trkpt lat="44.0685673" lon="10.4217617"><ele>422.0</ele><time>2026-03-31T12:22:27Z</time></trkpt><trkpt lat="44.0685761" lon="10.4216719"><ele>422.8333333333333</ele><time>2026-03-31T12:22:30Z</time></trkpt><trkpt lat="44.0685707" lon="10.4215595"><ele>423.66666666666663</ele><time>2026-03-31T12:22:34Z</time></trkpt><trkpt lat="44.068551" lon="10.4214527"><ele>424.5</ele><time>2026-03-31T12:22:38Z</time></trkpt><trkpt lat="44.0685323" lon="10.4213573"><ele>425.33333333333337</ele><time>2026-03-31T12:22:41.999Z</time></trkpt><trkpt lat="44.0685195" lon="10.4212687"><ele>426.1666666666667</ele><time>2026-03-31T12:22:44.999Z</time></trkpt><trkpt lat="44.0685107" lon="10.4211562"><ele>427.0</ele><time>2026-03-31T12:22:49Z</time></trkpt><trkpt lat="44.0685109" lon="10.4210512"><ele>427.0</ele><time>2026-03-31T12:22:53Z</time></trkpt><trkpt lat="44.0685113" lon="10.4209621"><ele>427.0</ele><time>2026-03-31T12:22:56Z</time></trkpt><trkpt lat="44.0685149" lon="10.4208518"><ele>427.0</ele><time>2026-03-31T12:22:59.999Z</time></trkpt><trkpt lat="44.0685194" lon="10.4207601"><ele>427.0</ele><time>2026-03-31T12:23:03Z</time></trkpt><trkpt lat="44.068535" lon="10.4206733"><ele>427.0</ele><time>2026-03-31T12:23:05.999Z</time></trkpt><trkpt lat="44.0685609" lon="10.4205625"><ele>427.0</ele><time>2026-03-31T12:23:10Z</time></trkpt><trkpt lat="44.0685914" lon="10.4204623"><ele>427.0</ele><time>2026-03-31T12:23:13.999Z</time></trkpt><trkpt lat="44.0686319" lon="10.4203646"><ele>428.42857142857144</ele><time>2026-03-31T12:23:18Z</time></trkpt><trkpt lat="44.0686696" lon="10.4202881"><ele>429.8571428571429</ele><time>2026-03-31T12:23:21Z</time></trkpt><trkpt lat="44.0687286" lon="10.4202165"><ele>431.2857142857143</ele><time>2026-03-31T12:23:25Z</time></trkpt><trkpt lat="44.0687941" lon="10.420167"><ele>432.7142857142857</ele><time>2026-03-31T12:23:29Z</time></trkpt><trkpt lat="44.0688592" lon="10.4201375"><ele>434.14285714285717</ele><time>2026-03-31T12:23:33Z</time></trkpt><trkpt lat="44.068931" lon="10.4201157"><ele>435.57142857142856</ele><time>2026-03-31T12:23:36.999Z</time></trkpt><trkpt lat="44.0689989" lon="10.4200968"><ele>437.0</ele><time>2026-03-31T12:23:41Z</time></trkpt><trkpt lat="44.0690688" lon="10.4200778"><ele>436.85714285714283</ele><time>2026-03-31T12:23:45Z</time></trkpt><trkpt lat="44.0691369" lon="10.4200392"><ele>436.7142857142857</ele><time>2026-03-31T12:23:50Z</time></trkpt><trkpt lat="44.0691906" lon="10.4199654"><ele>436.57142857142856</ele><time>2026-03-31T12:23:54Z</time></trkpt><trkpt lat="44.0692331" lon="10.4198992"><ele>436.42857142857144</ele><time>2026-03-31T12:23:56.999Z</time></trkpt><trkpt lat="44.0692801" lon="10.4198045"><ele>436.28571428571433</ele><time>2026-03-31T12:24:01Z</time></trkpt><trkpt lat="44.0693082" lon="10.4197011"><ele>436.14285714285717</ele><time>2026-03-31T12:24:05Z</time></trkpt><trkpt lat="44.0693205" lon="10.4196103"><ele>436.0</ele><time>2026-03-31T12:24:08.999Z</time></trkpt><trkpt lat="44.0693205" lon="10.4195226"><ele>436.0</ele><time>2026-03-31T12:24:12Z</time></trkpt><trkpt lat="44.0692954" lon="10.4194343"><ele>436.0</ele><time>2026-03-31T12:24:15Z</time></trkpt><trkpt lat="44.0692561" lon="10.4193424"><ele>436.0</ele><time>2026-03-31T12:24:18.999Z</time></trkpt><trkpt lat="44.0692214" lon="10.4192547"><ele>436.0</ele><time>2026-03-31T12:24:23.999Z</time></trkpt><trkpt lat="44.069178" lon="10.4191699"><ele>436.0</ele><time>2026-03-31T12:24:31Z</time></trkpt><trkpt lat="44.0691805" lon="10.4190689"><ele>436.0</ele><time>2026-03-31T12:24:38Z</time></trkpt><trkpt lat="44.0691786" lon="10.4189755"><ele>436.0</ele><time>2026-03-31T12:24:42.999Z</time></trkpt><trkpt lat="44.0691793" lon="10.4188792"><ele>438.57142857142856</ele><time>2026-03-31T12:24:48Z</time></trkpt><trkpt lat="44.06917" lon="10.4187822"><ele>441.14285714285717</ele><time>2026-03-31T12:24:53Z</time></trkpt><trkpt lat="44.0691633" lon="10.4186889"><ele>443.7142857142857</ele><time>2026-03-31T12:24:58Z</time></trkpt><trkpt lat="44.0691716" lon="10.4185906"><ele>446.28571428571433</ele><time>2026-03-31T12:25:03Z</time></trkpt><trkpt lat="44.0691825" lon="10.4185035"><ele>448.8571428571429</ele><time>2026-03-31T12:25:08Z</time></trkpt><trkpt lat="44.069203" lon="10.4184158"><ele>451.42857142857144</ele><time>2026-03-31T12:25:13Z</time></trkpt><trkpt lat="44.0692313" lon="10.4183336"><ele>454.0</ele><time>2026-03-31T12:25:17.999Z</time></trkpt><trkpt lat="44.0692799" lon="10.4182527"><ele>454.0</ele><time>2026-03-31T12:25:24Z</time></trkpt><trkpt lat="44.0693313" lon="10.4181964"><ele>454.00000000000006</ele><time>2026-03-31T12:25:29Z</time></trkpt><trkpt lat="44.0693832" lon="10.4181304"><ele>454.0</ele><time>2026-03-31T12:25:35Z</time></trkpt><trkpt lat="44.0694434" lon="10.4180701"><ele>454.0</ele><time>2026-03-31T12:25:40.999Z</time></trkpt><trkpt lat="44.0694882" lon="10.4180035"><ele>454.00000000000006</ele><time>2026-03-31T12:25:46Z</time></trkpt><trkpt lat="44.0695333" lon="10.4179423"><ele>454.0</ele><time>2026-03-31T12:25:51Z</time></trkpt><trkpt lat="44.0695772" lon="10.4178702"><ele>454.0</ele><time>2026-03-31T12:25:57Z</time></trkpt><trkpt lat="44.0696289" lon="10.4177984"><ele>458.8571428571429</ele><time>2026-03-31T12:26:02.999Z</time></trkpt><trkpt lat="44.0696668" lon="10.4177048"><ele>463.7142857142858</ele><time>2026-03-31T12:26:09.999Z</time></trkpt><trkpt lat="44.0696837" lon="10.4175968"><ele>468.57142857142856</ele><time>2026-03-31T12:26:16Z</time></trkpt><trkpt lat="44.0696911" lon="10.4174953"><ele>473.42857142857144</ele><time>2026-03-31T12:26:21Z</time></trkpt><trkpt lat="44.069698" lon="10.4173949"><ele>478.2857142857143</ele><time>2026-03-31T12:26:26.999Z</time></trkpt><trkpt lat="44.0696894" lon="10.4172966"><ele>483.1428571428571</ele><time>2026-03-31T12:26:32Z</time></trkpt><trkpt lat="44.0696901" lon="10.4171935"><ele>487.99999999999994</ele><time>2026-03-31T12:26:36.999Z</time></trkpt><trkpt lat="44.0696897" lon="10.4171017"><ele>487.1428571428571</ele><time>2026-03-31T12:26:41.999Z</time></trkpt><trkpt lat="44.0696943" lon="10.4169991"><ele>486.2857142857143</ele><time>2026-03-31T12:26:47Z</time></trkpt><trkpt lat="44.0697137" lon="10.4169157"><ele>485.42857142857144</ele><time>2026-03-31T12:26:52Z</time></trkpt><trkpt lat="44.0697687" lon="10.4168669"><ele>484.57142857142856</ele><time>2026-03-31T12:27:01Z</time></trkpt><trkpt lat="44.0698361" lon="10.4168912"><ele>483.7142857142858</ele><time>2026-03-31T12:27:07Z</time></trkpt><trkpt lat="44.0699086" lon="10.4169168"><ele>482.8571428571429</ele><time>2026-03-31T12:27:12Z</time></trkpt><trkpt lat="44.069983" lon="10.4169186"><ele>482.0</ele><time>2026-03-31T12:27:17Z</time></trkpt><trkpt lat="44.0700453" lon="10.4168969"><ele>482.0</ele><time>2026-03-31T12:27:21Z</time></trkpt><trkpt lat="44.0701062" lon="10.4168451"><ele>482.00000000000006</ele><time>2026-03-31T12:27:26Z</time></trkpt><trkpt lat="44.0701601" lon="10.4167905"><ele>482.0</ele><time>2026-03-31T12:27:31.999Z</time></trkpt><trkpt lat="44.0702091" lon="10.4167321"><ele>482.0</ele><time>2026-03-31T12:27:37Z</time></trkpt><trkpt lat="44.0702729" lon="10.4166909"><ele>482.00000000000006</ele><time>2026-03-31T12:27:42Z</time></trkpt><trkpt lat="44.0703378" lon="10.4166653"><ele>482.0</ele><time>2026-03-31T12:27:47Z</time></trkpt><trkpt lat="44.0704136" lon="10.416629"><ele>482.0</ele><time>2026-03-31T12:27:52.999Z</time></trkpt><trkpt lat="44.0704729" lon="10.4165883"><ele>482.0</ele><time>2026-03-31T12:27:57Z</time></trkpt><trkpt lat="44.0705353" lon="10.4165509"><ele>482.00000000000006</ele><time>2026-03-31T12:28:01Z</time></trkpt><trkpt lat="44.0705949" lon="10.4165065"><ele>482.0</ele><time>2026-03-31T12:28:05Z</time></trkpt><trkpt lat="44.0706552" lon="10.4164706"><ele>482.0</ele><time>2026-03-31T12:28:08.999Z</time></trkpt><trkpt lat="44.0707185" lon="10.4164193"><ele>482.00000000000006</ele><time>2026-03-31T12:28:14Z</time></trkpt><trkpt lat="44.0707772" lon="10.4163502"><ele>482.0</ele><time>2026-03-31T12:28:19Z</time></trkpt><trkpt lat="44.0708225" lon="10.4162746"><ele>482.0</ele><time>2026-03-31T12:28:24Z</time></trkpt><trkpt lat="44.0708771" lon="10.4162067"><ele>486.42857142857144</ele><time>2026-03-31T12:28:29Z</time></trkpt><trkpt lat="44.0709483" lon="10.4161668"><ele>490.8571428571429</ele><time>2026-03-31T12:28:36Z</time></trkpt><trkpt lat="44.0710126" lon="10.4161598"><ele>495.28571428571433</ele><time>2026-03-31T12:28:40Z</time></trkpt><trkpt lat="44.0710883" lon="10.4161702"><ele>499.7142857142858</ele><time>2026-03-31T12:28:44.999Z</time></trkpt><trkpt lat="44.0711532" lon="10.4161574"><ele>504.14285714285717</ele><time>2026-03-31T12:28:49.999Z</time></trkpt><trkpt lat="44.0712228" lon="10.4161367"><ele>508.57142857142867</ele><time>2026-03-31T12:28:55Z</time></trkpt><trkpt lat="44.0712825" lon="10.4160857"><ele>513.0</ele><time>2026-03-31T12:28:59Z</time></trkpt><trkpt lat="44.0713524" lon="10.4160589"><ele>513.0000000000001</ele><time>2026-03-31T12:29:03Z</time></trkpt><trkpt lat="44.0714168" lon="10.4160296"><ele>513.0</ele><time>2026-03-31T12:29:07Z</time></trkpt><trkpt lat="44.071478" lon="10.416005"><ele>513.0</ele><time>2026-03-31T12:29:12Z</time></trkpt><trkpt lat="44.0715433" lon="10.4159687"><ele>513.0</ele><time>2026-03-31T12:29:16.999Z</time></trkpt><trkpt lat="44.0716019" lon="10.4159294"><ele>513.0</ele><time>2026-03-31T12:29:21.999Z</time></trkpt><trkpt lat="44.0716711" lon="10.4158877"><ele>513.0000000000001</ele><time>2026-03-31T12:29:26.999Z</time></trkpt><trkpt lat="44.0717265" lon="10.4158307"><ele>513.0</ele><time>2026-03-31T12:29:32Z</time></trkpt><trkpt lat="44.0717735" lon="10.4157692"><ele>514.8571428571429</ele><time>2026-03-31T12:29:37Z</time></trkpt><trkpt lat="44.0717994" lon="10.415685"><ele>516.7142857142858</ele><time>2026-03-31T12:29:41.999Z</time></trkpt><trkpt lat="44.0718331" lon="10.4155984"><ele>518.5714285714286</ele><time>2026-03-31T12:29:48Z</time></trkpt><trkpt lat="44.0718627" lon="10.4155197"><ele>520.4285714285714</ele><time>2026-03-31T12:29:53Z</time></trkpt><trkpt lat="44.071894" lon="10.4154351"><ele>522.2857142857142</ele><time>2026-03-31T12:29:58Z</time></trkpt><trkpt lat="44.0719241" lon="10.4153439"><ele>524.1428571428571</ele><time>2026-03-31T12:30:03Z</time></trkpt><trkpt lat="44.0719521" lon="10.4152448"><ele>526.0</ele><time>2026-03-31T12:30:08Z</time></trkpt><trkpt lat="44.0719655" lon="10.415143"><ele>526.0</ele><time>2026-03-31T12:30:13Z</time></trkpt><trkpt lat="44.071987" lon="10.4150427"><ele>526.0</ele><time>2026-03-31T12:30:17.999Z</time></trkpt><trkpt lat="44.0720145" lon="10.4149499"><ele>526.0</ele><time>2026-03-31T12:30:23Z</time></trkpt><trkpt lat="44.0720308" lon="10.4148492"><ele>526.0</ele><time>2026-03-31T12:30:28Z</time></trkpt><trkpt lat="44.0720565" lon="10.4147585"><ele>526.0</ele><time>2026-03-31T12:30:33Z</time></trkpt><trkpt lat="44.0720853" lon="10.4146699"><ele>526.0</ele><time>2026-03-31T12:30:37Z</time></trkpt><trkpt lat="44.0721066" lon="10.4145782"><ele>526.0</ele><time>2026-03-31T12:30:40.999Z</time></trkpt><trkpt lat="44.0721129" lon="10.4144839"><ele>528.5714285714286</ele><time>2026-03-31T12:30:45Z</time></trkpt><trkpt lat="44.072114" lon="10.4143813"><ele>531.1428571428571</ele><time>2026-03-31T12:30:50Z</time></trkpt><trkpt lat="44.0721138" lon="10.4142896"><ele>533.7142857142857</ele><time>2026-03-31T12:30:55Z</time></trkpt><trkpt lat="44.0721044" lon="10.4141909"><ele>536.2857142857142</ele><time>2026-03-31T12:30:59Z</time></trkpt><trkpt lat="44.0721129" lon="10.4141021"><ele>538.8571428571429</ele><time>2026-03-31T12:31:03Z</time></trkpt><trkpt lat="44.072102" lon="10.4140114"><ele>541.4285714285713</ele><time>2026-03-31T12:31:08Z</time></trkpt><trkpt lat="44.0720981" lon="10.4139077"><ele>544.0</ele><time>2026-03-31T12:31:14Z</time></trkpt><trkpt lat="44.0721115" lon="10.4138094"><ele>543.9999999999999</ele><time>2026-03-31T12:31:20Z</time></trkpt><trkpt lat="44.0721075" lon="10.4137027"><ele>544.0</ele><time>2026-03-31T12:31:25Z</time></trkpt><trkpt lat="44.0721055" lon="10.4136137"><ele>544.0</ele><time>2026-03-31T12:31:30Z</time></trkpt><trkpt lat="44.0720811" lon="10.413514"><ele>544.0</ele><time>2026-03-31T12:31:35Z</time></trkpt><trkpt lat="44.0720383" lon="10.4134308"><ele>544.0</ele><time>2026-03-31T12:31:40Z</time></trkpt><trkpt lat="44.0720077" lon="10.4133438"><ele>543.9999999999999</ele><time>2026-03-31T12:31:45Z</time></trkpt><trkpt lat="44.071982" lon="10.4132501"><ele>544.0</ele><time>2026-03-31T12:31:50Z</time></trkpt><trkpt lat="44.0719488" lon="10.4131621"><ele>543.9999999999999</ele><time>2026-03-31T12:31:55Z</time></trkpt><trkpt lat="44.0719142" lon="10.4130788"><ele>544.0</ele><time>2026-03-31T12:32:00Z</time></trkpt><trkpt lat="44.0718759" lon="10.4129887"><ele>544.0</ele><time>2026-03-31T12:32:05.999Z</time></trkpt><trkpt lat="44.0718741" lon="10.4128932"><ele>544.0</ele><time>2026-03-31T12:32:11Z</time></trkpt><trkpt lat="44.0718927" lon="10.4127962"><ele>544.0</ele><time>2026-03-31T12:32:14.999Z</time></trkpt><trkpt lat="44.0719294" lon="10.4127055"><ele>543.9999999999999</ele><time>2026-03-31T12:32:20Z</time></trkpt><trkpt lat="44.0719787" lon="10.4126452"><ele>544.0</ele><time>2026-03-31T12:32:25Z</time></trkpt><trkpt lat="44.0720303" lon="10.4125753"><ele>544.7142857142857</ele><time>2026-03-31T12:32:31Z</time></trkpt><trkpt lat="44.0720867" lon="10.4125023"><ele>545.4285714285714</ele><time>2026-03-31T12:32:36Z</time></trkpt><trkpt lat="44.0721355" lon="10.4124221"><ele>546.1428571428571</ele><time>2026-03-31T12:32:40.999Z</time></trkpt><trkpt lat="44.0721808" lon="10.4123474"><ele>546.8571428571429</ele><time>2026-03-31T12:32:46Z</time></trkpt><trkpt lat="44.072236" lon="10.4122858"><ele>547.5714285714286</ele><time>2026-03-31T12:32:50.999Z</time></trkpt><trkpt lat="44.0722969" lon="10.4122377"><ele>548.2857142857142</ele><time>2026-03-31T12:32:56Z</time></trkpt><trkpt lat="44.0723685" lon="10.4122374"><ele>549.0</ele><time>2026-03-31T12:33:01Z</time></trkpt><trkpt lat="44.0724308" lon="10.4122659"><ele>550.1428571428571</ele><time>2026-03-31T12:33:05.106Z</time></trkpt><trkpt lat="44.0725024" lon="10.4122917"><ele>551.2857142857143</ele><time>2026-03-31T12:33:09.999Z</time></trkpt><trkpt lat="44.0725705" lon="10.4123011"><ele>552.4285714285714</ele><time>2026-03-31T12:33:16Z</time></trkpt><trkpt lat="44.0726364" lon="10.412288"><ele>553.5714285714286</ele><time>2026-03-31T12:33:21Z</time></trkpt><trkpt lat="44.072706" lon="10.4122632"><ele>554.7142857142857</ele><time>2026-03-31T12:33:26Z</time></trkpt><trkpt lat="44.0727714" lon="10.4122034"><ele>555.8571428571429</ele><time>2026-03-31T12:33:31Z</time></trkpt><trkpt lat="44.0728373" lon="10.4121775"><ele>557.0</ele><time>2026-03-31T12:33:36Z</time></trkpt><trkpt lat="44.0729105" lon="10.4121562"><ele>554.1428571428571</ele><time>2026-03-31T12:33:41Z</time></trkpt><trkpt lat="44.0729855" lon="10.4121658"><ele>551.2857142857142</ele><time>2026-03-31T12:33:45.999Z</time></trkpt><trkpt lat="44.0730567" lon="10.4121893"><ele>548.4285714285713</ele><time>2026-03-31T12:33:51Z</time></trkpt><trkpt lat="44.0731205" lon="10.4122559"><ele>545.5714285714286</ele><time>2026-03-31T12:33:56Z</time></trkpt><trkpt lat="44.0731856" lon="10.4123141"><ele>542.7142857142857</ele><time>2026-03-31T12:34:01Z</time></trkpt><trkpt lat="44.0732138" lon="10.4123947"><ele>539.8571428571428</ele><time>2026-03-31T12:34:06Z</time></trkpt><trkpt lat="44.0732807" lon="10.4124272"><ele>537.0</ele><time>2026-03-31T12:34:11.999Z</time></trkpt><trkpt lat="44.0733448" lon="10.412418"><ele>536.9999999999999</ele><time>2026-03-31T12:34:17Z</time></trkpt><trkpt lat="44.0734123" lon="10.4123864"><ele>537.0</ele><time>2026-03-31T12:34:22Z</time></trkpt><trkpt lat="44.073473" lon="10.4123547"><ele>537.0</ele><time>2026-03-31T12:34:25.999Z</time></trkpt><trkpt lat="44.0735323" lon="10.4123215"><ele>537.0</ele><time>2026-03-31T12:34:29.999Z</time></trkpt><trkpt lat="44.0735923" lon="10.4122852"><ele>537.0</ele><time>2026-03-31T12:34:35Z</time></trkpt><trkpt lat="44.073655" lon="10.4122505"><ele>536.9999999999999</ele><time>2026-03-31T12:34:39.999Z</time></trkpt><trkpt lat="44.0737175" lon="10.4122142"><ele>537.0</ele><time>2026-03-31T12:34:43.999Z</time></trkpt><trkpt lat="44.073776" lon="10.4121493"><ele>539.9999999999999</ele><time>2026-03-31T12:34:49Z</time></trkpt><trkpt lat="44.0738188" lon="10.4120758"><ele>543.0</ele><time>2026-03-31T12:34:55Z</time></trkpt><trkpt lat="44.0738452" lon="10.4119834"><ele>546.0</ele><time>2026-03-31T12:35:01Z</time></trkpt><trkpt lat="44.0738848" lon="10.4119109"><ele>549.0</ele><time>2026-03-31T12:35:06Z</time></trkpt><trkpt lat="44.0739151" lon="10.411807"><ele>552.0</ele><time>2026-03-31T12:35:10Z</time></trkpt><trkpt lat="44.0739368" lon="10.4116987"><ele>554.9999999999999</ele><time>2026-03-31T12:35:14Z</time></trkpt><trkpt lat="44.0739612" lon="10.4116026"><ele>558.0</ele><time>2026-03-31T12:35:18Z</time></trkpt><trkpt lat="44.0739816" lon="10.4115047"><ele>557.9999999999999</ele><time>2026-03-31T12:35:22Z</time></trkpt><trkpt lat="44.074016" lon="10.4114219"><ele>558.0</ele><time>2026-03-31T12:35:26Z</time></trkpt><trkpt lat="44.0740501" lon="10.4113284"><ele>558.0</ele><time>2026-03-31T12:35:30Z</time></trkpt><trkpt lat="44.0740526" lon="10.4112227"><ele>558.0</ele><time>2026-03-31T12:35:35Z</time></trkpt><trkpt lat="44.074037" lon="10.4111115"><ele>558.0</ele><time>2026-03-31T12:35:39Z</time></trkpt><trkpt lat="44.0740218" lon="10.4110107"><ele>557.9999999999999</ele><time>2026-03-31T12:35:43Z</time></trkpt><trkpt lat="44.0740022" lon="10.4109113"><ele>558.0</ele><time>2026-03-31T12:35:47Z</time></trkpt><trkpt lat="44.0739763" lon="10.4108146"><ele>561.2857142857142</ele><time>2026-03-31T12:35:51Z</time></trkpt><trkpt lat="44.0739496" lon="10.4107176"><ele>564.5714285714286</ele><time>2026-03-31T12:35:55Z</time></trkpt><trkpt lat="44.0739348" lon="10.4106093"><ele>567.8571428571429</ele><time>2026-03-31T12:35:59Z</time></trkpt><trkpt lat="44.0739401" lon="10.4105071"><ele>571.1428571428571</ele><time>2026-03-31T12:36:02.999Z</time></trkpt><trkpt lat="44.0739572" lon="10.410412"><ele>574.4285714285714</ele><time>2026-03-31T12:36:07Z</time></trkpt><trkpt lat="44.073999" lon="10.4103463"><ele>577.7142857142857</ele><time>2026-03-31T12:36:11Z</time></trkpt><trkpt lat="44.0740433" lon="10.4102796"><ele>581.0</ele><time>2026-03-31T12:36:15Z</time></trkpt><trkpt lat="44.0740995" lon="10.4102201"><ele>580.2857142857143</ele><time>2026-03-31T12:36:19Z</time></trkpt><trkpt lat="44.0741614" lon="10.4101693"><ele>579.5714285714286</ele><time>2026-03-31T12:36:23Z</time></trkpt><trkpt lat="44.0742234" lon="10.4101395"><ele>578.8571428571429</ele><time>2026-03-31T12:36:26.999Z</time></trkpt><trkpt lat="44.0742821" lon="10.4101034"><ele>578.1428571428571</ele><time>2026-03-31T12:36:31Z</time></trkpt><trkpt lat="44.0743541" lon="10.4100729"><ele>577.4285714285714</ele><time>2026-03-31T12:36:35.999Z</time></trkpt><trkpt lat="44.0744177" lon="10.4100565"><ele>576.7142857142858</ele><time>2026-03-31T12:36:39Z</time></trkpt><trkpt lat="44.0744807" lon="10.4100489"><ele>576.0</ele><time>2026-03-31T12:36:42Z</time></trkpt><trkpt lat="44.074553" lon="10.4100462"><ele>576.0000000000001</ele><time>2026-03-31T12:36:46Z</time></trkpt><trkpt lat="44.0746161" lon="10.4100326"><ele>576.0</ele><time>2026-03-31T12:36:50Z</time></trkpt><trkpt lat="44.0746874" lon="10.4100134"><ele>576.0</ele><time>2026-03-31T12:36:54Z</time></trkpt><trkpt lat="44.074759" lon="10.409985"><ele>576.0</ele><time>2026-03-31T12:36:58Z</time></trkpt><trkpt lat="44.0748265" lon="10.4099481"><ele>576.0</ele><time>2026-03-31T12:37:02Z</time></trkpt><trkpt lat="44.0748901" lon="10.4099262"><ele>576.0000000000001</ele><time>2026-03-31T12:37:06Z</time></trkpt><trkpt lat="44.0749501" lon="10.4098991"><ele>576.0</ele><time>2026-03-31T12:37:09.999Z</time></trkpt><trkpt lat="44.0750123" lon="10.4098737"><ele>577.5714285714287</ele><time>2026-03-31T12:37:14.999Z</time></trkpt><trkpt lat="44.0750791" lon="10.4098171"><ele>579.1428571428571</ele><time>2026-03-31T12:37:20.999Z</time></trkpt><trkpt lat="44.0751427" lon="10.409762"><ele>580.7142857142858</ele><time>2026-03-31T12:37:26Z</time></trkpt><trkpt lat="44.0752067" lon="10.4097235"><ele>582.2857142857143</ele><time>2026-03-31T12:37:30Z</time></trkpt><trkpt lat="44.0752784" lon="10.4096807"><ele>583.8571428571429</ele><time>2026-03-31T12:37:34Z</time></trkpt><trkpt lat="44.075335" lon="10.409627"><ele>585.4285714285714</ele><time>2026-03-31T12:37:37.999Z</time></trkpt><trkpt lat="44.0753866" lon="10.4095647"><ele>587.0</ele><time>2026-03-31T12:37:42Z</time></trkpt><trkpt lat="44.0753927" lon="10.4094486"><ele>587.0</ele><time>2026-03-31T12:37:46Z</time></trkpt><trkpt lat="44.0753729" lon="10.4093516"><ele>587.0</ele><time>2026-03-31T12:37:50Z</time></trkpt><trkpt lat="44.0753518" lon="10.4092673"><ele>587.0</ele><time>2026-03-31T12:37:54Z</time></trkpt><trkpt lat="44.0753266" lon="10.4091662"><ele>587.0</ele><time>2026-03-31T12:37:58.999Z</time></trkpt><trkpt lat="44.0753209" lon="10.4090722"><ele>587.0</ele><time>2026-03-31T12:38:02.999Z</time></trkpt><trkpt lat="44.075331" lon="10.408978"><ele>587.0</ele><time>2026-03-31T12:38:06.999Z</time></trkpt><trkpt lat="44.0753451" lon="10.4088704"><ele>587.0</ele><time>2026-03-31T12:38:11Z</time></trkpt><trkpt lat="44.0753743" lon="10.4087739"><ele>587.1428571428571</ele><time>2026-03-31T12:38:15Z</time></trkpt><trkpt lat="44.0754078" lon="10.4086866"><ele>587.2857142857143</ele><time>2026-03-31T12:38:19Z</time></trkpt><trkpt lat="44.0754123" lon="10.4085908"><ele>587.4285714285714</ele><time>2026-03-31T12:38:24Z</time></trkpt><trkpt lat="44.0753694" lon="10.4085031"><ele>587.5714285714286</ele><time>2026-03-31T12:38:28.999Z</time></trkpt><trkpt lat="44.0753097" lon="10.4084431"><ele>587.7142857142858</ele><time>2026-03-31T12:38:33Z</time></trkpt><trkpt lat="44.0752571" lon="10.408372"><ele>587.8571428571429</ele><time>2026-03-31T12:38:36.999Z</time></trkpt><trkpt lat="44.075194" lon="10.4083499"><ele>588.0</ele><time>2026-03-31T12:38:40.999Z</time></trkpt><trkpt lat="44.07512" lon="10.4083317"><ele>588.0</ele><time>2026-03-31T12:38:45.999Z</time></trkpt><trkpt lat="44.0750493" lon="10.4083158"><ele>588.0</ele><time>2026-03-31T12:38:51Z</time></trkpt><trkpt lat="44.0749824" lon="10.4082741"><ele>588.0</ele><time>2026-03-31T12:38:56Z</time></trkpt><trkpt lat="44.0749373" lon="10.4081969"><ele>588.0</ele><time>2026-03-31T12:39:00.999Z</time></trkpt><trkpt lat="44.0749092" lon="10.408106"><ele>588.0</ele><time>2026-03-31T12:39:05.999Z</time></trkpt><trkpt lat="44.0749002" lon="10.4080083"><ele>588.0</ele><time>2026-03-31T12:39:10.999Z</time></trkpt><trkpt lat="44.0748654" lon="10.4079311"><ele>588.0</ele><time>2026-03-31T12:39:15Z</time></trkpt><trkpt lat="44.0748538" lon="10.4078436"><ele>588.5714285714286</ele><time>2026-03-31T12:39:20Z</time></trkpt><trkpt lat="44.0748204" lon="10.40775"><ele>589.1428571428571</ele><time>2026-03-31T12:39:24.999Z</time></trkpt><trkpt lat="44.0747647" lon="10.4076824"><ele>589.7142857142858</ele><time>2026-03-31T12:39:29.999Z</time></trkpt><trkpt lat="44.0747031" lon="10.4076617"><ele>590.2857142857142</ele><time>2026-03-31T12:39:34Z</time></trkpt><trkpt lat="44.074639" lon="10.4076858"><ele>590.8571428571429</ele><time>2026-03-31T12:39:38.999Z</time></trkpt><trkpt lat="44.074572" lon="10.4077068"><ele>591.4285714285714</ele><time>2026-03-31T12:39:43.999Z</time></trkpt><trkpt lat="44.0745189" lon="10.4077723"><ele>592.0</ele><time>2026-03-31T12:39:49Z</time></trkpt><trkpt lat="44.0744772" lon="10.4078402"><ele>592.0</ele><time>2026-03-31T12:39:53.999Z</time></trkpt><trkpt lat="44.074426" lon="10.4079123"><ele>592.0</ele><time>2026-03-31T12:39:58.999Z</time></trkpt><trkpt lat="44.0743848" lon="10.4079883"><ele>592.0</ele><time>2026-03-31T12:40:03Z</time></trkpt><trkpt lat="44.0743283" lon="10.408055"><ele>592.0</ele><time>2026-03-31T12:40:07.999Z</time></trkpt><trkpt lat="44.0742727" lon="10.408116"><ele>592.0</ele><time>2026-03-31T12:40:13Z</time></trkpt><trkpt lat="44.0742066" lon="10.408155"><ele>592.0</ele><time>2026-03-31T12:40:17.999Z</time></trkpt><trkpt lat="44.0741687" lon="10.4082298"><ele>592.0</ele><time>2026-03-31T12:40:23Z</time></trkpt><trkpt lat="44.0741462" lon="10.408312"><ele>593.7142857142858</ele><time>2026-03-31T12:40:27Z</time></trkpt><trkpt lat="44.0741216" lon="10.4084064"><ele>595.4285714285714</ele><time>2026-03-31T12:40:32Z</time></trkpt><trkpt lat="44.074122" lon="10.4085087"><ele>597.1428571428571</ele><time>2026-03-31T12:40:37Z</time></trkpt><trkpt lat="44.0741071" lon="10.4086096"><ele>598.8571428571429</ele><time>2026-03-31T12:40:40.999Z</time></trkpt><trkpt lat="44.0740881" lon="10.4087071"><ele>600.5714285714286</ele><time>2026-03-31T12:40:44.999Z</time></trkpt><trkpt lat="44.0740861" lon="10.4088125"><ele>602.2857142857143</ele><time>2026-03-31T12:40:50Z</time></trkpt><trkpt lat="44.0740795" lon="10.4089096"><ele>604.0</ele><time>2026-03-31T12:40:53.999Z</time></trkpt><trkpt lat="44.0740401" lon="10.4090045"><ele>605.5</ele><time>2026-03-31T12:40:58Z</time></trkpt><trkpt lat="44.074013" lon="10.4091158"><ele>607.0</ele><time>2026-03-31T12:41:02Z</time></trkpt><trkpt lat="44.0739845" lon="10.4092243"><ele>608.5</ele><time>2026-03-31T12:41:06Z</time></trkpt><trkpt lat="44.073944" lon="10.4092938"><ele>610.0</ele><time>2026-03-31T12:41:08.999Z</time></trkpt><trkpt lat="44.0738896" lon="10.4093696"><ele>611.5</ele><time>2026-03-31T12:41:12.999Z</time></trkpt><trkpt lat="44.0738344" lon="10.4094478"><ele>613.0</ele><time>2026-03-31T12:41:16.999Z</time></trkpt><trkpt lat="44.0737764" lon="10.4095273"><ele>613.0</ele><time>2026-03-31T12:41:21Z</time></trkpt><trkpt lat="44.0737177" lon="10.409591"><ele>613.0</ele><time>2026-03-31T12:41:24.999Z</time></trkpt><trkpt lat="44.073657" lon="10.4096534"><ele>613.0</ele><time>2026-03-31T12:41:28.999Z</time></trkpt><trkpt lat="44.0736012" lon="10.4097042"><ele>613.0</ele><time>2026-03-31T12:41:33Z</time></trkpt><trkpt lat="44.0735415" lon="10.4097632"><ele>613.0</ele><time>2026-03-31T12:41:37Z</time></trkpt><trkpt lat="44.0734817" lon="10.4097982"><ele>613.0</ele><time>2026-03-31T12:41:41Z</time></trkpt><trkpt lat="44.0734153" lon="10.4098237"><ele>613.0</ele><time>2026-03-31T12:41:45Z</time></trkpt><trkpt lat="44.0733384" lon="10.4098407"><ele>614.1428571428571</ele><time>2026-03-31T12:41:50Z</time></trkpt><trkpt lat="44.0732752" lon="10.4098567"><ele>615.2857142857142</ele><time>2026-03-31T12:41:53.999Z</time></trkpt><trkpt lat="44.0732033" lon="10.4098764"><ele>616.4285714285713</ele><time>2026-03-31T12:41:59Z</time></trkpt><trkpt lat="44.0731319" lon="10.4098861"><ele>617.5714285714286</ele><time>2026-03-31T12:42:04Z</time></trkpt><trkpt lat="44.0730686" lon="10.4098895"><ele>618.7142857142857</ele><time>2026-03-31T12:42:07.999Z</time></trkpt><trkpt lat="44.0730002" lon="10.4098739"><ele>619.8571428571428</ele><time>2026-03-31T12:42:13Z</time></trkpt><trkpt lat="44.0729356" lon="10.4098455"><ele>621.0</ele><time>2026-03-31T12:42:18Z</time></trkpt><trkpt lat="44.0728853" lon="10.4097768"><ele>620.9999999999999</ele><time>2026-03-31T12:42:23Z</time></trkpt><trkpt lat="44.0728735" lon="10.4096817"><ele>621.0</ele><time>2026-03-31T12:42:28Z</time></trkpt><trkpt lat="44.072898" lon="10.4095824"><ele>621.0</ele><time>2026-03-31T12:42:32.999Z</time></trkpt><trkpt lat="44.0729413" lon="10.4095013"><ele>621.0</ele><time>2026-03-31T12:42:38Z</time></trkpt><trkpt lat="44.0729808" lon="10.4094179"><ele>621.0</ele><time>2026-03-31T12:42:43Z</time></trkpt><trkpt lat="44.0730041" lon="10.4093277"><ele>620.9999999999999</ele><time>2026-03-31T12:42:47.999Z</time></trkpt><trkpt lat="44.073039" lon="10.4092367"><ele>621.0</ele><time>2026-03-31T12:42:53Z</time></trkpt><trkpt lat="44.0730749" lon="10.4091429"><ele>622.8571428571428</ele><time>2026-03-31T12:42:58Z</time></trkpt><trkpt lat="44.0731099" lon="10.4090495"><ele>624.7142857142857</ele><time>2026-03-31T12:43:03Z</time></trkpt><trkpt lat="44.0731357" lon="10.4089518"><ele>626.5714285714286</ele><time>2026-03-31T12:43:08Z</time></trkpt><trkpt lat="44.0731507" lon="10.4088481"><ele>628.4285714285713</ele><time>2026-03-31T12:43:13Z</time></trkpt><trkpt lat="44.0731452" lon="10.4087594"><ele>630.2857142857142</ele><time>2026-03-31T12:43:17Z</time></trkpt><trkpt lat="44.0731154" lon="10.4086723"><ele>632.1428571428571</ele><time>2026-03-31T12:43:21.999Z</time></trkpt><trkpt lat="44.0730736" lon="10.4086008"><ele>634.0</ele><time>2026-03-31T12:43:26Z</time></trkpt><trkpt lat="44.0730106" lon="10.4085322"><ele>635.1428571428571</ele><time>2026-03-31T12:43:30Z</time></trkpt><trkpt lat="44.072938" lon="10.4085145"><ele>636.2857142857142</ele><time>2026-03-31T12:43:35Z</time></trkpt><trkpt lat="44.072876" lon="10.4084917"><ele>637.4285714285713</ele><time>2026-03-31T12:43:39Z</time></trkpt><trkpt lat="44.0728068" lon="10.4084629"><ele>638.5714285714286</ele><time>2026-03-31T12:43:44Z</time></trkpt><trkpt lat="44.0727343" lon="10.4084345"><ele>639.7142857142857</ele><time>2026-03-31T12:43:48.999Z</time></trkpt><trkpt lat="44.0726784" lon="10.4083915"><ele>640.8571428571428</ele><time>2026-03-31T12:43:53Z</time></trkpt><trkpt lat="44.0726408" lon="10.4083112"><ele>642.0</ele><time>2026-03-31T12:43:57.999Z</time></trkpt><trkpt lat="44.0726196" lon="10.4082095"><ele>641.9999999999999</ele><time>2026-03-31T12:44:03Z</time></trkpt><trkpt lat="44.0726185" lon="10.408103"><ele>642.0</ele><time>2026-03-31T12:44:07.999Z</time></trkpt><trkpt lat="44.0726402" lon="10.4079988"><ele>642.0</ele><time>2026-03-31T12:44:13Z</time></trkpt><trkpt lat="44.0726701" lon="10.4079186"><ele>642.0</ele><time>2026-03-31T12:44:17Z</time></trkpt><trkpt lat="44.0727002" lon="10.4078383"><ele>642.0</ele><time>2026-03-31T12:44:21Z</time></trkpt><trkpt lat="44.0727135" lon="10.407751"><ele>641.9999999999999</ele><time>2026-03-31T12:44:25Z</time></trkpt><trkpt lat="44.0727108" lon="10.4076503"><ele>642.0</ele><time>2026-03-31T12:44:29Z</time></trkpt><trkpt lat="44.0726821" lon="10.4075471"><ele>642.7142857142857</ele><time>2026-03-31T12:44:33Z</time></trkpt><trkpt lat="44.072649" lon="10.407448"><ele>643.4285714285714</ele><time>2026-03-31T12:44:35.999Z</time></trkpt><trkpt lat="44.0726226" lon="10.4073644"><ele>644.1428571428571</ele><time>2026-03-31T12:44:39Z</time></trkpt><trkpt lat="44.0725778" lon="10.4072689"><ele>644.8571428571429</ele><time>2026-03-31T12:44:42Z</time></trkpt><trkpt lat="44.0725506" lon="10.4071516"><ele>645.5714285714286</ele><time>2026-03-31T12:44:45Z</time></trkpt><trkpt lat="44.0725718" lon="10.4070627"><ele>646.2857142857142</ele><time>2026-03-31T12:44:47Z</time></trkpt><trkpt lat="44.0726143" lon="10.4069926"><ele>647.0</ele><time>2026-03-31T12:44:48.999Z</time></trkpt><trkpt lat="44.0726744" lon="10.4069478"><ele>649.0</ele><time>2026-03-31T12:44:51Z</time></trkpt><trkpt lat="44.0727574" lon="10.4068907"><ele>651.0</ele><time>2026-03-31T12:44:54Z</time></trkpt><trkpt lat="44.0728251" lon="10.4068043"><ele>653.0</ele><time>2026-03-31T12:44:57Z</time></trkpt><trkpt lat="44.0728624" lon="10.406731"><ele>655.0</ele><time>2026-03-31T12:44:58.999Z</time></trkpt><trkpt lat="44.0728924" lon="10.406645"><ele>657.0</ele><time>2026-03-31T12:45:00.999Z</time></trkpt><trkpt lat="44.0729179" lon="10.4065508"><ele>659.0</ele><time>2026-03-31T12:45:03Z</time></trkpt><trkpt lat="44.0729589" lon="10.4064586"><ele>659.0</ele><time>2026-03-31T12:45:05Z</time></trkpt><trkpt lat="44.0730271" lon="10.4064016"><ele>659.0</ele><time>2026-03-31T12:45:07Z</time></trkpt><trkpt lat="44.0731044" lon="10.406379"><ele>659.0</ele><time>2026-03-31T12:45:09Z</time></trkpt><trkpt lat="44.0731685" lon="10.4063975"><ele>659.0</ele><time>2026-03-31T12:45:11Z</time></trkpt><trkpt lat="44.0732297" lon="10.4064262"><ele>659.0</ele><time>2026-03-31T12:45:12.999Z</time></trkpt><trkpt lat="44.0733081" lon="10.4064572"><ele>659.0</ele><time>2026-03-31T12:45:16Z</time></trkpt><trkpt lat="44.073376" lon="10.4064925"><ele>659.0</ele><time>2026-03-31T12:45:19Z</time></trkpt><trkpt lat="44.0734419" lon="10.4065179"><ele>658.4285714285714</ele><time>2026-03-31T12:45:22Z</time></trkpt><trkpt lat="44.0735244" lon="10.4065214"><ele>657.8571428571428</ele><time>2026-03-31T12:45:25.999Z</time></trkpt><trkpt lat="44.0735907" lon="10.4064979"><ele>657.2857142857142</ele><time>2026-03-31T12:45:29Z</time></trkpt><trkpt lat="44.0736452" lon="10.4064333"><ele>656.7142857142858</ele><time>2026-03-31T12:45:32Z</time></trkpt><trkpt lat="44.0736845" lon="10.4063487"><ele>656.1428571428571</ele><time>2026-03-31T12:45:35Z</time></trkpt><trkpt lat="44.0737057" lon="10.4062438"><ele>655.5714285714286</ele><time>2026-03-31T12:45:38Z</time></trkpt><trkpt lat="44.0737096" lon="10.4061423"><ele>655.0</ele><time>2026-03-31T12:45:40.999Z</time></trkpt><trkpt lat="44.0736981" lon="10.4060323"><ele>655.0</ele><time>2026-03-31T12:45:44Z</time></trkpt><trkpt lat="44.0736878" lon="10.4059144"><ele>655.0</ele><time>2026-03-31T12:45:47Z</time></trkpt><trkpt lat="44.0736722" lon="10.4057989"><ele>655.0</ele><time>2026-03-31T12:45:49.999Z</time></trkpt><trkpt lat="44.0736598" lon="10.4056944"><ele>655.0</ele><time>2026-03-31T12:45:52.999Z</time></trkpt><trkpt lat="44.0736454" lon="10.4055761"><ele>655.0</ele><time>2026-03-31T12:45:55.999Z</time></trkpt><trkpt lat="44.0736403" lon="10.4054603"><ele>655.0</ele><time>2026-03-31T12:45:58.999Z</time></trkpt><trkpt lat="44.0736409" lon="10.4053697"><ele>655.4285714285714</ele><time>2026-03-31T12:46:01Z</time></trkpt><trkpt lat="44.0736547" lon="10.4052771"><ele>655.8571428571429</ele><time>2026-03-31T12:46:03Z</time></trkpt><trkpt lat="44.0736869" lon="10.4051983"><ele>656.2857142857142</ele><time>2026-03-31T12:46:05Z</time></trkpt><trkpt lat="44.0737258" lon="10.405125"><ele>656.7142857142858</ele><time>2026-03-31T12:46:07Z</time></trkpt><trkpt lat="44.0737668" lon="10.4050582"><ele>657.1428571428571</ele><time>2026-03-31T12:46:09Z</time></trkpt><trkpt lat="44.0738071" lon="10.4049845"><ele>657.5714285714286</ele><time>2026-03-31T12:46:11Z</time></trkpt><trkpt lat="44.0738455" lon="10.4049076"><ele>658.0</ele><time>2026-03-31T12:46:13Z</time></trkpt><trkpt lat="44.073869" lon="10.4047916"><ele>658.0</ele><time>2026-03-31T12:46:16Z</time></trkpt><trkpt lat="44.0738725" lon="10.4047016"><ele>658.0</ele><time>2026-03-31T12:46:18Z</time></trkpt><trkpt lat="44.0738576" lon="10.404583"><ele>658.0</ele><time>2026-03-31T12:46:21Z</time></trkpt><trkpt lat="44.0738289" lon="10.4044591"><ele>658.0</ele><time>2026-03-31T12:46:24Z</time></trkpt><trkpt lat="44.0738103" lon="10.4043689"><ele>658.0</ele><time>2026-03-31T12:46:25.999Z</time></trkpt><trkpt lat="44.0738083" lon="10.4042757"><ele>658.0</ele><time>2026-03-31T12:46:28Z</time></trkpt><trkpt lat="44.0738102" lon="10.40418"><ele>658.0</ele><time>2026-03-31T12:46:30Z</time></trkpt><trkpt lat="44.0738149" lon="10.4040572"><ele>658.0</ele><time>2026-03-31T12:46:33Z</time></trkpt><trkpt lat="44.0737833" lon="10.4039658"><ele>658.0</ele><time>2026-03-31T12:46:35.999Z</time></trkpt><trkpt lat="44.0737369" lon="10.4039035"><ele>658.0</ele><time>2026-03-31T12:46:38Z</time></trkpt><trkpt lat="44.073692" lon="10.4038364"><ele>658.0</ele><time>2026-03-31T12:46:40Z</time></trkpt><trkpt lat="44.0736347" lon="10.4037291"><ele>658.0</ele><time>2026-03-31T12:46:43Z</time></trkpt><trkpt lat="44.0736011" lon="10.4036501"><ele>658.0</ele><time>2026-03-31T12:46:44.999Z</time></trkpt><trkpt lat="44.0735687" lon="10.4035335"><ele>657.0</ele><time>2026-03-31T12:46:48Z</time></trkpt><trkpt lat="44.0735407" lon="10.4034119"><ele>656.0</ele><time>2026-03-31T12:46:50.999Z</time></trkpt><trkpt lat="44.073512" lon="10.4033026"><ele>655.0</ele><time>2026-03-31T12:46:53.999Z</time></trkpt><trkpt lat="44.0734811" lon="10.4031897"><ele>654.0</ele><time>2026-03-31T12:46:57Z</time></trkpt><trkpt lat="44.0734605" lon="10.4031042"><ele>653.0</ele><time>2026-03-31T12:46:59Z</time></trkpt><trkpt lat="44.0734407" lon="10.4030177"><ele>652.0</ele><time>2026-03-31T12:47:01Z</time></trkpt><trkpt lat="44.0734223" lon="10.402918"><ele>651.0</ele><time>2026-03-31T12:47:03Z</time></trkpt><trkpt lat="44.0734083" lon="10.4028233"><ele>650.0</ele><time>2026-03-31T12:47:05Z</time></trkpt><trkpt lat="44.0733895" lon="10.4027225"><ele>649.0</ele><time>2026-03-31T12:47:07.1Z</time></trkpt><trkpt lat="44.0733739" lon="10.4026151"><ele>648.0</ele><time>2026-03-31T12:47:08.999Z</time></trkpt><trkpt lat="44.0733527" lon="10.4025046"><ele>647.0</ele><time>2026-03-31T12:47:10.999Z</time></trkpt><trkpt lat="44.0733264" lon="10.4023974"><ele>646.0</ele><time>2026-03-31T12:47:12.999Z</time></trkpt><trkpt lat="44.0733072" lon="10.4022956"><ele>646.0</ele><time>2026-03-31T12:47:15Z</time></trkpt><trkpt lat="44.0732996" lon="10.402203"><ele>646.0</ele><time>2026-03-31T12:47:16.999Z</time></trkpt><trkpt lat="44.073314" lon="10.4020717"><ele>646.0</ele><time>2026-03-31T12:47:20Z</time></trkpt><trkpt lat="44.0733555" lon="10.401945"><ele>646.0</ele><time>2026-03-31T12:47:23Z</time></trkpt><trkpt lat="44.0733911" lon="10.401856"><ele>646.0</ele><time>2026-03-31T12:47:25Z</time></trkpt><trkpt lat="44.0734416" lon="10.401748"><ele>646.0</ele><time>2026-03-31T12:47:27.999Z</time></trkpt><trkpt lat="44.0734747" lon="10.4016295"><ele>645.1666666666667</ele><time>2026-03-31T12:47:31Z</time></trkpt><trkpt lat="44.0734748" lon="10.4015374"><ele>644.3333333333334</ele><time>2026-03-31T12:47:33Z</time></trkpt><trkpt lat="44.0734427" lon="10.4014258"><ele>643.5</ele><time>2026-03-31T12:47:35Z</time></trkpt><trkpt lat="44.0733835" lon="10.4013213"><ele>642.6666666666666</ele><time>2026-03-31T12:47:37Z</time></trkpt><trkpt lat="44.0733207" lon="10.401235"><ele>641.8333333333333</ele><time>2026-03-31T12:47:39Z</time></trkpt><trkpt lat="44.0732559" lon="10.4011284"><ele>641.0</ele><time>2026-03-31T12:47:40.999Z</time></trkpt><trkpt lat="44.0731898" lon="10.4010345"><ele>647.8</ele><time>2026-03-31T12:47:43Z</time></trkpt><trkpt lat="44.0731049" lon="10.400916"><ele>654.5999999999999</ele><time>2026-03-31T12:47:45Z</time></trkpt><trkpt lat="44.0730573" lon="10.4008495"><ele>661.4</ele><time>2026-03-31T12:47:46Z</time></trkpt><trkpt lat="44.0730073" lon="10.4007919"><ele>668.2</ele><time>2026-03-31T12:47:47Z</time></trkpt><trkpt lat="44.0729063" lon="10.4006785"><ele>675.0</ele><time>2026-03-31T12:47:49Z</time></trkpt><trkpt lat="44.0728514" lon="10.4005395"><ele>675.5</ele><time>2026-03-31T12:47:51Z</time></trkpt><trkpt lat="44.0729075" lon="10.4004063"><ele>676.0</ele><time>2026-03-31T12:47:52.999Z</time></trkpt><trkpt lat="44.0729954" lon="10.4003676"><ele>676.5</ele><time>2026-03-31T12:47:55Z</time></trkpt><trkpt lat="44.0730716" lon="10.4004087"><ele>677.0</ele><time>2026-03-31T12:47:57Z</time></trkpt><trkpt lat="44.0731309" lon="10.4004615"><ele>677.5</ele><time>2026-03-31T12:47:59Z</time></trkpt><trkpt lat="44.0732101" lon="10.4004717"><ele>678.0</ele><time>2026-03-31T12:48:01.999Z</time></trkpt><trkpt lat="44.0732903" lon="10.4004661"><ele>676.6666666666666</ele><time>2026-03-31T12:48:05Z</time></trkpt><trkpt lat="44.0733706" lon="10.4004623"><ele>675.3333333333334</ele><time>2026-03-31T12:48:07.999Z</time></trkpt><trkpt lat="44.073451" lon="10.4004433"><ele>674.0</ele><time>2026-03-31T12:48:11Z</time></trkpt><trkpt lat="44.0735356" lon="10.4004172"><ele>672.6666666666667</ele><time>2026-03-31T12:48:13.999Z</time></trkpt><trkpt lat="44.0736127" lon="10.4003912"><ele>671.3333333333334</ele><time>2026-03-31T12:48:16.999Z</time></trkpt><trkpt lat="44.0736871" lon="10.4003867"><ele>670.0</ele><time>2026-03-31T12:48:20Z</time></trkpt><trkpt lat="44.0737611" lon="10.400402"><ele>670.0</ele><time>2026-03-31T12:48:22.999Z</time></trkpt><trkpt lat="44.0738348" lon="10.4004097"><ele>670.0</ele><time>2026-03-31T12:48:25.999Z</time></trkpt><trkpt lat="44.0739236" lon="10.4004074"><ele>670.0</ele><time>2026-03-31T12:48:28.999Z</time></trkpt><trkpt lat="44.0739955" lon="10.400362"><ele>670.0</ele><time>2026-03-31T12:48:32Z</time></trkpt><trkpt lat="44.0740602" lon="10.4003055"><ele>670.0</ele><time>2026-03-31T12:48:35Z</time></trkpt><trkpt lat="44.0741283" lon="10.4002369"><ele>670.0</ele><time>2026-03-31T12:48:38Z</time></trkpt><trkpt lat="44.0741878" lon="10.400181"><ele>667.0</ele><time>2026-03-31T12:48:41Z</time></trkpt><trkpt lat="44.0742576" lon="10.4001408"><ele>664.0</ele><time>2026-03-31T12:48:44Z</time></trkpt><trkpt lat="44.0743265" lon="10.4001112"><ele>661.0</ele><time>2026-03-31T12:48:47Z</time></trkpt><trkpt lat="44.0744178" lon="10.4001035"><ele>658.0</ele><time>2026-03-31T12:48:49.999Z</time></trkpt><trkpt lat="44.0744944" lon="10.4000953"><ele>655.0</ele><time>2026-03-31T12:48:53Z</time></trkpt><trkpt lat="44.0745793" lon="10.4000944"><ele>652.0</ele><time>2026-03-31T12:48:56Z</time></trkpt><trkpt lat="44.0746902" lon="10.4000906"><ele>652.0</ele><time>2026-03-31T12:49:00Z</time></trkpt><trkpt lat="44.0747722" lon="10.4000955"><ele>652.0</ele><time>2026-03-31T12:49:03Z</time></trkpt><trkpt lat="44.0748395" lon="10.4000866"><ele>652.0</ele><time>2026-03-31T12:49:06.102Z</time></trkpt><trkpt lat="44.0749216" lon="10.4000776"><ele>652.0</ele><time>2026-03-31T12:49:09Z</time></trkpt><trkpt lat="44.0749908" lon="10.4000469"><ele>652.0</ele><time>2026-03-31T12:49:12Z</time></trkpt><trkpt lat="44.0750673" lon="10.3999847"><ele>652.0</ele><time>2026-03-31T12:49:14.999Z</time></trkpt><trkpt lat="44.0751217" lon="10.3999353"><ele>650.5</ele><time>2026-03-31T12:49:17Z</time></trkpt><trkpt lat="44.07518" lon="10.3998881"><ele>649.0</ele><time>2026-03-31T12:49:19Z</time></trkpt><trkpt lat="44.075245" lon="10.3998028"><ele>647.5</ele><time>2026-03-31T12:49:22Z</time></trkpt><trkpt lat="44.0752486" lon="10.399693"><ele>646.0</ele><time>2026-03-31T12:49:25Z</time></trkpt><trkpt lat="44.0752216" lon="10.3995825"><ele>644.5</ele><time>2026-03-31T12:49:27.999Z</time></trkpt><trkpt lat="44.0751775" lon="10.3994984"><ele>643.0</ele><time>2026-03-31T12:49:31Z</time></trkpt><trkpt lat="44.0751212" lon="10.3994363"><ele>643.0</ele><time>2026-03-31T12:49:34Z</time></trkpt><trkpt lat="44.0750817" lon="10.3993668"><ele>643.0</ele><time>2026-03-31T12:49:38Z</time></trkpt><trkpt lat="44.0750423" lon="10.3992955"><ele>643.0</ele><time>2026-03-31T12:49:41Z</time></trkpt><trkpt lat="44.0750096" lon="10.3992204"><ele>643.0</ele><time>2026-03-31T12:49:44Z</time></trkpt><trkpt lat="44.074977" lon="10.3991224"><ele>643.0</ele><time>2026-03-31T12:49:47Z</time></trkpt><trkpt lat="44.0749428" lon="10.3990257"><ele>643.0</ele><time>2026-03-31T12:49:50Z</time></trkpt><trkpt lat="44.0749243" lon="10.3989359"><ele>643.0</ele><time>2026-03-31T12:49:53Z</time></trkpt><trkpt lat="44.0749067" lon="10.3988331"><ele>646.8333333333334</ele><time>2026-03-31T12:49:56Z</time></trkpt><trkpt lat="44.074896" lon="10.3987308"><ele>650.6666666666667</ele><time>2026-03-31T12:49:59Z</time></trkpt><trkpt lat="44.0748843" lon="10.3986154"><ele>654.5</ele><time>2026-03-31T12:50:02Z</time></trkpt><trkpt lat="44.0748646" lon="10.3984951"><ele>658.3333333333334</ele><time>2026-03-31T12:50:05.999Z</time></trkpt><trkpt lat="44.0748414" lon="10.3984001"><ele>662.1666666666666</ele><time>2026-03-31T12:50:08Z</time></trkpt><trkpt lat="44.0748143" lon="10.3983047"><ele>666.0</ele><time>2026-03-31T12:50:10Z</time></trkpt><trkpt lat="44.0747842" lon="10.3982127"><ele>666.0</ele><time>2026-03-31T12:50:11.999Z</time></trkpt><trkpt lat="44.0747569" lon="10.3981265"><ele>666.0</ele><time>2026-03-31T12:50:13.999Z</time></trkpt><trkpt lat="44.0747379" lon="10.3980421"><ele>666.0</ele><time>2026-03-31T12:50:17Z</time></trkpt><trkpt lat="44.074708" lon="10.3979431"><ele>666.0</ele><time>2026-03-31T12:50:19.999Z</time></trkpt><trkpt lat="44.0746663" lon="10.3978264"><ele>666.0</ele><time>2026-03-31T12:50:23Z</time></trkpt><trkpt lat="44.0746243" lon="10.397737"><ele>666.0</ele><time>2026-03-31T12:50:25Z</time></trkpt><trkpt lat="44.0745732" lon="10.397656"><ele>664.0</ele><time>2026-03-31T12:50:26.999Z</time></trkpt><trkpt lat="44.0745253" lon="10.3975958"><ele>662.0</ele><time>2026-03-31T12:50:29Z</time></trkpt><trkpt lat="44.0744749" lon="10.3975363"><ele>660.0</ele><time>2026-03-31T12:50:31Z</time></trkpt><trkpt lat="44.074423" lon="10.3974768"><ele>658.0</ele><time>2026-03-31T12:50:32.999Z</time></trkpt><trkpt lat="44.0743682" lon="10.3974162"><ele>656.0</ele><time>2026-03-31T12:50:34.999Z</time></trkpt><trkpt lat="44.0743193" lon="10.397354"><ele>654.0</ele><time>2026-03-31T12:50:37Z</time></trkpt><trkpt lat="44.0742746" lon="10.3972785"><ele>652.0</ele><time>2026-03-31T12:50:39Z</time></trkpt><trkpt lat="44.0742334" lon="10.3972029"><ele>649.0</ele><time>2026-03-31T12:50:41Z</time></trkpt><trkpt lat="44.0741858" lon="10.3971434"><ele>646.0</ele><time>2026-03-31T12:50:43Z</time></trkpt><trkpt lat="44.0741254" lon="10.3970727"><ele>643.0</ele><time>2026-03-31T12:50:46Z</time></trkpt><trkpt lat="44.0740551" lon="10.3969891"><ele>640.0</ele><time>2026-03-31T12:50:49Z</time></trkpt><trkpt lat="44.0740058" lon="10.3969323"><ele>637.0</ele><time>2026-03-31T12:50:51Z</time></trkpt><trkpt lat="44.0739333" lon="10.3968607"><ele>634.0</ele><time>2026-03-31T12:50:54Z</time></trkpt><trkpt lat="44.073859" lon="10.3967796"><ele>641.3333333333334</ele><time>2026-03-31T12:50:57Z</time></trkpt><trkpt lat="44.0738183" lon="10.3967101"><ele>648.6666666666667</ele><time>2026-03-31T12:50:59Z</time></trkpt><trkpt lat="44.073781" lon="10.3965961"><ele>656.0</ele><time>2026-03-31T12:51:02Z</time></trkpt><trkpt lat="44.0737521" lon="10.3964691"><ele>663.3333333333334</ele><time>2026-03-31T12:51:05Z</time></trkpt><trkpt lat="44.0737214" lon="10.3963584"><ele>670.6666666666666</ele><time>2026-03-31T12:51:08Z</time></trkpt><trkpt lat="44.0736853" lon="10.3962475"><ele>678.0</ele><time>2026-03-31T12:51:11Z</time></trkpt><trkpt lat="44.0736542" lon="10.3961397"><ele>678.0</ele><time>2026-03-31T12:51:14Z</time></trkpt><trkpt lat="44.0736311" lon="10.3960377"><ele>678.0</ele><time>2026-03-31T12:51:17Z</time></trkpt><trkpt lat="44.0736208" lon="10.3959221"><ele>678.0</ele><time>2026-03-31T12:51:20Z</time></trkpt><trkpt lat="44.0736215" lon="10.3958102"><ele>678.0</ele><time>2026-03-31T12:51:22.999Z</time></trkpt><trkpt lat="44.0736244" lon="10.395721"><ele>678.0</ele><time>2026-03-31T12:51:25Z</time></trkpt><trkpt lat="44.0736457" lon="10.3956325"><ele>678.0</ele><time>2026-03-31T12:51:27Z</time></trkpt><trkpt lat="44.0736928" lon="10.3955631"><ele>678.0</ele><time>2026-03-31T12:51:29Z</time></trkpt><trkpt lat="44.0737496" lon="10.3954591"><ele>677.3333333333334</ele><time>2026-03-31T12:51:32Z</time></trkpt><trkpt lat="44.0737855" lon="10.3953591"><ele>676.6666666666666</ele><time>2026-03-31T12:51:34Z</time></trkpt><trkpt lat="44.0738147" lon="10.3952444"><ele>676.0</ele><time>2026-03-31T12:51:36Z</time></trkpt><trkpt lat="44.0738364" lon="10.3951219"><ele>675.3333333333333</ele><time>2026-03-31T12:51:38Z</time></trkpt><trkpt lat="44.0738454" lon="10.394998"><ele>674.6666666666666</ele><time>2026-03-31T12:51:40Z</time></trkpt><trkpt lat="44.0738411" lon="10.3948717"><ele>674.0</ele><time>2026-03-31T12:51:42Z</time></trkpt><trkpt lat="44.0738168" lon="10.3947576"><ele>675.8333333333333</ele><time>2026-03-31T12:51:44Z</time></trkpt><trkpt lat="44.0737921" lon="10.3946399"><ele>677.6666666666666</ele><time>2026-03-31T12:51:46Z</time></trkpt><trkpt lat="44.0737726" lon="10.3945175"><ele>679.5</ele><time>2026-03-31T12:51:48Z</time></trkpt><trkpt lat="44.0737866" lon="10.3943941"><ele>681.3333333333334</ele><time>2026-03-31T12:51:50Z</time></trkpt><trkpt lat="44.0738041" lon="10.3942947"><ele>683.1666666666667</ele><time>2026-03-31T12:51:52Z</time></trkpt><trkpt lat="44.0738218" lon="10.3941672"><ele>685.0</ele><time>2026-03-31T12:51:54.999Z</time></trkpt><trkpt lat="44.0738488" lon="10.3940558"><ele>685.0</ele><time>2026-03-31T12:51:57.999Z</time></trkpt><trkpt lat="44.073907" lon="10.3939783"><ele>685.0</ele><time>2026-03-31T12:52:00.999Z</time></trkpt><trkpt lat="44.0739883" lon="10.3940169"><ele>685.0</ele><time>2026-03-31T12:52:05.999Z</time></trkpt><trkpt lat="44.0740309" lon="10.3941019"><ele>685.0</ele><time>2026-03-31T12:52:09Z</time></trkpt><trkpt lat="44.0740671" lon="10.3941908"><ele>685.0</ele><time>2026-03-31T12:52:12Z</time></trkpt><trkpt lat="44.0741079" lon="10.3942841"><ele>685.0</ele><time>2026-03-31T12:52:15Z</time></trkpt><trkpt lat="44.0741564" lon="10.3943667"><ele>679.8571428571428</ele><time>2026-03-31T12:52:18Z</time></trkpt><trkpt lat="44.0742155" lon="10.3944441"><ele>674.7142857142858</ele><time>2026-03-31T12:52:20.999Z</time></trkpt><trkpt lat="44.0742652" lon="10.3945132"><ele>669.5714285714286</ele><time>2026-03-31T12:52:24Z</time></trkpt><trkpt lat="44.074319" lon="10.3945784"><ele>664.4285714285713</ele><time>2026-03-31T12:52:27Z</time></trkpt><trkpt lat="44.0743724" lon="10.3946554"><ele>659.2857142857142</ele><time>2026-03-31T12:52:30Z</time></trkpt><trkpt lat="44.0744003" lon="10.3947511"><ele>654.1428571428571</ele><time>2026-03-31T12:52:33Z</time></trkpt><trkpt lat="44.0744158" lon="10.3948396"><ele>649.0</ele><time>2026-03-31T12:52:35.999Z</time></trkpt><trkpt lat="44.0744366" lon="10.3949229"><ele>647.2857142857142</ele><time>2026-03-31T12:52:38.999Z</time></trkpt><trkpt lat="44.0744878" lon="10.3949783"><ele>645.5714285714286</ele><time>2026-03-31T12:52:42Z</time></trkpt><trkpt lat="44.0745476" lon="10.3950125"><ele>643.8571428571429</ele><time>2026-03-31T12:52:45Z</time></trkpt><trkpt lat="44.0746113" lon="10.3950321"><ele>642.1428571428571</ele><time>2026-03-31T12:52:47.999Z</time></trkpt><trkpt lat="44.074683" lon="10.3950515"><ele>640.4285714285714</ele><time>2026-03-31T12:52:51Z</time></trkpt><trkpt lat="44.0747458" lon="10.3950672"><ele>638.7142857142857</ele><time>2026-03-31T12:52:54Z</time></trkpt><trkpt lat="44.0748191" lon="10.3950811"><ele>637.0</ele><time>2026-03-31T12:52:57Z</time></trkpt><trkpt lat="44.0749" lon="10.3950516"><ele>637.5714285714286</ele><time>2026-03-31T12:53:00.999Z</time></trkpt><trkpt lat="44.0749674" lon="10.3950005"><ele>638.1428571428571</ele><time>2026-03-31T12:53:03.999Z</time></trkpt><trkpt lat="44.0750343" lon="10.3949473"><ele>638.7142857142858</ele><time>2026-03-31T12:53:07Z</time></trkpt><trkpt lat="44.0751057" lon="10.3949045"><ele>639.2857142857142</ele><time>2026-03-31T12:53:10Z</time></trkpt><trkpt lat="44.0751654" lon="10.3948656"><ele>639.8571428571429</ele><time>2026-03-31T12:53:13Z</time></trkpt><trkpt lat="44.0752254" lon="10.3948285"><ele>640.4285714285714</ele><time>2026-03-31T12:53:16Z</time></trkpt><trkpt lat="44.0752865" lon="10.3947957"><ele>641.0</ele><time>2026-03-31T12:53:19Z</time></trkpt><trkpt lat="44.0753624" lon="10.3947744"><ele>641.0</ele><time>2026-03-31T12:53:22Z</time></trkpt><trkpt lat="44.0754306" lon="10.3947611"><ele>641.0</ele><time>2026-03-31T12:53:25Z</time></trkpt><trkpt lat="44.0755021" lon="10.3947371"><ele>641.0</ele><time>2026-03-31T12:53:27.999Z</time></trkpt><trkpt lat="44.0755714" lon="10.3947152"><ele>641.0</ele><time>2026-03-31T12:53:30.999Z</time></trkpt><trkpt lat="44.0756454" lon="10.3947028"><ele>641.0</ele><time>2026-03-31T12:53:34Z</time></trkpt><trkpt lat="44.0757201" lon="10.3946869"><ele>641.0</ele><time>2026-03-31T12:53:37Z</time></trkpt><trkpt lat="44.0757966" lon="10.3946696"><ele>641.0</ele><time>2026-03-31T12:53:40Z</time></trkpt><trkpt lat="44.0758677" lon="10.3946479"><ele>640.8571428571429</ele><time>2026-03-31T12:53:43Z</time></trkpt><trkpt lat="44.0759405" lon="10.3946295"><ele>640.7142857142857</ele><time>2026-03-31T12:53:46Z</time></trkpt><trkpt lat="44.0760043" lon="10.3946216"><ele>640.5714285714286</ele><time>2026-03-31T12:53:49Z</time></trkpt><trkpt lat="44.0760739" lon="10.3946011"><ele>640.4285714285714</ele><time>2026-03-31T12:53:52Z</time></trkpt><trkpt lat="44.0761414" lon="10.3945912"><ele>640.2857142857143</ele><time>2026-03-31T12:53:55Z</time></trkpt><trkpt lat="44.0762115" lon="10.3946141"><ele>640.1428571428571</ele><time>2026-03-31T12:53:58Z</time></trkpt><trkpt lat="44.0762663" lon="10.3946683"><ele>640.0</ele><time>2026-03-31T12:54:01Z</time></trkpt><trkpt lat="44.0763167" lon="10.3947307"><ele>640.0</ele><time>2026-03-31T12:54:04Z</time></trkpt><trkpt lat="44.0763688" lon="10.394787"><ele>640.0</ele><time>2026-03-31T12:54:07Z</time></trkpt><trkpt lat="44.0764249" lon="10.3948307"><ele>640.0</ele><time>2026-03-31T12:54:09.999Z</time></trkpt><trkpt lat="44.0764954" lon="10.3948556"><ele>640.0</ele><time>2026-03-31T12:54:13Z</time></trkpt><trkpt lat="44.0765633" lon="10.3948525"><ele>640.0</ele><time>2026-03-31T12:54:15.999Z</time></trkpt><trkpt lat="44.076629" lon="10.3948225"><ele>640.0</ele><time>2026-03-31T12:54:18.999Z</time></trkpt><trkpt lat="44.0766927" lon="10.3947851"><ele>640.0</ele><time>2026-03-31T12:54:22Z</time></trkpt><trkpt lat="44.0767506" lon="10.394725"><ele>643.2857142857142</ele><time>2026-03-31T12:54:25Z</time></trkpt><trkpt lat="44.0768107" lon="10.3946699"><ele>646.5714285714286</ele><time>2026-03-31T12:54:27.999Z</time></trkpt><trkpt lat="44.0768741" lon="10.3946254"><ele>649.8571428571429</ele><time>2026-03-31T12:54:31Z</time></trkpt><trkpt lat="44.076939" lon="10.3945995"><ele>653.1428571428571</ele><time>2026-03-31T12:54:34Z</time></trkpt><trkpt lat="44.0770042" lon="10.3945977"><ele>656.4285714285714</ele><time>2026-03-31T12:54:37Z</time></trkpt><trkpt lat="44.077072" lon="10.3946092"><ele>659.7142857142857</ele><time>2026-03-31T12:54:40Z</time></trkpt><trkpt lat="44.0771419" lon="10.394624"><ele>663.0</ele><time>2026-03-31T12:54:42.999Z</time></trkpt><trkpt lat="44.0772263" lon="10.3946513"><ele>662.9999999999999</ele><time>2026-03-31T12:54:46Z</time></trkpt><trkpt lat="44.0773024" lon="10.3946695"><ele>663.0</ele><time>2026-03-31T12:54:48.999Z</time></trkpt><trkpt lat="44.0773754" lon="10.3946934"><ele>663.0</ele><time>2026-03-31T12:54:52.103Z</time></trkpt><trkpt lat="44.0774522" lon="10.3947256"><ele>663.0</ele><time>2026-03-31T12:54:55Z</time></trkpt><trkpt lat="44.0775184" lon="10.39477"><ele>663.0</ele><time>2026-03-31T12:54:58Z</time></trkpt><trkpt lat="44.0775798" lon="10.3948155"><ele>662.9999999999999</ele><time>2026-03-31T12:55:01Z</time></trkpt><trkpt lat="44.077634" lon="10.3948607"><ele>663.0</ele><time>2026-03-31T12:55:04Z</time></trkpt><trkpt lat="44.0776887" lon="10.3949106"><ele>660.6666666666666</ele><time>2026-03-31T12:55:07Z</time></trkpt><trkpt lat="44.0777553" lon="10.3949757"><ele>658.3333333333334</ele><time>2026-03-31T12:55:09.999Z</time></trkpt><trkpt lat="44.0778115" lon="10.3950352"><ele>656.0</ele><time>2026-03-31T12:55:13Z</time></trkpt><trkpt lat="44.0778862" lon="10.3950829"><ele>653.6666666666667</ele><time>2026-03-31T12:55:16Z</time></trkpt><trkpt lat="44.0779649" lon="10.3950809"><ele>651.3333333333334</ele><time>2026-03-31T12:55:19Z</time></trkpt><trkpt lat="44.0780297" lon="10.3950328"><ele>649.0</ele><time>2026-03-31T12:55:22Z</time></trkpt><trkpt lat="44.0780611" lon="10.3949248"><ele>649.0</ele><time>2026-03-31T12:55:26Z</time></trkpt><trkpt lat="44.078058" lon="10.3948213"><ele>649.0</ele><time>2026-03-31T12:55:29Z</time></trkpt><trkpt lat="44.0780533" lon="10.3947075"><ele>649.0</ele><time>2026-03-31T12:55:32Z</time></trkpt><trkpt lat="44.078053" lon="10.3945913"><ele>649.0</ele><time>2026-03-31T12:55:35Z</time></trkpt><trkpt lat="44.078052" lon="10.3944726"><ele>649.0</ele><time>2026-03-31T12:55:37.999Z</time></trkpt><trkpt lat="44.0780713" lon="10.3943693"><ele>649.0</ele><time>2026-03-31T12:55:40.999Z</time></trkpt><trkpt lat="44.0781215" lon="10.3942817"><ele>652.0</ele><time>2026-03-31T12:55:44Z</time></trkpt><trkpt lat="44.0781943" lon="10.3942393"><ele>655.0</ele><time>2026-03-31T12:55:47Z</time></trkpt><trkpt lat="44.0782665" lon="10.3942604"><ele>658.0</ele><time>2026-03-31T12:55:50Z</time></trkpt><trkpt lat="44.078334" lon="10.3943045"><ele>661.0</ele><time>2026-03-31T12:55:52.999Z</time></trkpt><trkpt lat="44.0783962" lon="10.3943642"><ele>664.0</ele><time>2026-03-31T12:55:55.999Z</time></trkpt><trkpt lat="44.0784595" lon="10.3944138"><ele>667.0</ele><time>2026-03-31T12:55:59Z</time></trkpt><trkpt lat="44.0785279" lon="10.3944553"><ele>668.4285714285714</ele><time>2026-03-31T12:56:02Z</time></trkpt><trkpt lat="44.078598" lon="10.3944834"><ele>669.8571428571429</ele><time>2026-03-31T12:56:05Z</time></trkpt><trkpt lat="44.0786663" lon="10.3945156"><ele>671.2857142857142</ele><time>2026-03-31T12:56:08Z</time></trkpt><trkpt lat="44.0787352" lon="10.3945374"><ele>672.7142857142858</ele><time>2026-03-31T12:56:11Z</time></trkpt><trkpt lat="44.0788028" lon="10.3945531"><ele>674.1428571428571</ele><time>2026-03-31T12:56:14Z</time></trkpt><trkpt lat="44.0788656" lon="10.3945784"><ele>675.5714285714286</ele><time>2026-03-31T12:56:16.999Z</time></trkpt><trkpt lat="44.0789312" lon="10.394574"><ele>677.0</ele><time>2026-03-31T12:56:20Z</time></trkpt><trkpt lat="44.0789946" lon="10.3945451"><ele>676.9999999999999</ele><time>2026-03-31T12:56:22.999Z</time></trkpt><trkpt lat="44.0790517" lon="10.3945066"><ele>677.0</ele><time>2026-03-31T12:56:26Z</time></trkpt><trkpt lat="44.0791039" lon="10.3944465"><ele>677.0</ele><time>2026-03-31T12:56:29Z</time></trkpt><trkpt lat="44.0791413" lon="10.3943677"><ele>677.0</ele><time>2026-03-31T12:56:32Z</time></trkpt><trkpt lat="44.0791647" lon="10.3942713"><ele>677.0</ele><time>2026-03-31T12:56:35Z</time></trkpt><trkpt lat="44.0791738" lon="10.3941773"><ele>676.9999999999999</ele><time>2026-03-31T12:56:37.999Z</time></trkpt><trkpt lat="44.0791629" lon="10.394064"><ele>677.0</ele><time>2026-03-31T12:56:41.999Z</time></trkpt><trkpt lat="44.0791478" lon="10.3939691"><ele>674.9999999999999</ele><time>2026-03-31T12:56:45Z</time></trkpt><trkpt lat="44.0791229" lon="10.3938818"><ele>673.0</ele><time>2026-03-31T12:56:48Z</time></trkpt><trkpt lat="44.0790963" lon="10.393798"><ele>671.0</ele><time>2026-03-31T12:56:51Z</time></trkpt><trkpt lat="44.0790749" lon="10.3937127"><ele>669.0</ele><time>2026-03-31T12:56:53.999Z</time></trkpt><trkpt lat="44.0790585" lon="10.3936203"><ele>667.0</ele><time>2026-03-31T12:56:57Z</time></trkpt><trkpt lat="44.0790435" lon="10.3935122"><ele>664.9999999999999</ele><time>2026-03-31T12:57:01Z</time></trkpt><trkpt lat="44.079016" lon="10.3934235"><ele>663.0</ele><time>2026-03-31T12:57:04Z</time></trkpt><trkpt lat="44.0789839" lon="10.393337"><ele>667.0</ele><time>2026-03-31T12:57:07Z</time></trkpt><trkpt lat="44.078954" lon="10.393257"><ele>671.0</ele><time>2026-03-31T12:57:10Z</time></trkpt><trkpt lat="44.0789435" lon="10.3931491"><ele>675.0</ele><time>2026-03-31T12:57:13Z</time></trkpt><trkpt lat="44.0789837" lon="10.3930403"><ele>679.0</ele><time>2026-03-31T12:57:15.999Z</time></trkpt><trkpt lat="44.0790576" lon="10.3929713"><ele>683.0</ele><time>2026-03-31T12:57:19Z</time></trkpt><trkpt lat="44.0791186" lon="10.3929244"><ele>687.0</ele><time>2026-03-31T12:57:22Z</time></trkpt><trkpt lat="44.0791919" lon="10.392914"><ele>687.0</ele><time>2026-03-31T12:57:25.999Z</time></trkpt><trkpt lat="44.0792753" lon="10.3929197"><ele>687.0</ele><time>2026-03-31T12:57:29.999Z</time></trkpt><trkpt lat="44.0793455" lon="10.3929168"><ele>687.0</ele><time>2026-03-31T12:57:33Z</time></trkpt><trkpt lat="44.0794126" lon="10.3928822"><ele>687.0</ele><time>2026-03-31T12:57:35.999Z</time></trkpt><trkpt lat="44.0794773" lon="10.3928144"><ele>687.0</ele><time>2026-03-31T12:57:39Z</time></trkpt><trkpt lat="44.0795255" lon="10.3927397"><ele>687.0</ele><time>2026-03-31T12:57:42Z</time></trkpt><trkpt lat="44.0795794" lon="10.3926519"><ele>687.0</ele><time>2026-03-31T12:57:46Z</time></trkpt><trkpt lat="44.079612" lon="10.3925735"><ele>687.0</ele><time>2026-03-31T12:57:50Z</time></trkpt><trkpt lat="44.0796532" lon="10.3924816"><ele>687.0</ele><time>2026-03-31T12:57:54.999Z</time></trkpt><trkpt lat="44.0796838" lon="10.3923908"><ele>687.0</ele><time>2026-03-31T12:57:59Z</time></trkpt><trkpt lat="44.0797127" lon="10.3923123"><ele>687.0</ele><time>2026-03-31T12:58:02Z</time></trkpt><trkpt lat="44.0797583" lon="10.3922387"><ele>687.0</ele><time>2026-03-31T12:58:05Z</time></trkpt><trkpt lat="44.0798251" lon="10.3921748"><ele>687.0</ele><time>2026-03-31T12:58:07.999Z</time></trkpt><trkpt lat="44.0798784" lon="10.3921183"><ele>688.1666666666666</ele><time>2026-03-31T12:58:11Z</time></trkpt><trkpt lat="44.0799103" lon="10.3920177"><ele>689.3333333333334</ele><time>2026-03-31T12:58:15Z</time></trkpt><trkpt lat="44.079878" lon="10.3919353"><ele>690.5</ele><time>2026-03-31T12:58:19Z</time></trkpt><trkpt lat="44.0799387" lon="10.3919944"><ele>691.6666666666667</ele><time>2026-03-31T12:58:46Z</time></trkpt><trkpt lat="44.0800087" lon="10.3920568"><ele>692.8333333333334</ele><time>2026-03-31T12:58:48.999Z</time></trkpt><trkpt lat="44.0800905" lon="10.3920879"><ele>694.0</ele><time>2026-03-31T12:58:52Z</time></trkpt><trkpt lat="44.0801705" lon="10.3921067"><ele>690.1428571428572</ele><time>2026-03-31T12:58:55Z</time></trkpt><trkpt lat="44.0802364" lon="10.3921228"><ele>686.2857142857142</ele><time>2026-03-31T12:58:58Z</time></trkpt><trkpt lat="44.0803179" lon="10.3921237"><ele>682.4285714285714</ele><time>2026-03-31T12:59:02Z</time></trkpt><trkpt lat="44.080384" lon="10.3921203"><ele>678.5714285714287</ele><time>2026-03-31T12:59:05Z</time></trkpt><trkpt lat="44.0804537" lon="10.392122"><ele>674.7142857142858</ele><time>2026-03-31T12:59:07.999Z</time></trkpt><trkpt lat="44.0805177" lon="10.3921293"><ele>670.8571428571429</ele><time>2026-03-31T12:59:11Z</time></trkpt><trkpt lat="44.080594" lon="10.3921341"><ele>667.0</ele><time>2026-03-31T12:59:15Z</time></trkpt><trkpt lat="44.0806797" lon="10.3921292"><ele>667.0000000000001</ele><time>2026-03-31T12:59:18.999Z</time></trkpt><trkpt lat="44.0807494" lon="10.3921338"><ele>667.0</ele><time>2026-03-31T12:59:22Z</time></trkpt><trkpt lat="44.0808141" lon="10.3921375"><ele>667.0</ele><time>2026-03-31T12:59:24.999Z</time></trkpt><trkpt lat="44.0808821" lon="10.3921408"><ele>667.0</ele><time>2026-03-31T12:59:28Z</time></trkpt><trkpt lat="44.080957" lon="10.3921451"><ele>667.0</ele><time>2026-03-31T12:59:31Z</time></trkpt><trkpt lat="44.0810359" lon="10.392151"><ele>667.0000000000001</ele><time>2026-03-31T12:59:33.999Z</time></trkpt><trkpt lat="44.0811099" lon="10.3921421"><ele>667.0</ele><time>2026-03-31T12:59:37Z</time></trkpt><trkpt lat="44.0811723" lon="10.3921262"><ele>666.7142857142858</ele><time>2026-03-31T12:59:40Z</time></trkpt><trkpt lat="44.0812357" lon="10.3921088"><ele>666.4285714285714</ele><time>2026-03-31T12:59:43Z</time></trkpt><trkpt lat="44.0813061" lon="10.3920776"><ele>666.1428571428571</ele><time>2026-03-31T12:59:46Z</time></trkpt><trkpt lat="44.0813746" lon="10.392048"><ele>665.8571428571429</ele><time>2026-03-31T12:59:49Z</time></trkpt><trkpt lat="44.0814368" lon="10.3920228"><ele>665.5714285714286</ele><time>2026-03-31T12:59:51.999Z</time></trkpt><trkpt lat="44.0814992" lon="10.3919952"><ele>665.2857142857143</ele><time>2026-03-31T12:59:56Z</time></trkpt><trkpt lat="44.081571" lon="10.3919728"><ele>665.0</ele><time>2026-03-31T13:00:00.999Z</time></trkpt><trkpt lat="44.0816463" lon="10.3919604"><ele>665.8333333333333</ele><time>2026-03-31T13:00:05.999Z</time></trkpt><trkpt lat="44.0817163" lon="10.3919702"><ele>666.6666666666666</ele><time>2026-03-31T13:00:11Z</time></trkpt><trkpt lat="44.0817947" lon="10.3920072"><ele>667.5</ele><time>2026-03-31T13:00:15Z</time></trkpt><trkpt lat="44.0818677" lon="10.3920377"><ele>668.3333333333334</ele><time>2026-03-31T13:00:18.999Z</time></trkpt><trkpt lat="44.081931" lon="10.3921"><ele>669.1666666666667</ele><time>2026-03-31T13:00:23Z</time></trkpt><trkpt lat="44.0819863" lon="10.3921572"><ele>670.0</ele><time>2026-03-31T13:00:27Z</time></trkpt><trkpt lat="44.0820588" lon="10.3922234"><ele>670.1428571428571</ele><time>2026-03-31T13:00:31Z</time></trkpt><trkpt lat="44.0821301" lon="10.3922862"><ele>670.2857142857142</ele><time>2026-03-31T13:00:34.999Z</time></trkpt><trkpt lat="44.08218" lon="10.3923539"><ele>670.4285714285713</ele><time>2026-03-31T13:00:37.999Z</time></trkpt><trkpt lat="44.0822235" lon="10.3924312"><ele>670.5714285714286</ele><time>2026-03-31T13:00:41Z</time></trkpt><trkpt lat="44.0822705" lon="10.3924968"><ele>670.7142857142858</ele><time>2026-03-31T13:00:44Z</time></trkpt><trkpt lat="44.0823387" lon="10.3925748"><ele>670.8571428571428</ele><time>2026-03-31T13:00:48Z</time></trkpt><trkpt lat="44.0823882" lon="10.3926412"><ele>671.0</ele><time>2026-03-31T13:00:50.999Z</time></trkpt><trkpt lat="44.0824424" lon="10.3927104"><ele>672.3333333333333</ele><time>2026-03-31T13:00:53.999Z</time></trkpt><trkpt lat="44.0824984" lon="10.3927734"><ele>673.6666666666666</ele><time>2026-03-31T13:00:56.999Z</time></trkpt><trkpt lat="44.0825545" lon="10.3928275"><ele>675.0</ele><time>2026-03-31T13:00:59.999Z</time></trkpt><trkpt lat="44.0825999" lon="10.3929143"><ele>676.3333333333334</ele><time>2026-03-31T13:01:04Z</time></trkpt><trkpt lat="44.0826281" lon="10.3930318"><ele>677.6666666666667</ele><time>2026-03-31T13:01:09Z</time></trkpt><trkpt lat="44.0826478" lon="10.3931415"><ele>679.0</ele><time>2026-03-31T13:01:12Z</time></trkpt><trkpt lat="44.0826804" lon="10.3932938"><ele>679.0</ele><time>2026-03-31T13:01:15.103Z</time></trkpt><trkpt lat="44.0827125" lon="10.3934111"><ele>679.0</ele><time>2026-03-31T13:01:17Z</time></trkpt><trkpt lat="44.0827563" lon="10.3935378"><ele>679.0</ele><time>2026-03-31T13:01:19Z</time></trkpt><trkpt lat="44.0828022" lon="10.3936713"><ele>679.0</ele><time>2026-03-31T13:01:20.999Z</time></trkpt><trkpt lat="44.0828661" lon="10.3937761"><ele>679.0</ele><time>2026-03-31T13:01:23Z</time></trkpt><trkpt lat="44.0829417" lon="10.3938414"><ele>678.1428571428571</ele><time>2026-03-31T13:01:25Z</time></trkpt><trkpt lat="44.0830035" lon="10.3938942"><ele>677.2857142857142</ele><time>2026-03-31T13:01:27Z</time></trkpt><trkpt lat="44.0830722" lon="10.3939572"><ele>676.4285714285714</ele><time>2026-03-31T13:01:30Z</time></trkpt><trkpt lat="44.0831459" lon="10.3940134"><ele>675.5714285714286</ele><time>2026-03-31T13:01:34Z</time></trkpt><trkpt lat="44.0832036" lon="10.3940588"><ele>674.7142857142857</ele><time>2026-03-31T13:01:37Z</time></trkpt><trkpt lat="44.0832626" lon="10.3940986"><ele>673.8571428571429</ele><time>2026-03-31T13:01:40Z</time></trkpt><trkpt lat="44.0833236" lon="10.3941459"><ele>673.0</ele><time>2026-03-31T13:01:42.999Z</time></trkpt><trkpt lat="44.0833758" lon="10.3941956"><ele>674.8571428571429</ele><time>2026-03-31T13:01:46Z</time></trkpt><trkpt lat="44.0834572" lon="10.3942097"><ele>676.7142857142857</ele><time>2026-03-31T13:01:50Z</time></trkpt><trkpt lat="44.0835222" lon="10.3941833"><ele>678.5714285714286</ele><time>2026-03-31T13:01:52.999Z</time></trkpt><trkpt lat="44.0835887" lon="10.3941283"><ele>680.4285714285714</ele><time>2026-03-31T13:01:56Z</time></trkpt><trkpt lat="44.083648" lon="10.3940737"><ele>682.2857142857142</ele><time>2026-03-31T13:01:59Z</time></trkpt><trkpt lat="44.083709" lon="10.3940249"><ele>684.1428571428571</ele><time>2026-03-31T13:02:02Z</time></trkpt><trkpt lat="44.0837682" lon="10.3939706"><ele>686.0</ele><time>2026-03-31T13:02:05Z</time></trkpt><trkpt lat="44.0838244" lon="10.3939236"><ele>686.0</ele><time>2026-03-31T13:02:07.999Z</time></trkpt><trkpt lat="44.0838837" lon="10.3938882"><ele>686.0</ele><time>2026-03-31T13:02:13Z</time></trkpt><trkpt lat="44.0839286" lon="10.3938257"><ele>686.0</ele><time>2026-03-31T13:02:17Z</time></trkpt><trkpt lat="44.0839512" lon="10.3937222"><ele>686.0</ele><time>2026-03-31T13:02:21Z</time></trkpt><trkpt lat="44.0839741" lon="10.3936292"><ele>686.0</ele><time>2026-03-31T13:02:25Z</time></trkpt><trkpt lat="44.0839863" lon="10.3935341"><ele>686.0</ele><time>2026-03-31T13:02:30Z</time></trkpt><trkpt lat="44.0840297" lon="10.3934401"><ele>686.0</ele><time>2026-03-31T13:02:34Z</time></trkpt><trkpt lat="44.0840977" lon="10.393406"><ele>686.1666666666666</ele><time>2026-03-31T13:02:36Z</time></trkpt><trkpt lat="44.0841665" lon="10.3933828"><ele>686.3333333333333</ele><time>2026-03-31T13:02:38Z</time></trkpt><trkpt lat="44.0842508" lon="10.3933574"><ele>686.5</ele><time>2026-03-31T13:02:40.999Z</time></trkpt><trkpt lat="44.0843136" lon="10.3933373"><ele>686.6666666666666</ele><time>2026-03-31T13:02:43Z</time></trkpt><trkpt lat="44.0843994" lon="10.3933041"><ele>686.8333333333334</ele><time>2026-03-31T13:02:46Z</time></trkpt><trkpt lat="44.0844798" lon="10.3932862"><ele>687.0</ele><time>2026-03-31T13:02:49Z</time></trkpt><trkpt lat="44.0845675" lon="10.3932633"><ele>687.0</ele><time>2026-03-31T13:02:51.999Z</time></trkpt><trkpt lat="44.0846548" lon="10.3932581"><ele>687.0</ele><time>2026-03-31T13:02:55Z</time></trkpt><trkpt lat="44.0847217" lon="10.3932562"><ele>687.0</ele><time>2026-03-31T13:02:57Z</time></trkpt><trkpt lat="44.0847919" lon="10.393264"><ele>687.0</ele><time>2026-03-31T13:02:59Z</time></trkpt><trkpt lat="44.0848985" lon="10.3932902"><ele>687.0</ele><time>2026-03-31T13:03:03Z</time></trkpt><trkpt lat="44.0849589" lon="10.3932486"><ele>687.0</ele><time>2026-03-31T13:03:06.999Z</time></trkpt><trkpt lat="44.0850185" lon="10.3931902"><ele>687.5</ele><time>2026-03-31T13:03:11Z</time></trkpt><trkpt lat="44.0850807" lon="10.3931514"><ele>688.0</ele><time>2026-03-31T13:03:16Z</time></trkpt><trkpt lat="44.0851518" lon="10.3931791"><ele>688.5</ele><time>2026-03-31T13:03:18.999Z</time></trkpt><trkpt lat="44.0852066" lon="10.3932354"><ele>689.0</ele><time>2026-03-31T13:03:23Z</time></trkpt><trkpt lat="44.085265" lon="10.3932687"><ele>689.5</ele><time>2026-03-31T13:03:29Z</time></trkpt><trkpt lat="44.0853456" lon="10.3933002"><ele>690.0</ele><time>2026-03-31T13:03:32Z</time></trkpt><trkpt lat="44.0854732" lon="10.3933216"><ele>690.0</ele><time>2026-03-31T13:03:34Z</time></trkpt><trkpt lat="44.0855582" lon="10.3932739"><ele>690.0</ele><time>2026-03-31T13:03:36Z</time></trkpt><trkpt lat="44.0856575" lon="10.3931688"><ele>690.0</ele><time>2026-03-31T13:03:38Z</time></trkpt><trkpt lat="44.0857148" lon="10.3931006"><ele>690.0</ele><time>2026-03-31T13:03:39Z</time></trkpt><trkpt lat="44.08578" lon="10.3930267"><ele>690.0</ele><time>2026-03-31T13:03:40Z</time></trkpt><trkpt lat="44.0858338" lon="10.3929669"><ele>690.0</ele><time>2026-03-31T13:03:41Z</time></trkpt><trkpt lat="44.0858958" lon="10.3929313"><ele>689.6</ele><time>2026-03-31T13:03:42Z</time></trkpt><trkpt lat="44.0860011" lon="10.3929649"><ele>689.2</ele><time>2026-03-31T13:03:44Z</time></trkpt><trkpt lat="44.0860869" lon="10.3930702"><ele>688.8</ele><time>2026-03-31T13:03:46Z</time></trkpt><trkpt lat="44.0861314" lon="10.3931945"><ele>688.4</ele><time>2026-03-31T13:03:48Z</time></trkpt><trkpt lat="44.0861465" lon="10.3933194"><ele>688.0</ele><time>2026-03-31T13:03:50Z</time></trkpt><trkpt lat="44.0861504" lon="10.3934339"><ele>688.0</ele><time>2026-03-31T13:03:53Z</time></trkpt><trkpt lat="44.0861719" lon="10.393535"><ele>688.0</ele><time>2026-03-31T13:03:57Z</time></trkpt><trkpt lat="44.0861896" lon="10.3936428"><ele>688.0</ele><time>2026-03-31T13:04:00Z</time></trkpt><trkpt lat="44.0862102" lon="10.3937493"><ele>688.0</ele><time>2026-03-31T13:04:02Z</time></trkpt><trkpt lat="44.0862362" lon="10.3938765"><ele>688.0</ele><time>2026-03-31T13:04:04Z</time></trkpt><trkpt lat="44.0862617" lon="10.3940098"><ele>688.0</ele><time>2026-03-31T13:04:06Z</time></trkpt><trkpt lat="44.0863026" lon="10.3941571"><ele>687.6666666666667</ele><time>2026-03-31T13:04:08Z</time></trkpt><trkpt lat="44.0863343" lon="10.3942757"><ele>687.3333333333334</ele><time>2026-03-31T13:04:10Z</time></trkpt><trkpt lat="44.0863581" lon="10.3943577"><ele>687.0</ele><time>2026-03-31T13:04:12Z</time></trkpt><trkpt lat="44.0864112" lon="10.3944477"><ele>686.6666666666666</ele><time>2026-03-31T13:04:15Z</time></trkpt><trkpt lat="44.0864838" lon="10.3945191"><ele>686.3333333333333</ele><time>2026-03-31T13:04:18Z</time></trkpt><trkpt lat="44.08656" lon="10.3945508"><ele>686.0</ele><time>2026-03-31T13:04:19.999Z</time></trkpt><trkpt lat="44.0866326" lon="10.3945497"><ele>686.0</ele><time>2026-03-31T13:04:22.143Z</time></trkpt><trkpt lat="44.0867147" lon="10.3945385"><ele>686.0</ele><time>2026-03-31T13:04:23.999Z</time></trkpt><trkpt lat="44.0867941" lon="10.3945157"><ele>686.0</ele><time>2026-03-31T13:04:25.999Z</time></trkpt><trkpt lat="44.0868713" lon="10.3944888"><ele>686.0</ele><time>2026-03-31T13:04:28Z</time></trkpt><trkpt lat="44.0869415" lon="10.3944805"><ele>686.0</ele><time>2026-03-31T13:04:30Z</time></trkpt><trkpt lat="44.0870129" lon="10.3944847"><ele>686.0</ele><time>2026-03-31T13:04:32Z</time></trkpt><trkpt lat="44.0870949" lon="10.3944902"><ele>686.0</ele><time>2026-03-31T13:04:34Z</time></trkpt><trkpt lat="44.08719" lon="10.394442"><ele>686.0</ele><time>2026-03-31T13:04:37Z</time></trkpt><trkpt lat="44.0872569" lon="10.3943799"><ele>686.0</ele><time>2026-03-31T13:04:39Z</time></trkpt><trkpt lat="44.0873175" lon="10.3943219"><ele>686.0</ele><time>2026-03-31T13:04:41Z</time></trkpt><trkpt lat="44.0873768" lon="10.3942492"><ele>686.0</ele><time>2026-03-31T13:04:43Z</time></trkpt><trkpt lat="44.0874374" lon="10.3941873"><ele>686.0</ele><time>2026-03-31T13:04:45Z</time></trkpt><trkpt lat="44.0875133" lon="10.394172"><ele>686.0</ele><time>2026-03-31T13:04:47Z</time></trkpt><trkpt lat="44.0875813" lon="10.3942321"><ele>686.0</ele><time>2026-03-31T13:04:49Z</time></trkpt><trkpt lat="44.0876167" lon="10.3943248"><ele>686.0</ele><time>2026-03-31T13:04:50.999Z</time></trkpt><trkpt lat="44.0876599" lon="10.394422"><ele>686.0</ele><time>2026-03-31T13:04:53.999Z</time></trkpt><trkpt lat="44.087732" lon="10.394488"><ele>686.0</ele><time>2026-03-31T13:04:59.1Z</time></trkpt><trkpt lat="44.087798" lon="10.3945211"><ele>686.0</ele><time>2026-03-31T13:05:01Z</time></trkpt><trkpt lat="44.0878623" lon="10.3945501"><ele>686.0</ele><time>2026-03-31T13:05:03.106Z</time></trkpt><trkpt lat="44.0879209" lon="10.3945903"><ele>686.0</ele><time>2026-03-31T13:05:06Z</time></trkpt><trkpt lat="44.0879649" lon="10.3946841"><ele>686.0</ele><time>2026-03-31T13:05:09.999Z</time></trkpt><trkpt lat="44.0879813" lon="10.3947941"><ele>686.0</ele><time>2026-03-31T13:05:15Z</time></trkpt><trkpt lat="44.0879974" lon="10.3949179"><ele>686.0</ele><time>2026-03-31T13:05:17.999Z</time></trkpt><trkpt lat="44.0880251" lon="10.3950184"><ele>686.0</ele><time>2026-03-31T13:05:20Z</time></trkpt><trkpt lat="44.0880532" lon="10.3950978"><ele>686.4</ele><time>2026-03-31T13:05:22Z</time></trkpt><trkpt lat="44.088085" lon="10.39518"><ele>686.8</ele><time>2026-03-31T13:05:24Z</time></trkpt><trkpt lat="44.0881634" lon="10.3952693"><ele>687.1999999999999</ele><time>2026-03-31T13:05:26Z</time></trkpt><trkpt lat="44.0882245" lon="10.3953372"><ele>687.5999999999999</ele><time>2026-03-31T13:05:27Z</time></trkpt><trkpt lat="44.0883181" lon="10.3954323"><ele>688.0</ele><time>2026-03-31T13:05:28.999Z</time></trkpt><trkpt lat="44.0883823" lon="10.3955508"><ele>683.4</ele><time>2026-03-31T13:05:31Z</time></trkpt><trkpt lat="44.0884391" lon="10.3956914"><ele>678.8</ele><time>2026-03-31T13:05:32.999Z</time></trkpt><trkpt lat="44.0885003" lon="10.3957645"><ele>674.2</ele><time>2026-03-31T13:05:35Z</time></trkpt><trkpt lat="44.0885818" lon="10.3957829"><ele>669.6</ele><time>2026-03-31T13:05:36.999Z</time></trkpt><trkpt lat="44.0886533" lon="10.3957752"><ele>665.0</ele><time>2026-03-31T13:05:38.999Z</time></trkpt><trkpt lat="44.0887557" lon="10.3958245"><ele>665.0</ele><time>2026-03-31T13:05:42Z</time></trkpt><trkpt lat="44.0888348" lon="10.3959078"><ele>665.0</ele><time>2026-03-31T13:05:44Z</time></trkpt><trkpt lat="44.0889031" lon="10.3959913"><ele>665.0</ele><time>2026-03-31T13:05:45.999Z</time></trkpt><trkpt lat="44.0889547" lon="10.3960625"><ele>665.0</ele><time>2026-03-31T13:05:46.999Z</time></trkpt><trkpt lat="44.089028" lon="10.3961221"><ele>665.0</ele><time>2026-03-31T13:05:49Z</time></trkpt><trkpt lat="44.0891089" lon="10.3961522"><ele>665.0</ele><time>2026-03-31T13:05:50.999Z</time></trkpt><trkpt lat="44.0891903" lon="10.3961474"><ele>667.4</ele><time>2026-03-31T13:05:52.999Z</time></trkpt><trkpt lat="44.0892744" lon="10.396122"><ele>669.8</ele><time>2026-03-31T13:05:54.999Z</time></trkpt><trkpt lat="44.0894017" lon="10.3960967"><ele>672.2</ele><time>2026-03-31T13:05:57Z</time></trkpt><trkpt lat="44.0894842" lon="10.3960753"><ele>674.6</ele><time>2026-03-31T13:05:58Z</time></trkpt><trkpt lat="44.0895524" lon="10.3960711"><ele>677.0</ele><time>2026-03-31T13:05:59Z</time></trkpt><trkpt lat="44.0896568" lon="10.3960419"><ele>677.0</ele><time>2026-03-31T13:06:01Z</time></trkpt><trkpt lat="44.0897256" lon="10.3959809"><ele>677.0</ele><time>2026-03-31T13:06:01.999Z</time></trkpt><trkpt lat="44.0898045" lon="10.3958762"><ele>677.0</ele><time>2026-03-31T13:06:03Z</time></trkpt><trkpt lat="44.0898682" lon="10.3958113"><ele>677.0</ele><time>2026-03-31T13:06:04Z</time></trkpt><trkpt lat="44.0899282" lon="10.3957762"><ele>677.0</ele><time>2026-03-31T13:06:05Z</time></trkpt><trkpt lat="44.0900417" lon="10.3957986"><ele>677.0</ele><time>2026-03-31T13:06:06.999Z</time></trkpt><trkpt lat="44.0901093" lon="10.3958109"><ele>674.1666666666666</ele><time>2026-03-31T13:06:08Z</time></trkpt><trkpt lat="44.0902136" lon="10.3957793"><ele>671.3333333333333</ele><time>2026-03-31T13:06:10Z</time></trkpt><trkpt lat="44.0902923" lon="10.3957431"><ele>668.5</ele><time>2026-03-31T13:06:10.999Z</time></trkpt><trkpt lat="44.0903688" lon="10.3956924"><ele>665.6666666666666</ele><time>2026-03-31T13:06:11.999Z</time></trkpt><trkpt lat="44.0904418" lon="10.3956461"><ele>662.8333333333334</ele><time>2026-03-31T13:06:13Z</time></trkpt><trkpt lat="44.0904952" lon="10.3955858"><ele>660.0</ele><time>2026-03-31T13:06:14Z</time></trkpt><trkpt lat="44.0905842" lon="10.3955267"><ele>661.3333333333334</ele><time>2026-03-31T13:06:16Z</time></trkpt><trkpt lat="44.0906441" lon="10.3954859"><ele>662.6666666666666</ele><time>2026-03-31T13:06:17.999Z</time></trkpt><trkpt lat="44.0907039" lon="10.3954298"><ele>664.0</ele><time>2026-03-31T13:06:21Z</time></trkpt><trkpt lat="44.0906973" lon="10.395341"><ele>665.3333333333333</ele><time>2026-03-31T13:08:20Z</time></trkpt><trkpt lat="44.0906322" lon="10.3952508"><ele>666.6666666666666</ele><time>2026-03-31T13:08:21.999Z</time></trkpt><trkpt lat="44.0905492" lon="10.3951658"><ele>668.0</ele><time>2026-03-31T13:08:24Z</time></trkpt><trkpt lat="44.0904695" lon="10.3950517"><ele>668.0</ele><time>2026-03-31T13:08:26Z</time></trkpt><trkpt lat="44.0904364" lon="10.3949752"><ele>668.0</ele><time>2026-03-31T13:08:26.999Z</time></trkpt><trkpt lat="44.0903739" lon="10.3948448"><ele>668.0</ele><time>2026-03-31T13:08:29Z</time></trkpt><trkpt lat="44.0903338" lon="10.394767"><ele>668.0</ele><time>2026-03-31T13:08:29.999Z</time></trkpt><trkpt lat="44.0902922" lon="10.3946519"><ele>668.0</ele><time>2026-03-31T13:08:32Z</time></trkpt><trkpt lat="44.0903295" lon="10.3945812"><ele>668.0</ele><time>2026-03-31T13:08:35Z</time></trkpt><trkpt lat="44.0903981" lon="10.3945664"><ele>664.6666666666666</ele><time>2026-03-31T13:08:36.999Z</time></trkpt><trkpt lat="44.0905167" lon="10.3946009"><ele>661.3333333333333</ele><time>2026-03-31T13:08:39Z</time></trkpt><trkpt lat="44.0905853" lon="10.3946112"><ele>658.0</ele><time>2026-03-31T13:08:40Z</time></trkpt><trkpt lat="44.0906482" lon="10.3946244"><ele>654.6666666666666</ele><time>2026-03-31T13:08:41Z</time></trkpt><trkpt lat="44.0907369" lon="10.3946299"><ele>651.3333333333334</ele><time>2026-03-31T13:08:42Z</time></trkpt><trkpt lat="44.0908161" lon="10.3946433"><ele>648.0</ele><time>2026-03-31T13:08:43Z</time></trkpt><trkpt lat="44.0909251" lon="10.394671"><ele>645.0</ele><time>2026-03-31T13:08:43.999Z</time></trkpt><trkpt lat="44.0910177" lon="10.3946952"><ele>642.0</ele><time>2026-03-31T13:08:45Z</time></trkpt><trkpt lat="44.0911169" lon="10.3947178"><ele>639.0</ele><time>2026-03-31T13:08:45.999Z</time></trkpt><trkpt lat="44.0912281" lon="10.3946835"><ele>636.0</ele><time>2026-03-31T13:08:47Z</time></trkpt><trkpt lat="44.0913339" lon="10.3946339"><ele>633.0</ele><time>2026-03-31T13:08:48Z</time></trkpt><trkpt lat="44.0913941" lon="10.3945944"><ele>631.5</ele><time>2026-03-31T13:08:49Z</time></trkpt><trkpt lat="44.0914586" lon="10.3945156"><ele>630.0</ele><time>2026-03-31T13:08:50Z</time></trkpt><trkpt lat="44.091517" lon="10.3944612"><ele>628.5</ele><time>2026-03-31T13:08:51Z</time></trkpt><trkpt lat="44.0915444" lon="10.3943629"><ele>627.0</ele><time>2026-03-31T13:08:52Z</time></trkpt><trkpt lat="44.0915393" lon="10.3941834"><ele>625.5</ele><time>2026-03-31T13:08:54Z</time></trkpt><trkpt lat="44.0915386" lon="10.3940936"><ele>624.0</ele><time>2026-03-31T13:08:55Z</time></trkpt><trkpt lat="44.0915536" lon="10.3940069"><ele>620.25</ele><time>2026-03-31T13:08:55.999Z</time></trkpt><trkpt lat="44.091642" lon="10.393897"><ele>616.5</ele><time>2026-03-31T13:08:58Z</time></trkpt><trkpt lat="44.0917591" lon="10.3938667"><ele>612.75</ele><time>2026-03-31T13:08:59.999Z</time></trkpt><trkpt lat="44.0918221" lon="10.393863"><ele>609.0</ele><time>2026-03-31T13:09:01.101Z</time></trkpt><trkpt lat="44.0919711" lon="10.3938525"><ele>607.0</ele><time>2026-03-31T13:09:03Z</time></trkpt><trkpt lat="44.0920426" lon="10.3938225"><ele>605.0</ele><time>2026-03-31T13:09:04Z</time></trkpt><trkpt lat="44.0921162" lon="10.3938062"><ele>603.0</ele><time>2026-03-31T13:09:05Z</time></trkpt><trkpt lat="44.0921933" lon="10.3937733"><ele>601.0</ele><time>2026-03-31T13:09:06Z</time></trkpt><trkpt lat="44.0922671" lon="10.3937409"><ele>599.0</ele><time>2026-03-31T13:09:06.999Z</time></trkpt><trkpt lat="44.0923348" lon="10.3937126"><ele>597.0</ele><time>2026-03-31T13:09:08Z</time></trkpt><trkpt lat="44.0924222" lon="10.3937024"><ele>597.0</ele><time>2026-03-31T13:09:10Z</time></trkpt><trkpt lat="44.0924088" lon="10.3938272"><ele>597.0</ele><time>2026-03-31T13:09:12.999Z</time></trkpt><trkpt lat="44.0923305" lon="10.3939047"><ele>597.0</ele><time>2026-03-31T13:09:15Z</time></trkpt><trkpt lat="44.0922607" lon="10.3939456"><ele>597.0</ele><time>2026-03-31T13:09:15.999Z</time></trkpt><trkpt lat="44.0921789" lon="10.3939848"><ele>597.0</ele><time>2026-03-31T13:09:16.999Z</time></trkpt><trkpt lat="44.0921067" lon="10.394021"><ele>597.0</ele><time>2026-03-31T13:09:18Z</time></trkpt><trkpt lat="44.0920061" lon="10.3940821"><ele>597.0</ele><time>2026-03-31T13:09:20Z</time></trkpt><trkpt lat="44.0919741" lon="10.3943801"><ele>597.0</ele><time>2026-03-31T13:09:22.999Z</time></trkpt><trkpt lat="44.0920073" lon="10.3944567"><ele>597.0</ele><time>2026-03-31T13:09:24Z</time></trkpt><trkpt lat="44.0920488" lon="10.394541"><ele>597.0</ele><time>2026-03-31T13:09:25Z</time></trkpt><trkpt lat="44.0920986" lon="10.394629"><ele>597.0</ele><time>2026-03-31T13:09:25.999Z</time></trkpt><trkpt lat="44.0921439" lon="10.3947427"><ele>597.0</ele><time>2026-03-31T13:09:27Z</time></trkpt><trkpt lat="44.0921766" lon="10.3948537"><ele>597.0</ele><time>2026-03-31T13:09:28Z</time></trkpt><trkpt lat="44.0922308" lon="10.3949603"><ele>597.0</ele><time>2026-03-31T13:09:29Z</time></trkpt><trkpt lat="44.0922998" lon="10.3950489"><ele>597.0</ele><time>2026-03-31T13:09:30Z</time></trkpt><trkpt lat="44.0923852" lon="10.3951234"><ele>597.0</ele><time>2026-03-31T13:09:31Z</time></trkpt><trkpt lat="44.0924627" lon="10.3951922"><ele>593.8000000000001</ele><time>2026-03-31T13:09:32Z</time></trkpt><trkpt lat="44.0925428" lon="10.3952514"><ele>590.6</ele><time>2026-03-31T13:09:33Z</time></trkpt><trkpt lat="44.0926187" lon="10.3953021"><ele>587.4000000000001</ele><time>2026-03-31T13:09:33.999Z</time></trkpt><trkpt lat="44.0926962" lon="10.3953699"><ele>584.2</ele><time>2026-03-31T13:09:35Z</time></trkpt><trkpt lat="44.0927658" lon="10.3954554"><ele>581.0</ele><time>2026-03-31T13:09:36Z</time></trkpt><trkpt lat="44.0928355" lon="10.3955377"><ele>576.25</ele><time>2026-03-31T13:09:37Z</time></trkpt><trkpt lat="44.0928822" lon="10.3956286"><ele>571.5</ele><time>2026-03-31T13:09:37.999Z</time></trkpt><trkpt lat="44.0929268" lon="10.3957618"><ele>566.75</ele><time>2026-03-31T13:09:39Z</time></trkpt><trkpt lat="44.0929629" lon="10.3959136"><ele>562.0</ele><time>2026-03-31T13:09:40.101Z</time></trkpt><trkpt lat="44.0929954" lon="10.3961876"><ele>562.0</ele><time>2026-03-31T13:09:41.999Z</time></trkpt><trkpt lat="44.092997" lon="10.3962977"><ele>562.0</ele><time>2026-03-31T13:09:43Z</time></trkpt><trkpt lat="44.0930087" lon="10.3964074"><ele>562.0</ele><time>2026-03-31T13:09:44Z</time></trkpt><trkpt lat="44.0930375" lon="10.396498"><ele>562.0</ele><time>2026-03-31T13:09:44.999Z</time></trkpt><trkpt lat="44.0930875" lon="10.3965646"><ele>562.0</ele><time>2026-03-31T13:09:46Z</time></trkpt><trkpt lat="44.0931518" lon="10.3966025"><ele>562.0</ele><time>2026-03-31T13:09:47Z</time></trkpt><trkpt lat="44.0932355" lon="10.3966154"><ele>559.0</ele><time>2026-03-31T13:09:47.999Z</time></trkpt><trkpt lat="44.0933252" lon="10.3965904"><ele>556.0</ele><time>2026-03-31T13:09:49.105Z</time></trkpt><trkpt lat="44.0934901" lon="10.3964684"><ele>553.0</ele><time>2026-03-31T13:09:51Z</time></trkpt><trkpt lat="44.0935815" lon="10.3964075"><ele>550.0</ele><time>2026-03-31T13:09:52Z</time></trkpt><trkpt lat="44.0936703" lon="10.3963475"><ele>552.1666666666667</ele><time>2026-03-31T13:09:52.999Z</time></trkpt><trkpt lat="44.0937472" lon="10.396298"><ele>554.3333333333334</ele><time>2026-03-31T13:09:54Z</time></trkpt><trkpt lat="44.0938189" lon="10.396225"><ele>556.5</ele><time>2026-03-31T13:09:54.999Z</time></trkpt><trkpt lat="44.093881" lon="10.3961544"><ele>558.6666666666666</ele><time>2026-03-31T13:09:55.999Z</time></trkpt><trkpt lat="44.0939484" lon="10.3960844"><ele>560.8333333333333</ele><time>2026-03-31T13:09:56.999Z</time></trkpt><trkpt lat="44.0940121" lon="10.3960501"><ele>563.0</ele><time>2026-03-31T13:09:58Z</time></trkpt><trkpt lat="44.0940885" lon="10.3960314"><ele>563.0</ele><time>2026-03-31T13:09:58.999Z</time></trkpt><trkpt lat="44.0941521" lon="10.3960617"><ele>563.0</ele><time>2026-03-31T13:10:00Z</time></trkpt><trkpt lat="44.0942113" lon="10.3961076"><ele>563.0</ele><time>2026-03-31T13:10:01Z</time></trkpt><trkpt lat="44.0942722" lon="10.3961668"><ele>563.0</ele><time>2026-03-31T13:10:02Z</time></trkpt><trkpt lat="44.0943433" lon="10.3962627"><ele>563.0</ele><time>2026-03-31T13:10:03Z</time></trkpt><trkpt lat="44.0944082" lon="10.3963468"><ele>563.0</ele><time>2026-03-31T13:10:04Z</time></trkpt><trkpt lat="44.0944763" lon="10.3964544"><ele>558.1999999999999</ele><time>2026-03-31T13:10:05Z</time></trkpt><trkpt lat="44.0945731" lon="10.3965617"><ele>553.4</ele><time>2026-03-31T13:10:06Z</time></trkpt><trkpt lat="44.0946494" lon="10.3966515"><ele>548.5999999999999</ele><time>2026-03-31T13:10:07Z</time></trkpt><trkpt lat="44.0947398" lon="10.3967394"><ele>543.8</ele><time>2026-03-31T13:10:08Z</time></trkpt><trkpt lat="44.094839" lon="10.3967696"><ele>539.0</ele><time>2026-03-31T13:10:09Z</time></trkpt><trkpt lat="44.0949159" lon="10.3968117"><ele>539.0</ele><time>2026-03-31T13:10:09.999Z</time></trkpt><trkpt lat="44.0950169" lon="10.3968312"><ele>539.0</ele><time>2026-03-31T13:10:10.999Z</time></trkpt><trkpt lat="44.0951148" lon="10.3968401"><ele>539.0</ele><time>2026-03-31T13:10:12Z</time></trkpt><trkpt lat="44.0952184" lon="10.3968022"><ele>539.0</ele><time>2026-03-31T13:10:13Z</time></trkpt><trkpt lat="44.0953317" lon="10.3967429"><ele>539.0</ele><time>2026-03-31T13:10:13.999Z</time></trkpt><trkpt lat="44.0954515" lon="10.396704"><ele>539.0</ele><time>2026-03-31T13:10:14.999Z</time></trkpt><trkpt lat="44.095563" lon="10.3966299"><ele>539.0</ele><time>2026-03-31T13:10:15.999Z</time></trkpt><trkpt lat="44.0956699" lon="10.3965339"><ele>539.0</ele><time>2026-03-31T13:10:17Z</time></trkpt><trkpt lat="44.0957802" lon="10.3964417"><ele>539.0</ele><time>2026-03-31T13:10:18Z</time></trkpt><trkpt lat="44.095876" lon="10.3963544"><ele>540.8333333333333</ele><time>2026-03-31T13:10:18.999Z</time></trkpt><trkpt lat="44.0959466" lon="10.3962734"><ele>542.6666666666666</ele><time>2026-03-31T13:10:20Z</time></trkpt><trkpt lat="44.0960459" lon="10.3962522"><ele>544.5</ele><time>2026-03-31T13:10:21Z</time></trkpt><trkpt lat="44.0961094" lon="10.3962295"><ele>546.3333333333334</ele><time>2026-03-31T13:10:21.999Z</time></trkpt><trkpt lat="44.0961796" lon="10.3962119"><ele>548.1666666666667</ele><time>2026-03-31T13:10:23Z</time></trkpt><trkpt lat="44.0962553" lon="10.3962259"><ele>550.0</ele><time>2026-03-31T13:10:24.999Z</time></trkpt><trkpt lat="44.0963279" lon="10.3962036"><ele>550.0</ele><time>2026-03-31T13:10:28Z</time></trkpt><trkpt lat="44.0964277" lon="10.396216"><ele>550.0</ele><time>2026-03-31T13:10:29.999Z</time></trkpt><trkpt lat="44.0964904" lon="10.3962575"><ele>550.0</ele><time>2026-03-31T13:10:31Z</time></trkpt><trkpt lat="44.0965754" lon="10.3964115"><ele>550.0</ele><time>2026-03-31T13:10:32.999Z</time></trkpt><trkpt lat="44.0966197" lon="10.3964753"><ele>550.0</ele><time>2026-03-31T13:10:33.999Z</time></trkpt><trkpt lat="44.0966413" lon="10.3965714"><ele>550.0</ele><time>2026-03-31T13:10:35Z</time></trkpt><trkpt lat="44.0966538" lon="10.3966591"><ele>543.8333333333334</ele><time>2026-03-31T13:10:36Z</time></trkpt><trkpt lat="44.0966616" lon="10.3967893"><ele>537.6666666666667</ele><time>2026-03-31T13:10:38Z</time></trkpt><trkpt lat="44.0966977" lon="10.3968894"><ele>531.5</ele><time>2026-03-31T13:10:40Z</time></trkpt><trkpt lat="44.0967784" lon="10.3969576"><ele>525.3333333333334</ele><time>2026-03-31T13:10:41Z</time></trkpt><trkpt lat="44.0968448" lon="10.3969819"><ele>519.1666666666666</ele><time>2026-03-31T13:10:41.999Z</time></trkpt><trkpt lat="44.0969219" lon="10.3969996"><ele>513.0</ele><time>2026-03-31T13:10:43Z</time></trkpt><trkpt lat="44.0970208" lon="10.3969953"><ele>513.0</ele><time>2026-03-31T13:10:44Z</time></trkpt><trkpt lat="44.0970964" lon="10.3969691"><ele>513.0</ele><time>2026-03-31T13:10:45Z</time></trkpt><trkpt lat="44.0971863" lon="10.3969442"><ele>513.0</ele><time>2026-03-31T13:10:46Z</time></trkpt><trkpt lat="44.0972683" lon="10.3968868"><ele>513.0</ele><time>2026-03-31T13:10:47Z</time></trkpt><trkpt lat="44.0973734" lon="10.3968333"><ele>513.0</ele><time>2026-03-31T13:10:48Z</time></trkpt><trkpt lat="44.0974507" lon="10.3967703"><ele>511.79999999999995</ele><time>2026-03-31T13:10:48.999Z</time></trkpt><trkpt lat="44.0975628" lon="10.3966671"><ele>510.59999999999997</ele><time>2026-03-31T13:10:49.999Z</time></trkpt><trkpt lat="44.0976547" lon="10.3965617"><ele>509.40000000000003</ele><time>2026-03-31T13:10:51Z</time></trkpt><trkpt lat="44.0976963" lon="10.3964437"><ele>508.20000000000005</ele><time>2026-03-31T13:10:52.1Z</time></trkpt><trkpt lat="44.0977295" lon="10.3963666"><ele>507.0</ele><time>2026-03-31T13:10:52.999Z</time></trkpt><trkpt lat="44.0977487" lon="10.3962713"><ele>507.0</ele><time>2026-03-31T13:10:53.999Z</time></trkpt><trkpt lat="44.0977842" lon="10.3961821"><ele>507.00000000000006</ele><time>2026-03-31T13:10:55.999Z</time></trkpt><trkpt lat="44.0978516" lon="10.3962922"><ele>507.00000000000006</ele><time>2026-03-31T13:10:58.999Z</time></trkpt><trkpt lat="44.0978711" lon="10.3964277"><ele>507.0</ele><time>2026-03-31T13:11:01Z</time></trkpt><trkpt lat="44.0978907" lon="10.3965874"><ele>507.0</ele><time>2026-03-31T13:11:03Z</time></trkpt><trkpt lat="44.0978806" lon="10.3966745"><ele>506.6</ele><time>2026-03-31T13:11:04Z</time></trkpt><trkpt lat="44.0978451" lon="10.3967844"><ele>506.20000000000005</ele><time>2026-03-31T13:11:06Z</time></trkpt><trkpt lat="44.0979171" lon="10.396886"><ele>505.8</ele><time>2026-03-31T13:11:07.999Z</time></trkpt><trkpt lat="44.0979818" lon="10.3968273"><ele>505.4</ele><time>2026-03-31T13:11:10Z</time></trkpt><trkpt lat="44.0979965" lon="10.3967356"><ele>505.0</ele><time>2026-03-31T13:11:11Z</time></trkpt><trkpt lat="44.0979855" lon="10.3965558"><ele>505.00000000000006</ele><time>2026-03-31T13:11:12.999Z</time></trkpt><trkpt lat="44.0979849" lon="10.3963865"><ele>505.0</ele><time>2026-03-31T13:11:15Z</time></trkpt><trkpt lat="44.0980058" lon="10.3962936"><ele>505.0</ele><time>2026-03-31T13:11:16Z</time></trkpt><trkpt lat="44.0980269" lon="10.396181"><ele>505.0</ele><time>2026-03-31T13:11:17Z</time></trkpt><trkpt lat="44.0980561" lon="10.3960785"><ele>505.00000000000006</ele><time>2026-03-31T13:11:18Z</time></trkpt><trkpt lat="44.0980405" lon="10.3959544"><ele>505.0</ele><time>2026-03-31T13:11:19.999Z</time></trkpt><trkpt lat="44.097983" lon="10.395916"><ele>505.4</ele><time>2026-03-31T13:11:21Z</time></trkpt><trkpt lat="44.0979718" lon="10.3958096"><ele>505.8</ele><time>2026-03-31T13:11:23Z</time></trkpt><trkpt lat="44.0980399" lon="10.3958333"><ele>506.20000000000005</ele><time>2026-03-31T13:11:25.999Z</time></trkpt><trkpt lat="44.0980902" lon="10.3959303"><ele>506.6</ele><time>2026-03-31T13:11:28Z</time></trkpt><trkpt lat="44.0981604" lon="10.3960482"><ele>507.0</ele><time>2026-03-31T13:11:30Z</time></trkpt><trkpt lat="44.098177" lon="10.3962137"><ele>507.0</ele><time>2026-03-31T13:11:32Z</time></trkpt><trkpt lat="44.0981849" lon="10.3963171"><ele>507.0</ele><time>2026-03-31T13:11:32.999Z</time></trkpt><trkpt lat="44.0982288" lon="10.396459"><ele>507.0</ele><time>2026-03-31T13:11:34.999Z</time></trkpt><trkpt lat="44.0982693" lon="10.3965717"><ele>507.0</ele><time>2026-03-31T13:11:37Z</time></trkpt><trkpt lat="44.0983241" lon="10.3966282"><ele>507.0</ele><time>2026-03-31T13:11:39.999Z</time></trkpt><trkpt lat="44.0983314" lon="10.3965389"><ele>507.0</ele><time>2026-03-31T13:11:44Z</time></trkpt><trkpt lat="44.0983074" lon="10.3964373"><ele>500.0</ele><time>2026-03-31T13:11:46Z</time></trkpt><trkpt lat="44.0982923" lon="10.3963351"><ele>493.00000000000006</ele><time>2026-03-31T13:11:46.999Z</time></trkpt><trkpt lat="44.0982958" lon="10.3961797"><ele>486.00000000000006</ele><time>2026-03-31T13:11:49Z</time></trkpt><trkpt lat="44.0983002" lon="10.3960502"><ele>479.0</ele><time>2026-03-31T13:11:49.999Z</time></trkpt><trkpt lat="44.0983084" lon="10.3959383"><ele>472.0</ele><time>2026-03-31T13:11:51Z</time></trkpt><trkpt lat="44.0982601" lon="10.3958334"><ele>472.0</ele><time>2026-03-31T13:11:51.999Z</time></trkpt><trkpt lat="44.0982597" lon="10.3957325"><ele>472.00000000000006</ele><time>2026-03-31T13:11:53Z</time></trkpt><trkpt lat="44.0982598" lon="10.3956366"><ele>472.00000000000006</ele><time>2026-03-31T13:11:53.999Z</time></trkpt><trkpt lat="44.0983415" lon="10.3955123"><ele>472.0</ele><time>2026-03-31T13:11:55.999Z</time></trkpt><trkpt lat="44.0984256" lon="10.395474"><ele>472.0</ele><time>2026-03-31T13:11:57Z</time></trkpt><trkpt lat="44.0985144" lon="10.3954073"><ele>472.0</ele><time>2026-03-31T13:11:59Z</time></trkpt><trkpt lat="44.0985403" lon="10.3955169"><ele>472.00000000000006</ele><time>2026-03-31T13:12:02Z</time></trkpt><trkpt lat="44.0984246" lon="10.3956219"><ele>472.00000000000006</ele><time>2026-03-31T13:12:05Z</time></trkpt><trkpt lat="44.0984433" lon="10.395728"><ele>472.0</ele><time>2026-03-31T13:12:08Z</time></trkpt><trkpt lat="44.0985109" lon="10.3956767"><ele>472.0</ele><time>2026-03-31T13:12:12Z</time></trkpt><trkpt lat="44.0985895" lon="10.3956778"><ele>472.0</ele><time>2026-03-31T13:12:14Z</time></trkpt><trkpt lat="44.0986701" lon="10.3956861"><ele>472.00000000000006</ele><time>2026-03-31T13:12:16Z</time></trkpt><trkpt lat="44.0987605" lon="10.3956664"><ele>472.00000000000006</ele><time>2026-03-31T13:12:18Z</time></trkpt><trkpt lat="44.0988876" lon="10.3955943"><ele>472.0</ele><time>2026-03-31T13:12:20Z</time></trkpt><trkpt lat="44.0989453" lon="10.3955296"><ele>472.0</ele><time>2026-03-31T13:12:20.999Z</time></trkpt><trkpt lat="44.0989964" lon="10.3954629"><ele>469.0</ele><time>2026-03-31T13:12:22Z</time></trkpt><trkpt lat="44.0990162" lon="10.3953038"><ele>466.00000000000006</ele><time>2026-03-31T13:12:24Z</time></trkpt><trkpt lat="44.0989322" lon="10.3951721"><ele>463.00000000000006</ele><time>2026-03-31T13:12:26Z</time></trkpt><trkpt lat="44.0988295" lon="10.3951321"><ele>460.0</ele><time>2026-03-31T13:12:27Z</time></trkpt><trkpt lat="44.0987462" lon="10.3951194"><ele>457.0</ele><time>2026-03-31T13:12:28Z</time></trkpt><trkpt lat="44.0986562" lon="10.3950995"><ele>457.00000000000006</ele><time>2026-03-31T13:12:29Z</time></trkpt><trkpt lat="44.0985691" lon="10.3950701"><ele>457.0</ele><time>2026-03-31T13:12:29.999Z</time></trkpt><trkpt lat="44.0984839" lon="10.395036"><ele>457.0</ele><time>2026-03-31T13:12:31Z</time></trkpt><trkpt lat="44.0984015" lon="10.3949949"><ele>457.0</ele><time>2026-03-31T13:12:32Z</time></trkpt><trkpt lat="44.0983289" lon="10.3949386"><ele>457.00000000000006</ele><time>2026-03-31T13:12:33Z</time></trkpt><trkpt lat="44.0982625" lon="10.3948775"><ele>457.0</ele><time>2026-03-31T13:12:34Z</time></trkpt><trkpt lat="44.0982168" lon="10.3947503"><ele>456.75</ele><time>2026-03-31T13:12:36Z</time></trkpt><trkpt lat="44.0982176" lon="10.3945832"><ele>456.5</ele><time>2026-03-31T13:12:37.999Z</time></trkpt><trkpt lat="44.0982758" lon="10.3944094"><ele>456.25</ele><time>2026-03-31T13:12:40Z</time></trkpt><trkpt lat="44.0983787" lon="10.3942488"><ele>456.0</ele><time>2026-03-31T13:12:42.111Z</time></trkpt><trkpt lat="44.0984924" lon="10.3940628"><ele>456.0</ele><time>2026-03-31T13:12:43.999Z</time></trkpt><trkpt lat="44.0985484" lon="10.3939649"><ele>456.0</ele><time>2026-03-31T13:12:45Z</time></trkpt><trkpt lat="44.0986018" lon="10.3938681"><ele>456.0</ele><time>2026-03-31T13:12:46Z</time></trkpt><trkpt lat="44.0986223" lon="10.3937636"><ele>456.0</ele><time>2026-03-31T13:12:47Z</time></trkpt><trkpt lat="44.0986263" lon="10.3936495"><ele>456.0</ele><time>2026-03-31T13:12:48Z</time></trkpt><trkpt lat="44.0986043" lon="10.3935289"><ele>456.0</ele><time>2026-03-31T13:12:49Z</time></trkpt><trkpt lat="44.0986109" lon="10.3934119"><ele>456.57142857142856</ele><time>2026-03-31T13:12:50Z</time></trkpt><trkpt lat="44.0986251" lon="10.3933149"><ele>457.1428571428571</ele><time>2026-03-31T13:12:50.999Z</time></trkpt><trkpt lat="44.098671" lon="10.3932295"><ele>457.71428571428567</ele><time>2026-03-31T13:12:52Z</time></trkpt><trkpt lat="44.0987261" lon="10.3931655"><ele>458.2857142857142</ele><time>2026-03-31T13:12:53Z</time></trkpt><trkpt lat="44.0987927" lon="10.3931103"><ele>458.85714285714283</ele><time>2026-03-31T13:12:54Z</time></trkpt><trkpt lat="44.0988531" lon="10.3930513"><ele>459.42857142857133</ele><time>2026-03-31T13:12:55Z</time></trkpt><trkpt lat="44.0988955" lon="10.3929752"><ele>459.99999999999994</ele><time>2026-03-31T13:12:56Z</time></trkpt><trkpt lat="44.0988976" lon="10.392847"><ele>460.0</ele><time>2026-03-31T13:12:57Z</time></trkpt><trkpt lat="44.0988886" lon="10.3927223"><ele>460.0</ele><time>2026-03-31T13:12:58Z</time></trkpt><trkpt lat="44.0988731" lon="10.3925967"><ele>460.0</ele><time>2026-03-31T13:12:58.999Z</time></trkpt><trkpt lat="44.0988254" lon="10.3924601"><ele>460.0</ele><time>2026-03-31T13:12:59.999Z</time></trkpt><trkpt lat="44.098814" lon="10.3923064"><ele>460.0</ele><time>2026-03-31T13:13:00.999Z</time></trkpt><trkpt lat="44.0987943" lon="10.3921471"><ele>457.25</ele><time>2026-03-31T13:13:02Z</time></trkpt><trkpt lat="44.0987939" lon="10.391993"><ele>454.5</ele><time>2026-03-31T13:13:03Z</time></trkpt><trkpt lat="44.0987814" lon="10.3918294"><ele>451.75</ele><time>2026-03-31T13:13:03.999Z</time></trkpt><trkpt lat="44.0987741" lon="10.3916618"><ele>449.0</ele><time>2026-03-31T13:13:05Z</time></trkpt><trkpt lat="44.0987863" lon="10.3914594"><ele>447.79999999999995</ele><time>2026-03-31T13:13:06Z</time></trkpt><trkpt lat="44.0987686" lon="10.391286"><ele>446.59999999999997</ele><time>2026-03-31T13:13:07Z</time></trkpt><trkpt lat="44.0987554" lon="10.3911303"><ele>445.4</ele><time>2026-03-31T13:13:08Z</time></trkpt><trkpt lat="44.0987396" lon="10.390988"><ele>444.2</ele><time>2026-03-31T13:13:09Z</time></trkpt><trkpt lat="44.0987306" lon="10.3908512"><ele>443.0</ele><time>2026-03-31T13:13:10Z</time></trkpt><trkpt lat="44.0987447" lon="10.3907075"><ele>442.99999999999994</ele><time>2026-03-31T13:13:10.999Z</time></trkpt><trkpt lat="44.098761" lon="10.3905891"><ele>443.0</ele><time>2026-03-31T13:13:12Z</time></trkpt><trkpt lat="44.0987986" lon="10.3905008"><ele>443.0</ele><time>2026-03-31T13:13:13Z</time></trkpt><trkpt lat="44.098837" lon="10.3903582"><ele>443.0</ele><time>2026-03-31T13:13:14.999Z</time></trkpt><trkpt lat="44.098866" lon="10.3902634"><ele>442.99999999999994</ele><time>2026-03-31T13:13:17Z</time></trkpt><trkpt lat="44.0988528" lon="10.3901479"><ele>443.0</ele><time>2026-03-31T13:13:18.999Z</time></trkpt><trkpt lat="44.0989224" lon="10.390127"><ele>442.99999999999994</ele><time>2026-03-31T13:13:22Z</time></trkpt><trkpt lat="44.0989403" lon="10.3902386"><ele>443.0</ele><time>2026-03-31T13:13:24Z</time></trkpt><trkpt lat="44.0989401" lon="10.3903278"><ele>443.0</ele><time>2026-03-31T13:13:25Z</time></trkpt><trkpt lat="44.0989404" lon="10.3904347"><ele>443.0</ele><time>2026-03-31T13:13:26Z</time></trkpt><trkpt lat="44.0989502" lon="10.3905457"><ele>442.99999999999994</ele><time>2026-03-31T13:13:27Z</time></trkpt><trkpt lat="44.0989642" lon="10.390673"><ele>443.0</ele><time>2026-03-31T13:13:28Z</time></trkpt><trkpt lat="44.0989796" lon="10.3908096"><ele>442.99999999999994</ele><time>2026-03-31T13:13:29Z</time></trkpt><trkpt lat="44.0989902" lon="10.3909351"><ele>443.0</ele><time>2026-03-31T13:13:30Z</time></trkpt><trkpt lat="44.0990078" lon="10.3910297"><ele>443.0</ele><time>2026-03-31T13:13:31Z</time></trkpt><trkpt lat="44.0990375" lon="10.3911228"><ele>443.0</ele><time>2026-03-31T13:13:32Z</time></trkpt><trkpt lat="44.0990808" lon="10.3912138"><ele>442.99999999999994</ele><time>2026-03-31T13:13:33Z</time></trkpt><trkpt lat="44.0991275" lon="10.3912863"><ele>443.0</ele><time>2026-03-31T13:13:34Z</time></trkpt><trkpt lat="44.0992178" lon="10.3914015"><ele>434.8333333333333</ele><time>2026-03-31T13:13:36Z</time></trkpt><trkpt lat="44.0992703" lon="10.391542"><ele>426.66666666666663</ele><time>2026-03-31T13:13:38Z</time></trkpt><trkpt lat="44.0992692" lon="10.391651"><ele>418.5</ele><time>2026-03-31T13:13:39Z</time></trkpt><trkpt lat="44.0992518" lon="10.3917617"><ele>410.33333333333337</ele><time>2026-03-31T13:13:40Z</time></trkpt><trkpt lat="44.0992425" lon="10.391867"><ele>402.1666666666667</ele><time>2026-03-31T13:13:41Z</time></trkpt><trkpt lat="44.0992537" lon="10.3919936"><ele>394.0</ele><time>2026-03-31T13:13:42Z</time></trkpt><trkpt lat="44.0992655" lon="10.3921115"><ele>395.0</ele><time>2026-03-31T13:13:43Z</time></trkpt><trkpt lat="44.099293" lon="10.3922524"><ele>396.0</ele><time>2026-03-31T13:13:44Z</time></trkpt><trkpt lat="44.0993657" lon="10.3923924"><ele>397.0</ele><time>2026-03-31T13:13:45.103Z</time></trkpt><trkpt lat="44.0994448" lon="10.392646"><ele>398.0</ele><time>2026-03-31T13:13:46.999Z</time></trkpt><trkpt lat="44.0994769" lon="10.3927603"><ele>397.99999999999994</ele><time>2026-03-31T13:13:47.999Z</time></trkpt><trkpt lat="44.099497" lon="10.3928648"><ele>398.0</ele><time>2026-03-31T13:13:49Z</time></trkpt><trkpt lat="44.0994833" lon="10.3930131"><ele>398.0</ele><time>2026-03-31T13:13:51Z</time></trkpt><trkpt lat="44.0995532" lon="10.3930543"><ele>398.0</ele><time>2026-03-31T13:13:53.999Z</time></trkpt><trkpt lat="44.0995949" lon="10.3929402"><ele>397.99999999999994</ele><time>2026-03-31T13:13:55.999Z</time></trkpt><trkpt lat="44.0995991" lon="10.3928508"><ele>398.0</ele><time>2026-03-31T13:13:57Z</time></trkpt><trkpt lat="44.0996092" lon="10.3927522"><ele>397.99999999999994</ele><time>2026-03-31T13:13:58Z</time></trkpt><trkpt lat="44.0995993" lon="10.392646"><ele>398.0</ele><time>2026-03-31T13:13:59Z</time></trkpt><trkpt lat="44.0995815" lon="10.3925274"><ele>398.0</ele><time>2026-03-31T13:14:00Z</time></trkpt><trkpt lat="44.0995511" lon="10.3924187"><ele>398.0</ele><time>2026-03-31T13:14:01Z</time></trkpt><trkpt lat="44.0995244" lon="10.3922939"><ele>397.99999999999994</ele><time>2026-03-31T13:14:02Z</time></trkpt><trkpt lat="44.0995191" lon="10.392159"><ele>398.0</ele><time>2026-03-31T13:14:03Z</time></trkpt><trkpt lat="44.0995221" lon="10.3920229"><ele>397.2</ele><time>2026-03-31T13:14:03.999Z</time></trkpt><trkpt lat="44.0995517" lon="10.3919119"><ele>396.4</ele><time>2026-03-31T13:14:05Z</time></trkpt><trkpt lat="44.0995973" lon="10.3917941"><ele>395.59999999999997</ele><time>2026-03-31T13:14:06Z</time></trkpt><trkpt lat="44.0996238" lon="10.3916722"><ele>394.79999999999995</ele><time>2026-03-31T13:14:06.999Z</time></trkpt><trkpt lat="44.0996226" lon="10.3915414"><ele>394.0</ele><time>2026-03-31T13:14:08Z</time></trkpt><trkpt lat="44.0996245" lon="10.3914119"><ele>393.25</ele><time>2026-03-31T13:14:09Z</time></trkpt><trkpt lat="44.0996287" lon="10.3912813"><ele>392.5</ele><time>2026-03-31T13:14:10Z</time></trkpt><trkpt lat="44.0996204" lon="10.3911581"><ele>391.75</ele><time>2026-03-31T13:14:11Z</time></trkpt><trkpt lat="44.0996219" lon="10.3910332"><ele>391.0</ele><time>2026-03-31T13:14:12.111Z</time></trkpt><trkpt lat="44.0996251" lon="10.3907786"><ele>391.0</ele><time>2026-03-31T13:14:13.999Z</time></trkpt><trkpt lat="44.0996304" lon="10.3906427"><ele>391.0</ele><time>2026-03-31T13:14:15Z</time></trkpt><trkpt lat="44.0996419" lon="10.3905025"><ele>391.0</ele><time>2026-03-31T13:14:16Z</time></trkpt><trkpt lat="44.0996436" lon="10.3903788"><ele>391.0</ele><time>2026-03-31T13:14:17Z</time></trkpt><trkpt lat="44.0996625" lon="10.3902588"><ele>391.0</ele><time>2026-03-31T13:14:18Z</time></trkpt><trkpt lat="44.0996836" lon="10.3901593"><ele>390.1666666666667</ele><time>2026-03-31T13:14:19Z</time></trkpt><trkpt lat="44.0997139" lon="10.3900513"><ele>389.33333333333337</ele><time>2026-03-31T13:14:20Z</time></trkpt><trkpt lat="44.0997395" lon="10.389951"><ele>388.5</ele><time>2026-03-31T13:14:20.999Z</time></trkpt><trkpt lat="44.099745" lon="10.3898557"><ele>387.66666666666663</ele><time>2026-03-31T13:14:22Z</time></trkpt><trkpt lat="44.099718" lon="10.3897028"><ele>386.8333333333333</ele><time>2026-03-31T13:14:24Z</time></trkpt><trkpt lat="44.0996913" lon="10.3896076"><ele>386.0</ele><time>2026-03-31T13:14:26Z</time></trkpt><trkpt lat="44.0997747" lon="10.3896554"><ele>386.0</ele><time>2026-03-31T13:14:28.999Z</time></trkpt><trkpt lat="44.0998145" lon="10.3898405"><ele>386.0</ele><time>2026-03-31T13:14:30.999Z</time></trkpt><trkpt lat="44.0998169" lon="10.3899558"><ele>386.0</ele><time>2026-03-31T13:14:32Z</time></trkpt><trkpt lat="44.0998187" lon="10.3900905"><ele>386.0</ele><time>2026-03-31T13:14:33Z</time></trkpt><trkpt lat="44.0998298" lon="10.3902386"><ele>386.0</ele><time>2026-03-31T13:14:34Z</time></trkpt><trkpt lat="44.0998552" lon="10.3903751"><ele>387.25</ele><time>2026-03-31T13:14:35Z</time></trkpt><trkpt lat="44.0998883" lon="10.3905268"><ele>388.5</ele><time>2026-03-31T13:14:35.999Z</time></trkpt><trkpt lat="44.0999187" lon="10.3907035"><ele>389.75</ele><time>2026-03-31T13:14:37Z</time></trkpt><trkpt lat="44.0999392" lon="10.3908764"><ele>391.0</ele><time>2026-03-31T13:14:38Z</time></trkpt><trkpt lat="44.0999684" lon="10.391056"><ele>376.5</ele><time>2026-03-31T13:14:39.101Z</time></trkpt><trkpt lat="44.0999939" lon="10.3912296"><ele>362.0</ele><time>2026-03-31T13:14:40.103Z</time></trkpt><trkpt lat="44.1000266" lon="10.3915238"><ele>347.5</ele><time>2026-03-31T13:14:42Z</time></trkpt><trkpt lat="44.1000393" lon="10.391669"><ele>333.0</ele><time>2026-03-31T13:14:43Z</time></trkpt><trkpt lat="44.1000614" lon="10.3918012"><ele>333.0</ele><time>2026-03-31T13:14:44Z</time></trkpt><trkpt lat="44.1001054" lon="10.3919364"><ele>333.0</ele><time>2026-03-31T13:14:45Z</time></trkpt><trkpt lat="44.1001436" lon="10.3920694"><ele>333.0</ele><time>2026-03-31T13:14:46.103Z</time></trkpt><trkpt lat="44.100199" lon="10.3923224"><ele>333.0</ele><time>2026-03-31T13:14:47.999Z</time></trkpt><trkpt lat="44.1002299" lon="10.3924156"><ele>334.8333333333333</ele><time>2026-03-31T13:14:49Z</time></trkpt><trkpt lat="44.1002739" lon="10.3924975"><ele>336.6666666666667</ele><time>2026-03-31T13:14:49.999Z</time></trkpt><trkpt lat="44.1003376" lon="10.3925684"><ele>338.5</ele><time>2026-03-31T13:14:50.999Z</time></trkpt><trkpt lat="44.100414" lon="10.3926139"><ele>340.33333333333337</ele><time>2026-03-31T13:14:51.999Z</time></trkpt><trkpt lat="44.1004989" lon="10.3926588"><ele>342.1666666666667</ele><time>2026-03-31T13:14:53Z</time></trkpt><trkpt lat="44.1005966" lon="10.3926793"><ele>344.0</ele><time>2026-03-31T13:14:53.999Z</time></trkpt><trkpt lat="44.1006629" lon="10.3927058"><ele>342.79999999999995</ele><time>2026-03-31T13:14:55Z</time></trkpt><trkpt lat="44.1007814" lon="10.3927776"><ele>341.59999999999997</ele><time>2026-03-31T13:14:57Z</time></trkpt><trkpt lat="44.1008457" lon="10.3928288"><ele>340.4</ele><time>2026-03-31T13:14:58Z</time></trkpt><trkpt lat="44.1009123" lon="10.3928925"><ele>339.2</ele><time>2026-03-31T13:14:58.999Z</time></trkpt><trkpt lat="44.1009729" lon="10.392945"><ele>338.0</ele><time>2026-03-31T13:14:59.999Z</time></trkpt><trkpt lat="44.1010702" lon="10.393045"><ele>338.0</ele><time>2026-03-31T13:15:02Z</time></trkpt><trkpt lat="44.1011214" lon="10.393099"><ele>338.0</ele><time>2026-03-31T13:15:03Z</time></trkpt><trkpt lat="44.1012065" lon="10.3931904"><ele>338.0</ele><time>2026-03-31T13:15:05Z</time></trkpt><trkpt lat="44.1013091" lon="10.3932777"><ele>338.0</ele><time>2026-03-31T13:15:07.106Z</time></trkpt><trkpt lat="44.1014185" lon="10.3933219"><ele>338.0</ele><time>2026-03-31T13:15:08.999Z</time></trkpt><trkpt lat="44.10154" lon="10.3932885"><ele>332.2</ele><time>2026-03-31T13:15:10.999Z</time></trkpt><trkpt lat="44.1016018" lon="10.3932523"><ele>326.4</ele><time>2026-03-31T13:15:12Z</time></trkpt><trkpt lat="44.1017095" lon="10.3932102"><ele>320.59999999999997</ele><time>2026-03-31T13:15:14Z</time></trkpt><trkpt lat="44.1018405" lon="10.393211"><ele>314.79999999999995</ele><time>2026-03-31T13:15:16Z</time></trkpt><trkpt lat="44.1019111" lon="10.3932368"><ele>309.0</ele><time>2026-03-31T13:15:16.999Z</time></trkpt><trkpt lat="44.1019804" lon="10.3932816"><ele>309.0</ele><time>2026-03-31T13:15:18Z</time></trkpt><trkpt lat="44.102045" lon="10.3933394"><ele>309.0</ele><time>2026-03-31T13:15:19Z</time></trkpt><trkpt lat="44.1020933" lon="10.393399"><ele>309.0</ele><time>2026-03-31T13:15:19.999Z</time></trkpt><trkpt lat="44.1021682" lon="10.3934938"><ele>309.0</ele><time>2026-03-31T13:15:22Z</time></trkpt><trkpt lat="44.1022437" lon="10.3935175"><ele>309.0</ele><time>2026-03-31T13:15:23.999Z</time></trkpt><trkpt lat="44.1023176" lon="10.3936"><ele>309.0</ele><time>2026-03-31T13:15:27Z</time></trkpt><trkpt lat="44.1023475" lon="10.3936929"><ele>309.00000000000006</ele><time>2026-03-31T13:15:29Z</time></trkpt><trkpt lat="44.1023597" lon="10.3937894"><ele>309.0</ele><time>2026-03-31T13:15:31Z</time></trkpt><trkpt lat="44.1023626" lon="10.39389"><ele>309.0</ele><time>2026-03-31T13:15:33Z</time></trkpt><trkpt lat="44.1023521" lon="10.3939813"><ele>309.0</ele><time>2026-03-31T13:15:34.999Z</time></trkpt><trkpt lat="44.102335" lon="10.3940689"><ele>309.0</ele><time>2026-03-31T13:15:37Z</time></trkpt><trkpt lat="44.1023207" lon="10.3941562"><ele>309.00000000000006</ele><time>2026-03-31T13:15:39Z</time></trkpt><trkpt lat="44.1023173" lon="10.3942752"><ele>309.0</ele><time>2026-03-31T13:15:42Z</time></trkpt><trkpt lat="44.1023138" lon="10.3943878"><ele>312.14285714285717</ele><time>2026-03-31T13:15:44.999Z</time></trkpt><trkpt lat="44.1023267" lon="10.3944804"><ele>315.2857142857143</ele><time>2026-03-31T13:15:47.999Z</time></trkpt><trkpt lat="44.1023457" lon="10.3945708"><ele>318.42857142857144</ele><time>2026-03-31T13:15:50.999Z</time></trkpt><trkpt lat="44.1023561" lon="10.3946611"><ele>321.57142857142856</ele><time>2026-03-31T13:15:54Z</time></trkpt><trkpt lat="44.1023637" lon="10.3947548"><ele>324.7142857142857</ele><time>2026-03-31T13:15:57Z</time></trkpt><trkpt lat="44.1023774" lon="10.3948444"><ele>327.8571428571429</ele><time>2026-03-31T13:16:00Z</time></trkpt><trkpt lat="44.1023871" lon="10.3949566"><ele>331.0</ele><time>2026-03-31T13:16:04Z</time></trkpt><trkpt lat="44.1023838" lon="10.3950475"><ele>333.0</ele><time>2026-03-31T13:16:07Z</time></trkpt><trkpt lat="44.1023724" lon="10.3951383"><ele>335.0</ele><time>2026-03-31T13:16:10Z</time></trkpt><trkpt lat="44.1023731" lon="10.3952345"><ele>337.0</ele><time>2026-03-31T13:16:13Z</time></trkpt><trkpt lat="44.1023737" lon="10.3953286"><ele>339.0</ele><time>2026-03-31T13:16:16Z</time></trkpt><trkpt lat="44.1023817" lon="10.3954402"><ele>341.0</ele><time>2026-03-31T13:16:20.109Z</time></trkpt><trkpt lat="44.1023837" lon="10.3955295"><ele>343.0</ele><time>2026-03-31T13:16:23Z</time></trkpt><trkpt lat="44.1023867" lon="10.3956183"><ele>345.0</ele><time>2026-03-31T13:16:25.999Z</time></trkpt><trkpt lat="44.1023866" lon="10.3957228"><ele>345.0</ele><time>2026-03-31T13:16:30Z</time></trkpt><trkpt lat="44.1024087" lon="10.3958366"><ele>345.0</ele><time>2026-03-31T13:16:34Z</time></trkpt><trkpt lat="44.1024264" lon="10.3959431"><ele>345.0</ele><time>2026-03-31T13:16:38.1Z</time></trkpt><trkpt lat="44.1024321" lon="10.3960517"><ele>345.0</ele><time>2026-03-31T13:16:41.999Z</time></trkpt><trkpt lat="44.1024311" lon="10.3961557"><ele>345.0</ele><time>2026-03-31T13:16:46Z</time></trkpt><trkpt lat="44.1024267" lon="10.3962507"><ele>345.0</ele><time>2026-03-31T13:16:48.999Z</time></trkpt><trkpt lat="44.1024194" lon="10.396362"><ele>337.5</ele><time>2026-03-31T13:16:52Z</time></trkpt><trkpt lat="44.102419" lon="10.3964826"><ele>330.0</ele><time>2026-03-31T13:16:54.999Z</time></trkpt><trkpt lat="44.1024271" lon="10.3965993"><ele>322.5</ele><time>2026-03-31T13:16:57.999Z</time></trkpt><trkpt lat="44.1024292" lon="10.3967085"><ele>315.0</ele><time>2026-03-31T13:17:01Z</time></trkpt><trkpt lat="44.1024338" lon="10.3968083"><ele>307.5</ele><time>2026-03-31T13:17:03.999Z</time></trkpt><trkpt lat="44.1024376" lon="10.3969046"><ele>300.0</ele><time>2026-03-31T13:17:06.999Z</time></trkpt><trkpt lat="44.1024423" lon="10.3970045"><ele>299.99999999999994</ele><time>2026-03-31T13:17:10Z</time></trkpt><trkpt lat="44.1024415" lon="10.3971014"><ele>300.0</ele><time>2026-03-31T13:17:12.999Z</time></trkpt><trkpt lat="44.1024447" lon="10.3971956"><ele>300.0</ele><time>2026-03-31T13:17:16Z</time></trkpt><trkpt lat="44.1024415" lon="10.397302"><ele>300.0</ele><time>2026-03-31T13:17:19Z</time></trkpt><trkpt lat="44.1024502" lon="10.3973905"><ele>300.0</ele><time>2026-03-31T13:17:22Z</time></trkpt><trkpt lat="44.1024376" lon="10.3974946"><ele>299.99999999999994</ele><time>2026-03-31T13:17:27Z</time></trkpt><trkpt lat="44.1024372" lon="10.3975832"><ele>300.0</ele><time>2026-03-31T13:17:29.999Z</time></trkpt><trkpt lat="44.1024363" lon="10.3976865"><ele>299.5</ele><time>2026-03-31T13:17:33Z</time></trkpt><trkpt lat="44.1024413" lon="10.3978041"><ele>299.0</ele><time>2026-03-31T13:17:36Z</time></trkpt><trkpt lat="44.1024482" lon="10.3979292"><ele>298.5</ele><time>2026-03-31T13:17:38.999Z</time></trkpt><trkpt lat="44.1024387" lon="10.3980538"><ele>298.0</ele><time>2026-03-31T13:17:42Z</time></trkpt><trkpt lat="44.1024177" lon="10.3981691"><ele>297.5</ele><time>2026-03-31T13:17:44.999Z</time></trkpt><trkpt lat="44.1023939" lon="10.3982729"><ele>297.0</ele><time>2026-03-31T13:17:47.999Z</time></trkpt><trkpt lat="44.1023689" lon="10.3983691"><ele>298.0</ele><time>2026-03-31T13:17:51Z</time></trkpt><trkpt lat="44.1023192" lon="10.398462"><ele>299.0</ele><time>2026-03-31T13:17:54Z</time></trkpt><trkpt lat="44.1022707" lon="10.3985225"><ele>300.0</ele><time>2026-03-31T13:17:56Z</time></trkpt><trkpt lat="44.1022199" lon="10.3985952"><ele>301.0</ele><time>2026-03-31T13:17:58Z</time></trkpt><trkpt lat="44.1021629" lon="10.398676"><ele>302.0</ele><time>2026-03-31T13:18:00Z</time></trkpt><trkpt lat="44.1021067" lon="10.3987854"><ele>303.0</ele><time>2026-03-31T13:18:02Z</time></trkpt><trkpt lat="44.1020325" lon="10.3988861"><ele>303.0</ele><time>2026-03-31T13:18:04Z</time></trkpt><trkpt lat="44.1019556" lon="10.3989998"><ele>303.0</ele><time>2026-03-31T13:18:06Z</time></trkpt><trkpt lat="44.1018791" lon="10.3991055"><ele>303.0</ele><time>2026-03-31T13:18:08Z</time></trkpt><trkpt lat="44.1018146" lon="10.3992407"><ele>303.0</ele><time>2026-03-31T13:18:09.999Z</time></trkpt><trkpt lat="44.1017656" lon="10.3993724"><ele>303.0</ele><time>2026-03-31T13:18:12Z</time></trkpt><trkpt lat="44.1017466" lon="10.3994936"><ele>303.0</ele><time>2026-03-31T13:18:13.999Z</time></trkpt><trkpt lat="44.1017483" lon="10.3996095"><ele>303.0</ele><time>2026-03-31T13:18:15.999Z</time></trkpt><trkpt lat="44.1017482" lon="10.3997128"><ele>303.0</ele><time>2026-03-31T13:18:18Z</time></trkpt><trkpt lat="44.1017446" lon="10.3998163"><ele>303.0</ele><time>2026-03-31T13:18:20Z</time></trkpt><trkpt lat="44.1017396" lon="10.3999102"><ele>303.0</ele><time>2026-03-31T13:18:22Z</time></trkpt><trkpt lat="44.1017204" lon="10.4000319"><ele>303.0</ele><time>2026-03-31T13:18:25Z</time></trkpt><trkpt lat="44.1016984" lon="10.4001272"><ele>302.1666666666667</ele><time>2026-03-31T13:18:27.999Z</time></trkpt><trkpt lat="44.1016786" lon="10.4002305"><ele>301.3333333333333</ele><time>2026-03-31T13:18:32Z</time></trkpt><trkpt lat="44.1016726" lon="10.4003227"><ele>300.5</ele><time>2026-03-31T13:18:34.999Z</time></trkpt><trkpt lat="44.1016745" lon="10.40043"><ele>299.66666666666663</ele><time>2026-03-31T13:18:39Z</time></trkpt><trkpt lat="44.101691" lon="10.4005243"><ele>298.8333333333333</ele><time>2026-03-31T13:18:42Z</time></trkpt><trkpt lat="44.1017122" lon="10.4006388"><ele>298.0</ele><time>2026-03-31T13:18:45Z</time></trkpt><trkpt lat="44.1017276" lon="10.4007636"><ele>298.0</ele><time>2026-03-31T13:18:48Z</time></trkpt><trkpt lat="44.1017348" lon="10.4008555"><ele>298.0</ele><time>2026-03-31T13:18:50Z</time></trkpt><trkpt lat="44.1017554" lon="10.4009525"><ele>298.0</ele><time>2026-03-31T13:18:51.999Z</time></trkpt><trkpt lat="44.1017736" lon="10.4010667"><ele>298.0</ele><time>2026-03-31T13:18:53.999Z</time></trkpt><trkpt lat="44.1017875" lon="10.4011786"><ele>298.0</ele><time>2026-03-31T13:18:56Z</time></trkpt><trkpt lat="44.1018069" lon="10.401293"><ele>298.0</ele><time>2026-03-31T13:18:58Z</time></trkpt><trkpt lat="44.1018338" lon="10.4014026"><ele>299.3333333333333</ele><time>2026-03-31T13:19:00Z</time></trkpt><trkpt lat="44.1018591" lon="10.4015051"><ele>300.66666666666663</ele><time>2026-03-31T13:19:02Z</time></trkpt><trkpt lat="44.10189" lon="10.4016051"><ele>302.0</ele><time>2026-03-31T13:19:04Z</time></trkpt><trkpt lat="44.1019301" lon="10.4016921"><ele>303.3333333333333</ele><time>2026-03-31T13:19:06Z</time></trkpt><trkpt lat="44.1019758" lon="10.4017617"><ele>304.6666666666667</ele><time>2026-03-31T13:19:08.102Z</time></trkpt><trkpt lat="44.102024" lon="10.4018248"><ele>306.0</ele><time>2026-03-31T13:19:09.999Z</time></trkpt><trkpt lat="44.1020836" lon="10.4019199"><ele>306.0</ele><time>2026-03-31T13:19:13Z</time></trkpt><trkpt lat="44.1021125" lon="10.4019993"><ele>306.0</ele><time>2026-03-31T13:19:15Z</time></trkpt><trkpt lat="44.1021466" lon="10.402164"><ele>306.0</ele><time>2026-03-31T13:19:19Z</time></trkpt><trkpt lat="44.1021673" lon="10.4022513"><ele>306.0</ele><time>2026-03-31T13:19:21Z</time></trkpt><trkpt lat="44.1021893" lon="10.4023405"><ele>306.0</ele><time>2026-03-31T13:19:22.999Z</time></trkpt><trkpt lat="44.1022161" lon="10.4024405"><ele>306.0</ele><time>2026-03-31T13:19:25Z</time></trkpt><trkpt lat="44.1022502" lon="10.402532"><ele>306.5</ele><time>2026-03-31T13:19:26.999Z</time></trkpt><trkpt lat="44.1022831" lon="10.4026163"><ele>307.0</ele><time>2026-03-31T13:19:29Z</time></trkpt><trkpt lat="44.102337" lon="10.4027266"><ele>307.5</ele><time>2026-03-31T13:19:32Z</time></trkpt><trkpt lat="44.1023774" lon="10.402807"><ele>308.0</ele><time>2026-03-31T13:19:33.999Z</time></trkpt><trkpt lat="44.1024376" lon="10.4029078"><ele>308.5</ele><time>2026-03-31T13:19:37.115Z</time></trkpt><trkpt lat="44.1024852" lon="10.4029974"><ele>309.0</ele><time>2026-03-31T13:19:40Z</time></trkpt><trkpt lat="44.1025288" lon="10.4030838"><ele>306.3333333333333</ele><time>2026-03-31T13:19:43Z</time></trkpt><trkpt lat="44.1025789" lon="10.4031723"><ele>303.6666666666667</ele><time>2026-03-31T13:19:47Z</time></trkpt><trkpt lat="44.1026215" lon="10.4032474"><ele>301.0</ele><time>2026-03-31T13:19:50Z</time></trkpt><trkpt lat="44.1026485" lon="10.403346"><ele>298.33333333333337</ele><time>2026-03-31T13:19:52.999Z</time></trkpt><trkpt lat="44.1026619" lon="10.4034412"><ele>295.6666666666667</ele><time>2026-03-31T13:19:55Z</time></trkpt><trkpt lat="44.1026985" lon="10.4035523"><ele>293.0</ele><time>2026-03-31T13:19:57Z</time></trkpt><trkpt lat="44.1027816" lon="10.4036358"><ele>293.0</ele><time>2026-03-31T13:19:59Z</time></trkpt><trkpt lat="44.1028745" lon="10.4037074"><ele>293.0</ele><time>2026-03-31T13:20:01Z</time></trkpt><trkpt lat="44.1029795" lon="10.4037871"><ele>293.0</ele><time>2026-03-31T13:20:03Z</time></trkpt><trkpt lat="44.1030877" lon="10.4038476"><ele>293.0</ele><time>2026-03-31T13:20:05Z</time></trkpt><trkpt lat="44.1031953" lon="10.403867"><ele>290.75</ele><time>2026-03-31T13:20:07Z</time></trkpt><trkpt lat="44.1032988" lon="10.4039027"><ele>288.5</ele><time>2026-03-31T13:20:09Z</time></trkpt><trkpt lat="44.1033916" lon="10.4039801"><ele>286.25</ele><time>2026-03-31T13:20:11Z</time></trkpt><trkpt lat="44.1035037" lon="10.4040423"><ele>284.0</ele><time>2026-03-31T13:20:13Z</time></trkpt><trkpt lat="44.103621" lon="10.4040621"><ele>284.0</ele><time>2026-03-31T13:20:15Z</time></trkpt><trkpt lat="44.1036893" lon="10.4040966"><ele>284.0</ele><time>2026-03-31T13:20:18Z</time></trkpt><trkpt lat="44.1037212" lon="10.4041767"><ele>284.0</ele><time>2026-03-31T13:20:22.101Z</time></trkpt><trkpt lat="44.1037332" lon="10.4042828"><ele>284.0</ele><time>2026-03-31T13:20:26Z</time></trkpt><trkpt lat="44.1037466" lon="10.4043831"><ele>284.0</ele><time>2026-03-31T13:20:29Z</time></trkpt><trkpt lat="44.1037661" lon="10.4044905"><ele>284.0</ele><time>2026-03-31T13:20:32Z</time></trkpt><trkpt lat="44.1037873" lon="10.4045741"><ele>284.0</ele><time>2026-03-31T13:20:33.999Z</time></trkpt><trkpt lat="44.1038111" lon="10.4046594"><ele>284.57142857142856</ele><time>2026-03-31T13:20:36Z</time></trkpt><trkpt lat="44.1038285" lon="10.404751"><ele>285.1428571428571</ele><time>2026-03-31T13:20:37.999Z</time></trkpt><trkpt lat="44.1038321" lon="10.4048459"><ele>285.7142857142857</ele><time>2026-03-31T13:20:40Z</time></trkpt><trkpt lat="44.1038427" lon="10.4049448"><ele>286.2857142857143</ele><time>2026-03-31T13:20:41.999Z</time></trkpt><trkpt lat="44.1038501" lon="10.4050425"><ele>286.8571428571429</ele><time>2026-03-31T13:20:44Z</time></trkpt><trkpt lat="44.1038496" lon="10.405148"><ele>287.42857142857144</ele><time>2026-03-31T13:20:45.999Z</time></trkpt><trkpt lat="44.1038515" lon="10.4052475"><ele>288.0</ele><time>2026-03-31T13:20:48Z</time></trkpt><trkpt lat="44.1038582" lon="10.4053456"><ele>288.00000000000006</ele><time>2026-03-31T13:20:50Z</time></trkpt><trkpt lat="44.1038641" lon="10.4054413"><ele>288.0</ele><time>2026-03-31T13:20:52Z</time></trkpt><trkpt lat="44.1038704" lon="10.4055447"><ele>288.0</ele><time>2026-03-31T13:20:54Z</time></trkpt><trkpt lat="44.1038727" lon="10.4056378"><ele>288.0</ele><time>2026-03-31T13:20:56.102Z</time></trkpt><trkpt lat="44.1038837" lon="10.4057277"><ele>288.0</ele><time>2026-03-31T13:20:58Z</time></trkpt><trkpt lat="44.1038943" lon="10.4058226"><ele>288.00000000000006</ele><time>2026-03-31T13:21:00Z</time></trkpt><trkpt lat="44.1039111" lon="10.4059205"><ele>288.0</ele><time>2026-03-31T13:21:01.999Z</time></trkpt><trkpt lat="44.1039278" lon="10.406011"><ele>287.5714285714286</ele><time>2026-03-31T13:21:04Z</time></trkpt><trkpt lat="44.1039314" lon="10.4061082"><ele>287.14285714285717</ele><time>2026-03-31T13:21:06Z</time></trkpt><trkpt lat="44.1039319" lon="10.4062079"><ele>286.7142857142857</ele><time>2026-03-31T13:21:08Z</time></trkpt><trkpt lat="44.1039389" lon="10.4063024"><ele>286.28571428571433</ele><time>2026-03-31T13:21:09.999Z</time></trkpt><trkpt lat="44.1039573" lon="10.4064287"><ele>285.8571428571429</ele><time>2026-03-31T13:21:13Z</time></trkpt><trkpt lat="44.1039634" lon="10.4065238"><ele>285.42857142857144</ele><time>2026-03-31T13:21:15.108Z</time></trkpt><trkpt lat="44.1039683" lon="10.4066208"><ele>285.0</ele><time>2026-03-31T13:21:17Z</time></trkpt><trkpt lat="44.1039722" lon="10.4067231"><ele>285.0</ele><time>2026-03-31T13:21:18.999Z</time></trkpt><trkpt lat="44.1039827" lon="10.4068182"><ele>285.0</ele><time>2026-03-31T13:21:20.999Z</time></trkpt><trkpt lat="44.1040135" lon="10.4069866"><ele>285.0</ele><time>2026-03-31T13:21:25Z</time></trkpt><trkpt lat="44.1040305" lon="10.4071153"><ele>285.0</ele><time>2026-03-31T13:21:28Z</time></trkpt><trkpt lat="44.1040595" lon="10.4072309"><ele>285.0</ele><time>2026-03-31T13:21:31Z</time></trkpt><trkpt lat="44.1041455" lon="10.4072561"><ele>284.6666666666667</ele><time>2026-03-31T13:21:34Z</time></trkpt><trkpt lat="44.1042162" lon="10.4072234"><ele>284.3333333333333</ele><time>2026-03-31T13:21:36Z</time></trkpt><trkpt lat="44.1042878" lon="10.407196"><ele>284.0</ele><time>2026-03-31T13:21:37.999Z</time></trkpt><trkpt lat="44.1043734" lon="10.4071999"><ele>283.66666666666663</ele><time>2026-03-31T13:21:39.999Z</time></trkpt><trkpt lat="44.1044616" lon="10.4072065"><ele>283.3333333333333</ele><time>2026-03-31T13:21:42Z</time></trkpt><trkpt lat="44.1045512" lon="10.407211"><ele>283.0</ele><time>2026-03-31T13:21:44Z</time></trkpt><trkpt lat="44.1046358" lon="10.4072183"><ele>283.0</ele><time>2026-03-31T13:21:46Z</time></trkpt><trkpt lat="44.1047166" lon="10.4072284"><ele>283.0</ele><time>2026-03-31T13:21:48Z</time></trkpt><trkpt lat="44.1047926" lon="10.4072389"><ele>283.0</ele><time>2026-03-31T13:21:50Z</time></trkpt><trkpt lat="44.1048566" lon="10.4072408"><ele>283.0</ele><time>2026-03-31T13:21:52Z</time></trkpt><trkpt lat="44.1049228" lon="10.4072463"><ele>283.0</ele><time>2026-03-31T13:21:54Z</time></trkpt><trkpt lat="44.1049887" lon="10.4072562"><ele>283.0</ele><time>2026-03-31T13:21:55.999Z</time></trkpt><trkpt lat="44.1050599" lon="10.4072642"><ele>283.0</ele><time>2026-03-31T13:21:58Z</time></trkpt><trkpt lat="44.1051363" lon="10.4072769"><ele>282.5</ele><time>2026-03-31T13:22:00Z</time></trkpt><trkpt lat="44.1052019" lon="10.4072873"><ele>282.0</ele><time>2026-03-31T13:22:01.999Z</time></trkpt><trkpt lat="44.1052656" lon="10.4073043"><ele>281.5</ele><time>2026-03-31T13:22:03.999Z</time></trkpt><trkpt lat="44.1053353" lon="10.4073064"><ele>281.0</ele><time>2026-03-31T13:22:07Z</time></trkpt><trkpt lat="44.1054271" lon="10.4073134"><ele>280.5</ele><time>2026-03-31T13:22:10Z</time></trkpt><trkpt lat="44.1055187" lon="10.4073233"><ele>280.0</ele><time>2026-03-31T13:22:13Z</time></trkpt><trkpt lat="44.1056061" lon="10.4073278"><ele>280.0</ele><time>2026-03-31T13:22:16.108Z</time></trkpt><trkpt lat="44.1056699" lon="10.4073371"><ele>280.0</ele><time>2026-03-31T13:22:17.999Z</time></trkpt><trkpt lat="44.1057615" lon="10.4073533"><ele>280.0</ele><time>2026-03-31T13:22:21Z</time></trkpt><trkpt lat="44.1058346" lon="10.407364"><ele>280.0</ele><time>2026-03-31T13:22:23Z</time></trkpt><trkpt lat="44.1058999" lon="10.407374"><ele>280.0</ele><time>2026-03-31T13:22:25Z</time></trkpt><trkpt lat="44.1059728" lon="10.407384"><ele>280.0</ele><time>2026-03-31T13:22:26.999Z</time></trkpt><trkpt lat="44.1060444" lon="10.407402"><ele>280.0</ele><time>2026-03-31T13:22:29Z</time></trkpt><trkpt lat="44.1061144" lon="10.4074195"><ele>279.57142857142856</ele><time>2026-03-31T13:22:31Z</time></trkpt><trkpt lat="44.1061825" lon="10.4074381"><ele>279.1428571428571</ele><time>2026-03-31T13:22:32.999Z</time></trkpt><trkpt lat="44.1062806" lon="10.4074603"><ele>278.7142857142857</ele><time>2026-03-31T13:22:36Z</time></trkpt><trkpt lat="44.1063501" lon="10.4074665"><ele>278.2857142857143</ele><time>2026-03-31T13:22:37.999Z</time></trkpt><trkpt lat="44.1064165" lon="10.4074754"><ele>277.85714285714283</ele><time>2026-03-31T13:22:39.999Z</time></trkpt><trkpt lat="44.1064868" lon="10.4074845"><ele>277.42857142857144</ele><time>2026-03-31T13:22:42Z</time></trkpt><trkpt lat="44.1065577" lon="10.4074906"><ele>277.0</ele><time>2026-03-31T13:22:44Z</time></trkpt><trkpt lat="44.1066296" lon="10.4075047"><ele>276.85714285714283</ele><time>2026-03-31T13:22:45.999Z</time></trkpt><trkpt lat="44.1067032" lon="10.407516"><ele>276.71428571428567</ele><time>2026-03-31T13:22:48Z</time></trkpt><trkpt lat="44.1067718" lon="10.407521"><ele>276.57142857142856</ele><time>2026-03-31T13:22:50.114Z</time></trkpt><trkpt lat="44.1068372" lon="10.4075262"><ele>276.42857142857144</ele><time>2026-03-31T13:22:52Z</time></trkpt><trkpt lat="44.1069034" lon="10.4075339"><ele>276.28571428571433</ele><time>2026-03-31T13:22:54Z</time></trkpt><trkpt lat="44.1069721" lon="10.407542"><ele>276.14285714285717</ele><time>2026-03-31T13:22:56Z</time></trkpt><trkpt lat="44.1070392" lon="10.4075453"><ele>276.0</ele><time>2026-03-31T13:22:57.999Z</time></trkpt><trkpt lat="44.1071331" lon="10.4075467"><ele>276.0</ele><time>2026-03-31T13:23:00.999Z</time></trkpt><trkpt lat="44.1071985" lon="10.4075504"><ele>276.0</ele><time>2026-03-31T13:23:02.999Z</time></trkpt><trkpt lat="44.1072709" lon="10.4075558"><ele>276.0</ele><time>2026-03-31T13:23:05Z</time></trkpt><trkpt lat="44.1073408" lon="10.4075667"><ele>276.0</ele><time>2026-03-31T13:23:07Z</time></trkpt><trkpt lat="44.1074105" lon="10.4075764"><ele>276.0</ele><time>2026-03-31T13:23:08.999Z</time></trkpt><trkpt lat="44.1074772" lon="10.407585"><ele>276.0</ele><time>2026-03-31T13:23:11Z</time></trkpt><trkpt lat="44.1075454" lon="10.4075959"><ele>276.0</ele><time>2026-03-31T13:23:13Z</time></trkpt><trkpt lat="44.1076128" lon="10.4076052"><ele>276.0</ele><time>2026-03-31T13:23:15Z</time></trkpt><trkpt lat="44.1076772" lon="10.4076163"><ele>276.0</ele><time>2026-03-31T13:23:17Z</time></trkpt><trkpt lat="44.1077427" lon="10.4076314"><ele>276.0</ele><time>2026-03-31T13:23:19Z</time></trkpt><trkpt lat="44.1078094" lon="10.4076525"><ele>276.0</ele><time>2026-03-31T13:23:20.999Z</time></trkpt><trkpt lat="44.1078738" lon="10.4076824"><ele>276.0</ele><time>2026-03-31T13:23:23.107Z</time></trkpt><trkpt lat="44.1079349" lon="10.4077171"><ele>276.0</ele><time>2026-03-31T13:23:24.999Z</time></trkpt><trkpt lat="44.1079937" lon="10.4077651"><ele>276.0</ele><time>2026-03-31T13:23:27Z</time></trkpt><trkpt lat="44.108051" lon="10.4078214"><ele>276.0</ele><time>2026-03-31T13:23:30Z</time></trkpt><trkpt lat="44.1081088" lon="10.4078767"><ele>276.0</ele><time>2026-03-31T13:23:33Z</time></trkpt><trkpt lat="44.1081653" lon="10.4079404"><ele>276.0</ele><time>2026-03-31T13:23:35.999Z</time></trkpt><trkpt lat="44.1082213" lon="10.4079836"><ele>276.0</ele><time>2026-03-31T13:23:38.999Z</time></trkpt><trkpt lat="44.1083034" lon="10.4080283"><ele>276.0</ele><time>2026-03-31T13:23:42Z</time></trkpt><trkpt lat="44.1083889" lon="10.4080625"><ele>276.0</ele><time>2026-03-31T13:23:44.999Z</time></trkpt><trkpt lat="44.1084748" lon="10.4080973"><ele>276.5</ele><time>2026-03-31T13:23:48Z</time></trkpt><trkpt lat="44.1085658" lon="10.4081286"><ele>277.0</ele><time>2026-03-31T13:23:50.999Z</time></trkpt><trkpt lat="44.1086291" lon="10.4081465"><ele>277.5</ele><time>2026-03-31T13:23:53.102Z</time></trkpt><trkpt lat="44.1087027" lon="10.40817"><ele>278.0</ele><time>2026-03-31T13:23:56Z</time></trkpt><trkpt lat="44.1087973" lon="10.408205"><ele>278.5</ele><time>2026-03-31T13:23:58.999Z</time></trkpt><trkpt lat="44.1088832" lon="10.40823"><ele>279.0</ele><time>2026-03-31T13:24:02Z</time></trkpt><trkpt lat="44.1089696" lon="10.4082495"><ele>279.0</ele><time>2026-03-31T13:24:05Z</time></trkpt><trkpt lat="44.1090556" lon="10.4082775"><ele>279.0</ele><time>2026-03-31T13:24:08Z</time></trkpt><trkpt lat="44.1091261" lon="10.4082883"><ele>279.0</ele><time>2026-03-31T13:24:11Z</time></trkpt><trkpt lat="44.1091928" lon="10.4082859"><ele>279.0</ele><time>2026-03-31T13:24:13.999Z</time></trkpt><trkpt lat="44.1092564" lon="10.4083207"><ele>279.0</ele><time>2026-03-31T13:24:18Z</time></trkpt><trkpt lat="44.1092761" lon="10.408438"><ele>279.0</ele><time>2026-03-31T13:24:20.999Z</time></trkpt><trkpt lat="44.1093535" lon="10.4084566"><ele>280.5</ele><time>2026-03-31T13:24:25Z</time></trkpt><trkpt lat="44.1094247" lon="10.4084704"><ele>282.0</ele><time>2026-03-31T13:24:29Z</time></trkpt><trkpt lat="44.1095062" lon="10.4084764"><ele>283.5</ele><time>2026-03-31T13:24:33.999Z</time></trkpt><trkpt lat="44.1095801" lon="10.4085008"><ele>285.0</ele><time>2026-03-31T13:24:37Z</time></trkpt><trkpt lat="44.1096547" lon="10.4085191"><ele>286.5</ele><time>2026-03-31T13:24:40Z</time></trkpt><trkpt lat="44.1097306" lon="10.40854"><ele>288.0</ele><time>2026-03-31T13:24:42.999Z</time></trkpt><trkpt lat="44.1097849" lon="10.408614"><ele>288.00000000000006</ele><time>2026-03-31T13:24:47.999Z</time></trkpt><trkpt lat="44.1098052" lon="10.408701"><ele>288.0</ele><time>2026-03-31T13:26:15.999Z</time></trkpt><trkpt lat="44.1098347" lon="10.4086121"><ele>288.0</ele><time>2026-03-31T13:26:21Z</time></trkpt><trkpt lat="44.1098955" lon="10.408565"><ele>288.0</ele><time>2026-03-31T13:26:25Z</time></trkpt><trkpt lat="44.1099749" lon="10.4085318"><ele>288.0</ele><time>2026-03-31T13:26:29Z</time></trkpt><trkpt lat="44.1100182" lon="10.4084621"><ele>288.00000000000006</ele><time>2026-03-31T13:26:32Z</time></trkpt><trkpt lat="44.1100642" lon="10.4083605"><ele>288.0</ele><time>2026-03-31T13:26:35Z</time></trkpt><trkpt lat="44.1100835" lon="10.4082491"><ele>287.6</ele><time>2026-03-31T13:26:38Z</time></trkpt><trkpt lat="44.1101076" lon="10.4081667"><ele>287.20000000000005</ele><time>2026-03-31T13:26:41Z</time></trkpt><trkpt lat="44.1101353" lon="10.4080752"><ele>286.8</ele><time>2026-03-31T13:26:44.999Z</time></trkpt><trkpt lat="44.110222" lon="10.4078043"><ele>286.40000000000003</ele><time>2026-03-31T13:26:50Z</time></trkpt><trkpt lat="44.1102949" lon="10.4077729"><ele>286.0</ele><time>2026-03-31T13:26:51Z</time></trkpt><trkpt lat="44.1103946" lon="10.4076794"><ele>287.40000000000003</ele><time>2026-03-31T13:26:53Z</time></trkpt><trkpt lat="44.1104677" lon="10.4075844"><ele>288.8</ele><time>2026-03-31T13:26:55Z</time></trkpt><trkpt lat="44.1105352" lon="10.4074946"><ele>290.20000000000005</ele><time>2026-03-31T13:26:56.999Z</time></trkpt><trkpt lat="44.1106554" lon="10.4074205"><ele>291.6</ele><time>2026-03-31T13:26:59Z</time></trkpt><trkpt lat="44.1107237" lon="10.4073762"><ele>293.0</ele><time>2026-03-31T13:26:59.999Z</time></trkpt><trkpt lat="44.1107908" lon="10.4073466"><ele>289.6</ele><time>2026-03-31T13:27:01Z</time></trkpt><trkpt lat="44.1108993" lon="10.4072942"><ele>286.20000000000005</ele><time>2026-03-31T13:27:03Z</time></trkpt><trkpt lat="44.1110094" lon="10.4072752"><ele>282.8</ele><time>2026-03-31T13:27:05Z</time></trkpt><trkpt lat="44.1110942" lon="10.407274"><ele>279.40000000000003</ele><time>2026-03-31T13:27:07Z</time></trkpt><trkpt lat="44.111183" lon="10.4072715"><ele>276.0</ele><time>2026-03-31T13:27:10Z</time></trkpt><trkpt lat="44.1112655" lon="10.4072911"><ele>276.0</ele><time>2026-03-31T13:27:12.999Z</time></trkpt><trkpt lat="44.1113586" lon="10.4072769"><ele>276.0</ele><time>2026-03-31T13:27:15.999Z</time></trkpt><trkpt lat="44.111425" lon="10.4072699"><ele>276.0</ele><time>2026-03-31T13:27:17.999Z</time></trkpt><trkpt lat="44.1114903" lon="10.4072543"><ele>276.0</ele><time>2026-03-31T13:27:20Z</time></trkpt><trkpt lat="44.111574" lon="10.4072162"><ele>276.0</ele><time>2026-03-31T13:27:23Z</time></trkpt><trkpt lat="44.1116294" lon="10.4071662"><ele>276.0</ele><time>2026-03-31T13:27:25Z</time></trkpt><trkpt lat="44.1116782" lon="10.4070913"><ele>275.2857142857143</ele><time>2026-03-31T13:27:26.999Z</time></trkpt><trkpt lat="44.1117153" lon="10.4070038"><ele>274.5714285714286</ele><time>2026-03-31T13:27:29Z</time></trkpt><trkpt lat="44.1117446" lon="10.4069132"><ele>273.8571428571429</ele><time>2026-03-31T13:27:31Z</time></trkpt><trkpt lat="44.1117712" lon="10.4068239"><ele>273.14285714285717</ele><time>2026-03-31T13:27:33Z</time></trkpt><trkpt lat="44.1117969" lon="10.406741"><ele>272.42857142857144</ele><time>2026-03-31T13:27:34.999Z</time></trkpt><trkpt lat="44.1118233" lon="10.4066545"><ele>271.7142857142857</ele><time>2026-03-31T13:27:37Z</time></trkpt><trkpt lat="44.11185" lon="10.4065657"><ele>271.0</ele><time>2026-03-31T13:27:38.999Z</time></trkpt><trkpt lat="44.1118747" lon="10.4064755"><ele>271.0</ele><time>2026-03-31T13:27:41Z</time></trkpt><trkpt lat="44.1118938" lon="10.4063801"><ele>271.0</ele><time>2026-03-31T13:27:43Z</time></trkpt><trkpt lat="44.1119163" lon="10.4062867"><ele>271.0</ele><time>2026-03-31T13:27:44.999Z</time></trkpt><trkpt lat="44.1119421" lon="10.4061883"><ele>271.0</ele><time>2026-03-31T13:27:46.999Z</time></trkpt><trkpt lat="44.1119629" lon="10.4060945"><ele>271.0</ele><time>2026-03-31T13:27:49Z</time></trkpt><trkpt lat="44.1119841" lon="10.4060062"><ele>271.0</ele><time>2026-03-31T13:27:50.999Z</time></trkpt><trkpt lat="44.1120214" lon="10.4058921"><ele>271.0</ele><time>2026-03-31T13:27:54Z</time></trkpt><trkpt lat="44.1120438" lon="10.4058039"><ele>272.0</ele><time>2026-03-31T13:27:56.101Z</time></trkpt><trkpt lat="44.1120679" lon="10.4057217"><ele>273.0</ele><time>2026-03-31T13:27:58Z</time></trkpt><trkpt lat="44.1120904" lon="10.4056347"><ele>274.0</ele><time>2026-03-31T13:27:59.999Z</time></trkpt><trkpt lat="44.1121138" lon="10.4055443"><ele>275.0</ele><time>2026-03-31T13:28:01.999Z</time></trkpt><trkpt lat="44.1121361" lon="10.4054586"><ele>276.0</ele><time>2026-03-31T13:28:04Z</time></trkpt><trkpt lat="44.1121562" lon="10.4053662"><ele>277.0</ele><time>2026-03-31T13:28:06Z</time></trkpt><trkpt lat="44.1121896" lon="10.4052509"><ele>278.0</ele><time>2026-03-31T13:28:09Z</time></trkpt><trkpt lat="44.1122261" lon="10.4051765"><ele>278.5</ele><time>2026-03-31T13:28:11Z</time></trkpt><trkpt lat="44.1122868" lon="10.4050766"><ele>279.0</ele><time>2026-03-31T13:28:14Z</time></trkpt><trkpt lat="44.1123354" lon="10.405006"><ele>279.5</ele><time>2026-03-31T13:28:16Z</time></trkpt><trkpt lat="44.1123971" lon="10.4049111"><ele>280.0</ele><time>2026-03-31T13:28:18.999Z</time></trkpt><trkpt lat="44.1124671" lon="10.404822"><ele>280.5</ele><time>2026-03-31T13:28:22Z</time></trkpt><trkpt lat="44.1125383" lon="10.4047435"><ele>281.0</ele><time>2026-03-31T13:28:25Z</time></trkpt><trkpt lat="44.1126174" lon="10.404659"><ele>281.00000000000006</ele><time>2026-03-31T13:28:27.999Z</time></trkpt><trkpt lat="44.1126751" lon="10.4045966"><ele>281.0</ele><time>2026-03-31T13:28:29.999Z</time></trkpt><trkpt lat="44.1127497" lon="10.4045163"><ele>281.0</ele><time>2026-03-31T13:28:33Z</time></trkpt><trkpt lat="44.112804" lon="10.4044574"><ele>281.0</ele><time>2026-03-31T13:28:35Z</time></trkpt><trkpt lat="44.1128567" lon="10.4044006"><ele>281.0</ele><time>2026-03-31T13:28:37Z</time></trkpt><trkpt lat="44.112904" lon="10.4043423"><ele>281.00000000000006</ele><time>2026-03-31T13:28:39Z</time></trkpt><trkpt lat="44.1129573" lon="10.4042875"><ele>281.0</ele><time>2026-03-31T13:28:41.101Z</time></trkpt><trkpt lat="44.1130114" lon="10.4042318"><ele>281.0</ele><time>2026-03-31T13:28:43Z</time></trkpt><trkpt lat="44.1130677" lon="10.4041746"><ele>281.0</ele><time>2026-03-31T13:28:45Z</time></trkpt><trkpt lat="44.1131205" lon="10.4041164"><ele>281.0</ele><time>2026-03-31T13:28:47Z</time></trkpt><trkpt lat="44.1131731" lon="10.4040623"><ele>281.0</ele><time>2026-03-31T13:28:49Z</time></trkpt><trkpt lat="44.1132469" lon="10.4039844"><ele>281.0</ele><time>2026-03-31T13:28:52Z</time></trkpt><trkpt lat="44.1133237" lon="10.4039038"><ele>281.0</ele><time>2026-03-31T13:28:54.999Z</time></trkpt><trkpt lat="44.1133776" lon="10.4038535"><ele>280.42857142857144</ele><time>2026-03-31T13:28:57Z</time></trkpt><trkpt lat="44.1134304" lon="10.4038025"><ele>279.8571428571429</ele><time>2026-03-31T13:28:59.105Z</time></trkpt><trkpt lat="44.1135121" lon="10.4037304"><ele>279.2857142857143</ele><time>2026-03-31T13:29:02Z</time></trkpt><trkpt lat="44.1135656" lon="10.4036814"><ele>278.7142857142857</ele><time>2026-03-31T13:29:04Z</time></trkpt><trkpt lat="44.1136163" lon="10.4036249"><ele>278.1428571428571</ele><time>2026-03-31T13:29:06Z</time></trkpt><trkpt lat="44.1136669" lon="10.4035697"><ele>277.57142857142856</ele><time>2026-03-31T13:29:08Z</time></trkpt><trkpt lat="44.113725" lon="10.4035157"><ele>277.0</ele><time>2026-03-31T13:29:10Z</time></trkpt><trkpt lat="44.1137832" lon="10.4034576"><ele>277.0</ele><time>2026-03-31T13:29:11.999Z</time></trkpt><trkpt lat="44.1138375" lon="10.4034019"><ele>277.0</ele><time>2026-03-31T13:29:13.999Z</time></trkpt><trkpt lat="44.1139125" lon="10.4033292"><ele>277.0</ele><time>2026-03-31T13:29:16.999Z</time></trkpt><trkpt lat="44.1139682" lon="10.4032711"><ele>277.0</ele><time>2026-03-31T13:29:19Z</time></trkpt><trkpt lat="44.1140224" lon="10.4032206"><ele>277.0</ele><time>2026-03-31T13:29:21Z</time></trkpt><trkpt lat="44.1140749" lon="10.4031711"><ele>277.0</ele><time>2026-03-31T13:29:23Z</time></trkpt><trkpt lat="44.114148" lon="10.403094"><ele>277.0</ele><time>2026-03-31T13:29:26Z</time></trkpt><trkpt lat="44.114224" lon="10.4030407"><ele>276.66666666666663</ele><time>2026-03-31T13:29:29Z</time></trkpt><trkpt lat="44.1142873" lon="10.4029683"><ele>276.3333333333333</ele><time>2026-03-31T13:29:31.999Z</time></trkpt><trkpt lat="44.1143384" lon="10.4029157"><ele>276.0</ele><time>2026-03-31T13:29:33.999Z</time></trkpt><trkpt lat="44.1144114" lon="10.40285"><ele>275.6666666666667</ele><time>2026-03-31T13:29:37Z</time></trkpt><trkpt lat="44.114466" lon="10.4028038"><ele>275.33333333333337</ele><time>2026-03-31T13:29:39Z</time></trkpt><trkpt lat="44.1145374" lon="10.4027187"><ele>275.0</ele><time>2026-03-31T13:29:42Z</time></trkpt><trkpt lat="44.1146122" lon="10.4026434"><ele>275.0</ele><time>2026-03-31T13:29:45Z</time></trkpt><trkpt lat="44.1146671" lon="10.4025917"><ele>275.0</ele><time>2026-03-31T13:29:47Z</time></trkpt><trkpt lat="44.1147233" lon="10.402543"><ele>275.0</ele><time>2026-03-31T13:29:49Z</time></trkpt><trkpt lat="44.1148036" lon="10.402463"><ele>275.0</ele><time>2026-03-31T13:29:52Z</time></trkpt><trkpt lat="44.1148762" lon="10.4023855"><ele>275.0</ele><time>2026-03-31T13:29:55Z</time></trkpt><trkpt lat="44.1149454" lon="10.4023098"><ele>275.0</ele><time>2026-03-31T13:29:57.999Z</time></trkpt><trkpt lat="44.1150109" lon="10.4022388"><ele>274.83333333333337</ele><time>2026-03-31T13:30:01Z</time></trkpt><trkpt lat="44.1150803" lon="10.4021713"><ele>274.6666666666667</ele><time>2026-03-31T13:30:04Z</time></trkpt><trkpt lat="44.1151304" lon="10.402115"><ele>274.5</ele><time>2026-03-31T13:30:06Z</time></trkpt><trkpt lat="44.1151877" lon="10.402055"><ele>274.3333333333333</ele><time>2026-03-31T13:30:08Z</time></trkpt><trkpt lat="44.1152467" lon="10.4019969"><ele>274.16666666666663</ele><time>2026-03-31T13:30:09.999Z</time></trkpt><trkpt lat="44.1153174" lon="10.4019374"><ele>274.0</ele><time>2026-03-31T13:30:12Z</time></trkpt><trkpt lat="44.1153886" lon="10.4018682"><ele>274.5</ele><time>2026-03-31T13:30:14Z</time></trkpt><trkpt lat="44.1154616" lon="10.4017933"><ele>275.0</ele><time>2026-03-31T13:30:16Z</time></trkpt><trkpt lat="44.115535" lon="10.401725"><ele>275.5</ele><time>2026-03-31T13:30:18Z</time></trkpt><trkpt lat="44.115596" lon="10.4016556"><ele>276.0</ele><time>2026-03-31T13:30:20.105Z</time></trkpt><trkpt lat="44.1156522" lon="10.4015889"><ele>276.5</ele><time>2026-03-31T13:30:21.999Z</time></trkpt><trkpt lat="44.115706" lon="10.4015365"><ele>277.0</ele><time>2026-03-31T13:30:24Z</time></trkpt><trkpt lat="44.1157863" lon="10.4014673"><ele>277.0</ele><time>2026-03-31T13:30:27Z</time></trkpt><trkpt lat="44.1158493" lon="10.4014463"><ele>277.0</ele><time>2026-03-31T13:30:29Z</time></trkpt><trkpt lat="44.1159169" lon="10.4014527"><ele>277.0</ele><time>2026-03-31T13:30:31Z</time></trkpt><trkpt lat="44.1159858" lon="10.4014631"><ele>277.0</ele><time>2026-03-31T13:30:33Z</time></trkpt><trkpt lat="44.1160453" lon="10.4015011"><ele>277.0</ele><time>2026-03-31T13:30:35Z</time></trkpt><trkpt lat="44.1160957" lon="10.4015603"><ele>277.0</ele><time>2026-03-31T13:30:37Z</time></trkpt><trkpt lat="44.1161383" lon="10.4016265"><ele>277.0</ele><time>2026-03-31T13:30:39.103Z</time></trkpt><trkpt lat="44.1161958" lon="10.4017278"><ele>277.0</ele><time>2026-03-31T13:30:42Z</time></trkpt><trkpt lat="44.1162511" lon="10.4018304"><ele>277.0</ele><time>2026-03-31T13:30:45Z</time></trkpt><trkpt lat="44.1162922" lon="10.4019001"><ele>277.0</ele><time>2026-03-31T13:30:47Z</time></trkpt><trkpt lat="44.1163271" lon="10.401974"><ele>277.0</ele><time>2026-03-31T13:30:49Z</time></trkpt><trkpt lat="44.1163655" lon="10.4020496"><ele>277.0</ele><time>2026-03-31T13:30:51Z</time></trkpt><trkpt lat="44.1164062" lon="10.4021177"><ele>277.0</ele><time>2026-03-31T13:30:53Z</time></trkpt><trkpt lat="44.1164491" lon="10.4021912"><ele>277.0</ele><time>2026-03-31T13:30:55Z</time></trkpt><trkpt lat="44.116494" lon="10.4022628"><ele>277.0</ele><time>2026-03-31T13:30:57Z</time></trkpt><trkpt lat="44.1165396" lon="10.4023334"><ele>277.0</ele><time>2026-03-31T13:30:59Z</time></trkpt><trkpt lat="44.1166007" lon="10.4024316"><ele>277.0</ele><time>2026-03-31T13:31:02Z</time></trkpt><trkpt lat="44.1166455" lon="10.4025071"><ele>277.0</ele><time>2026-03-31T13:31:04.107Z</time></trkpt><trkpt lat="44.1166907" lon="10.4025755"><ele>277.0</ele><time>2026-03-31T13:31:06Z</time></trkpt><trkpt lat="44.1167314" lon="10.4026456"><ele>277.0</ele><time>2026-03-31T13:31:08Z</time></trkpt><trkpt lat="44.1167773" lon="10.4027119"><ele>277.0</ele><time>2026-03-31T13:31:09.999Z</time></trkpt><trkpt lat="44.116825" lon="10.4027802"><ele>277.0</ele><time>2026-03-31T13:31:12Z</time></trkpt><trkpt lat="44.116871" lon="10.402847"><ele>277.0</ele><time>2026-03-31T13:31:14Z</time></trkpt><trkpt lat="44.1169126" lon="10.4029135"><ele>277.0</ele><time>2026-03-31T13:31:16Z</time></trkpt><trkpt lat="44.1169723" lon="10.4030131"><ele>277.0</ele><time>2026-03-31T13:31:19Z</time></trkpt><trkpt lat="44.1170346" lon="10.4031091"><ele>277.0</ele><time>2026-03-31T13:31:22Z</time></trkpt><trkpt lat="44.117095" lon="10.4032055"><ele>277.0</ele><time>2026-03-31T13:31:25Z</time></trkpt><trkpt lat="44.1171389" lon="10.4032703"><ele>276.8333333333333</ele><time>2026-03-31T13:31:27Z</time></trkpt><trkpt lat="44.1172042" lon="10.4033657"><ele>276.66666666666663</ele><time>2026-03-31T13:31:30Z</time></trkpt><trkpt lat="44.1172464" lon="10.4034314"><ele>276.5</ele><time>2026-03-31T13:31:31.999Z</time></trkpt><trkpt lat="44.1173058" lon="10.4035276"><ele>276.3333333333333</ele><time>2026-03-31T13:31:35Z</time></trkpt><trkpt lat="44.1173482" lon="10.4035949"><ele>276.1666666666667</ele><time>2026-03-31T13:31:36.999Z</time></trkpt><trkpt lat="44.1173923" lon="10.4036602"><ele>276.0</ele><time>2026-03-31T13:31:38.999Z</time></trkpt><trkpt lat="44.1174473" lon="10.403738"><ele>276.0</ele><time>2026-03-31T13:31:41.999Z</time></trkpt><trkpt lat="44.1175168" lon="10.4038076"><ele>276.0</ele><time>2026-03-31T13:31:46Z</time></trkpt><trkpt lat="44.1175823" lon="10.403819"><ele>276.0</ele><time>2026-03-31T13:31:48Z</time></trkpt><trkpt lat="44.1176555" lon="10.4037771"><ele>276.0</ele><time>2026-03-31T13:31:49.999Z</time></trkpt><trkpt lat="44.1177111" lon="10.4037125"><ele>276.0</ele><time>2026-03-31T13:31:52Z</time></trkpt><trkpt lat="44.117784" lon="10.4036401"><ele>276.0</ele><time>2026-03-31T13:31:53.999Z</time></trkpt><trkpt lat="44.1178564" lon="10.4035694"><ele>276.0</ele><time>2026-03-31T13:31:56Z</time></trkpt><trkpt lat="44.1179334" lon="10.4034979"><ele>276.0</ele><time>2026-03-31T13:31:58Z</time></trkpt><trkpt lat="44.1180232" lon="10.4034381"><ele>276.0</ele><time>2026-03-31T13:32:00Z</time></trkpt><trkpt lat="44.1181037" lon="10.4033742"><ele>276.0</ele><time>2026-03-31T13:32:01.999Z</time></trkpt><trkpt lat="44.1181623" lon="10.4033299"><ele>276.0</ele><time>2026-03-31T13:32:03.999Z</time></trkpt><trkpt lat="44.1182243" lon="10.4032854"><ele>276.0</ele><time>2026-03-31T13:32:05.999Z</time></trkpt><trkpt lat="44.1182931" lon="10.4032233"><ele>276.5</ele><time>2026-03-31T13:32:09Z</time></trkpt><trkpt lat="44.1183551" lon="10.4031623"><ele>277.0</ele><time>2026-03-31T13:32:12Z</time></trkpt><trkpt lat="44.1184223" lon="10.4030945"><ele>277.5</ele><time>2026-03-31T13:32:14.999Z</time></trkpt><trkpt lat="44.1185021" lon="10.4030395"><ele>278.0</ele><time>2026-03-31T13:32:17.999Z</time></trkpt><trkpt lat="44.1185734" lon="10.4029657"><ele>278.5</ele><time>2026-03-31T13:32:20.999Z</time></trkpt><trkpt lat="44.1186522" lon="10.4028951"><ele>279.0</ele><time>2026-03-31T13:32:23.997Z</time></trkpt><trkpt lat="44.1187158" lon="10.4028513"><ele>278.99999999999994</ele><time>2026-03-31T13:32:26Z</time></trkpt><trkpt lat="44.1187674" lon="10.4027914"><ele>279.0</ele><time>2026-03-31T13:32:28Z</time></trkpt><trkpt lat="44.1188058" lon="10.4027206"><ele>279.0</ele><time>2026-03-31T13:32:29.999Z</time></trkpt><trkpt lat="44.118838" lon="10.4025984"><ele>279.0</ele><time>2026-03-31T13:32:33Z</time></trkpt><trkpt lat="44.1188568" lon="10.4025118"><ele>279.0</ele><time>2026-03-31T13:32:35Z</time></trkpt><trkpt lat="44.1189043" lon="10.4024076"><ele>278.99999999999994</ele><time>2026-03-31T13:32:38Z</time></trkpt><trkpt lat="44.1189476" lon="10.4023401"><ele>279.0</ele><time>2026-03-31T13:32:40Z</time></trkpt><trkpt lat="44.1190058" lon="10.4022437"><ele>278.99999999999994</ele><time>2026-03-31T13:32:43Z</time></trkpt><trkpt lat="44.1190451" lon="10.4021707"><ele>279.0</ele><time>2026-03-31T13:32:45Z</time></trkpt><trkpt lat="44.1190865" lon="10.4020974"><ele>279.0</ele><time>2026-03-31T13:32:47Z</time></trkpt><trkpt lat="44.1191295" lon="10.4020284"><ele>279.0</ele><time>2026-03-31T13:32:48.999Z</time></trkpt><trkpt lat="44.1191698" lon="10.4019604"><ele>279.0</ele><time>2026-03-31T13:32:51Z</time></trkpt><trkpt lat="44.1192312" lon="10.4018718"><ele>278.99999999999994</ele><time>2026-03-31T13:32:54Z</time></trkpt><trkpt lat="44.1192955" lon="10.4017885"><ele>279.0</ele><time>2026-03-31T13:32:56.999Z</time></trkpt><trkpt lat="44.119344" lon="10.4017102"><ele>279.1428571428571</ele><time>2026-03-31T13:32:59.107Z</time></trkpt><trkpt lat="44.1193876" lon="10.4016411"><ele>279.2857142857143</ele><time>2026-03-31T13:33:00.999Z</time></trkpt><trkpt lat="44.1194294" lon="10.401573"><ele>279.42857142857144</ele><time>2026-03-31T13:33:03Z</time></trkpt><trkpt lat="44.1194731" lon="10.4014984"><ele>279.57142857142856</ele><time>2026-03-31T13:33:05Z</time></trkpt><trkpt lat="44.1195222" lon="10.4014246"><ele>279.7142857142857</ele><time>2026-03-31T13:33:07Z</time></trkpt><trkpt lat="44.1195863" lon="10.4013317"><ele>279.85714285714283</ele><time>2026-03-31T13:33:10Z</time></trkpt><trkpt lat="44.1196305" lon="10.4012625"><ele>280.0</ele><time>2026-03-31T13:33:12Z</time></trkpt><trkpt lat="44.1196728" lon="10.4011863"><ele>280.0</ele><time>2026-03-31T13:33:14Z</time></trkpt><trkpt lat="44.119712" lon="10.4011114"><ele>280.0</ele><time>2026-03-31T13:33:15.999Z</time></trkpt><trkpt lat="44.1197562" lon="10.4010391"><ele>280.0</ele><time>2026-03-31T13:33:17.999Z</time></trkpt><trkpt lat="44.1198" lon="10.4009659"><ele>280.0</ele><time>2026-03-31T13:33:20.102Z</time></trkpt><trkpt lat="44.1198413" lon="10.4008884"><ele>280.0</ele><time>2026-03-31T13:33:21.999Z</time></trkpt><trkpt lat="44.1198833" lon="10.4008063"><ele>280.0</ele><time>2026-03-31T13:33:24Z</time></trkpt><trkpt lat="44.1199391" lon="10.4006829"><ele>280.0</ele><time>2026-03-31T13:33:26.999Z</time></trkpt><trkpt lat="44.1199713" lon="10.4005934"><ele>280.2857142857143</ele><time>2026-03-31T13:33:29Z</time></trkpt><trkpt lat="44.1200056" lon="10.4005008"><ele>280.57142857142856</ele><time>2026-03-31T13:33:31Z</time></trkpt><trkpt lat="44.1200437" lon="10.4004133"><ele>280.8571428571429</ele><time>2026-03-31T13:33:32.999Z</time></trkpt><trkpt lat="44.1200829" lon="10.4003299"><ele>281.1428571428571</ele><time>2026-03-31T13:33:35Z</time></trkpt><trkpt lat="44.1201172" lon="10.4002443"><ele>281.42857142857144</ele><time>2026-03-31T13:33:37Z</time></trkpt><trkpt lat="44.1201498" lon="10.4001543"><ele>281.7142857142857</ele><time>2026-03-31T13:33:39Z</time></trkpt><trkpt lat="44.1201826" lon="10.4000622"><ele>282.0</ele><time>2026-03-31T13:33:41Z</time></trkpt><trkpt lat="44.1202198" lon="10.3999726"><ele>282.14285714285717</ele><time>2026-03-31T13:33:43Z</time></trkpt><trkpt lat="44.120255" lon="10.3998832"><ele>282.2857142857143</ele><time>2026-03-31T13:33:45Z</time></trkpt><trkpt lat="44.1202895" lon="10.3997998"><ele>282.42857142857144</ele><time>2026-03-31T13:33:47Z</time></trkpt><trkpt lat="44.1203242" lon="10.3997111"><ele>282.57142857142856</ele><time>2026-03-31T13:33:49Z</time></trkpt><trkpt lat="44.1203583" lon="10.3996246"><ele>282.7142857142857</ele><time>2026-03-31T13:33:51Z</time></trkpt><trkpt lat="44.1203922" lon="10.3995366"><ele>282.8571428571429</ele><time>2026-03-31T13:33:52.999Z</time></trkpt><trkpt lat="44.1204277" lon="10.3994488"><ele>283.0</ele><time>2026-03-31T13:33:55Z</time></trkpt><trkpt lat="44.1204633" lon="10.3993605"><ele>282.8571428571429</ele><time>2026-03-31T13:33:57Z</time></trkpt><trkpt lat="44.1204997" lon="10.3992652"><ele>282.7142857142857</ele><time>2026-03-31T13:33:59Z</time></trkpt><trkpt lat="44.1205352" lon="10.3991689"><ele>282.57142857142856</ele><time>2026-03-31T13:34:01Z</time></trkpt><trkpt lat="44.1205706" lon="10.399079"><ele>282.42857142857144</ele><time>2026-03-31T13:34:02.999Z</time></trkpt><trkpt lat="44.1206032" lon="10.398987"><ele>282.2857142857143</ele><time>2026-03-31T13:34:04.999Z</time></trkpt><trkpt lat="44.1206371" lon="10.3988978"><ele>282.14285714285717</ele><time>2026-03-31T13:34:06.999Z</time></trkpt><trkpt lat="44.1206688" lon="10.3988124"><ele>282.0</ele><time>2026-03-31T13:34:09Z</time></trkpt><trkpt lat="44.120702" lon="10.3987241"><ele>282.14285714285717</ele><time>2026-03-31T13:34:10.999Z</time></trkpt><trkpt lat="44.1207478" lon="10.3986513"><ele>282.2857142857143</ele><time>2026-03-31T13:34:13Z</time></trkpt><trkpt lat="44.1208033" lon="10.3985979"><ele>282.42857142857144</ele><time>2026-03-31T13:34:15Z</time></trkpt><trkpt lat="44.120871" lon="10.3985669"><ele>282.57142857142856</ele><time>2026-03-31T13:34:16.999Z</time></trkpt><trkpt lat="44.1209452" lon="10.3985568"><ele>282.7142857142857</ele><time>2026-03-31T13:34:18.999Z</time></trkpt><trkpt lat="44.1210179" lon="10.3985604"><ele>282.8571428571429</ele><time>2026-03-31T13:34:21Z</time></trkpt><trkpt lat="44.121089" lon="10.3985626"><ele>283.0</ele><time>2026-03-31T13:34:23Z</time></trkpt><trkpt lat="44.1211646" lon="10.3985636"><ele>283.0</ele><time>2026-03-31T13:34:25Z</time></trkpt><trkpt lat="44.1212357" lon="10.3985437"><ele>283.0</ele><time>2026-03-31T13:34:26.999Z</time></trkpt><trkpt lat="44.1213023" lon="10.3984934"><ele>283.0</ele><time>2026-03-31T13:34:29Z</time></trkpt><trkpt lat="44.121358" lon="10.3984294"><ele>283.0</ele><time>2026-03-31T13:34:30.999Z</time></trkpt><trkpt lat="44.1213992" lon="10.3983499"><ele>283.0</ele><time>2026-03-31T13:34:33Z</time></trkpt><trkpt lat="44.1214368" lon="10.3982645"><ele>283.0</ele><time>2026-03-31T13:34:35Z</time></trkpt><trkpt lat="44.1214681" lon="10.3981683"><ele>283.0</ele><time>2026-03-31T13:34:37Z</time></trkpt><trkpt lat="44.1215014" lon="10.3980729"><ele>283.14285714285717</ele><time>2026-03-31T13:34:38.999Z</time></trkpt><trkpt lat="44.121539" lon="10.397985"><ele>283.28571428571433</ele><time>2026-03-31T13:34:41Z</time></trkpt><trkpt lat="44.1215766" lon="10.397899"><ele>283.42857142857144</ele><time>2026-03-31T13:34:43Z</time></trkpt><trkpt lat="44.1216099" lon="10.3978173"><ele>283.57142857142856</ele><time>2026-03-31T13:34:45Z</time></trkpt><trkpt lat="44.1216477" lon="10.397732"><ele>283.71428571428567</ele><time>2026-03-31T13:34:47Z</time></trkpt><trkpt lat="44.1216847" lon="10.3976446"><ele>283.85714285714283</ele><time>2026-03-31T13:34:49Z</time></trkpt><trkpt lat="44.1217204" lon="10.3975618"><ele>284.0</ele><time>2026-03-31T13:34:51Z</time></trkpt><trkpt lat="44.1217702" lon="10.397489"><ele>284.1428571428571</ele><time>2026-03-31T13:34:53Z</time></trkpt><trkpt lat="44.1218245" lon="10.3974177"><ele>284.2857142857143</ele><time>2026-03-31T13:34:55Z</time></trkpt><trkpt lat="44.1218853" lon="10.397349"><ele>284.42857142857144</ele><time>2026-03-31T13:34:57Z</time></trkpt><trkpt lat="44.1219432" lon="10.3972971"><ele>284.57142857142856</ele><time>2026-03-31T13:34:58.999Z</time></trkpt><trkpt lat="44.122018" lon="10.3972346"><ele>284.7142857142857</ele><time>2026-03-31T13:35:02Z</time></trkpt><trkpt lat="44.1220713" lon="10.3971862"><ele>284.85714285714283</ele><time>2026-03-31T13:35:04.999Z</time></trkpt><trkpt lat="44.1221228" lon="10.3971323"><ele>285.0</ele><time>2026-03-31T13:35:07.999Z</time></trkpt><trkpt lat="44.1221802" lon="10.3970708"><ele>285.0</ele><time>2026-03-31T13:35:11Z</time></trkpt><trkpt lat="44.1222316" lon="10.3970118"><ele>285.0</ele><time>2026-03-31T13:35:13.999Z</time></trkpt><trkpt lat="44.1222781" lon="10.3969464"><ele>285.0</ele><time>2026-03-31T13:35:16.999Z</time></trkpt><trkpt lat="44.1223188" lon="10.3968664"><ele>285.0</ele><time>2026-03-31T13:35:20Z</time></trkpt><trkpt lat="44.1223615" lon="10.3967811"><ele>285.0</ele><time>2026-03-31T13:35:23Z</time></trkpt><trkpt lat="44.1223965" lon="10.3966939"><ele>285.0</ele><time>2026-03-31T13:35:26Z</time></trkpt><trkpt lat="44.1224238" lon="10.3966018"><ele>285.0</ele><time>2026-03-31T13:35:29Z</time></trkpt><trkpt lat="44.1224466" lon="10.3965058"><ele>285.42857142857144</ele><time>2026-03-31T13:35:32Z</time></trkpt><trkpt lat="44.1224634" lon="10.3964115"><ele>285.8571428571429</ele><time>2026-03-31T13:35:34.999Z</time></trkpt><trkpt lat="44.1224797" lon="10.3963162"><ele>286.28571428571433</ele><time>2026-03-31T13:35:38Z</time></trkpt><trkpt lat="44.1224985" lon="10.3962212"><ele>286.7142857142857</ele><time>2026-03-31T13:35:41Z</time></trkpt><trkpt lat="44.1225178" lon="10.3961271"><ele>287.14285714285717</ele><time>2026-03-31T13:35:43.999Z</time></trkpt><trkpt lat="44.1225388" lon="10.3960306"><ele>287.5714285714286</ele><time>2026-03-31T13:35:47Z</time></trkpt><trkpt lat="44.1225584" lon="10.3959346"><ele>288.0</ele><time>2026-03-31T13:35:50Z</time></trkpt><trkpt lat="44.1225848" lon="10.3958411"><ele>288.00000000000006</ele><time>2026-03-31T13:35:53Z</time></trkpt><trkpt lat="44.12262" lon="10.3957517"><ele>288.0</ele><time>2026-03-31T13:35:56Z</time></trkpt><trkpt lat="44.1226652" lon="10.3956805"><ele>288.0</ele><time>2026-03-31T13:35:59Z</time></trkpt><trkpt lat="44.1227166" lon="10.3956268"><ele>288.0</ele><time>2026-03-31T13:36:02Z</time></trkpt><trkpt lat="44.1227762" lon="10.3955866"><ele>288.0</ele><time>2026-03-31T13:36:05Z</time></trkpt><trkpt lat="44.1228424" lon="10.3955572"><ele>288.00000000000006</ele><time>2026-03-31T13:36:08Z</time></trkpt><trkpt lat="44.1229113" lon="10.3955418"><ele>288.0</ele><time>2026-03-31T13:36:11Z</time></trkpt><trkpt lat="44.1229795" lon="10.3955433"><ele>288.00000000000006</ele><time>2026-03-31T13:36:14Z</time></trkpt><trkpt lat="44.1230514" lon="10.3955477"><ele>288.0</ele><time>2026-03-31T13:36:17Z</time></trkpt><trkpt lat="44.1231213" lon="10.3955588"><ele>288.0</ele><time>2026-03-31T13:36:20Z</time></trkpt><trkpt lat="44.1231905" lon="10.3955747"><ele>288.0</ele><time>2026-03-31T13:36:22.999Z</time></trkpt><trkpt lat="44.1232635" lon="10.3955886"><ele>288.0</ele><time>2026-03-31T13:36:25.999Z</time></trkpt><trkpt lat="44.1233297" lon="10.3956111"><ele>288.00000000000006</ele><time>2026-03-31T13:36:28.999Z</time></trkpt><trkpt lat="44.1233973" lon="10.3956415"><ele>288.0</ele><time>2026-03-31T13:36:31.999Z</time></trkpt><trkpt lat="44.123465" lon="10.3956777"><ele>289.5714285714286</ele><time>2026-03-31T13:36:34.999Z</time></trkpt><trkpt lat="44.1235266" lon="10.3957124"><ele>291.14285714285717</ele><time>2026-03-31T13:36:38Z</time></trkpt><trkpt lat="44.1235857" lon="10.3957523"><ele>292.7142857142857</ele><time>2026-03-31T13:36:40.999Z</time></trkpt><trkpt lat="44.1236423" lon="10.395801"><ele>294.28571428571433</ele><time>2026-03-31T13:36:44Z</time></trkpt><trkpt lat="44.1237047" lon="10.3958724"><ele>295.8571428571429</ele><time>2026-03-31T13:36:48Z</time></trkpt><trkpt lat="44.1237566" lon="10.3959381"><ele>297.42857142857144</ele><time>2026-03-31T13:36:50.999Z</time></trkpt><trkpt lat="44.1238102" lon="10.3960106"><ele>299.0</ele><time>2026-03-31T13:36:53.999Z</time></trkpt><trkpt lat="44.1238558" lon="10.3960936"><ele>299.0</ele><time>2026-03-31T13:36:57Z</time></trkpt><trkpt lat="44.1238959" lon="10.3961855"><ele>299.0</ele><time>2026-03-31T13:36:59.999Z</time></trkpt><trkpt lat="44.1239343" lon="10.3962719"><ele>299.0</ele><time>2026-03-31T13:37:03Z</time></trkpt><trkpt lat="44.1239715" lon="10.3963511"><ele>299.0</ele><time>2026-03-31T13:37:05.999Z</time></trkpt><trkpt lat="44.1240112" lon="10.3964286"><ele>299.0</ele><time>2026-03-31T13:37:09Z</time></trkpt><trkpt lat="44.124053" lon="10.3965102"><ele>299.0</ele><time>2026-03-31T13:37:12Z</time></trkpt><trkpt lat="44.1240928" lon="10.3965939"><ele>299.0</ele><time>2026-03-31T13:37:14.999Z</time></trkpt><trkpt lat="44.1241317" lon="10.3966797"><ele>300.1666666666667</ele><time>2026-03-31T13:37:18Z</time></trkpt><trkpt lat="44.1241718" lon="10.3967569"><ele>301.33333333333337</ele><time>2026-03-31T13:37:21Z</time></trkpt><trkpt lat="44.124221" lon="10.3968284"><ele>302.5</ele><time>2026-03-31T13:37:24Z</time></trkpt><trkpt lat="44.1242598" lon="10.3969116"><ele>303.6666666666667</ele><time>2026-03-31T13:37:27Z</time></trkpt><trkpt lat="44.1243047" lon="10.3969869"><ele>304.8333333333333</ele><time>2026-03-31T13:37:30Z</time></trkpt><trkpt lat="44.1243481" lon="10.3970643"><ele>306.0</ele><time>2026-03-31T13:37:32.999Z</time></trkpt><trkpt lat="44.1244128" lon="10.3971732"><ele>306.8333333333333</ele><time>2026-03-31T13:37:37Z</time></trkpt><trkpt lat="44.1244574" lon="10.3972708"><ele>307.6666666666667</ele><time>2026-03-31T13:37:39.999Z</time></trkpt><trkpt lat="44.1244892" lon="10.397369"><ele>308.5</ele><time>2026-03-31T13:37:42.999Z</time></trkpt><trkpt lat="44.1245323" lon="10.3974686"><ele>309.33333333333337</ele><time>2026-03-31T13:37:45.999Z</time></trkpt><trkpt lat="44.1245827" lon="10.3975671"><ele>310.1666666666667</ele><time>2026-03-31T13:37:49Z</time></trkpt><trkpt lat="44.1246285" lon="10.3976682"><ele>311.0</ele><time>2026-03-31T13:37:51.999Z</time></trkpt><trkpt lat="44.1246696" lon="10.3977619"><ele>311.0</ele><time>2026-03-31T13:37:55Z</time></trkpt><trkpt lat="44.1247228" lon="10.3978537"><ele>311.0</ele><time>2026-03-31T13:37:58Z</time></trkpt><trkpt lat="44.1247778" lon="10.3979493"><ele>311.0</ele><time>2026-03-31T13:38:01Z</time></trkpt><trkpt lat="44.1248319" lon="10.3980425"><ele>311.0</ele><time>2026-03-31T13:38:04Z</time></trkpt><trkpt lat="44.1248732" lon="10.3981212"><ele>311.0</ele><time>2026-03-31T13:38:06.999Z</time></trkpt><trkpt lat="44.1249225" lon="10.3982011"><ele>311.0</ele><time>2026-03-31T13:38:11Z</time></trkpt><trkpt lat="44.1249711" lon="10.3982727"><ele>311.0</ele><time>2026-03-31T13:38:13.999Z</time></trkpt><trkpt lat="44.1250313" lon="10.3983527"><ele>311.0</ele><time>2026-03-31T13:38:17Z</time></trkpt><trkpt lat="44.1250877" lon="10.3984361"><ele>311.0</ele><time>2026-03-31T13:38:20Z</time></trkpt><trkpt lat="44.1251449" lon="10.3985142"><ele>311.0</ele><time>2026-03-31T13:38:23Z</time></trkpt><trkpt lat="44.1251924" lon="10.3985751"><ele>311.0</ele><time>2026-03-31T13:38:26Z</time></trkpt><trkpt lat="44.1252476" lon="10.3986513"><ele>311.0</ele><time>2026-03-31T13:38:29Z</time></trkpt><trkpt lat="44.1252985" lon="10.3987386"><ele>311.83333333333337</ele><time>2026-03-31T13:38:31.999Z</time></trkpt><trkpt lat="44.1253315" lon="10.3988394"><ele>312.6666666666667</ele><time>2026-03-31T13:38:35Z</time></trkpt><trkpt lat="44.125357" lon="10.3989608"><ele>313.5</ele><time>2026-03-31T13:38:38Z</time></trkpt><trkpt lat="44.1253771" lon="10.3990491"><ele>314.3333333333333</ele><time>2026-03-31T13:38:40Z</time></trkpt><trkpt lat="44.1254245" lon="10.3991599"><ele>315.16666666666663</ele><time>2026-03-31T13:38:43Z</time></trkpt><trkpt lat="44.1254946" lon="10.3992453"><ele>316.0</ele><time>2026-03-31T13:38:46Z</time></trkpt><trkpt lat="44.1255821" lon="10.3992717"><ele>316.00000000000006</ele><time>2026-03-31T13:38:49Z</time></trkpt><trkpt lat="44.1256471" lon="10.3992588"><ele>316.0</ele><time>2026-03-31T13:38:51Z</time></trkpt><trkpt lat="44.1257133" lon="10.3992169"><ele>316.0</ele><time>2026-03-31T13:38:53Z</time></trkpt><trkpt lat="44.1257623" lon="10.3991477"><ele>316.0</ele><time>2026-03-31T13:38:55Z</time></trkpt><trkpt lat="44.1257929" lon="10.3990615"><ele>316.0</ele><time>2026-03-31T13:38:57Z</time></trkpt><trkpt lat="44.1258135" lon="10.3989692"><ele>316.00000000000006</ele><time>2026-03-31T13:38:59Z</time></trkpt><trkpt lat="44.1258237" lon="10.3988787"><ele>316.0</ele><time>2026-03-31T13:39:00.999Z</time></trkpt><trkpt lat="44.1258503" lon="10.398762"><ele>314.66666666666663</ele><time>2026-03-31T13:39:03.999Z</time></trkpt><trkpt lat="44.1258906" lon="10.3986893"><ele>313.3333333333333</ele><time>2026-03-31T13:39:07Z</time></trkpt><trkpt lat="44.125942" lon="10.3986061"><ele>312.0</ele><time>2026-03-31T13:39:10Z</time></trkpt><trkpt lat="44.1259926" lon="10.3985231"><ele>310.6666666666667</ele><time>2026-03-31T13:39:13Z</time></trkpt><trkpt lat="44.1260496" lon="10.3984454"><ele>309.33333333333337</ele><time>2026-03-31T13:39:15.999Z</time></trkpt><trkpt lat="44.1261035" lon="10.3983649"><ele>308.0</ele><time>2026-03-31T13:39:19Z</time></trkpt><trkpt lat="44.1261663" lon="10.398293"><ele>308.0</ele><time>2026-03-31T13:39:21.999Z</time></trkpt><trkpt lat="44.1262211" lon="10.3982138"><ele>308.0</ele><time>2026-03-31T13:39:24.999Z</time></trkpt><trkpt lat="44.1262745" lon="10.3981296"><ele>308.0</ele><time>2026-03-31T13:39:28Z</time></trkpt><trkpt lat="44.1263297" lon="10.3980448"><ele>308.0</ele><time>2026-03-31T13:39:30.999Z</time></trkpt><trkpt lat="44.1263921" lon="10.39798"><ele>308.0</ele><time>2026-03-31T13:39:34Z</time></trkpt><trkpt lat="44.1264635" lon="10.3979709"><ele>308.0</ele><time>2026-03-31T13:39:37Z</time></trkpt><trkpt lat="44.1265261" lon="10.3980265"><ele>310.33333333333337</ele><time>2026-03-31T13:39:40Z</time></trkpt><trkpt lat="44.1265861" lon="10.3981192"><ele>312.6666666666667</ele><time>2026-03-31T13:39:43.999Z</time></trkpt><trkpt lat="44.1266331" lon="10.3982356"><ele>315.0</ele><time>2026-03-31T13:39:47Z</time></trkpt><trkpt lat="44.1266675" lon="10.3983272"><ele>317.3333333333333</ele><time>2026-03-31T13:39:49Z</time></trkpt><trkpt lat="44.1267068" lon="10.3984249"><ele>319.66666666666663</ele><time>2026-03-31T13:39:51Z</time></trkpt><trkpt lat="44.1267582" lon="10.3985263"><ele>322.0</ele><time>2026-03-31T13:39:53Z</time></trkpt><trkpt lat="44.1268123" lon="10.3986458"><ele>322.0</ele><time>2026-03-31T13:39:54.999Z</time></trkpt><trkpt lat="44.1268625" lon="10.3987748"><ele>322.0</ele><time>2026-03-31T13:39:57Z</time></trkpt><trkpt lat="44.1269175" lon="10.3989159"><ele>322.0</ele><time>2026-03-31T13:39:58.999Z</time></trkpt><trkpt lat="44.1269703" lon="10.3990701"><ele>322.0</ele><time>2026-03-31T13:40:01Z</time></trkpt><trkpt lat="44.1270186" lon="10.3992314"><ele>323.20000000000005</ele><time>2026-03-31T13:40:03Z</time></trkpt><trkpt lat="44.1270402" lon="10.3993176"><ele>324.4</ele><time>2026-03-31T13:40:04.101Z</time></trkpt><trkpt lat="44.1271316" lon="10.3994253"><ele>325.6</ele><time>2026-03-31T13:40:06.104Z</time></trkpt><trkpt lat="44.1272404" lon="10.399446"><ele>326.79999999999995</ele><time>2026-03-31T13:40:08Z</time></trkpt><trkpt lat="44.1273201" lon="10.3994422"><ele>328.0</ele><time>2026-03-31T13:40:10Z</time></trkpt><trkpt lat="44.1273957" lon="10.3994387"><ele>328.0</ele><time>2026-03-31T13:40:13Z</time></trkpt><trkpt lat="44.1274622" lon="10.3994577"><ele>328.0</ele><time>2026-03-31T13:40:16Z</time></trkpt><trkpt lat="44.1275252" lon="10.3994651"><ele>328.0</ele><time>2026-03-31T13:40:19Z</time></trkpt><trkpt lat="44.1276055" lon="10.3994672"><ele>328.0</ele><time>2026-03-31T13:40:23Z</time></trkpt><trkpt lat="44.1276813" lon="10.3994623"><ele>328.0</ele><time>2026-03-31T13:40:26.999Z</time></trkpt><trkpt lat="44.1277755" lon="10.399459"><ele>328.0</ele><time>2026-03-31T13:40:33Z</time></trkpt><trkpt lat="44.127858" lon="10.3994577"><ele>327.99999999999994</ele><time>2026-03-31T13:40:37Z</time></trkpt><trkpt lat="44.1279352" lon="10.3994595"><ele>328.0</ele><time>2026-03-31T13:40:40.999Z</time></trkpt><trkpt lat="44.1280038" lon="10.3994595"><ele>328.0</ele><time>2026-03-31T13:40:44Z</time></trkpt><trkpt lat="44.1280828" lon="10.3994601"><ele>328.0</ele><time>2026-03-31T13:40:46.999Z</time></trkpt><trkpt lat="44.1281607" lon="10.3994687"><ele>328.0</ele><time>2026-03-31T13:40:50Z</time></trkpt><trkpt lat="44.1282403" lon="10.3994713"><ele>327.99999999999994</ele><time>2026-03-31T13:40:53.999Z</time></trkpt><trkpt lat="44.1283047" lon="10.3994812"><ele>328.0</ele><time>2026-03-31T13:40:57Z</time></trkpt><trkpt lat="44.1283931" lon="10.399491"><ele>329.1428571428571</ele><time>2026-03-31T13:41:01Z</time></trkpt><trkpt lat="44.1284622" lon="10.3994993"><ele>330.2857142857143</ele><time>2026-03-31T13:41:04Z</time></trkpt><trkpt lat="44.1285283" lon="10.3995036"><ele>331.42857142857144</ele><time>2026-03-31T13:41:07Z</time></trkpt><trkpt lat="44.1285929" lon="10.3994987"><ele>332.57142857142856</ele><time>2026-03-31T13:41:10Z</time></trkpt><trkpt lat="44.1286772" lon="10.3995"><ele>333.7142857142857</ele><time>2026-03-31T13:41:14Z</time></trkpt><trkpt lat="44.1287432" lon="10.3995046"><ele>334.85714285714283</ele><time>2026-03-31T13:41:17Z</time></trkpt><trkpt lat="44.1288205" lon="10.3995046"><ele>336.0</ele><time>2026-03-31T13:41:20Z</time></trkpt><trkpt lat="44.1288898" lon="10.3995061"><ele>336.0</ele><time>2026-03-31T13:41:23Z</time></trkpt><trkpt lat="44.128974" lon="10.3995116"><ele>336.0</ele><time>2026-03-31T13:41:27Z</time></trkpt><trkpt lat="44.1290489" lon="10.3995156"><ele>336.0</ele><time>2026-03-31T13:41:29.999Z</time></trkpt><trkpt lat="44.1291163" lon="10.3995308"><ele>336.0</ele><time>2026-03-31T13:41:33Z</time></trkpt><trkpt lat="44.1291799" lon="10.3995354"><ele>336.0</ele><time>2026-03-31T13:41:35.999Z</time></trkpt><trkpt lat="44.129243" lon="10.3995452"><ele>336.0</ele><time>2026-03-31T13:41:38.999Z</time></trkpt><trkpt lat="44.1293267" lon="10.3995563"><ele>336.0</ele><time>2026-03-31T13:41:43.101Z</time></trkpt><trkpt lat="44.1293917" lon="10.3995706"><ele>337.6666666666667</ele><time>2026-03-31T13:41:45.999Z</time></trkpt><trkpt lat="44.1294554" lon="10.3995882"><ele>339.3333333333333</ele><time>2026-03-31T13:41:49Z</time></trkpt><trkpt lat="44.1295238" lon="10.3996127"><ele>341.0</ele><time>2026-03-31T13:41:52Z</time></trkpt><trkpt lat="44.1295953" lon="10.3996376"><ele>342.66666666666663</ele><time>2026-03-31T13:41:54.999Z</time></trkpt><trkpt lat="44.1296703" lon="10.3996591"><ele>344.3333333333333</ele><time>2026-03-31T13:41:57.999Z</time></trkpt><trkpt lat="44.1297624" lon="10.3996995"><ele>346.0</ele><time>2026-03-31T13:42:02Z</time></trkpt><trkpt lat="44.1298337" lon="10.3997172"><ele>343.57142857142856</ele><time>2026-03-31T13:42:06Z</time></trkpt><trkpt lat="44.1299012" lon="10.3997357"><ele>341.14285714285717</ele><time>2026-03-31T13:42:09Z</time></trkpt><trkpt lat="44.1299698" lon="10.399766"><ele>338.7142857142857</ele><time>2026-03-31T13:42:12Z</time></trkpt><trkpt lat="44.1300529" lon="10.3997877"><ele>336.2857142857143</ele><time>2026-03-31T13:42:15.999Z</time></trkpt><trkpt lat="44.1301188" lon="10.3997951"><ele>333.8571428571429</ele><time>2026-03-31T13:42:19Z</time></trkpt><trkpt lat="44.1302029" lon="10.3997775"><ele>331.42857142857144</ele><time>2026-03-31T13:42:22.999Z</time></trkpt><trkpt lat="44.1302692" lon="10.3997432"><ele>329.0</ele><time>2026-03-31T13:42:26Z</time></trkpt><trkpt lat="44.130353" lon="10.399676"><ele>331.57142857142856</ele><time>2026-03-31T13:42:30Z</time></trkpt><trkpt lat="44.1304093" lon="10.3996121"><ele>334.1428571428571</ele><time>2026-03-31T13:42:33Z</time></trkpt><trkpt lat="44.1304648" lon="10.3995416"><ele>336.7142857142857</ele><time>2026-03-31T13:42:35.999Z</time></trkpt><trkpt lat="44.1305176" lon="10.399485"><ele>339.2857142857143</ele><time>2026-03-31T13:42:39Z</time></trkpt><trkpt lat="44.1305646" lon="10.3994237"><ele>341.85714285714283</ele><time>2026-03-31T13:42:42Z</time></trkpt><trkpt lat="44.1306107" lon="10.3993591"><ele>344.42857142857144</ele><time>2026-03-31T13:42:45Z</time></trkpt><trkpt lat="44.1306762" lon="10.3992798"><ele>347.0</ele><time>2026-03-31T13:42:49Z</time></trkpt><trkpt lat="44.1307324" lon="10.3992198"><ele>347.0</ele><time>2026-03-31T13:42:51.999Z</time></trkpt><trkpt lat="44.1307763" lon="10.399153"><ele>347.0</ele><time>2026-03-31T13:42:55Z</time></trkpt><trkpt lat="44.1308247" lon="10.3990844"><ele>347.0</ele><time>2026-03-31T13:42:57.999Z</time></trkpt><trkpt lat="44.1308769" lon="10.3990217"><ele>347.0</ele><time>2026-03-31T13:43:00.999Z</time></trkpt><trkpt lat="44.1309235" lon="10.3989592"><ele>347.0</ele><time>2026-03-31T13:43:04Z</time></trkpt><trkpt lat="44.1309808" lon="10.3988873"><ele>347.0</ele><time>2026-03-31T13:43:08Z</time></trkpt><trkpt lat="44.1310424" lon="10.3988186"><ele>347.0</ele><time>2026-03-31T13:43:12Z</time></trkpt><trkpt lat="44.1310967" lon="10.3987619"><ele>351.5</ele><time>2026-03-31T13:43:15.101Z</time></trkpt><trkpt lat="44.131178" lon="10.3987033"><ele>356.0</ele><time>2026-03-31T13:43:19Z</time></trkpt><trkpt lat="44.1312431" lon="10.3986733"><ele>360.5</ele><time>2026-03-31T13:43:21.999Z</time></trkpt><trkpt lat="44.1313093" lon="10.3986584"><ele>365.0</ele><time>2026-03-31T13:43:25Z</time></trkpt><trkpt lat="44.131383" lon="10.3986547"><ele>369.5</ele><time>2026-03-31T13:43:28Z</time></trkpt><trkpt lat="44.131477" lon="10.3986616"><ele>374.0</ele><time>2026-03-31T13:43:32Z</time></trkpt><trkpt lat="44.1315382" lon="10.3986871"><ele>373.5</ele><time>2026-03-31T13:43:35Z</time></trkpt><trkpt lat="44.1315974" lon="10.3987224"><ele>373.0</ele><time>2026-03-31T13:43:37.999Z</time></trkpt><trkpt lat="44.1316767" lon="10.3987889"><ele>372.5</ele><time>2026-03-31T13:43:42Z</time></trkpt><trkpt lat="44.1317315" lon="10.3988368"><ele>372.0</ele><time>2026-03-31T13:43:45Z</time></trkpt><trkpt lat="44.1318096" lon="10.3988929"><ele>371.5</ele><time>2026-03-31T13:43:49Z</time></trkpt><trkpt lat="44.1318856" lon="10.3988808"><ele>371.0</ele><time>2026-03-31T13:43:53Z</time></trkpt><trkpt lat="44.1319328" lon="10.3988102"><ele>371.0</ele><time>2026-03-31T13:43:56Z</time></trkpt><trkpt lat="44.1319551" lon="10.3987047"><ele>371.0</ele><time>2026-03-31T13:44:00Z</time></trkpt><trkpt lat="44.1319252" lon="10.3986266"><ele>371.0</ele><time>2026-03-31T13:44:03Z</time></trkpt><trkpt lat="44.1318649" lon="10.3985767"><ele>371.0</ele><time>2026-03-31T13:44:06Z</time></trkpt><trkpt lat="44.1318076" lon="10.3985309"><ele>371.0</ele><time>2026-03-31T13:44:09Z</time></trkpt><trkpt lat="44.1317465" lon="10.3984861"><ele>371.0</ele><time>2026-03-31T13:44:12Z</time></trkpt><trkpt lat="44.131672" lon="10.3984344"><ele>371.0</ele><time>2026-03-31T13:44:16Z</time></trkpt><trkpt lat="44.131613" lon="10.3983987"><ele>371.0</ele><time>2026-03-31T13:44:19Z</time></trkpt><trkpt lat="44.1315273" lon="10.3983461"><ele>371.0</ele><time>2026-03-31T13:44:23Z</time></trkpt><trkpt lat="44.1314664" lon="10.3982723"><ele>371.0</ele><time>2026-03-31T13:44:27Z</time></trkpt><trkpt lat="44.1314542" lon="10.3981758"><ele>371.0</ele><time>2026-03-31T13:44:30Z</time></trkpt><trkpt lat="44.1315072" lon="10.3981023"><ele>371.0</ele><time>2026-03-31T13:44:34Z</time></trkpt><trkpt lat="44.1315718" lon="10.3981071"><ele>371.0</ele><time>2026-03-31T13:44:37Z</time></trkpt><trkpt lat="44.1316374" lon="10.3981402"><ele>371.0</ele><time>2026-03-31T13:44:40Z</time></trkpt><trkpt lat="44.1317182" lon="10.398187"><ele>371.0</ele><time>2026-03-31T13:44:44Z</time></trkpt><trkpt lat="44.1317816" lon="10.3982406"><ele>371.0</ele><time>2026-03-31T13:44:47Z</time></trkpt><trkpt lat="44.1318448" lon="10.3982889"><ele>371.0</ele><time>2026-03-31T13:44:49.999Z</time></trkpt><trkpt lat="44.1319257" lon="10.3983584"><ele>371.0</ele><time>2026-03-31T13:44:53.999Z</time></trkpt><trkpt lat="44.1319845" lon="10.3983899"><ele>371.0</ele><time>2026-03-31T13:44:57Z</time></trkpt><trkpt lat="44.1320468" lon="10.3984412"><ele>371.0</ele><time>2026-03-31T13:45:00.107Z</time></trkpt><trkpt lat="44.1321181" lon="10.3985017"><ele>371.0</ele><time>2026-03-31T13:45:04Z</time></trkpt><trkpt lat="44.1321854" lon="10.3985334"><ele>371.0</ele><time>2026-03-31T13:45:08Z</time></trkpt><trkpt lat="44.13225" lon="10.3985771"><ele>371.0</ele><time>2026-03-31T13:45:12Z</time></trkpt><trkpt lat="44.1323259" lon="10.3985726"><ele>371.0</ele><time>2026-03-31T13:45:16Z</time></trkpt><trkpt lat="44.132403" lon="10.3985774"><ele>371.0</ele><time>2026-03-31T13:45:20.1Z</time></trkpt><trkpt lat="44.1324749" lon="10.3985531"><ele>371.42857142857144</ele><time>2026-03-31T13:45:23Z</time></trkpt><trkpt lat="44.1325503" lon="10.3985379"><ele>371.8571428571429</ele><time>2026-03-31T13:45:26Z</time></trkpt><trkpt lat="44.1326224" lon="10.3985008"><ele>372.2857142857143</ele><time>2026-03-31T13:45:28.999Z</time></trkpt><trkpt lat="44.1326846" lon="10.3984568"><ele>372.7142857142857</ele><time>2026-03-31T13:45:32Z</time></trkpt><trkpt lat="44.1327456" lon="10.3984205"><ele>373.14285714285717</ele><time>2026-03-31T13:45:35.102Z</time></trkpt><trkpt lat="44.1328136" lon="10.3983977"><ele>373.57142857142856</ele><time>2026-03-31T13:45:38Z</time></trkpt><trkpt lat="44.132883" lon="10.3983784"><ele>374.0</ele><time>2026-03-31T13:45:41Z</time></trkpt><trkpt lat="44.1329576" lon="10.3983779"><ele>374.0</ele><time>2026-03-31T13:45:44Z</time></trkpt><trkpt lat="44.1330259" lon="10.398397"><ele>374.0</ele><time>2026-03-31T13:45:47Z</time></trkpt><trkpt lat="44.1330927" lon="10.3984275"><ele>374.0</ele><time>2026-03-31T13:45:50Z</time></trkpt><trkpt lat="44.1331594" lon="10.3984788"><ele>374.0</ele><time>2026-03-31T13:45:52.999Z</time></trkpt><trkpt lat="44.1332195" lon="10.3985292"><ele>374.0</ele><time>2026-03-31T13:45:55.999Z</time></trkpt><trkpt lat="44.1332754" lon="10.3985873"><ele>374.0</ele><time>2026-03-31T13:45:59Z</time></trkpt><trkpt lat="44.1333238" lon="10.3986552"><ele>374.0</ele><time>2026-03-31T13:46:02Z</time></trkpt><trkpt lat="44.1333665" lon="10.3987297"><ele>372.85714285714283</ele><time>2026-03-31T13:46:05Z</time></trkpt><trkpt lat="44.1334109" lon="10.3988063"><ele>371.7142857142857</ele><time>2026-03-31T13:46:08Z</time></trkpt><trkpt lat="44.1334546" lon="10.3988699"><ele>370.57142857142856</ele><time>2026-03-31T13:46:11Z</time></trkpt><trkpt lat="44.1334997" lon="10.3989319"><ele>369.42857142857144</ele><time>2026-03-31T13:46:13.999Z</time></trkpt><trkpt lat="44.1335544" lon="10.3989931"><ele>368.28571428571433</ele><time>2026-03-31T13:46:17.1Z</time></trkpt><trkpt lat="44.1336053" lon="10.399058"><ele>367.14285714285717</ele><time>2026-03-31T13:46:20Z</time></trkpt><trkpt lat="44.1336589" lon="10.3991258"><ele>366.0</ele><time>2026-03-31T13:46:23Z</time></trkpt><trkpt lat="44.1337183" lon="10.3991878"><ele>366.0</ele><time>2026-03-31T13:46:26Z</time></trkpt><trkpt lat="44.133776" lon="10.3992401"><ele>366.0</ele><time>2026-03-31T13:46:29Z</time></trkpt><trkpt lat="44.1338545" lon="10.3992996"><ele>366.0</ele><time>2026-03-31T13:46:32.999Z</time></trkpt><trkpt lat="44.1339271" lon="10.3993561"><ele>366.0</ele><time>2026-03-31T13:46:36.999Z</time></trkpt><trkpt lat="44.1339851" lon="10.3994127"><ele>366.0</ele><time>2026-03-31T13:46:40Z</time></trkpt><trkpt lat="44.1340385" lon="10.3994752"><ele>366.0</ele><time>2026-03-31T13:46:43Z</time></trkpt><trkpt lat="44.1340985" lon="10.3995217"><ele>366.57142857142856</ele><time>2026-03-31T13:46:45.999Z</time></trkpt><trkpt lat="44.1341571" lon="10.3995614"><ele>367.14285714285717</ele><time>2026-03-31T13:46:48.999Z</time></trkpt><trkpt lat="44.1342191" lon="10.3996099"><ele>367.71428571428567</ele><time>2026-03-31T13:46:52Z</time></trkpt><trkpt lat="44.1342811" lon="10.3996531"><ele>368.2857142857143</ele><time>2026-03-31T13:46:55.151Z</time></trkpt><trkpt lat="44.1343437" lon="10.3996802"><ele>368.85714285714283</ele><time>2026-03-31T13:46:58Z</time></trkpt><trkpt lat="44.1344099" lon="10.3996589"><ele>369.4285714285714</ele><time>2026-03-31T13:47:01Z</time></trkpt><trkpt lat="44.1344672" lon="10.3995971"><ele>370.0</ele><time>2026-03-31T13:47:04Z</time></trkpt><trkpt lat="44.1344802" lon="10.3995043"><ele>373.66666666666663</ele><time>2026-03-31T13:47:07Z</time></trkpt><trkpt lat="44.1344406" lon="10.3994036"><ele>377.3333333333333</ele><time>2026-03-31T13:47:10.999Z</time></trkpt><trkpt lat="44.1343858" lon="10.399348"><ele>381.0</ele><time>2026-03-31T13:47:13.999Z</time></trkpt><trkpt lat="44.1343285" lon="10.3993016"><ele>384.66666666666663</ele><time>2026-03-31T13:47:17Z</time></trkpt><trkpt lat="44.1342679" lon="10.3992551"><ele>388.3333333333333</ele><time>2026-03-31T13:47:20Z</time></trkpt><trkpt lat="44.1341878" lon="10.3991988"><ele>392.0</ele><time>2026-03-31T13:47:24Z</time></trkpt><trkpt lat="44.1341244" lon="10.3991451"><ele>392.0</ele><time>2026-03-31T13:47:27Z</time></trkpt><trkpt lat="44.1340591" lon="10.399092"><ele>392.0</ele><time>2026-03-31T13:47:30Z</time></trkpt><trkpt lat="44.1339944" lon="10.3990437"><ele>392.0</ele><time>2026-03-31T13:47:33Z</time></trkpt><trkpt lat="44.1339287" lon="10.3989976"><ele>392.0</ele><time>2026-03-31T13:47:36Z</time></trkpt><trkpt lat="44.1338697" lon="10.3989478"><ele>392.0</ele><time>2026-03-31T13:47:39Z</time></trkpt><trkpt lat="44.1338231" lon="10.3988886"><ele>392.0</ele><time>2026-03-31T13:47:42Z</time></trkpt><trkpt lat="44.1338124" lon="10.3987732"><ele>392.0</ele><time>2026-03-31T13:47:46Z</time></trkpt><trkpt lat="44.1338493" lon="10.398695"><ele>392.7142857142857</ele><time>2026-03-31T13:47:49Z</time></trkpt><trkpt lat="44.1339089" lon="10.398649"><ele>393.42857142857144</ele><time>2026-03-31T13:47:51.999Z</time></trkpt><trkpt lat="44.1339786" lon="10.3986433"><ele>394.1428571428571</ele><time>2026-03-31T13:47:55Z</time></trkpt><trkpt lat="44.1340609" lon="10.3986387"><ele>394.8571428571429</ele><time>2026-03-31T13:47:59Z</time></trkpt><trkpt lat="44.1341247" lon="10.3986391"><ele>395.57142857142856</ele><time>2026-03-31T13:48:02.999Z</time></trkpt><trkpt lat="44.1342048" lon="10.3986351"><ele>396.2857142857143</ele><time>2026-03-31T13:48:07Z</time></trkpt><trkpt lat="44.1342677" lon="10.3986311"><ele>397.0</ele><time>2026-03-31T13:48:09.999Z</time></trkpt><trkpt lat="44.1343462" lon="10.3986306"><ele>397.0</ele><time>2026-03-31T13:48:14Z</time></trkpt><trkpt lat="44.1344095" lon="10.3986317"><ele>397.0</ele><time>2026-03-31T13:48:17Z</time></trkpt><trkpt lat="44.1344931" lon="10.3986401"><ele>397.0</ele><time>2026-03-31T13:48:20.999Z</time></trkpt><trkpt lat="44.1345591" lon="10.3986457"><ele>397.0</ele><time>2026-03-31T13:48:24Z</time></trkpt><trkpt lat="44.1346413" lon="10.398643"><ele>397.0</ele><time>2026-03-31T13:48:28Z</time></trkpt><trkpt lat="44.1347101" lon="10.3986429"><ele>397.0</ele><time>2026-03-31T13:48:30.999Z</time></trkpt><trkpt lat="44.1347855" lon="10.3986432"><ele>397.0</ele><time>2026-03-31T13:48:33.999Z</time></trkpt><trkpt lat="44.1348501" lon="10.3986526"><ele>398.2857142857143</ele><time>2026-03-31T13:48:37Z</time></trkpt><trkpt lat="44.1349259" lon="10.3986644"><ele>399.57142857142856</ele><time>2026-03-31T13:48:40Z</time></trkpt><trkpt lat="44.1350006" lon="10.3986698"><ele>400.8571428571429</ele><time>2026-03-31T13:48:44.015Z</time></trkpt><trkpt lat="44.1350776" lon="10.3986727"><ele>402.1428571428571</ele><time>2026-03-31T13:48:47Z</time></trkpt><trkpt lat="44.1351513" lon="10.3986733"><ele>403.42857142857144</ele><time>2026-03-31T13:48:50.007Z</time></trkpt><trkpt lat="44.1352196" lon="10.3986656"><ele>404.7142857142857</ele><time>2026-03-31T13:48:53.06Z</time></trkpt><trkpt lat="44.1352877" lon="10.398672"><ele>406.0</ele><time>2026-03-31T13:48:56Z</time></trkpt><trkpt lat="44.1353598" lon="10.3986669"><ele>406.00000000000006</ele><time>2026-03-31T13:48:59.052Z</time></trkpt><trkpt lat="44.1354331" lon="10.3986579"><ele>406.0</ele><time>2026-03-31T13:49:02Z</time></trkpt><trkpt lat="44.1355025" lon="10.3986537"><ele>406.0</ele><time>2026-03-31T13:49:05.044Z</time></trkpt><trkpt lat="44.1355867" lon="10.3986524"><ele>406.0</ele><time>2026-03-31T13:49:09.001Z</time></trkpt><trkpt lat="44.1356698" lon="10.3986518"><ele>406.00000000000006</ele><time>2026-03-31T13:49:12Z</time></trkpt><trkpt lat="44.1357526" lon="10.3986705"><ele>406.0</ele><time>2026-03-31T13:49:15Z</time></trkpt><trkpt lat="44.1358313" lon="10.3986781"><ele>407.42857142857144</ele><time>2026-03-31T13:49:18.127Z</time></trkpt><trkpt lat="44.1359038" lon="10.3986794"><ele>408.8571428571429</ele><time>2026-03-31T13:49:20.999Z</time></trkpt><trkpt lat="44.1359696" lon="10.3986817"><ele>410.2857142857143</ele><time>2026-03-31T13:49:24Z</time></trkpt><trkpt lat="44.1360326" lon="10.3986886"><ele>411.7142857142857</ele><time>2026-03-31T13:49:27Z</time></trkpt><trkpt lat="44.1360959" lon="10.3986993"><ele>413.14285714285717</ele><time>2026-03-31T13:49:30Z</time></trkpt><trkpt lat="44.1361574" lon="10.3987226"><ele>414.57142857142856</ele><time>2026-03-31T13:49:32.999Z</time></trkpt><trkpt lat="44.1362305" lon="10.3987455"><ele>416.0</ele><time>2026-03-31T13:49:37Z</time></trkpt><trkpt lat="44.136296" lon="10.3987742"><ele>416.0</ele><time>2026-03-31T13:49:39.999Z</time></trkpt><trkpt lat="44.1363621" lon="10.3988011"><ele>416.0</ele><time>2026-03-31T13:49:43Z</time></trkpt><trkpt lat="44.1364227" lon="10.3988364"><ele>416.0</ele><time>2026-03-31T13:49:46Z</time></trkpt><trkpt lat="44.1364824" lon="10.3988765"><ele>416.0</ele><time>2026-03-31T13:49:48.999Z</time></trkpt><trkpt lat="44.1365563" lon="10.398909"><ele>416.0</ele><time>2026-03-31T13:49:53Z</time></trkpt><trkpt lat="44.1366243" lon="10.3989465"><ele>416.0</ele><time>2026-03-31T13:49:55.999Z</time></trkpt><trkpt lat="44.1367009" lon="10.3989788"><ele>416.0</ele><time>2026-03-31T13:49:59Z</time></trkpt><trkpt lat="44.1367673" lon="10.3990015"><ele>416.66666666666663</ele><time>2026-03-31T13:50:01.999Z</time></trkpt><trkpt lat="44.1368436" lon="10.3990304"><ele>417.3333333333333</ele><time>2026-03-31T13:50:05Z</time></trkpt><trkpt lat="44.1369365" lon="10.3990598"><ele>418.0</ele><time>2026-03-31T13:50:08Z</time></trkpt><trkpt lat="44.1370238" lon="10.3990721"><ele>418.66666666666663</ele><time>2026-03-31T13:50:11Z</time></trkpt><trkpt lat="44.1371212" lon="10.3990767"><ele>419.3333333333333</ele><time>2026-03-31T13:50:14Z</time></trkpt><trkpt lat="44.1371964" lon="10.3990728"><ele>420.0</ele><time>2026-03-31T13:50:17Z</time></trkpt><trkpt lat="44.1372851" lon="10.3990691"><ele>420.0</ele><time>2026-03-31T13:50:20Z</time></trkpt><trkpt lat="44.1373537" lon="10.3990646"><ele>420.0</ele><time>2026-03-31T13:50:22Z</time></trkpt><trkpt lat="44.1374322" lon="10.3990528"><ele>420.0</ele><time>2026-03-31T13:50:24Z</time></trkpt><trkpt lat="44.1375062" lon="10.3990325"><ele>420.0</ele><time>2026-03-31T13:50:25.999Z</time></trkpt><trkpt lat="44.1375778" lon="10.3990116"><ele>420.0</ele><time>2026-03-31T13:50:28Z</time></trkpt><trkpt lat="44.137648" lon="10.3989865"><ele>420.0</ele><time>2026-03-31T13:50:30Z</time></trkpt><trkpt lat="44.137719" lon="10.3989604"><ele>420.0</ele><time>2026-03-31T13:50:32Z</time></trkpt><trkpt lat="44.1377919" lon="10.3989324"><ele>419.85714285714283</ele><time>2026-03-31T13:50:34Z</time></trkpt><trkpt lat="44.137863" lon="10.3989046"><ele>419.7142857142857</ele><time>2026-03-31T13:50:35.999Z</time></trkpt><trkpt lat="44.1379401" lon="10.3988731"><ele>419.57142857142856</ele><time>2026-03-31T13:50:38Z</time></trkpt><trkpt lat="44.1380115" lon="10.3988466"><ele>419.42857142857144</ele><time>2026-03-31T13:50:40Z</time></trkpt><trkpt lat="44.1380804" lon="10.3988146"><ele>419.2857142857143</ele><time>2026-03-31T13:50:41.999Z</time></trkpt><trkpt lat="44.1381492" lon="10.3987791"><ele>419.1428571428571</ele><time>2026-03-31T13:50:43.999Z</time></trkpt><trkpt lat="44.1382211" lon="10.3987525"><ele>419.0</ele><time>2026-03-31T13:50:46Z</time></trkpt><trkpt lat="44.1382932" lon="10.3987272"><ele>419.57142857142856</ele><time>2026-03-31T13:50:47.999Z</time></trkpt><trkpt lat="44.138365" lon="10.3987057"><ele>420.1428571428571</ele><time>2026-03-31T13:50:50Z</time></trkpt><trkpt lat="44.1384407" lon="10.398687"><ele>420.71428571428567</ele><time>2026-03-31T13:50:52Z</time></trkpt><trkpt lat="44.1385048" lon="10.3986713"><ele>421.2857142857143</ele><time>2026-03-31T13:50:53.999Z</time></trkpt><trkpt lat="44.1385692" lon="10.3986621"><ele>421.8571428571429</ele><time>2026-03-31T13:50:55.999Z</time></trkpt><trkpt lat="44.1386418" lon="10.3986654"><ele>422.4285714285714</ele><time>2026-03-31T13:50:58Z</time></trkpt><trkpt lat="44.1387153" lon="10.3986798"><ele>423.0</ele><time>2026-03-31T13:50:59.999Z</time></trkpt><trkpt lat="44.138787" lon="10.3986963"><ele>423.0</ele><time>2026-03-31T13:51:02Z</time></trkpt><trkpt lat="44.1388634" lon="10.3987175"><ele>423.0</ele><time>2026-03-31T13:51:04Z</time></trkpt><trkpt lat="44.1389358" lon="10.3987444"><ele>423.0</ele><time>2026-03-31T13:51:05.999Z</time></trkpt><trkpt lat="44.139007" lon="10.3987737"><ele>423.0</ele><time>2026-03-31T13:51:08Z</time></trkpt><trkpt lat="44.1390764" lon="10.3987972"><ele>423.0</ele><time>2026-03-31T13:51:10Z</time></trkpt><trkpt lat="44.1391426" lon="10.3988155"><ele>423.0</ele><time>2026-03-31T13:51:11.999Z</time></trkpt><trkpt lat="44.139214" lon="10.3988409"><ele>423.0</ele><time>2026-03-31T13:51:14Z</time></trkpt><trkpt lat="44.1392875" lon="10.3988721"><ele>422.0</ele><time>2026-03-31T13:51:16Z</time></trkpt><trkpt lat="44.1393532" lon="10.3988938"><ele>421.0</ele><time>2026-03-31T13:51:18Z</time></trkpt><trkpt lat="44.1394166" lon="10.3989119"><ele>420.0</ele><time>2026-03-31T13:51:20Z</time></trkpt><trkpt lat="44.1394873" lon="10.3989398"><ele>419.0</ele><time>2026-03-31T13:51:21.999Z</time></trkpt><trkpt lat="44.1395614" lon="10.3989693"><ele>418.0</ele><time>2026-03-31T13:51:23.999Z</time></trkpt><trkpt lat="44.1396324" lon="10.3989897"><ele>417.0</ele><time>2026-03-31T13:51:25.999Z</time></trkpt><trkpt lat="44.1397048" lon="10.3990131"><ele>416.0</ele><time>2026-03-31T13:51:28Z</time></trkpt><trkpt lat="44.1397781" lon="10.3990386"><ele>416.0</ele><time>2026-03-31T13:51:30Z</time></trkpt><trkpt lat="44.1398493" lon="10.3990708"><ele>416.0</ele><time>2026-03-31T13:51:32Z</time></trkpt><trkpt lat="44.1399191" lon="10.3990962"><ele>416.0</ele><time>2026-03-31T13:51:34Z</time></trkpt><trkpt lat="44.139983" lon="10.3991156"><ele>416.0</ele><time>2026-03-31T13:51:36Z</time></trkpt><trkpt lat="44.1400481" lon="10.3991296"><ele>416.0</ele><time>2026-03-31T13:51:38Z</time></trkpt><trkpt lat="44.1401146" lon="10.3991324"><ele>416.0</ele><time>2026-03-31T13:51:39.999Z</time></trkpt><trkpt lat="44.1401819" lon="10.3991285"><ele>416.0</ele><time>2026-03-31T13:51:42.103Z</time></trkpt><trkpt lat="44.1402529" lon="10.3991184"><ele>416.49999999999994</ele><time>2026-03-31T13:51:43.999Z</time></trkpt><trkpt lat="44.140322" lon="10.3991016"><ele>417.0</ele><time>2026-03-31T13:51:46Z</time></trkpt><trkpt lat="44.1403893" lon="10.3990754"><ele>417.5</ele><time>2026-03-31T13:51:48Z</time></trkpt><trkpt lat="44.1404571" lon="10.3990427"><ele>418.0</ele><time>2026-03-31T13:51:49.999Z</time></trkpt><trkpt lat="44.1405259" lon="10.3990135"><ele>418.49999999999994</ele><time>2026-03-31T13:51:52Z</time></trkpt><trkpt lat="44.1406227" lon="10.3989655"><ele>419.0</ele><time>2026-03-31T13:51:55Z</time></trkpt><trkpt lat="44.1407241" lon="10.3989222"><ele>418.99999999999994</ele><time>2026-03-31T13:51:58Z</time></trkpt><trkpt lat="44.1407933" lon="10.3988939"><ele>419.0</ele><time>2026-03-31T13:52:00Z</time></trkpt><trkpt lat="44.1408602" lon="10.3988721"><ele>419.0</ele><time>2026-03-31T13:52:01.999Z</time></trkpt><trkpt lat="44.140931" lon="10.3988545"><ele>419.0</ele><time>2026-03-31T13:52:04Z</time></trkpt><trkpt lat="44.1410001" lon="10.3988408"><ele>419.0</ele><time>2026-03-31T13:52:05.999Z</time></trkpt><trkpt lat="44.1410686" lon="10.39884"><ele>418.99999999999994</ele><time>2026-03-31T13:52:08Z</time></trkpt><trkpt lat="44.1411414" lon="10.3988431"><ele>419.0</ele><time>2026-03-31T13:52:10Z</time></trkpt><trkpt lat="44.141211" lon="10.3988551"><ele>418.99999999999994</ele><time>2026-03-31T13:52:11.999Z</time></trkpt><trkpt lat="44.1412774" lon="10.3988678"><ele>419.0</ele><time>2026-03-31T13:52:13.999Z</time></trkpt><trkpt lat="44.1413445" lon="10.3988838"><ele>419.0</ele><time>2026-03-31T13:52:16Z</time></trkpt><trkpt lat="44.1414653" lon="10.3989178"><ele>419.0</ele><time>2026-03-31T13:52:20Z</time></trkpt><trkpt lat="44.1415297" lon="10.3989418"><ele>418.99999999999994</ele><time>2026-03-31T13:52:22Z</time></trkpt><trkpt lat="44.1415934" lon="10.3989623"><ele>419.0</ele><time>2026-03-31T13:52:24Z</time></trkpt><trkpt lat="44.141679" lon="10.3989903"><ele>419.16666666666663</ele><time>2026-03-31T13:52:27Z</time></trkpt><trkpt lat="44.1417821" lon="10.3990157"><ele>419.3333333333333</ele><time>2026-03-31T13:52:30Z</time></trkpt><trkpt lat="44.1418603" lon="10.3990287"><ele>419.5</ele><time>2026-03-31T13:52:32Z</time></trkpt><trkpt lat="44.1419327" lon="10.3990365"><ele>419.66666666666663</ele><time>2026-03-31T13:52:33.999Z</time></trkpt><trkpt lat="44.142008" lon="10.3990479"><ele>419.8333333333333</ele><time>2026-03-31T13:52:35.999Z</time></trkpt><trkpt lat="44.1420848" lon="10.3990532"><ele>420.0</ele><time>2026-03-31T13:52:38Z</time></trkpt><trkpt lat="44.1421564" lon="10.3990553"><ele>420.0</ele><time>2026-03-31T13:52:40Z</time></trkpt><trkpt lat="44.1422264" lon="10.3990521"><ele>420.0</ele><time>2026-03-31T13:52:42Z</time></trkpt><trkpt lat="44.1422959" lon="10.3990514"><ele>420.0</ele><time>2026-03-31T13:52:44Z</time></trkpt><trkpt lat="44.1423593" lon="10.39905"><ele>420.0</ele><time>2026-03-31T13:52:45.999Z</time></trkpt><trkpt lat="44.1424251" lon="10.3990486"><ele>420.0</ele><time>2026-03-31T13:52:48Z</time></trkpt><trkpt lat="44.1424938" lon="10.3990403"><ele>420.0</ele><time>2026-03-31T13:52:49.999Z</time></trkpt><trkpt lat="44.1425894" lon="10.3990257"><ele>420.0</ele><time>2026-03-31T13:52:53.103Z</time></trkpt><trkpt lat="44.1426573" lon="10.3990034"><ele>420.8333333333333</ele><time>2026-03-31T13:52:55Z</time></trkpt><trkpt lat="44.142727" lon="10.398977"><ele>421.66666666666663</ele><time>2026-03-31T13:52:57Z</time></trkpt><trkpt lat="44.1427989" lon="10.3989474"><ele>422.5</ele><time>2026-03-31T13:52:59Z</time></trkpt><trkpt lat="44.1428698" lon="10.3989204"><ele>423.3333333333333</ele><time>2026-03-31T13:53:00.999Z</time></trkpt><trkpt lat="44.1429389" lon="10.3988846"><ele>424.16666666666663</ele><time>2026-03-31T13:53:03Z</time></trkpt><trkpt lat="44.1430526" lon="10.3988094"><ele>425.0</ele><time>2026-03-31T13:53:06Z</time></trkpt><trkpt lat="44.1431222" lon="10.3987631"><ele>426.2</ele><time>2026-03-31T13:53:08Z</time></trkpt><trkpt lat="44.1431944" lon="10.3987173"><ele>427.4</ele><time>2026-03-31T13:53:10Z</time></trkpt><trkpt lat="44.1432717" lon="10.398669"><ele>428.6</ele><time>2026-03-31T13:53:12Z</time></trkpt><trkpt lat="44.1433621" lon="10.3986305"><ele>429.8</ele><time>2026-03-31T13:53:14Z</time></trkpt><trkpt lat="44.1434841" lon="10.3985768"><ele>431.0</ele><time>2026-03-31T13:53:16Z</time></trkpt><trkpt lat="44.1435576" lon="10.3985146"><ele>431.0</ele><time>2026-03-31T13:53:18Z</time></trkpt><trkpt lat="44.1436388" lon="10.3984404"><ele>431.0</ele><time>2026-03-31T13:53:20Z</time></trkpt><trkpt lat="44.1437185" lon="10.3983748"><ele>431.0</ele><time>2026-03-31T13:53:22Z</time></trkpt><trkpt lat="44.1437976" lon="10.398308"><ele>431.0</ele><time>2026-03-31T13:53:23.999Z</time></trkpt><trkpt lat="44.1439056" lon="10.39818"><ele>431.0</ele><time>2026-03-31T13:53:27Z</time></trkpt><trkpt lat="44.1439794" lon="10.3980898"><ele>432.0</ele><time>2026-03-31T13:53:28.999Z</time></trkpt><trkpt lat="44.144063" lon="10.3980108"><ele>433.0</ele><time>2026-03-31T13:53:31Z</time></trkpt><trkpt lat="44.1441354" lon="10.3979247"><ele>434.0</ele><time>2026-03-31T13:53:33Z</time></trkpt><trkpt lat="44.1441799" lon="10.3978602"><ele>435.0</ele><time>2026-03-31T13:53:34Z</time></trkpt><trkpt lat="44.1442704" lon="10.3977482"><ele>436.0</ele><time>2026-03-31T13:53:36Z</time></trkpt><trkpt lat="44.1443219" lon="10.3976834"><ele>436.0</ele><time>2026-03-31T13:53:36.999Z</time></trkpt><trkpt lat="44.1443806" lon="10.3976301"><ele>436.0</ele><time>2026-03-31T13:53:38Z</time></trkpt><trkpt lat="44.1444443" lon="10.3975781"><ele>436.0</ele><time>2026-03-31T13:53:39Z</time></trkpt><trkpt lat="44.1444979" lon="10.3975291"><ele>436.0</ele><time>2026-03-31T13:53:39.999Z</time></trkpt><trkpt lat="44.1446714" lon="10.3974128"><ele>436.0</ele><time>2026-03-31T13:53:43Z</time></trkpt><trkpt lat="44.1448181" lon="10.3973268"><ele>435.0</ele><time>2026-03-31T13:53:46Z</time></trkpt><trkpt lat="44.1449118" lon="10.3973022"><ele>434.0</ele><time>2026-03-31T13:53:48Z</time></trkpt><trkpt lat="44.1450152" lon="10.3972406"><ele>433.0</ele><time>2026-03-31T13:53:49.999Z</time></trkpt><trkpt lat="44.1451151" lon="10.3971808"><ele>432.0</ele><time>2026-03-31T13:53:52Z</time></trkpt><trkpt lat="44.1452358" lon="10.3971209"><ele>431.0</ele><time>2026-03-31T13:53:55Z</time></trkpt><trkpt lat="44.1453246" lon="10.3970737"><ele>430.99999999999994</ele><time>2026-03-31T13:53:57Z</time></trkpt><trkpt lat="44.1453826" lon="10.3970306"><ele>431.0</ele><time>2026-03-31T13:53:58.999Z</time></trkpt><trkpt lat="44.1454703" lon="10.3969862"><ele>431.0</ele><time>2026-03-31T13:54:01Z</time></trkpt><trkpt lat="44.1455487" lon="10.3969488"><ele>431.0</ele><time>2026-03-31T13:54:03Z</time></trkpt><trkpt lat="44.1456362" lon="10.3969104"><ele>430.99999999999994</ele><time>2026-03-31T13:54:05Z</time></trkpt><trkpt lat="44.1457139" lon="10.3968743"><ele>431.0</ele><time>2026-03-31T13:54:07Z</time></trkpt><trkpt lat="44.1457879" lon="10.3968293"><ele>428.99999999999994</ele><time>2026-03-31T13:54:09Z</time></trkpt><trkpt lat="44.1458542" lon="10.396776"><ele>427.0</ele><time>2026-03-31T13:54:11Z</time></trkpt><trkpt lat="44.1459176" lon="10.3967381"><ele>425.0</ele><time>2026-03-31T13:54:12.999Z</time></trkpt><trkpt lat="44.1459825" lon="10.3967038"><ele>423.0</ele><time>2026-03-31T13:54:14.999Z</time></trkpt><trkpt lat="44.1460737" lon="10.3966526"><ele>420.99999999999994</ele><time>2026-03-31T13:54:17.999Z</time></trkpt><trkpt lat="44.1461347" lon="10.3966212"><ele>419.0</ele><time>2026-03-31T13:54:20Z</time></trkpt><trkpt lat="44.1462181" lon="10.3965847"><ele>418.99999999999994</ele><time>2026-03-31T13:54:23Z</time></trkpt><trkpt lat="44.1462837" lon="10.3965483"><ele>419.0</ele><time>2026-03-31T13:54:25Z</time></trkpt><trkpt lat="44.1463512" lon="10.3965071"><ele>419.0</ele><time>2026-03-31T13:54:27Z</time></trkpt><trkpt lat="44.1464192" lon="10.3964697"><ele>419.0</ele><time>2026-03-31T13:54:29Z</time></trkpt><trkpt lat="44.1464926" lon="10.3964356"><ele>419.0</ele><time>2026-03-31T13:54:31Z</time></trkpt><trkpt lat="44.1465623" lon="10.3964051"><ele>418.99999999999994</ele><time>2026-03-31T13:54:32.999Z</time></trkpt><trkpt lat="44.1466233" lon="10.3963682"><ele>419.0</ele><time>2026-03-31T13:54:35Z</time></trkpt><trkpt lat="44.1466895" lon="10.3963306"><ele>418.1428571428571</ele><time>2026-03-31T13:54:37Z</time></trkpt><trkpt lat="44.1467524" lon="10.3963005"><ele>417.2857142857143</ele><time>2026-03-31T13:54:39Z</time></trkpt><trkpt lat="44.1468206" lon="10.3962661"><ele>416.42857142857144</ele><time>2026-03-31T13:54:41Z</time></trkpt><trkpt lat="44.1468885" lon="10.3962364"><ele>415.57142857142856</ele><time>2026-03-31T13:54:43.107Z</time></trkpt><trkpt lat="44.1469519" lon="10.3962023"><ele>414.7142857142857</ele><time>2026-03-31T13:54:44.999Z</time></trkpt><trkpt lat="44.1470184" lon="10.3961693"><ele>413.85714285714283</ele><time>2026-03-31T13:54:46.999Z</time></trkpt><trkpt lat="44.147081" lon="10.3961363"><ele>413.0</ele><time>2026-03-31T13:54:49Z</time></trkpt><trkpt lat="44.1471422" lon="10.3960991"><ele>412.99999999999994</ele><time>2026-03-31T13:54:50.999Z</time></trkpt><trkpt lat="44.1472091" lon="10.3960639"><ele>413.0</ele><time>2026-03-31T13:54:53Z</time></trkpt><trkpt lat="44.1472733" lon="10.3960304"><ele>413.0</ele><time>2026-03-31T13:54:55Z</time></trkpt><trkpt lat="44.1473331" lon="10.3960021"><ele>413.0</ele><time>2026-03-31T13:54:57Z</time></trkpt><trkpt lat="44.1474184" lon="10.395955"><ele>412.99999999999994</ele><time>2026-03-31T13:55:00.106Z</time></trkpt><trkpt lat="44.147524" lon="10.3959073"><ele>413.0</ele><time>2026-03-31T13:55:04Z</time></trkpt><trkpt lat="44.1476008" lon="10.3958689"><ele>414.16666666666663</ele><time>2026-03-31T13:55:06.999Z</time></trkpt><trkpt lat="44.1476803" lon="10.3958297"><ele>415.3333333333333</ele><time>2026-03-31T13:55:10Z</time></trkpt><trkpt lat="44.1477616" lon="10.3957949"><ele>416.5</ele><time>2026-03-31T13:55:12.999Z</time></trkpt><trkpt lat="44.1478374" lon="10.3957745"><ele>417.66666666666663</ele><time>2026-03-31T13:55:15.999Z</time></trkpt><trkpt lat="44.1479462" lon="10.3957489"><ele>418.8333333333333</ele><time>2026-03-31T13:55:20Z</time></trkpt><trkpt lat="44.148025" lon="10.3957391"><ele>420.0</ele><time>2026-03-31T13:55:23Z</time></trkpt><trkpt lat="44.148103" lon="10.3957323"><ele>421.2</ele><time>2026-03-31T13:55:25.999Z</time></trkpt><trkpt lat="44.1482102" lon="10.3957191"><ele>422.4</ele><time>2026-03-31T13:55:30Z</time></trkpt><trkpt lat="44.148296" lon="10.3957107"><ele>423.6</ele><time>2026-03-31T13:55:33.101Z</time></trkpt><trkpt lat="44.1483816" lon="10.3957064"><ele>424.8</ele><time>2026-03-31T13:55:36Z</time></trkpt><trkpt lat="44.1484607" lon="10.3957118"><ele>426.0</ele><time>2026-03-31T13:55:39Z</time></trkpt><trkpt lat="44.1485648" lon="10.3957053"><ele>426.0</ele><time>2026-03-31T13:55:42.999Z</time></trkpt><trkpt lat="44.148636" lon="10.3956846"><ele>426.0</ele><time>2026-03-31T13:55:45.999Z</time></trkpt><trkpt lat="44.14871" lon="10.3956537"><ele>426.0</ele><time>2026-03-31T13:55:49Z</time></trkpt><trkpt lat="44.1487792" lon="10.3956174"><ele>426.0</ele><time>2026-03-31T13:55:51.999Z</time></trkpt><trkpt lat="44.1488575" lon="10.3955802"><ele>426.0</ele><time>2026-03-31T13:55:54.999Z</time></trkpt><trkpt lat="44.1489265" lon="10.3955327"><ele>426.0</ele><time>2026-03-31T13:55:57.999Z</time></trkpt><trkpt lat="44.1489884" lon="10.3954924"><ele>427.57142857142856</ele><time>2026-03-31T13:56:00.999Z</time></trkpt><trkpt lat="44.1490485" lon="10.3954476"><ele>429.1428571428571</ele><time>2026-03-31T13:56:04.1Z</time></trkpt><trkpt lat="44.1491026" lon="10.3953949"><ele>430.71428571428567</ele><time>2026-03-31T13:56:06.999Z</time></trkpt><trkpt lat="44.1491577" lon="10.3953376"><ele>432.2857142857143</ele><time>2026-03-31T13:56:10Z</time></trkpt><trkpt lat="44.1492058" lon="10.3952696"><ele>433.8571428571429</ele><time>2026-03-31T13:56:13Z</time></trkpt><trkpt lat="44.1492583" lon="10.3951971"><ele>435.4285714285714</ele><time>2026-03-31T13:56:15.999Z</time></trkpt><trkpt lat="44.1493165" lon="10.3950981"><ele>437.0</ele><time>2026-03-31T13:56:20Z</time></trkpt><trkpt lat="44.1493702" lon="10.3950109"><ele>437.0</ele><time>2026-03-31T13:56:24Z</time></trkpt><trkpt lat="44.1494195" lon="10.394931"><ele>437.0</ele><time>2026-03-31T13:56:26.999Z</time></trkpt><trkpt lat="44.1494656" lon="10.3948576"><ele>437.0</ele><time>2026-03-31T13:56:30Z</time></trkpt><trkpt lat="44.1495141" lon="10.3947873"><ele>437.0</ele><time>2026-03-31T13:56:33Z</time></trkpt><trkpt lat="44.1495595" lon="10.3947142"><ele>437.0</ele><time>2026-03-31T13:56:36Z</time></trkpt><trkpt lat="44.1496075" lon="10.3946426"><ele>437.0</ele><time>2026-03-31T13:56:39Z</time></trkpt><trkpt lat="44.1496525" lon="10.3945582"><ele>437.0</ele><time>2026-03-31T13:56:41.999Z</time></trkpt><trkpt lat="44.1497011" lon="10.3944851"><ele>436.2857142857143</ele><time>2026-03-31T13:56:45Z</time></trkpt><trkpt lat="44.1497552" lon="10.3944227"><ele>435.5714285714286</ele><time>2026-03-31T13:56:48.103Z</time></trkpt><trkpt lat="44.1498114" lon="10.3943577"><ele>434.8571428571429</ele><time>2026-03-31T13:56:50.999Z</time></trkpt><trkpt lat="44.149858" lon="10.3942857"><ele>434.1428571428571</ele><time>2026-03-31T13:56:54Z</time></trkpt><trkpt lat="44.1499056" lon="10.3942197"><ele>433.42857142857144</ele><time>2026-03-31T13:56:57Z</time></trkpt><trkpt lat="44.149951" lon="10.3941495"><ele>432.7142857142857</ele><time>2026-03-31T13:56:59.999Z</time></trkpt><trkpt lat="44.1499961" lon="10.3940794"><ele>432.0</ele><time>2026-03-31T13:57:02.999Z</time></trkpt><trkpt lat="44.1500508" lon="10.3940108"><ele>434.6666666666667</ele><time>2026-03-31T13:57:07Z</time></trkpt><trkpt lat="44.1501165" lon="10.3940011"><ele>437.33333333333337</ele><time>2026-03-31T13:57:11Z</time></trkpt><trkpt lat="44.1501196" lon="10.3940898"><ele>440.0</ele><time>2026-03-31T13:57:15Z</time></trkpt><trkpt lat="44.1500707" lon="10.3941934"><ele>442.6666666666667</ele><time>2026-03-31T13:57:19.999Z</time></trkpt><trkpt lat="44.1500345" lon="10.3942682"><ele>445.33333333333337</ele><time>2026-03-31T13:57:22.999Z</time></trkpt><trkpt lat="44.1500014" lon="10.3943641"><ele>448.0</ele><time>2026-03-31T13:57:27Z</time></trkpt><trkpt lat="44.1499583" lon="10.3944785"><ele>448.00000000000006</ele><time>2026-03-31T13:57:31.999Z</time></trkpt><trkpt lat="44.1499253" lon="10.3945684"><ele>448.0</ele><time>2026-03-31T13:57:36Z</time></trkpt><trkpt lat="44.1498927" lon="10.3946571"><ele>448.0</ele><time>2026-03-31T13:57:40Z</time></trkpt><trkpt lat="44.1498571" lon="10.3947562"><ele>448.0</ele><time>2026-03-31T13:57:44Z</time></trkpt><trkpt lat="44.1498196" lon="10.394847"><ele>448.00000000000006</ele><time>2026-03-31T13:57:48.102Z</time></trkpt><trkpt lat="44.1497832" lon="10.3949441"><ele>448.0</ele><time>2026-03-31T13:57:52Z</time></trkpt><trkpt lat="44.1497481" lon="10.3950334"><ele>446.50000000000006</ele><time>2026-03-31T13:57:56.101Z</time></trkpt><trkpt lat="44.1497098" lon="10.3951247"><ele>445.0</ele><time>2026-03-31T13:58:00Z</time></trkpt><trkpt lat="44.1496806" lon="10.39522"><ele>443.5</ele><time>2026-03-31T13:58:04Z</time></trkpt><trkpt lat="44.1496771" lon="10.3953459"><ele>442.0</ele><time>2026-03-31T13:58:09Z</time></trkpt><trkpt lat="44.1497065" lon="10.3954499"><ele>440.50000000000006</ele><time>2026-03-31T13:58:13Z</time></trkpt><trkpt lat="44.1497813" lon="10.3955305"><ele>439.0</ele><time>2026-03-31T13:58:17.999Z</time></trkpt><trkpt lat="44.1498505" lon="10.3955593"><ele>440.83333333333337</ele><time>2026-03-31T13:58:22Z</time></trkpt><trkpt lat="44.1499204" lon="10.3955484"><ele>442.6666666666667</ele><time>2026-03-31T13:58:26Z</time></trkpt><trkpt lat="44.1499959" lon="10.3955238"><ele>444.5</ele><time>2026-03-31T13:58:29.999Z</time></trkpt><trkpt lat="44.1500654" lon="10.3954925"><ele>446.33333333333337</ele><time>2026-03-31T13:58:34.11Z</time></trkpt><trkpt lat="44.1501344" lon="10.3954513"><ele>448.1666666666667</ele><time>2026-03-31T13:58:38Z</time></trkpt><trkpt lat="44.1502094" lon="10.3954089"><ele>450.0</ele><time>2026-03-31T13:58:42Z</time></trkpt><trkpt lat="44.1502825" lon="10.3953749"><ele>451.1666666666667</ele><time>2026-03-31T13:58:46Z</time></trkpt><trkpt lat="44.1503547" lon="10.3953346"><ele>452.33333333333337</ele><time>2026-03-31T13:58:50Z</time></trkpt><trkpt lat="44.1504275" lon="10.3952946"><ele>453.5</ele><time>2026-03-31T13:58:54.103Z</time></trkpt><trkpt lat="44.1504904" lon="10.3952371"><ele>454.6666666666667</ele><time>2026-03-31T13:58:58Z</time></trkpt><trkpt lat="44.1504895" lon="10.3951284"><ele>455.83333333333337</ele><time>2026-03-31T13:59:01.999Z</time></trkpt><trkpt lat="44.1504284" lon="10.395097"><ele>457.0</ele><time>2026-03-31T13:59:05.999Z</time></trkpt><trkpt lat="44.1503471" lon="10.3951254"><ele>457.00000000000006</ele><time>2026-03-31T13:59:09.999Z</time></trkpt><trkpt lat="44.1502717" lon="10.3951521"><ele>457.0</ele><time>2026-03-31T13:59:14Z</time></trkpt><trkpt lat="44.1502019" lon="10.3951797"><ele>457.0</ele><time>2026-03-31T13:59:17.999Z</time></trkpt><trkpt lat="44.1501319" lon="10.3952126"><ele>457.0</ele><time>2026-03-31T13:59:21.999Z</time></trkpt><trkpt lat="44.1500552" lon="10.3952524"><ele>457.00000000000006</ele><time>2026-03-31T13:59:25.999Z</time></trkpt><trkpt lat="44.1499759" lon="10.3952299"><ele>457.0</ele><time>2026-03-31T13:59:29.999Z</time></trkpt><trkpt lat="44.1499623" lon="10.3951348"><ele>457.00000000000006</ele><time>2026-03-31T13:59:34Z</time></trkpt><trkpt lat="44.1499984" lon="10.3950626"><ele>457.0</ele><time>2026-03-31T13:59:37Z</time></trkpt><trkpt lat="44.1500358" lon="10.3949902"><ele>457.00000000000006</ele><time>2026-03-31T13:59:40Z</time></trkpt><trkpt lat="44.1500853" lon="10.3948984"><ele>457.00000000000006</ele><time>2026-03-31T13:59:44Z</time></trkpt><trkpt lat="44.1501522" lon="10.3948334"><ele>457.0</ele><time>2026-03-31T13:59:48Z</time></trkpt><trkpt lat="44.1502121" lon="10.3947911"><ele>457.00000000000006</ele><time>2026-03-31T13:59:51Z</time></trkpt><trkpt lat="44.1502777" lon="10.3947461"><ele>457.00000000000006</ele><time>2026-03-31T13:59:53.999Z</time></trkpt><trkpt lat="44.1503376" lon="10.3946966"><ele>458.00000000000006</ele><time>2026-03-31T13:59:56.999Z</time></trkpt><trkpt lat="44.1503933" lon="10.3946478"><ele>459.0</ele><time>2026-03-31T14:00:00Z</time></trkpt><trkpt lat="44.1504717" lon="10.3945854"><ele>460.00000000000006</ele><time>2026-03-31T14:00:04Z</time></trkpt><trkpt lat="44.1505222" lon="10.3945301"><ele>461.00000000000006</ele><time>2026-03-31T14:00:07Z</time></trkpt><trkpt lat="44.1505799" lon="10.394485"><ele>462.0</ele><time>2026-03-31T14:00:10Z</time></trkpt><trkpt lat="44.1506417" lon="10.3944418"><ele>463.00000000000006</ele><time>2026-03-31T14:00:13Z</time></trkpt><trkpt lat="44.1507036" lon="10.3943848"><ele>464.00000000000006</ele><time>2026-03-31T14:00:15.999Z</time></trkpt><trkpt lat="44.1507647" lon="10.3943351"><ele>464.00000000000006</ele><time>2026-03-31T14:00:18.999Z</time></trkpt><trkpt lat="44.1508279" lon="10.3942825"><ele>464.0</ele><time>2026-03-31T14:00:21.999Z</time></trkpt><trkpt lat="44.1508917" lon="10.3942353"><ele>464.00000000000006</ele><time>2026-03-31T14:00:25Z</time></trkpt><trkpt lat="44.1509541" lon="10.3941831"><ele>464.00000000000006</ele><time>2026-03-31T14:00:28Z</time></trkpt><trkpt lat="44.1510168" lon="10.3941305"><ele>464.0</ele><time>2026-03-31T14:00:30.999Z</time></trkpt><trkpt lat="44.1510834" lon="10.3940821"><ele>464.00000000000006</ele><time>2026-03-31T14:00:34Z</time></trkpt><trkpt lat="44.1511517" lon="10.3940297"><ele>464.00000000000006</ele><time>2026-03-31T14:00:37Z</time></trkpt><trkpt lat="44.1512144" lon="10.3939794"><ele>463.99999999999994</ele><time>2026-03-31T14:00:40Z</time></trkpt><trkpt lat="44.1512861" lon="10.3939197"><ele>464.0</ele><time>2026-03-31T14:00:43Z</time></trkpt><trkpt lat="44.1513537" lon="10.393859"><ele>464.0</ele><time>2026-03-31T14:00:46Z</time></trkpt><trkpt lat="44.1514465" lon="10.3937864"><ele>464.0</ele><time>2026-03-31T14:00:50Z</time></trkpt><trkpt lat="44.151515" lon="10.3937293"><ele>463.99999999999994</ele><time>2026-03-31T14:00:53Z</time></trkpt><trkpt lat="44.1515851" lon="10.393674"><ele>464.0</ele><time>2026-03-31T14:00:56Z</time></trkpt><trkpt lat="44.1516564" lon="10.3936076"><ele>463.99999999999994</ele><time>2026-03-31T14:00:58.999Z</time></trkpt><trkpt lat="44.1517321" lon="10.393549"><ele>464.0</ele><time>2026-03-31T14:01:01.999Z</time></trkpt><trkpt lat="44.1518068" lon="10.3934899"><ele>464.0</ele><time>2026-03-31T14:01:05Z</time></trkpt><trkpt lat="44.1518778" lon="10.3934322"><ele>464.0</ele><time>2026-03-31T14:01:08Z</time></trkpt><trkpt lat="44.1519528" lon="10.3933714"><ele>463.99999999999994</ele><time>2026-03-31T14:01:11Z</time></trkpt><trkpt lat="44.152026" lon="10.3933064"><ele>464.0</ele><time>2026-03-31T14:01:13.999Z</time></trkpt><trkpt lat="44.1520968" lon="10.3932434"><ele>464.0</ele><time>2026-03-31T14:01:17.101Z</time></trkpt><trkpt lat="44.1521638" lon="10.3931755"><ele>464.0</ele><time>2026-03-31T14:01:20Z</time></trkpt><trkpt lat="44.1522402" lon="10.3931108"><ele>464.0</ele><time>2026-03-31T14:01:23Z</time></trkpt><trkpt lat="44.152322" lon="10.3930598"><ele>464.0</ele><time>2026-03-31T14:01:26.101Z</time></trkpt><trkpt lat="44.1524213" lon="10.3929774"><ele>464.0</ele><time>2026-03-31T14:01:30.106Z</time></trkpt><trkpt lat="44.1524921" lon="10.3929282"><ele>463.99999999999994</ele><time>2026-03-31T14:01:33Z</time></trkpt><trkpt lat="44.1525638" lon="10.3928626"><ele>464.0</ele><time>2026-03-31T14:01:35.999Z</time></trkpt><trkpt lat="44.1526378" lon="10.3928021"><ele>464.0</ele><time>2026-03-31T14:01:39Z</time></trkpt><trkpt lat="44.1527106" lon="10.3927444"><ele>464.0</ele><time>2026-03-31T14:01:41.999Z</time></trkpt><trkpt lat="44.1527884" lon="10.3926852"><ele>463.99999999999994</ele><time>2026-03-31T14:01:45Z</time></trkpt><trkpt lat="44.1528658" lon="10.3926233"><ele>464.0</ele><time>2026-03-31T14:01:48Z</time></trkpt><trkpt lat="44.1529765" lon="10.3925458"><ele>463.99999999999994</ele><time>2026-03-31T14:01:52Z</time></trkpt><trkpt lat="44.1530522" lon="10.3924813"><ele>464.0</ele><time>2026-03-31T14:01:55Z</time></trkpt><trkpt lat="44.1531304" lon="10.3924278"><ele>464.0</ele><time>2026-03-31T14:01:58Z</time></trkpt><trkpt lat="44.1532077" lon="10.3923686"><ele>464.0</ele><time>2026-03-31T14:02:01Z</time></trkpt><trkpt lat="44.1532828" lon="10.3923155"><ele>463.99999999999994</ele><time>2026-03-31T14:02:03.999Z</time></trkpt><trkpt lat="44.153353" lon="10.3922652"><ele>464.0</ele><time>2026-03-31T14:02:07.106Z</time></trkpt><trkpt lat="44.1534314" lon="10.3922134"><ele>464.99999999999994</ele><time>2026-03-31T14:02:10Z</time></trkpt><trkpt lat="44.1535091" lon="10.3921578"><ele>466.0</ele><time>2026-03-31T14:02:13Z</time></trkpt><trkpt lat="44.1535879" lon="10.3921013"><ele>467.0</ele><time>2026-03-31T14:02:16Z</time></trkpt><trkpt lat="44.1536442" lon="10.3920577"><ele>468.0</ele><time>2026-03-31T14:02:17.999Z</time></trkpt><trkpt lat="44.1537095" lon="10.3920076"><ele>468.99999999999994</ele><time>2026-03-31T14:02:20Z</time></trkpt><trkpt lat="44.1537928" lon="10.3919541"><ele>470.0</ele><time>2026-03-31T14:02:22.999Z</time></trkpt><trkpt lat="44.1538754" lon="10.3919037"><ele>469.99999999999994</ele><time>2026-03-31T14:02:25.999Z</time></trkpt><trkpt lat="44.153957" lon="10.3918464"><ele>470.0</ele><time>2026-03-31T14:02:29Z</time></trkpt><trkpt lat="44.1540305" lon="10.3917874"><ele>470.0</ele><time>2026-03-31T14:02:32Z</time></trkpt><trkpt lat="44.1541177" lon="10.3917324"><ele>470.0</ele><time>2026-03-31T14:02:34.999Z</time></trkpt><trkpt lat="44.1541776" lon="10.3916922"><ele>469.99999999999994</ele><time>2026-03-31T14:02:37Z</time></trkpt><trkpt lat="44.1542368" lon="10.3916553"><ele>470.0</ele><time>2026-03-31T14:02:39Z</time></trkpt><trkpt lat="44.1543162" lon="10.3915949"><ele>472.66666666666663</ele><time>2026-03-31T14:02:42Z</time></trkpt><trkpt lat="44.154431" lon="10.3915413"><ele>475.3333333333333</ele><time>2026-03-31T14:02:45.999Z</time></trkpt><trkpt lat="44.1544956" lon="10.3915342"><ele>478.0</ele><time>2026-03-31T14:02:47.999Z</time></trkpt><trkpt lat="44.1545603" lon="10.3915312"><ele>480.66666666666663</ele><time>2026-03-31T14:02:49.999Z</time></trkpt><trkpt lat="44.1546257" lon="10.3915355"><ele>483.3333333333333</ele><time>2026-03-31T14:02:51.999Z</time></trkpt><trkpt lat="44.1547183" lon="10.3915428"><ele>486.0</ele><time>2026-03-31T14:02:55Z</time></trkpt><trkpt lat="44.1547816" lon="10.3915533"><ele>486.0</ele><time>2026-03-31T14:02:57Z</time></trkpt><trkpt lat="44.1548482" lon="10.3915597"><ele>486.0</ele><time>2026-03-31T14:02:59Z</time></trkpt><trkpt lat="44.1549148" lon="10.3915639"><ele>486.0</ele><time>2026-03-31T14:03:00.999Z</time></trkpt><trkpt lat="44.1549786" lon="10.3915689"><ele>486.0</ele><time>2026-03-31T14:03:03Z</time></trkpt><trkpt lat="44.1550459" lon="10.3915728"><ele>486.0</ele><time>2026-03-31T14:03:05Z</time></trkpt><trkpt lat="44.1551147" lon="10.391579"><ele>486.0</ele><time>2026-03-31T14:03:07Z</time></trkpt><trkpt lat="44.1551828" lon="10.3915835"><ele>486.0</ele><time>2026-03-31T14:03:09Z</time></trkpt><trkpt lat="44.15525" lon="10.3915835"><ele>487.0</ele><time>2026-03-31T14:03:10.999Z</time></trkpt><trkpt lat="44.1553162" lon="10.3915848"><ele>488.0</ele><time>2026-03-31T14:03:13Z</time></trkpt><trkpt lat="44.1554095" lon="10.3915975"><ele>489.0</ele><time>2026-03-31T14:03:16Z</time></trkpt><trkpt lat="44.1555195" lon="10.3915984"><ele>490.0</ele><time>2026-03-31T14:03:20Z</time></trkpt><trkpt lat="44.1556028" lon="10.3915954"><ele>491.0</ele><time>2026-03-31T14:03:22.999Z</time></trkpt><trkpt lat="44.1556829" lon="10.3915745"><ele>492.0</ele><time>2026-03-31T14:03:26Z</time></trkpt><trkpt lat="44.1557548" lon="10.391558"><ele>493.20000000000005</ele><time>2026-03-31T14:03:29Z</time></trkpt><trkpt lat="44.1558359" lon="10.3915296"><ele>494.40000000000003</ele><time>2026-03-31T14:03:31.999Z</time></trkpt><trkpt lat="44.1559159" lon="10.3914849"><ele>495.59999999999997</ele><time>2026-03-31T14:03:35.101Z</time></trkpt><trkpt lat="44.1559953" lon="10.391441"><ele>496.79999999999995</ele><time>2026-03-31T14:03:38Z</time></trkpt><trkpt lat="44.1560915" lon="10.3913616"><ele>498.0</ele><time>2026-03-31T14:03:42Z</time></trkpt><trkpt lat="44.1561636" lon="10.3913054"><ele>498.1666666666667</ele><time>2026-03-31T14:03:45Z</time></trkpt><trkpt lat="44.1562372" lon="10.3912449"><ele>498.33333333333337</ele><time>2026-03-31T14:03:48Z</time></trkpt><trkpt lat="44.1563087" lon="10.3911887"><ele>498.5</ele><time>2026-03-31T14:03:50.999Z</time></trkpt><trkpt lat="44.156376" lon="10.3911294"><ele>498.6666666666667</ele><time>2026-03-31T14:03:53.999Z</time></trkpt><trkpt lat="44.1564476" lon="10.3910631"><ele>498.83333333333337</ele><time>2026-03-31T14:03:56.999Z</time></trkpt><trkpt lat="44.1565207" lon="10.3909961"><ele>499.0</ele><time>2026-03-31T14:04:00Z</time></trkpt><trkpt lat="44.1565896" lon="10.3909287"><ele>499.00000000000006</ele><time>2026-03-31T14:04:02.999Z</time></trkpt><trkpt lat="44.1566536" lon="10.3908608"><ele>499.0</ele><time>2026-03-31T14:04:06Z</time></trkpt><trkpt lat="44.1567132" lon="10.3907833"><ele>499.0</ele><time>2026-03-31T14:04:08.999Z</time></trkpt><trkpt lat="44.1568086" lon="10.3906927"><ele>499.0</ele><time>2026-03-31T14:04:13Z</time></trkpt><trkpt lat="44.1568764" lon="10.3906298"><ele>499.00000000000006</ele><time>2026-03-31T14:04:16Z</time></trkpt><trkpt lat="44.1569492" lon="10.3905616"><ele>499.0</ele><time>2026-03-31T14:04:19Z</time></trkpt><trkpt lat="44.1570186" lon="10.3904853"><ele>500.50000000000006</ele><time>2026-03-31T14:04:22Z</time></trkpt><trkpt lat="44.1570812" lon="10.3904156"><ele>502.0</ele><time>2026-03-31T14:04:25Z</time></trkpt><trkpt lat="44.1571411" lon="10.3903402"><ele>503.5</ele><time>2026-03-31T14:04:28Z</time></trkpt><trkpt lat="44.1572054" lon="10.3902632"><ele>505.0</ele><time>2026-03-31T14:04:31Z</time></trkpt><trkpt lat="44.1572687" lon="10.3901842"><ele>506.50000000000006</ele><time>2026-03-31T14:04:34.102Z</time></trkpt><trkpt lat="44.1573366" lon="10.3901053"><ele>508.0</ele><time>2026-03-31T14:04:37Z</time></trkpt><trkpt lat="44.1574019" lon="10.3900246"><ele>508.00000000000006</ele><time>2026-03-31T14:04:40Z</time></trkpt><trkpt lat="44.1574664" lon="10.3899417"><ele>508.0</ele><time>2026-03-31T14:04:43Z</time></trkpt><trkpt lat="44.1575444" lon="10.3898269"><ele>508.0</ele><time>2026-03-31T14:04:47Z</time></trkpt><trkpt lat="44.1575882" lon="10.3897561"><ele>508.0</ele><time>2026-03-31T14:04:49.999Z</time></trkpt><trkpt lat="44.1576468" lon="10.3896722"><ele>508.00000000000006</ele><time>2026-03-31T14:04:53Z</time></trkpt><trkpt lat="44.1576973" lon="10.3895899"><ele>508.0</ele><time>2026-03-31T14:04:56Z</time></trkpt><trkpt lat="44.1577545" lon="10.3895059"><ele>506.33333333333337</ele><time>2026-03-31T14:04:59Z</time></trkpt><trkpt lat="44.1578097" lon="10.3894273"><ele>504.6666666666667</ele><time>2026-03-31T14:05:02Z</time></trkpt><trkpt lat="44.1578676" lon="10.3893388"><ele>503.0</ele><time>2026-03-31T14:05:05Z</time></trkpt><trkpt lat="44.1579233" lon="10.3892523"><ele>501.33333333333337</ele><time>2026-03-31T14:05:08Z</time></trkpt><trkpt lat="44.1579793" lon="10.3891703"><ele>499.6666666666667</ele><time>2026-03-31T14:05:10.999Z</time></trkpt><trkpt lat="44.1580368" lon="10.3890841"><ele>498.0</ele><time>2026-03-31T14:05:13.999Z</time></trkpt><trkpt lat="44.158097" lon="10.3889973"><ele>498.0</ele><time>2026-03-31T14:05:17.103Z</time></trkpt><trkpt lat="44.1581571" lon="10.388904"><ele>498.0</ele><time>2026-03-31T14:05:19.999Z</time></trkpt><trkpt lat="44.1582195" lon="10.3888134"><ele>498.0</ele><time>2026-03-31T14:05:23Z</time></trkpt><trkpt lat="44.1582907" lon="10.3887389"><ele>498.0</ele><time>2026-03-31T14:05:26Z</time></trkpt><trkpt lat="44.1583709" lon="10.3886876"><ele>498.0</ele><time>2026-03-31T14:05:28.999Z</time></trkpt><trkpt lat="44.1584572" lon="10.3886476"><ele>498.0</ele><time>2026-03-31T14:05:32Z</time></trkpt><trkpt lat="44.1585682" lon="10.3886071"><ele>499.8333333333333</ele><time>2026-03-31T14:05:36Z</time></trkpt><trkpt lat="44.1586554" lon="10.3885817"><ele>501.66666666666663</ele><time>2026-03-31T14:05:39.111Z</time></trkpt><trkpt lat="44.1587414" lon="10.3885588"><ele>503.5</ele><time>2026-03-31T14:05:41.999Z</time></trkpt><trkpt lat="44.158804" lon="10.3885427"><ele>505.3333333333333</ele><time>2026-03-31T14:05:44Z</time></trkpt><trkpt lat="44.1588898" lon="10.3885243"><ele>507.16666666666663</ele><time>2026-03-31T14:05:47Z</time></trkpt><trkpt lat="44.1589828" lon="10.3884972"><ele>509.0</ele><time>2026-03-31T14:05:50Z</time></trkpt><trkpt lat="44.1590482" lon="10.3884818"><ele>511.2857142857142</ele><time>2026-03-31T14:05:52Z</time></trkpt><trkpt lat="44.1591184" lon="10.3884667"><ele>513.5714285714286</ele><time>2026-03-31T14:05:53.999Z</time></trkpt><trkpt lat="44.1591895" lon="10.3884497"><ele>515.8571428571429</ele><time>2026-03-31T14:05:56Z</time></trkpt><trkpt lat="44.159257" lon="10.3884254"><ele>518.1428571428571</ele><time>2026-03-31T14:05:57.999Z</time></trkpt><trkpt lat="44.1593277" lon="10.3884041"><ele>520.4285714285714</ele><time>2026-03-31T14:06:00.106Z</time></trkpt><trkpt lat="44.1594027" lon="10.3883868"><ele>522.7142857142857</ele><time>2026-03-31T14:06:02Z</time></trkpt><trkpt lat="44.15947" lon="10.3883722"><ele>525.0</ele><time>2026-03-31T14:06:03.999Z</time></trkpt><trkpt lat="44.1595401" lon="10.3883649"><ele>525.0</ele><time>2026-03-31T14:06:06.11Z</time></trkpt><trkpt lat="44.1596396" lon="10.3883669"><ele>525.0</ele><time>2026-03-31T14:06:09Z</time></trkpt><trkpt lat="44.1597242" lon="10.3883843"><ele>525.0</ele><time>2026-03-31T14:06:12Z</time></trkpt><trkpt lat="44.1598119" lon="10.388415"><ele>525.0</ele><time>2026-03-31T14:06:14.999Z</time></trkpt><trkpt lat="44.1598768" lon="10.3884356"><ele>525.0</ele><time>2026-03-31T14:06:17.111Z</time></trkpt><trkpt lat="44.1599389" lon="10.3884543"><ele>525.0</ele><time>2026-03-31T14:06:19Z</time></trkpt><trkpt lat="44.1600287" lon="10.3884888"><ele>525.3333333333334</ele><time>2026-03-31T14:06:22Z</time></trkpt><trkpt lat="44.1601174" lon="10.3885309"><ele>525.6666666666666</ele><time>2026-03-31T14:06:25Z</time></trkpt><trkpt lat="44.1601705" lon="10.3885953"><ele>526.0</ele><time>2026-03-31T14:06:27Z</time></trkpt><trkpt lat="44.1602442" lon="10.3886817"><ele>526.3333333333333</ele><time>2026-03-31T14:06:29Z</time></trkpt><trkpt lat="44.1602649" lon="10.3887754"><ele>526.6666666666666</ele><time>2026-03-31T14:06:31Z</time></trkpt><trkpt lat="44.1602873" lon="10.388868"><ele>527.0</ele><time>2026-03-31T14:06:32.999Z</time></trkpt><trkpt lat="44.1603115" lon="10.3889552"><ele>527.1428571428572</ele><time>2026-03-31T14:06:35Z</time></trkpt><trkpt lat="44.1603298" lon="10.3890498"><ele>527.2857142857143</ele><time>2026-03-31T14:06:37Z</time></trkpt><trkpt lat="44.1603563" lon="10.3891345"><ele>527.4285714285714</ele><time>2026-03-31T14:06:38.999Z</time></trkpt><trkpt lat="44.160383" lon="10.3892244"><ele>527.5714285714287</ele><time>2026-03-31T14:06:41Z</time></trkpt><trkpt lat="44.1604122" lon="10.3893222"><ele>527.7142857142858</ele><time>2026-03-31T14:06:43Z</time></trkpt><trkpt lat="44.1604422" lon="10.3894063"><ele>527.8571428571429</ele><time>2026-03-31T14:06:45Z</time></trkpt><trkpt lat="44.1604738" lon="10.3895258"><ele>528.0</ele><time>2026-03-31T14:06:48Z</time></trkpt><trkpt lat="44.1605044" lon="10.3896459"><ele>527.7142857142857</ele><time>2026-03-31T14:06:51.1Z</time></trkpt><trkpt lat="44.160532" lon="10.3897411"><ele>527.4285714285714</ele><time>2026-03-31T14:06:53Z</time></trkpt><trkpt lat="44.1605516" lon="10.3898324"><ele>527.1428571428571</ele><time>2026-03-31T14:06:54.999Z</time></trkpt><trkpt lat="44.1605687" lon="10.3899176"><ele>526.8571428571429</ele><time>2026-03-31T14:06:57Z</time></trkpt><trkpt lat="44.1605958" lon="10.3900436"><ele>526.5714285714286</ele><time>2026-03-31T14:07:00.103Z</time></trkpt><trkpt lat="44.160618" lon="10.390133"><ele>526.2857142857142</ele><time>2026-03-31T14:07:01.999Z</time></trkpt><trkpt lat="44.1606463" lon="10.3902179"><ele>526.0</ele><time>2026-03-31T14:07:04Z</time></trkpt><trkpt lat="44.1606688" lon="10.3903036"><ele>526.6666666666667</ele><time>2026-03-31T14:07:06Z</time></trkpt><trkpt lat="44.1607046" lon="10.3904245"><ele>527.3333333333334</ele><time>2026-03-31T14:07:08.999Z</time></trkpt><trkpt lat="44.1607349" lon="10.3905349"><ele>528.0</ele><time>2026-03-31T14:07:12Z</time></trkpt><trkpt lat="44.1607608" lon="10.3906461"><ele>528.6666666666666</ele><time>2026-03-31T14:07:14.999Z</time></trkpt><trkpt lat="44.1607817" lon="10.3907605"><ele>529.3333333333333</ele><time>2026-03-31T14:07:18.107Z</time></trkpt><trkpt lat="44.1608016" lon="10.3908445"><ele>530.0</ele><time>2026-03-31T14:07:19.999Z</time></trkpt><trkpt lat="44.1608241" lon="10.3909365"><ele>529.9999999999999</ele><time>2026-03-31T14:07:22Z</time></trkpt><trkpt lat="44.1608493" lon="10.3910204"><ele>530.0</ele><time>2026-03-31T14:07:23.999Z</time></trkpt><trkpt lat="44.1608769" lon="10.3911081"><ele>530.0</ele><time>2026-03-31T14:07:26Z</time></trkpt><trkpt lat="44.1609036" lon="10.3911934"><ele>530.0</ele><time>2026-03-31T14:07:28Z</time></trkpt><trkpt lat="44.1609287" lon="10.3912847"><ele>530.0</ele><time>2026-03-31T14:07:30Z</time></trkpt><trkpt lat="44.1609638" lon="10.3914074"><ele>529.9999999999999</ele><time>2026-03-31T14:07:33Z</time></trkpt><trkpt lat="44.1609911" lon="10.3914932"><ele>530.0</ele><time>2026-03-31T14:07:35Z</time></trkpt><trkpt lat="44.1610176" lon="10.3916005"><ele>529.8333333333333</ele><time>2026-03-31T14:07:37.11Z</time></trkpt><trkpt lat="44.1610457" lon="10.3917076"><ele>529.6666666666666</ele><time>2026-03-31T14:07:39.102Z</time></trkpt><trkpt lat="44.1610714" lon="10.3918065"><ele>529.5</ele><time>2026-03-31T14:07:41.165Z</time></trkpt><trkpt lat="44.1610964" lon="10.3919107"><ele>529.3333333333334</ele><time>2026-03-31T14:07:43Z</time></trkpt><trkpt lat="44.161121" lon="10.3920108"><ele>529.1666666666667</ele><time>2026-03-31T14:07:45Z</time></trkpt><trkpt lat="44.1611609" lon="10.3921308"><ele>529.0</ele><time>2026-03-31T14:07:48Z</time></trkpt><trkpt lat="44.1611876" lon="10.3922242"><ele>529.0</ele><time>2026-03-31T14:07:49.999Z</time></trkpt><trkpt lat="44.1612119" lon="10.3923258"><ele>529.0</ele><time>2026-03-31T14:07:52Z</time></trkpt><trkpt lat="44.1612326" lon="10.3924219"><ele>529.0</ele><time>2026-03-31T14:07:54Z</time></trkpt><trkpt lat="44.1612529" lon="10.3925235"><ele>529.0</ele><time>2026-03-31T14:07:56Z</time></trkpt><trkpt lat="44.1612776" lon="10.3926209"><ele>529.0</ele><time>2026-03-31T14:07:57.999Z</time></trkpt><trkpt lat="44.1612964" lon="10.3927195"><ele>529.0</ele><time>2026-03-31T14:08:00Z</time></trkpt><trkpt lat="44.1613188" lon="10.3928236"><ele>529.0</ele><time>2026-03-31T14:08:02Z</time></trkpt><trkpt lat="44.1613395" lon="10.3929278"><ele>529.0</ele><time>2026-03-31T14:08:04Z</time></trkpt><trkpt lat="44.1613608" lon="10.3930271"><ele>529.0</ele><time>2026-03-31T14:08:06Z</time></trkpt><trkpt lat="44.1613848" lon="10.3931293"><ele>529.0</ele><time>2026-03-31T14:08:08Z</time></trkpt><trkpt lat="44.1614116" lon="10.3932329"><ele>529.0</ele><time>2026-03-31T14:08:10Z</time></trkpt><trkpt lat="44.1614335" lon="10.3933284"><ele>529.0</ele><time>2026-03-31T14:08:11.999Z</time></trkpt><trkpt lat="44.1614657" lon="10.3934508"><ele>528.1428571428571</ele><time>2026-03-31T14:08:15Z</time></trkpt><trkpt lat="44.1614882" lon="10.3935409"><ele>527.2857142857142</ele><time>2026-03-31T14:08:17Z</time></trkpt><trkpt lat="44.1615057" lon="10.3936366"><ele>526.4285714285713</ele><time>2026-03-31T14:08:18.999Z</time></trkpt><trkpt lat="44.161527" lon="10.3937355"><ele>525.5714285714286</ele><time>2026-03-31T14:08:20.999Z</time></trkpt><trkpt lat="44.1615555" lon="10.3938301"><ele>524.7142857142857</ele><time>2026-03-31T14:08:23Z</time></trkpt><trkpt lat="44.1615803" lon="10.3939271"><ele>523.8571428571428</ele><time>2026-03-31T14:08:25Z</time></trkpt><trkpt lat="44.1616005" lon="10.3940127"><ele>523.0</ele><time>2026-03-31T14:08:27Z</time></trkpt><trkpt lat="44.1616231" lon="10.3941022"><ele>524.7142857142857</ele><time>2026-03-31T14:08:29Z</time></trkpt><trkpt lat="44.1616481" lon="10.3942019"><ele>526.4285714285714</ele><time>2026-03-31T14:08:30.999Z</time></trkpt><trkpt lat="44.1616677" lon="10.3942916"><ele>528.1428571428571</ele><time>2026-03-31T14:08:33Z</time></trkpt><trkpt lat="44.16169" lon="10.3943758"><ele>529.8571428571429</ele><time>2026-03-31T14:08:34.999Z</time></trkpt><trkpt lat="44.1617162" lon="10.3944757"><ele>531.5714285714286</ele><time>2026-03-31T14:08:37.002Z</time></trkpt><trkpt lat="44.1617491" lon="10.3945734"><ele>533.2857142857142</ele><time>2026-03-31T14:08:39.037Z</time></trkpt><trkpt lat="44.1617758" lon="10.3946739"><ele>535.0</ele><time>2026-03-31T14:08:41Z</time></trkpt><trkpt lat="44.161801" lon="10.3947776"><ele>535.0</ele><time>2026-03-31T14:08:42.999Z</time></trkpt><trkpt lat="44.1618293" lon="10.3948805"><ele>535.0</ele><time>2026-03-31T14:08:45.028Z</time></trkpt><trkpt lat="44.1618526" lon="10.3949813"><ele>535.0</ele><time>2026-03-31T14:08:47.064Z</time></trkpt><trkpt lat="44.1618789" lon="10.3950703"><ele>535.0</ele><time>2026-03-31T14:08:49.107Z</time></trkpt><trkpt lat="44.1618967" lon="10.3951554"><ele>535.0</ele><time>2026-03-31T14:08:51.022Z</time></trkpt><trkpt lat="44.1619085" lon="10.395246"><ele>535.0</ele><time>2026-03-31T14:08:52.999Z</time></trkpt><trkpt lat="44.1619251" lon="10.3953544"><ele>535.0</ele><time>2026-03-31T14:08:55Z</time></trkpt><trkpt lat="44.1619226" lon="10.395459"><ele>534.8333333333334</ele><time>2026-03-31T14:08:57Z</time></trkpt><trkpt lat="44.1618949" lon="10.3955708"><ele>534.6666666666667</ele><time>2026-03-31T14:08:58.999Z</time></trkpt><trkpt lat="44.1618472" lon="10.3956598"><ele>534.5</ele><time>2026-03-31T14:09:01Z</time></trkpt><trkpt lat="44.1617824" lon="10.3957194"><ele>534.3333333333334</ele><time>2026-03-31T14:09:03Z</time></trkpt><trkpt lat="44.1617197" lon="10.3957535"><ele>534.1666666666666</ele><time>2026-03-31T14:09:04.999Z</time></trkpt><trkpt lat="44.1616417" lon="10.3958014"><ele>534.0</ele><time>2026-03-31T14:09:07.999Z</time></trkpt><trkpt lat="44.1615563" lon="10.3958313"><ele>534.6666666666666</ele><time>2026-03-31T14:09:10.999Z</time></trkpt><trkpt lat="44.1614621" lon="10.3958214"><ele>535.3333333333334</ele><time>2026-03-31T14:09:13.999Z</time></trkpt><trkpt lat="44.1613781" lon="10.3957931"><ele>536.0</ele><time>2026-03-31T14:09:17Z</time></trkpt><trkpt lat="44.161307" lon="10.3957585"><ele>536.6666666666667</ele><time>2026-03-31T14:09:20Z</time></trkpt><trkpt lat="44.161235" lon="10.3957239"><ele>537.3333333333334</ele><time>2026-03-31T14:09:23Z</time></trkpt><trkpt lat="44.1611582" lon="10.3956885"><ele>538.0</ele><time>2026-03-31T14:09:26Z</time></trkpt><trkpt lat="44.1610756" lon="10.3956449"><ele>538.0</ele><time>2026-03-31T14:09:29Z</time></trkpt><trkpt lat="44.1610003" lon="10.3956151"><ele>538.0</ele><time>2026-03-31T14:09:32Z</time></trkpt><trkpt lat="44.1609228" lon="10.3955656"><ele>538.0</ele><time>2026-03-31T14:09:35.1Z</time></trkpt><trkpt lat="44.1608387" lon="10.3955194"><ele>538.0</ele><time>2026-03-31T14:09:38.121Z</time></trkpt><trkpt lat="44.1607546" lon="10.3954802"><ele>538.0</ele><time>2026-03-31T14:09:41Z</time></trkpt><trkpt lat="44.1606734" lon="10.3954547"><ele>538.0</ele><time>2026-03-31T14:09:44Z</time></trkpt><trkpt lat="44.1605889" lon="10.3954416"><ele>538.0</ele><time>2026-03-31T14:09:46.999Z</time></trkpt><trkpt lat="44.1605038" lon="10.3954525"><ele>538.0</ele><time>2026-03-31T14:09:50Z</time></trkpt><trkpt lat="44.1604207" lon="10.395487"><ele>538.0</ele><time>2026-03-31T14:09:53Z</time></trkpt><trkpt lat="44.1603441" lon="10.3955391"><ele>538.0</ele><time>2026-03-31T14:09:56Z</time></trkpt><trkpt lat="44.1602802" lon="10.3956158"><ele>538.0</ele><time>2026-03-31T14:09:59Z</time></trkpt><trkpt lat="44.1602299" lon="10.3957149"><ele>538.0</ele><time>2026-03-31T14:10:01.999Z</time></trkpt><trkpt lat="44.160181" lon="10.3958219"><ele>538.0</ele><time>2026-03-31T14:10:05Z</time></trkpt><trkpt lat="44.1601482" lon="10.3959025"><ele>538.0</ele><time>2026-03-31T14:10:07Z</time></trkpt><trkpt lat="44.1601204" lon="10.3959882"><ele>538.0</ele><time>2026-03-31T14:10:09Z</time></trkpt><trkpt lat="44.1600945" lon="10.396073"><ele>538.0</ele><time>2026-03-31T14:10:10.999Z</time></trkpt><trkpt lat="44.1600675" lon="10.3961562"><ele>538.0</ele><time>2026-03-31T14:10:13Z</time></trkpt><trkpt lat="44.1600383" lon="10.3962412"><ele>538.0</ele><time>2026-03-31T14:10:15Z</time></trkpt><trkpt lat="44.1600042" lon="10.3963174"><ele>538.0</ele><time>2026-03-31T14:10:17Z</time></trkpt><trkpt lat="44.1599693" lon="10.3963918"><ele>538.5714285714286</ele><time>2026-03-31T14:10:19.102Z</time></trkpt><trkpt lat="44.1599409" lon="10.396478"><ele>539.1428571428572</ele><time>2026-03-31T14:10:21Z</time></trkpt><trkpt lat="44.1599137" lon="10.3965638"><ele>539.7142857142858</ele><time>2026-03-31T14:10:23Z</time></trkpt><trkpt lat="44.1598871" lon="10.3966476"><ele>540.2857142857143</ele><time>2026-03-31T14:10:25Z</time></trkpt><trkpt lat="44.1598606" lon="10.3967293"><ele>540.8571428571429</ele><time>2026-03-31T14:10:27Z</time></trkpt><trkpt lat="44.1598328" lon="10.3968084"><ele>541.4285714285714</ele><time>2026-03-31T14:10:29Z</time></trkpt><trkpt lat="44.1597856" lon="10.3969216"><ele>542.0</ele><time>2026-03-31T14:10:32Z</time></trkpt><trkpt lat="44.1597572" lon="10.3970042"><ele>542.0</ele><time>2026-03-31T14:10:34Z</time></trkpt><trkpt lat="44.1597131" lon="10.3971332"><ele>542.0</ele><time>2026-03-31T14:10:36.999Z</time></trkpt><trkpt lat="44.1596905" lon="10.3972219"><ele>542.0</ele><time>2026-03-31T14:10:39Z</time></trkpt><trkpt lat="44.159652" lon="10.3973443"><ele>542.0</ele><time>2026-03-31T14:10:42Z</time></trkpt><trkpt lat="44.1596249" lon="10.3974259"><ele>542.0</ele><time>2026-03-31T14:10:44Z</time></trkpt><trkpt lat="44.1595969" lon="10.3975097"><ele>542.0</ele><time>2026-03-31T14:10:46Z</time></trkpt><trkpt lat="44.1595725" lon="10.3975986"><ele>542.4285714285714</ele><time>2026-03-31T14:10:47.999Z</time></trkpt><trkpt lat="44.1595564" lon="10.3976871"><ele>542.8571428571429</ele><time>2026-03-31T14:10:49.999Z</time></trkpt><trkpt lat="44.1595591" lon="10.3977832"><ele>543.2857142857143</ele><time>2026-03-31T14:10:52Z</time></trkpt><trkpt lat="44.1595649" lon="10.3978725"><ele>543.7142857142858</ele><time>2026-03-31T14:10:54.109Z</time></trkpt><trkpt lat="44.1595691" lon="10.3979601"><ele>544.1428571428572</ele><time>2026-03-31T14:10:55.999Z</time></trkpt><trkpt lat="44.1595779" lon="10.3980484"><ele>544.5714285714286</ele><time>2026-03-31T14:10:57.999Z</time></trkpt><trkpt lat="44.1595855" lon="10.3981675"><ele>545.0</ele><time>2026-03-31T14:11:01Z</time></trkpt><trkpt lat="44.15959" lon="10.3982914"><ele>545.1666666666666</ele><time>2026-03-31T14:11:04Z</time></trkpt><trkpt lat="44.1596136" lon="10.3984209"><ele>545.3333333333333</ele><time>2026-03-31T14:11:07Z</time></trkpt><trkpt lat="44.1596662" lon="10.3985438"><ele>545.5</ele><time>2026-03-31T14:11:10Z</time></trkpt><trkpt lat="44.1597068" lon="10.3986231"><ele>545.6666666666666</ele><time>2026-03-31T14:11:12Z</time></trkpt><trkpt lat="44.1597462" lon="10.3987046"><ele>545.8333333333334</ele><time>2026-03-31T14:11:14.103Z</time></trkpt><trkpt lat="44.1597849" lon="10.3987862"><ele>546.0</ele><time>2026-03-31T14:11:16Z</time></trkpt><trkpt lat="44.1598276" lon="10.3988678"><ele>546.0</ele><time>2026-03-31T14:11:18Z</time></trkpt><trkpt lat="44.159861" lon="10.3989482"><ele>546.0</ele><time>2026-03-31T14:11:20Z</time></trkpt><trkpt lat="44.1598985" lon="10.3990303"><ele>546.0</ele><time>2026-03-31T14:11:22Z</time></trkpt><trkpt lat="44.1599422" lon="10.3991098"><ele>546.0</ele><time>2026-03-31T14:11:23.999Z</time></trkpt><trkpt lat="44.1599815" lon="10.39919"><ele>546.0</ele><time>2026-03-31T14:11:26Z</time></trkpt><trkpt lat="44.1600373" lon="10.3993106"><ele>546.0</ele><time>2026-03-31T14:11:29Z</time></trkpt><trkpt lat="44.1600805" lon="10.3993841"><ele>546.0</ele><time>2026-03-31T14:11:31Z</time></trkpt><trkpt lat="44.160133" lon="10.3994436"><ele>546.0</ele><time>2026-03-31T14:11:33Z</time></trkpt><trkpt lat="44.1601903" lon="10.3994922"><ele>546.0</ele><time>2026-03-31T14:11:35Z</time></trkpt><trkpt lat="44.1602794" lon="10.3995544"><ele>546.0</ele><time>2026-03-31T14:11:38.101Z</time></trkpt><trkpt lat="44.1603402" lon="10.3995828"><ele>546.0</ele><time>2026-03-31T14:11:40Z</time></trkpt><trkpt lat="44.1604364" lon="10.399633"><ele>546.0</ele><time>2026-03-31T14:11:43Z</time></trkpt><trkpt lat="44.1605032" lon="10.399661"><ele>546.0</ele><time>2026-03-31T14:11:44.999Z</time></trkpt><trkpt lat="44.1605703" lon="10.3996823"><ele>546.3333333333334</ele><time>2026-03-31T14:11:47Z</time></trkpt><trkpt lat="44.1606605" lon="10.3997121"><ele>546.6666666666666</ele><time>2026-03-31T14:11:50Z</time></trkpt><trkpt lat="44.160753" lon="10.3997204"><ele>547.0</ele><time>2026-03-31T14:11:53Z</time></trkpt><trkpt lat="44.1608177" lon="10.3997164"><ele>547.3333333333333</ele><time>2026-03-31T14:11:55Z</time></trkpt><trkpt lat="44.1608851" lon="10.399711"><ele>547.6666666666666</ele><time>2026-03-31T14:11:57Z</time></trkpt><trkpt lat="44.1609516" lon="10.3997019"><ele>548.0</ele><time>2026-03-31T14:11:59.099Z</time></trkpt><trkpt lat="44.1610207" lon="10.3996873"><ele>549.6666666666666</ele><time>2026-03-31T14:12:01Z</time></trkpt><trkpt lat="44.1611455" lon="10.3996606"><ele>551.3333333333333</ele><time>2026-03-31T14:12:05Z</time></trkpt><trkpt lat="44.161208" lon="10.3996475"><ele>553.0</ele><time>2026-03-31T14:12:06.999Z</time></trkpt><trkpt lat="44.1612917" lon="10.3996316"><ele>554.6666666666666</ele><time>2026-03-31T14:12:10Z</time></trkpt><trkpt lat="44.1613622" lon="10.3996154"><ele>556.3333333333334</ele><time>2026-03-31T14:12:13Z</time></trkpt><trkpt lat="44.1614474" lon="10.3995887"><ele>558.0</ele><time>2026-03-31T14:12:15.999Z</time></trkpt><trkpt lat="44.1615354" lon="10.3995741"><ele>558.8571428571428</ele><time>2026-03-31T14:12:19Z</time></trkpt><trkpt lat="44.1615998" lon="10.3995665"><ele>559.7142857142857</ele><time>2026-03-31T14:12:21Z</time></trkpt><trkpt lat="44.1616733" lon="10.3995648"><ele>560.5714285714286</ele><time>2026-03-31T14:12:23Z</time></trkpt><trkpt lat="44.1617486" lon="10.3995806"><ele>561.4285714285713</ele><time>2026-03-31T14:12:25Z</time></trkpt><trkpt lat="44.1618187" lon="10.3996061"><ele>562.2857142857142</ele><time>2026-03-31T14:12:27Z</time></trkpt><trkpt lat="44.1618811" lon="10.3996467"><ele>563.1428571428571</ele><time>2026-03-31T14:12:29Z</time></trkpt><trkpt lat="44.1619374" lon="10.3997078"><ele>564.0</ele><time>2026-03-31T14:12:30.999Z</time></trkpt><trkpt lat="44.1619884" lon="10.3997727"><ele>562.0</ele><time>2026-03-31T14:12:33Z</time></trkpt><trkpt lat="44.162037" lon="10.3998377"><ele>560.0</ele><time>2026-03-31T14:12:35Z</time></trkpt><trkpt lat="44.1620901" lon="10.3999059"><ele>558.0</ele><time>2026-03-31T14:12:37Z</time></trkpt><trkpt lat="44.1621448" lon="10.3999726"><ele>556.0</ele><time>2026-03-31T14:12:38.999Z</time></trkpt><trkpt lat="44.1622001" lon="10.4000414"><ele>554.0</ele><time>2026-03-31T14:12:41Z</time></trkpt><trkpt lat="44.1622503" lon="10.4001029"><ele>552.0</ele><time>2026-03-31T14:12:43Z</time></trkpt><trkpt lat="44.1622947" lon="10.4001681"><ele>550.0</ele><time>2026-03-31T14:12:45Z</time></trkpt><trkpt lat="44.1623387" lon="10.4002399"><ele>550.8333333333334</ele><time>2026-03-31T14:12:47Z</time></trkpt><trkpt lat="44.16238" lon="10.4003162"><ele>551.6666666666667</ele><time>2026-03-31T14:12:49Z</time></trkpt><trkpt lat="44.1624054" lon="10.400404"><ele>552.5</ele><time>2026-03-31T14:12:51Z</time></trkpt><trkpt lat="44.1624101" lon="10.4005073"><ele>553.3333333333334</ele><time>2026-03-31T14:12:52.999Z</time></trkpt><trkpt lat="44.1623912" lon="10.4006043"><ele>554.1666666666666</ele><time>2026-03-31T14:12:54.999Z</time></trkpt><trkpt lat="44.1623278" lon="10.400719"><ele>555.0</ele><time>2026-03-31T14:12:57.999Z</time></trkpt><trkpt lat="44.162264" lon="10.4007724"><ele>555.0</ele><time>2026-03-31T14:13:00Z</time></trkpt><trkpt lat="44.1621978" lon="10.4007965"><ele>555.0</ele><time>2026-03-31T14:13:02Z</time></trkpt><trkpt lat="44.1621034" lon="10.4008345"><ele>555.0</ele><time>2026-03-31T14:13:05Z</time></trkpt><trkpt lat="44.1620397" lon="10.4008617"><ele>555.0</ele><time>2026-03-31T14:13:07Z</time></trkpt><trkpt lat="44.1619739" lon="10.400892"><ele>555.0</ele><time>2026-03-31T14:13:08.999Z</time></trkpt><trkpt lat="44.1619095" lon="10.4009266"><ele>555.0</ele><time>2026-03-31T14:13:11Z</time></trkpt><trkpt lat="44.1618264" lon="10.4009963"><ele>555.0000000000001</ele><time>2026-03-31T14:13:14Z</time></trkpt><trkpt lat="44.1617775" lon="10.4010623"><ele>555.0</ele><time>2026-03-31T14:13:16Z</time></trkpt><trkpt lat="44.1617367" lon="10.4011425"><ele>555.0</ele><time>2026-03-31T14:13:18Z</time></trkpt><trkpt lat="44.1617009" lon="10.4012264"><ele>555.0</ele><time>2026-03-31T14:13:19.999Z</time></trkpt><trkpt lat="44.1616672" lon="10.4013116"><ele>555.0</ele><time>2026-03-31T14:13:22Z</time></trkpt><trkpt lat="44.1616356" lon="10.4013992"><ele>555.0000000000001</ele><time>2026-03-31T14:13:24Z</time></trkpt><trkpt lat="44.16161" lon="10.401488"><ele>555.0</ele><time>2026-03-31T14:13:26Z</time></trkpt><trkpt lat="44.1615841" lon="10.4015782"><ele>554.0000000000001</ele><time>2026-03-31T14:13:28Z</time></trkpt><trkpt lat="44.1615515" lon="10.4016625"><ele>553.0</ele><time>2026-03-31T14:13:30Z</time></trkpt><trkpt lat="44.1615186" lon="10.4017475"><ele>552.0</ele><time>2026-03-31T14:13:32Z</time></trkpt><trkpt lat="44.1614808" lon="10.4018288"><ele>551.0</ele><time>2026-03-31T14:13:34Z</time></trkpt><trkpt lat="44.1614332" lon="10.4019077"><ele>550.0</ele><time>2026-03-31T14:13:35.999Z</time></trkpt><trkpt lat="44.1613896" lon="10.4019838"><ele>549.0000000000001</ele><time>2026-03-31T14:13:38Z</time></trkpt><trkpt lat="44.161342" lon="10.4020518"><ele>548.0</ele><time>2026-03-31T14:13:39.999Z</time></trkpt><trkpt lat="44.1612923" lon="10.4021189"><ele>550.5714285714287</ele><time>2026-03-31T14:13:41.999Z</time></trkpt><trkpt lat="44.1612488" lon="10.402184"><ele>553.1428571428571</ele><time>2026-03-31T14:13:44Z</time></trkpt><trkpt lat="44.1611975" lon="10.4022462"><ele>555.7142857142858</ele><time>2026-03-31T14:13:46Z</time></trkpt><trkpt lat="44.1611403" lon="10.4022999"><ele>558.2857142857143</ele><time>2026-03-31T14:13:47.999Z</time></trkpt><trkpt lat="44.1610606" lon="10.4023936"><ele>560.8571428571429</ele><time>2026-03-31T14:13:51Z</time></trkpt><trkpt lat="44.1610145" lon="10.4024566"><ele>563.4285714285714</ele><time>2026-03-31T14:13:53Z</time></trkpt><trkpt lat="44.1609664" lon="10.4025212"><ele>566.0</ele><time>2026-03-31T14:13:54.999Z</time></trkpt><trkpt lat="44.1609169" lon="10.4025864"><ele>566.0</ele><time>2026-03-31T14:13:57Z</time></trkpt><trkpt lat="44.1608683" lon="10.4026487"><ele>566.0</ele><time>2026-03-31T14:13:58.999Z</time></trkpt><trkpt lat="44.1608156" lon="10.4027121"><ele>566.0</ele><time>2026-03-31T14:14:00.999Z</time></trkpt><trkpt lat="44.1607637" lon="10.402782"><ele>566.0</ele><time>2026-03-31T14:14:03Z</time></trkpt><trkpt lat="44.1607139" lon="10.4028439"><ele>566.0</ele><time>2026-03-31T14:14:05Z</time></trkpt><trkpt lat="44.1606518" lon="10.4029293"><ele>566.0</ele><time>2026-03-31T14:14:07.999Z</time></trkpt><trkpt lat="44.1605984" lon="10.4030262"><ele>566.0</ele><time>2026-03-31T14:14:11Z</time></trkpt><trkpt lat="44.1605517" lon="10.403101"><ele>565.8571428571429</ele><time>2026-03-31T14:14:12.999Z</time></trkpt><trkpt lat="44.1605068" lon="10.4031809"><ele>565.7142857142858</ele><time>2026-03-31T14:14:14.999Z</time></trkpt><trkpt lat="44.1604526" lon="10.4032552"><ele>565.5714285714286</ele><time>2026-03-31T14:14:16.999Z</time></trkpt><trkpt lat="44.160398" lon="10.4033203"><ele>565.4285714285714</ele><time>2026-03-31T14:14:18.999Z</time></trkpt><trkpt lat="44.1603354" lon="10.4033666"><ele>565.2857142857142</ele><time>2026-03-31T14:14:21Z</time></trkpt><trkpt lat="44.1602644" lon="10.4033991"><ele>565.1428571428571</ele><time>2026-03-31T14:14:23Z</time></trkpt><trkpt lat="44.160193" lon="10.4034252"><ele>565.0</ele><time>2026-03-31T14:14:25Z</time></trkpt><trkpt lat="44.1601204" lon="10.403441"><ele>564.9999999999999</ele><time>2026-03-31T14:14:27.11Z</time></trkpt><trkpt lat="44.1600477" lon="10.4034574"><ele>565.0</ele><time>2026-03-31T14:14:28.999Z</time></trkpt><trkpt lat="44.1599755" lon="10.4034785"><ele>565.0</ele><time>2026-03-31T14:14:30.999Z</time></trkpt><trkpt lat="44.1599035" lon="10.4034998"><ele>565.0</ele><time>2026-03-31T14:14:33Z</time></trkpt><trkpt lat="44.1598282" lon="10.4035167"><ele>565.0</ele><time>2026-03-31T14:14:35Z</time></trkpt><trkpt lat="44.1597524" lon="10.4035272"><ele>564.9999999999999</ele><time>2026-03-31T14:14:37Z</time></trkpt><trkpt lat="44.1596847" lon="10.4035484"><ele>565.0</ele><time>2026-03-31T14:14:38.999Z</time></trkpt><trkpt lat="44.1595778" lon="10.4035936"><ele>565.1666666666667</ele><time>2026-03-31T14:14:41.999Z</time></trkpt><trkpt lat="44.1595118" lon="10.4036337"><ele>565.3333333333334</ele><time>2026-03-31T14:14:43.999Z</time></trkpt><trkpt lat="44.1594562" lon="10.4036794"><ele>565.5</ele><time>2026-03-31T14:14:46Z</time></trkpt><trkpt lat="44.1594047" lon="10.4037411"><ele>565.6666666666666</ele><time>2026-03-31T14:14:48Z</time></trkpt><trkpt lat="44.1593457" lon="10.4038364"><ele>565.8333333333333</ele><time>2026-03-31T14:14:51Z</time></trkpt><trkpt lat="44.1592938" lon="10.4039261"><ele>566.0</ele><time>2026-03-31T14:14:53Z</time></trkpt><trkpt lat="44.1592407" lon="10.4040084"><ele>566.0</ele><time>2026-03-31T14:14:55Z</time></trkpt><trkpt lat="44.1591943" lon="10.4040759"><ele>566.0</ele><time>2026-03-31T14:14:57Z</time></trkpt><trkpt lat="44.159145" lon="10.4041541"><ele>566.0</ele><time>2026-03-31T14:14:58.999Z</time></trkpt><trkpt lat="44.159101" lon="10.4042404"><ele>566.0</ele><time>2026-03-31T14:15:00.999Z</time></trkpt><trkpt lat="44.1590537" lon="10.4043337"><ele>566.0</ele><time>2026-03-31T14:15:03Z</time></trkpt><trkpt lat="44.1590012" lon="10.4044217"><ele>566.0</ele><time>2026-03-31T14:15:04.999Z</time></trkpt><trkpt lat="44.1589553" lon="10.4045049"><ele>563.8333333333333</ele><time>2026-03-31T14:15:07Z</time></trkpt><trkpt lat="44.1588859" lon="10.4046271"><ele>561.6666666666666</ele><time>2026-03-31T14:15:10Z</time></trkpt><trkpt lat="44.1588339" lon="10.4047224"><ele>559.5</ele><time>2026-03-31T14:15:11.999Z</time></trkpt><trkpt lat="44.1587843" lon="10.4048178"><ele>557.3333333333334</ele><time>2026-03-31T14:15:14.101Z</time></trkpt><trkpt lat="44.1587461" lon="10.4049114"><ele>555.1666666666667</ele><time>2026-03-31T14:15:16Z</time></trkpt><trkpt lat="44.1586962" lon="10.4050113"><ele>553.0</ele><time>2026-03-31T14:15:18Z</time></trkpt><trkpt lat="44.1586451" lon="10.4051086"><ele>553.0</ele><time>2026-03-31T14:15:20Z</time></trkpt><trkpt lat="44.1585967" lon="10.4052107"><ele>553.0</ele><time>2026-03-31T14:15:22Z</time></trkpt><trkpt lat="44.1585459" lon="10.405318"><ele>553.0</ele><time>2026-03-31T14:15:24Z</time></trkpt><trkpt lat="44.1584926" lon="10.4054127"><ele>553.0</ele><time>2026-03-31T14:15:26Z</time></trkpt><trkpt lat="44.1584534" lon="10.4055164"><ele>553.0</ele><time>2026-03-31T14:15:28Z</time></trkpt><trkpt lat="44.158424" lon="10.4056093"><ele>553.0</ele><time>2026-03-31T14:15:30Z</time></trkpt><trkpt lat="44.1583977" lon="10.4057124"><ele>553.2857142857143</ele><time>2026-03-31T14:15:32Z</time></trkpt><trkpt lat="44.1583794" lon="10.4058154"><ele>553.5714285714286</ele><time>2026-03-31T14:15:34.106Z</time></trkpt><trkpt lat="44.1583759" lon="10.405925"><ele>553.8571428571429</ele><time>2026-03-31T14:15:36Z</time></trkpt><trkpt lat="44.1583821" lon="10.4060269"><ele>554.1428571428571</ele><time>2026-03-31T14:15:38.106Z</time></trkpt><trkpt lat="44.1583997" lon="10.4061268"><ele>554.4285714285714</ele><time>2026-03-31T14:15:40Z</time></trkpt><trkpt lat="44.1584239" lon="10.4062286"><ele>554.7142857142858</ele><time>2026-03-31T14:15:42Z</time></trkpt><trkpt lat="44.1584483" lon="10.4063153"><ele>555.0</ele><time>2026-03-31T14:15:44Z</time></trkpt><trkpt lat="44.1584789" lon="10.4064138"><ele>555.0</ele><time>2026-03-31T14:15:46Z</time></trkpt><trkpt lat="44.1585369" lon="10.4065686"><ele>555.0</ele><time>2026-03-31T14:15:48.999Z</time></trkpt><trkpt lat="44.1585825" lon="10.4066773"><ele>555.0</ele><time>2026-03-31T14:15:50.999Z</time></trkpt><trkpt lat="44.1586244" lon="10.4067755"><ele>555.0</ele><time>2026-03-31T14:15:53Z</time></trkpt><trkpt lat="44.1586616" lon="10.4068719"><ele>555.0</ele><time>2026-03-31T14:15:54.999Z</time></trkpt><trkpt lat="44.1586985" lon="10.4069651"><ele>555.0</ele><time>2026-03-31T14:15:57Z</time></trkpt><trkpt lat="44.158737" lon="10.4070586"><ele>555.0</ele><time>2026-03-31T14:15:59Z</time></trkpt><trkpt lat="44.1587783" lon="10.4071568"><ele>555.0</ele><time>2026-03-31T14:16:01Z</time></trkpt><trkpt lat="44.1588193" lon="10.4072566"><ele>555.0</ele><time>2026-03-31T14:16:02.999Z</time></trkpt><trkpt lat="44.1588559" lon="10.4073526"><ele>555.0</ele><time>2026-03-31T14:16:05Z</time></trkpt><trkpt lat="44.1588926" lon="10.4074526"><ele>555.0</ele><time>2026-03-31T14:16:07Z</time></trkpt><trkpt lat="44.1589287" lon="10.4075477"><ele>553.8333333333334</ele><time>2026-03-31T14:16:09Z</time></trkpt><trkpt lat="44.15897" lon="10.4076377"><ele>552.6666666666666</ele><time>2026-03-31T14:16:11.1Z</time></trkpt><trkpt lat="44.1590139" lon="10.4077261"><ele>551.5</ele><time>2026-03-31T14:16:12.999Z</time></trkpt><trkpt lat="44.1590592" lon="10.4078094"><ele>550.3333333333333</ele><time>2026-03-31T14:16:15.113Z</time></trkpt><trkpt lat="44.1591043" lon="10.4078892"><ele>549.1666666666666</ele><time>2026-03-31T14:16:17Z</time></trkpt><trkpt lat="44.1591567" lon="10.4079632"><ele>548.0</ele><time>2026-03-31T14:16:19Z</time></trkpt><trkpt lat="44.1592134" lon="10.4080309"><ele>550.8571428571429</ele><time>2026-03-31T14:16:21Z</time></trkpt><trkpt lat="44.1592699" lon="10.4080958"><ele>553.7142857142858</ele><time>2026-03-31T14:16:23Z</time></trkpt><trkpt lat="44.1593254" lon="10.4081621"><ele>556.5714285714286</ele><time>2026-03-31T14:16:25Z</time></trkpt><trkpt lat="44.1593775" lon="10.4082273"><ele>559.4285714285714</ele><time>2026-03-31T14:16:27Z</time></trkpt><trkpt lat="44.1594206" lon="10.4083092"><ele>562.2857142857142</ele><time>2026-03-31T14:16:29Z</time></trkpt><trkpt lat="44.1594461" lon="10.4083917"><ele>565.1428571428571</ele><time>2026-03-31T14:16:31.103Z</time></trkpt><trkpt lat="44.1594686" lon="10.4085121"><ele>568.0</ele><time>2026-03-31T14:16:34Z</time></trkpt><trkpt lat="44.1594337" lon="10.4086174"><ele>568.0</ele><time>2026-03-31T14:16:37Z</time></trkpt><trkpt lat="44.159368" lon="10.4086845"><ele>568.0</ele><time>2026-03-31T14:16:40Z</time></trkpt><trkpt lat="44.1592881" lon="10.408736"><ele>568.0</ele><time>2026-03-31T14:16:43Z</time></trkpt><trkpt lat="44.1592031" lon="10.408758"><ele>568.0</ele><time>2026-03-31T14:16:45.999Z</time></trkpt><trkpt lat="44.1591245" lon="10.4087489"><ele>568.0</ele><time>2026-03-31T14:16:48.999Z</time></trkpt><trkpt lat="44.1590532" lon="10.4087388"><ele>568.0</ele><time>2026-03-31T14:16:52Z</time></trkpt><trkpt lat="44.1589752" lon="10.4087391"><ele>568.0</ele><time>2026-03-31T14:16:55Z</time></trkpt><trkpt lat="44.1588933" lon="10.4087315"><ele>568.0</ele><time>2026-03-31T14:16:57.999Z</time></trkpt><trkpt lat="44.1588064" lon="10.4087171"><ele>568.0</ele><time>2026-03-31T14:17:01Z</time></trkpt><trkpt lat="44.1587275" lon="10.4086909"><ele>568.0</ele><time>2026-03-31T14:17:04Z</time></trkpt><trkpt lat="44.1586564" lon="10.4086559"><ele>568.0</ele><time>2026-03-31T14:17:06.999Z</time></trkpt><trkpt lat="44.1585957" lon="10.4086292"><ele>568.0</ele><time>2026-03-31T14:17:10Z</time></trkpt><trkpt lat="44.1585297" lon="10.4085937"><ele>568.0</ele><time>2026-03-31T14:17:12.999Z</time></trkpt><trkpt lat="44.1584697" lon="10.4085586"><ele>568.0</ele><time>2026-03-31T14:17:15.999Z</time></trkpt><trkpt lat="44.1584014" lon="10.4085321"><ele>568.0</ele><time>2026-03-31T14:17:19Z</time></trkpt><trkpt lat="44.1583208" lon="10.4085037"><ele>568.0</ele><time>2026-03-31T14:17:22.103Z</time></trkpt><trkpt lat="44.158256" lon="10.4084831"><ele>568.0</ele><time>2026-03-31T14:17:24Z</time></trkpt><trkpt lat="44.1581911" lon="10.4084599"><ele>568.0</ele><time>2026-03-31T14:17:26Z</time></trkpt><trkpt lat="44.1580975" lon="10.4084293"><ele>568.0</ele><time>2026-03-31T14:17:29Z</time></trkpt><trkpt lat="44.1580283" lon="10.4084171"><ele>566.5</ele><time>2026-03-31T14:17:30.999Z</time></trkpt><trkpt lat="44.157958" lon="10.4084108"><ele>565.0</ele><time>2026-03-31T14:17:32.999Z</time></trkpt><trkpt lat="44.1578634" lon="10.4084309"><ele>563.5</ele><time>2026-03-31T14:17:36Z</time></trkpt><trkpt lat="44.1577763" lon="10.4084704"><ele>562.0</ele><time>2026-03-31T14:17:38.999Z</time></trkpt><trkpt lat="44.1577003" lon="10.4085367"><ele>560.5</ele><time>2026-03-31T14:17:42Z</time></trkpt><trkpt lat="44.1576338" lon="10.4086111"><ele>559.0</ele><time>2026-03-31T14:17:44.999Z</time></trkpt><trkpt lat="44.1575732" lon="10.4086982"><ele>562.6</ele><time>2026-03-31T14:17:48Z</time></trkpt><trkpt lat="44.1575154" lon="10.4088365"><ele>566.2</ele><time>2026-03-31T14:17:51.999Z</time></trkpt><trkpt lat="44.1574811" lon="10.4089405"><ele>569.8000000000001</ele><time>2026-03-31T14:17:55Z</time></trkpt><trkpt lat="44.1574585" lon="10.4090541"><ele>573.4</ele><time>2026-03-31T14:17:57.999Z</time></trkpt><trkpt lat="44.157434" lon="10.4091673"><ele>577.0</ele><time>2026-03-31T14:18:01Z</time></trkpt><trkpt lat="44.1574049" lon="10.4092816"><ele>577.0</ele><time>2026-03-31T14:18:03.999Z</time></trkpt><trkpt lat="44.1573819" lon="10.4094023"><ele>577.0</ele><time>2026-03-31T14:18:07Z</time></trkpt><trkpt lat="44.157356" lon="10.4095169"><ele>577.0</ele><time>2026-03-31T14:18:10Z</time></trkpt><trkpt lat="44.1573323" lon="10.4096312"><ele>577.0</ele><time>2026-03-31T14:18:12.999Z</time></trkpt><trkpt lat="44.1573004" lon="10.4097411"><ele>577.0</ele><time>2026-03-31T14:18:16Z</time></trkpt><trkpt lat="44.1572753" lon="10.4098533"><ele>577.0</ele><time>2026-03-31T14:18:19Z</time></trkpt><trkpt lat="44.1572458" lon="10.4099652"><ele>576.1666666666667</ele><time>2026-03-31T14:18:22Z</time></trkpt><trkpt lat="44.1572206" lon="10.4100822"><ele>575.3333333333334</ele><time>2026-03-31T14:18:25Z</time></trkpt><trkpt lat="44.1571886" lon="10.4101984"><ele>574.5</ele><time>2026-03-31T14:18:28Z</time></trkpt><trkpt lat="44.1571468" lon="10.4102941"><ele>573.6666666666666</ele><time>2026-03-31T14:18:31.104Z</time></trkpt><trkpt lat="44.157103" lon="10.4103849"><ele>572.8333333333333</ele><time>2026-03-31T14:18:33.999Z</time></trkpt><trkpt lat="44.1570452" lon="10.4104725"><ele>572.0</ele><time>2026-03-31T14:18:37Z</time></trkpt><trkpt lat="44.1569785" lon="10.4105271"><ele>572.3333333333333</ele><time>2026-03-31T14:18:40Z</time></trkpt><trkpt lat="44.1569057" lon="10.410564"><ele>572.6666666666666</ele><time>2026-03-31T14:18:42.999Z</time></trkpt><trkpt lat="44.1568284" lon="10.4105777"><ele>573.0</ele><time>2026-03-31T14:18:45.999Z</time></trkpt><trkpt lat="44.1567401" lon="10.4106222"><ele>573.3333333333334</ele><time>2026-03-31T14:18:49Z</time></trkpt><trkpt lat="44.1566542" lon="10.4106415"><ele>573.6666666666667</ele><time>2026-03-31T14:18:51Z</time></trkpt><trkpt lat="44.1565506" lon="10.4106861"><ele>574.0</ele><time>2026-03-31T14:18:53Z</time></trkpt><trkpt lat="44.1564376" lon="10.4107462"><ele>574.0</ele><time>2026-03-31T14:18:55.101Z</time></trkpt><trkpt lat="44.1563084" lon="10.4108144"><ele>574.0</ele><time>2026-03-31T14:18:56.999Z</time></trkpt><trkpt lat="44.1562378" lon="10.410847"><ele>574.0</ele><time>2026-03-31T14:18:58Z</time></trkpt><trkpt lat="44.1561654" lon="10.4108748"><ele>574.0</ele><time>2026-03-31T14:18:59Z</time></trkpt><trkpt lat="44.1560831" lon="10.4109024"><ele>574.0</ele><time>2026-03-31T14:19:00.102Z</time></trkpt><trkpt lat="44.1559044" lon="10.4109505"><ele>574.0</ele><time>2026-03-31T14:19:02Z</time></trkpt><trkpt lat="44.1558145" lon="10.4109719"><ele>574.0</ele><time>2026-03-31T14:19:02.999Z</time></trkpt><trkpt lat="44.1557149" lon="10.4109998"><ele>574.0</ele><time>2026-03-31T14:19:04Z</time></trkpt><trkpt lat="44.1556161" lon="10.4110234"><ele>574.0</ele><time>2026-03-31T14:19:04.999Z</time></trkpt><trkpt lat="44.1555168" lon="10.4110508"><ele>574.0</ele><time>2026-03-31T14:19:06Z</time></trkpt><trkpt lat="44.1554131" lon="10.4110764"><ele>572.6</ele><time>2026-03-31T14:19:07Z</time></trkpt><trkpt lat="44.1553133" lon="10.4110921"><ele>571.2</ele><time>2026-03-31T14:19:08Z</time></trkpt><trkpt lat="44.1552075" lon="10.4111011"><ele>569.8000000000001</ele><time>2026-03-31T14:19:09Z</time></trkpt><trkpt lat="44.1550911" lon="10.4111083"><ele>568.4</ele><time>2026-03-31T14:19:10Z</time></trkpt><trkpt lat="44.1549789" lon="10.4111217"><ele>567.0</ele><time>2026-03-31T14:19:11Z</time></trkpt><trkpt lat="44.154868" lon="10.4111235"><ele>565.75</ele><time>2026-03-31T14:19:12Z</time></trkpt><trkpt lat="44.1547553" lon="10.4111353"><ele>564.5</ele><time>2026-03-31T14:19:13Z</time></trkpt><trkpt lat="44.1546399" lon="10.411139"><ele>563.25</ele><time>2026-03-31T14:19:13.999Z</time></trkpt><trkpt lat="44.1545246" lon="10.4111491"><ele>562.0</ele><time>2026-03-31T14:19:15Z</time></trkpt><trkpt lat="44.1544095" lon="10.4111582"><ele>562.0</ele><time>2026-03-31T14:19:16Z</time></trkpt><trkpt lat="44.1542949" lon="10.4111776"><ele>562.0</ele><time>2026-03-31T14:19:17Z</time></trkpt><trkpt lat="44.1541784" lon="10.4112082"><ele>562.0</ele><time>2026-03-31T14:19:18Z</time></trkpt><trkpt lat="44.154055" lon="10.4112399"><ele>562.0</ele><time>2026-03-31T14:19:18.999Z</time></trkpt><trkpt lat="44.1539332" lon="10.4112663"><ele>557.6666666666667</ele><time>2026-03-31T14:19:20Z</time></trkpt><trkpt lat="44.1538036" lon="10.4112923"><ele>553.3333333333334</ele><time>2026-03-31T14:19:21.105Z</time></trkpt><trkpt lat="44.1535783" lon="10.4113081"><ele>549.0</ele><time>2026-03-31T14:19:23Z</time></trkpt><trkpt lat="44.1534828" lon="10.4112831"><ele>549.0</ele><time>2026-03-31T14:19:24Z</time></trkpt><trkpt lat="44.1533841" lon="10.4112524"><ele>549.0</ele><time>2026-03-31T14:19:25Z</time></trkpt><trkpt lat="44.153281" lon="10.4112142"><ele>549.0</ele><time>2026-03-31T14:19:26Z</time></trkpt><trkpt lat="44.1531756" lon="10.4111756"><ele>549.0</ele><time>2026-03-31T14:19:27Z</time></trkpt><trkpt lat="44.1530736" lon="10.4111228"><ele>549.0</ele><time>2026-03-31T14:19:28.103Z</time></trkpt><trkpt lat="44.152857" lon="10.4110275"><ele>547.0</ele><time>2026-03-31T14:19:30Z</time></trkpt><trkpt lat="44.1527567" lon="10.4110269"><ele>545.0</ele><time>2026-03-31T14:19:30.999Z</time></trkpt><trkpt lat="44.1526521" lon="10.4110624"><ele>543.0</ele><time>2026-03-31T14:19:31.999Z</time></trkpt><trkpt lat="44.1525514" lon="10.4111125"><ele>541.0</ele><time>2026-03-31T14:19:33.101Z</time></trkpt><trkpt lat="44.1523496" lon="10.4112418"><ele>540.75</ele><time>2026-03-31T14:19:35Z</time></trkpt><trkpt lat="44.1522501" lon="10.4113117"><ele>540.5</ele><time>2026-03-31T14:19:36Z</time></trkpt><trkpt lat="44.1521452" lon="10.4113859"><ele>540.25</ele><time>2026-03-31T14:19:36.999Z</time></trkpt><trkpt lat="44.1520332" lon="10.4114587"><ele>540.0</ele><time>2026-03-31T14:19:38Z</time></trkpt><trkpt lat="44.151922" lon="10.4115355"><ele>540.0</ele><time>2026-03-31T14:19:39Z</time></trkpt><trkpt lat="44.1518207" lon="10.4115975"><ele>540.0</ele><time>2026-03-31T14:19:39.999Z</time></trkpt><trkpt lat="44.1517196" lon="10.4116409"><ele>540.0</ele><time>2026-03-31T14:19:41Z</time></trkpt><trkpt lat="44.151628" lon="10.4116592"><ele>540.0</ele><time>2026-03-31T14:19:41.999Z</time></trkpt><trkpt lat="44.1515431" lon="10.411673"><ele>540.0</ele><time>2026-03-31T14:19:43Z</time></trkpt><trkpt lat="44.1514631" lon="10.4116833"><ele>538.2</ele><time>2026-03-31T14:19:43.999Z</time></trkpt><trkpt lat="44.1513841" lon="10.4116962"><ele>536.4</ele><time>2026-03-31T14:19:45Z</time></trkpt><trkpt lat="44.1513178" lon="10.4117033"><ele>534.6</ele><time>2026-03-31T14:19:45.999Z</time></trkpt><trkpt lat="44.1511973" lon="10.411721"><ele>532.8</ele><time>2026-03-31T14:19:48Z</time></trkpt><trkpt lat="44.1510986" lon="10.4117403"><ele>531.0</ele><time>2026-03-31T14:19:50Z</time></trkpt><trkpt lat="44.1509906" lon="10.4117684"><ele>531.0</ele><time>2026-03-31T14:19:53Z</time></trkpt><trkpt lat="44.1509363" lon="10.4118373"><ele>531.0</ele><time>2026-03-31T14:19:56Z</time></trkpt><trkpt lat="44.1509854" lon="10.4118941"><ele>531.0</ele><time>2026-03-31T14:20:00Z</time></trkpt><trkpt lat="44.1510543" lon="10.4119411"><ele>531.0</ele><time>2026-03-31T14:20:03.999Z</time></trkpt><trkpt lat="44.1511007" lon="10.4120175"><ele>531.0</ele><time>2026-03-31T14:20:08Z</time></trkpt><trkpt lat="44.1510693" lon="10.4121166"><ele>531.0</ele><time>2026-03-31T14:20:12.999Z</time></trkpt><trkpt lat="44.1510099" lon="10.4121609"><ele>531.0</ele><time>2026-03-31T14:20:16.999Z</time></trkpt><trkpt lat="44.1509397" lon="10.412143"><ele>531.0</ele><time>2026-03-31T14:20:20.113Z</time></trkpt><trkpt lat="44.1508732" lon="10.4121677"><ele>546.0</ele><time>2026-03-31T14:20:24.103Z</time></trkpt><trkpt lat="44.1508618" lon="10.4122598"><ele>546.0</ele><time>2026-03-31T14:20:29Z</time></trkpt><trkpt lat="44.1508651" lon="10.4123479"><ele>546.0</ele><time>2026-03-31T14:20:32.999Z</time></trkpt><trkpt lat="44.1508527" lon="10.4124406"><ele>546.0</ele><time>2026-03-31T14:20:36Z</time></trkpt><trkpt lat="44.150845" lon="10.4125406"><ele>546.0</ele><time>2026-03-31T14:20:39Z</time></trkpt></trkseg></trk></gpx>